<?xml version="1.0" encoding="UTF-8" standalone="no" ?>
<gpx xmlns="http://www.topografix.com/GPX/1/1" xmlns:xsi="http://www.w3.org/2001/XMLSchema-instance" xsi:schemaLocation="http://www.topografix.com/GPX/1/1 http://www.topografix.com/GPX/1/1/gpx.xsd" version="1.1" creator="VisuGPX - https://www.visugpx.com">
  <metadata>
    <name>2021-08-02 Les Saisies [Garmin]</name>
    <desc><![CDATA[Combinaison de circuits aux Saisies.]]></desc>
  </metadata>
  <trk>
    <name><![CDATA[2021-08-02 Les Saisies [Garmin]_1]]></name>
    <trkseg>
      <trkpt lat="45.75633" lon="6.54041">
        <ele>1624.6</ele>
        <time>2021-08-02T14:17:01Z</time>
      </trkpt>
      <trkpt lat="45.75638" lon="6.54017">
        <ele>1624.4</ele>
        <time>2021-08-02T14:17:07Z</time>
      </trkpt>
      <trkpt lat="45.75638" lon="6.54012">
        <ele>1624.4</ele>
        <time>2021-08-02T14:17:08Z</time>
      </trkpt>
      <trkpt lat="45.75634" lon="6.54005">
        <ele>1624.2</ele>
        <time>2021-08-02T14:17:10Z</time>
      </trkpt>
      <trkpt lat="45.75623" lon="6.53991">
        <ele>1623.8</ele>
        <time>2021-08-02T14:17:14Z</time>
      </trkpt>
      <trkpt lat="45.75617" lon="6.53995">
        <ele>1623.2</ele>
        <time>2021-08-02T14:17:16Z</time>
      </trkpt>
      <trkpt lat="45.75612" lon="6.53999">
        <ele>1623</ele>
        <time>2021-08-02T14:17:17Z</time>
      </trkpt>
      <trkpt lat="45.75606" lon="6.54021">
        <ele>1622.6</ele>
        <time>2021-08-02T14:17:20Z</time>
      </trkpt>
      <trkpt lat="45.75605" lon="6.54029">
        <ele>1622.4</ele>
        <time>2021-08-02T14:17:21Z</time>
      </trkpt>
      <trkpt lat="45.75601" lon="6.54053">
        <ele>1622.2</ele>
        <time>2021-08-02T14:17:24Z</time>
      </trkpt>
      <trkpt lat="45.756" lon="6.54066">
        <ele>1621.8</ele>
        <time>2021-08-02T14:17:26Z</time>
      </trkpt>
      <trkpt lat="45.756" lon="6.54076">
        <ele>1621.4</ele>
        <time>2021-08-02T14:17:29Z</time>
      </trkpt>
      <trkpt lat="45.756" lon="6.54077">
        <ele>1621</ele>
        <time>2021-08-02T14:17:30Z</time>
      </trkpt>
      <trkpt lat="45.756" lon="6.54077">
        <ele>1620.4</ele>
        <time>2021-08-02T14:17:31Z</time>
      </trkpt>
      <trkpt lat="45.75599" lon="6.54075">
        <ele>1618.8</ele>
        <time>2021-08-02T14:18:10Z</time>
      </trkpt>
      <trkpt lat="45.75599" lon="6.54071">
        <ele>1618.8</ele>
        <time>2021-08-02T14:18:12Z</time>
      </trkpt>
      <trkpt lat="45.75599" lon="6.54067">
        <ele>1618.8</ele>
        <time>2021-08-02T14:18:14Z</time>
      </trkpt>
      <trkpt lat="45.75599" lon="6.54053">
        <ele>1618.6</ele>
        <time>2021-08-02T14:18:19Z</time>
      </trkpt>
      <trkpt lat="45.75604" lon="6.54028">
        <ele>1618.4</ele>
        <time>2021-08-02T14:18:25Z</time>
      </trkpt>
      <trkpt lat="45.75607" lon="6.53997">
        <ele>1618.6</ele>
        <time>2021-08-02T14:18:32Z</time>
      </trkpt>
      <trkpt lat="45.75597" lon="6.5399">
        <ele>1619.2</ele>
        <time>2021-08-02T14:18:36Z</time>
      </trkpt>
      <trkpt lat="45.75587" lon="6.53987">
        <ele>1619.4</ele>
        <time>2021-08-02T14:18:41Z</time>
      </trkpt>
      <trkpt lat="45.75573" lon="6.53985">
        <ele>1619.4</ele>
        <time>2021-08-02T14:18:45Z</time>
      </trkpt>
      <trkpt lat="45.7556" lon="6.53984">
        <ele>1619</ele>
        <time>2021-08-02T14:18:48Z</time>
      </trkpt>
      <trkpt lat="45.75555" lon="6.53987">
        <ele>1618.8</ele>
        <time>2021-08-02T14:18:49Z</time>
      </trkpt>
      <trkpt lat="45.75541" lon="6.53994">
        <ele>1618.2</ele>
        <time>2021-08-02T14:18:53Z</time>
      </trkpt>
      <trkpt lat="45.75536" lon="6.53995">
        <ele>1617.4</ele>
        <time>2021-08-02T14:18:55Z</time>
      </trkpt>
      <trkpt lat="45.75529" lon="6.53998">
        <ele>1616.2</ele>
        <time>2021-08-02T14:18:57Z</time>
      </trkpt>
      <trkpt lat="45.75519" lon="6.54002">
        <ele>1614.8</ele>
        <time>2021-08-02T14:19:00Z</time>
      </trkpt>
      <trkpt lat="45.75508" lon="6.54008">
        <ele>1613.8</ele>
        <time>2021-08-02T14:19:03Z</time>
      </trkpt>
      <trkpt lat="45.75498" lon="6.54014">
        <ele>1612.6</ele>
        <time>2021-08-02T14:19:06Z</time>
      </trkpt>
      <trkpt lat="45.75493" lon="6.54016">
        <ele>1612.2</ele>
        <time>2021-08-02T14:19:07Z</time>
      </trkpt>
      <trkpt lat="45.75475" lon="6.54016">
        <ele>1611.4</ele>
        <time>2021-08-02T14:19:10Z</time>
      </trkpt>
      <trkpt lat="45.75469" lon="6.54017">
        <ele>1611.2</ele>
        <time>2021-08-02T14:19:11Z</time>
      </trkpt>
      <trkpt lat="45.75442" lon="6.54025">
        <ele>1610.6</ele>
        <time>2021-08-02T14:19:15Z</time>
      </trkpt>
      <trkpt lat="45.75436" lon="6.54025">
        <ele>1610</ele>
        <time>2021-08-02T14:19:16Z</time>
      </trkpt>
      <trkpt lat="45.75423" lon="6.54025">
        <ele>1607.6</ele>
        <time>2021-08-02T14:19:18Z</time>
      </trkpt>
      <trkpt lat="45.75413" lon="6.54026">
        <ele>1606</ele>
        <time>2021-08-02T14:19:20Z</time>
      </trkpt>
      <trkpt lat="45.75409" lon="6.54027">
        <ele>1604.8</ele>
        <time>2021-08-02T14:19:21Z</time>
      </trkpt>
      <trkpt lat="45.75403" lon="6.54029">
        <ele>1603.2</ele>
        <time>2021-08-02T14:19:23Z</time>
      </trkpt>
      <trkpt lat="45.75401" lon="6.54029">
        <ele>1602.6</ele>
        <time>2021-08-02T14:19:24Z</time>
      </trkpt>
      <trkpt lat="45.754" lon="6.5403">
        <ele>1602.2</ele>
        <time>2021-08-02T14:19:25Z</time>
      </trkpt>
      <trkpt lat="45.75398" lon="6.5403">
        <ele>1601.8</ele>
        <time>2021-08-02T14:19:26Z</time>
      </trkpt>
      <trkpt lat="45.75397" lon="6.54029">
        <ele>1601.6</ele>
        <time>2021-08-02T14:19:27Z</time>
      </trkpt>
      <trkpt lat="45.75397" lon="6.54025">
        <ele>1601.2</ele>
        <time>2021-08-02T14:19:29Z</time>
      </trkpt>
      <trkpt lat="45.75397" lon="6.54022">
        <ele>1600.8</ele>
        <time>2021-08-02T14:19:30Z</time>
      </trkpt>
      <trkpt lat="45.75399" lon="6.54012">
        <ele>1599.4</ele>
        <time>2021-08-02T14:19:33Z</time>
      </trkpt>
      <trkpt lat="45.754" lon="6.54008">
        <ele>1599.2</ele>
        <time>2021-08-02T14:19:34Z</time>
      </trkpt>
      <trkpt lat="45.75404" lon="6.53991">
        <ele>1598.4</ele>
        <time>2021-08-02T14:19:38Z</time>
      </trkpt>
      <trkpt lat="45.75407" lon="6.53984">
        <ele>1598.4</ele>
        <time>2021-08-02T14:19:40Z</time>
      </trkpt>
      <trkpt lat="45.75417" lon="6.53962">
        <ele>1598.4</ele>
        <time>2021-08-02T14:19:46Z</time>
      </trkpt>
      <trkpt lat="45.75433" lon="6.53938">
        <ele>1599.8</ele>
        <time>2021-08-02T14:19:54Z</time>
      </trkpt>
      <trkpt lat="45.7544" lon="6.53924">
        <ele>1601</ele>
        <time>2021-08-02T14:19:58Z</time>
      </trkpt>
      <trkpt lat="45.75445" lon="6.53913">
        <ele>1602</ele>
        <time>2021-08-02T14:20:01Z</time>
      </trkpt>
      <trkpt lat="45.75457" lon="6.53891">
        <ele>1603</ele>
        <time>2021-08-02T14:20:08Z</time>
      </trkpt>
      <trkpt lat="45.75459" lon="6.53889">
        <ele>1603.2</ele>
        <time>2021-08-02T14:20:09Z</time>
      </trkpt>
      <trkpt lat="45.75461" lon="6.53887">
        <ele>1603.2</ele>
        <time>2021-08-02T14:20:10Z</time>
      </trkpt>
      <trkpt lat="45.7547" lon="6.53874">
        <ele>1603.8</ele>
        <time>2021-08-02T14:20:15Z</time>
      </trkpt>
      <trkpt lat="45.75474" lon="6.53866">
        <ele>1604.2</ele>
        <time>2021-08-02T14:20:18Z</time>
      </trkpt>
      <trkpt lat="45.75478" lon="6.53859">
        <ele>1604.4</ele>
        <time>2021-08-02T14:20:21Z</time>
      </trkpt>
      <trkpt lat="45.75482" lon="6.53854">
        <ele>1605</ele>
        <time>2021-08-02T14:20:24Z</time>
      </trkpt>
      <trkpt lat="45.75483" lon="6.53853">
        <ele>1605.2</ele>
        <time>2021-08-02T14:20:25Z</time>
      </trkpt>
      <trkpt lat="45.75485" lon="6.53852">
        <ele>1605.4</ele>
        <time>2021-08-02T14:20:26Z</time>
      </trkpt>
      <trkpt lat="45.7549" lon="6.53845">
        <ele>1606</ele>
        <time>2021-08-02T14:20:30Z</time>
      </trkpt>
      <trkpt lat="45.75491" lon="6.53843">
        <ele>1606.2</ele>
        <time>2021-08-02T14:20:31Z</time>
      </trkpt>
      <trkpt lat="45.75492" lon="6.53842">
        <ele>1606.4</ele>
        <time>2021-08-02T14:20:32Z</time>
      </trkpt>
      <trkpt lat="45.755" lon="6.53831">
        <ele>1607</ele>
        <time>2021-08-02T14:20:39Z</time>
      </trkpt>
      <trkpt lat="45.75504" lon="6.53827">
        <ele>1607.4</ele>
        <time>2021-08-02T14:20:42Z</time>
      </trkpt>
      <trkpt lat="45.75509" lon="6.53824">
        <ele>1608</ele>
        <time>2021-08-02T14:20:45Z</time>
      </trkpt>
      <trkpt lat="45.75519" lon="6.53824">
        <ele>1608.4</ele>
        <time>2021-08-02T14:20:51Z</time>
      </trkpt>
      <trkpt lat="45.75521" lon="6.53825">
        <ele>1608.4</ele>
        <time>2021-08-02T14:20:52Z</time>
      </trkpt>
      <trkpt lat="45.75532" lon="6.53832">
        <ele>1609.4</ele>
        <time>2021-08-02T14:21:00Z</time>
      </trkpt>
      <trkpt lat="45.75542" lon="6.53839">
        <ele>1610.6</ele>
        <time>2021-08-02T14:21:07Z</time>
      </trkpt>
      <trkpt lat="45.75543" lon="6.5384">
        <ele>1611</ele>
        <time>2021-08-02T14:21:08Z</time>
      </trkpt>
      <trkpt lat="45.75552" lon="6.53845">
        <ele>1611.8</ele>
        <time>2021-08-02T14:21:14Z</time>
      </trkpt>
      <trkpt lat="45.75554" lon="6.53845">
        <ele>1612</ele>
        <time>2021-08-02T14:21:16Z</time>
      </trkpt>
      <trkpt lat="45.75561" lon="6.53842">
        <ele>1612.6</ele>
        <time>2021-08-02T14:21:22Z</time>
      </trkpt>
      <trkpt lat="45.75565" lon="6.53839">
        <ele>1612.8</ele>
        <time>2021-08-02T14:21:26Z</time>
      </trkpt>
      <trkpt lat="45.75568" lon="6.53836">
        <ele>1613</ele>
        <time>2021-08-02T14:21:29Z</time>
      </trkpt>
      <trkpt lat="45.75575" lon="6.53827">
        <ele>1613.6</ele>
        <time>2021-08-02T14:21:36Z</time>
      </trkpt>
      <trkpt lat="45.75575" lon="6.53822">
        <ele>1614</ele>
        <time>2021-08-02T14:21:38Z</time>
      </trkpt>
      <trkpt lat="45.75575" lon="6.53814">
        <ele>1614.8</ele>
        <time>2021-08-02T14:21:41Z</time>
      </trkpt>
      <trkpt lat="45.75575" lon="6.53808">
        <ele>1615.2</ele>
        <time>2021-08-02T14:21:43Z</time>
      </trkpt>
      <trkpt lat="45.75576" lon="6.53793">
        <ele>1615.6</ele>
        <time>2021-08-02T14:21:48Z</time>
      </trkpt>
      <trkpt lat="45.75579" lon="6.53771">
        <ele>1615.6</ele>
        <time>2021-08-02T14:21:56Z</time>
      </trkpt>
      <trkpt lat="45.7558" lon="6.53748">
        <ele>1615.4</ele>
        <time>2021-08-02T14:22:03Z</time>
      </trkpt>
      <trkpt lat="45.75579" lon="6.53719">
        <ele>1615.2</ele>
        <time>2021-08-02T14:22:09Z</time>
      </trkpt>
      <trkpt lat="45.7558" lon="6.53692">
        <ele>1615</ele>
        <time>2021-08-02T14:22:15Z</time>
      </trkpt>
      <trkpt lat="45.75584" lon="6.53676">
        <ele>1615</ele>
        <time>2021-08-02T14:22:20Z</time>
      </trkpt>
      <trkpt lat="45.75592" lon="6.53656">
        <ele>1615.6</ele>
        <time>2021-08-02T14:22:28Z</time>
      </trkpt>
      <trkpt lat="45.75595" lon="6.5365">
        <ele>1616.4</ele>
        <time>2021-08-02T14:22:31Z</time>
      </trkpt>
      <trkpt lat="45.75595" lon="6.53648">
        <ele>1616.6</ele>
        <time>2021-08-02T14:22:32Z</time>
      </trkpt>
      <trkpt lat="45.75599" lon="6.53644">
        <ele>1617.4</ele>
        <time>2021-08-02T14:22:34Z</time>
      </trkpt>
      <trkpt lat="45.75601" lon="6.53643">
        <ele>1618.2</ele>
        <time>2021-08-02T14:22:37Z</time>
      </trkpt>
      <trkpt lat="45.75602" lon="6.53643">
        <ele>1618.6</ele>
        <time>2021-08-02T14:22:39Z</time>
      </trkpt>
      <trkpt lat="45.75605" lon="6.5364">
        <ele>1619.6</ele>
        <time>2021-08-02T14:22:44Z</time>
      </trkpt>
      <trkpt lat="45.75606" lon="6.53639">
        <ele>1620.6</ele>
        <time>2021-08-02T14:22:47Z</time>
      </trkpt>
      <trkpt lat="45.75606" lon="6.53637">
        <ele>1621.2</ele>
        <time>2021-08-02T14:22:50Z</time>
      </trkpt>
      <trkpt lat="45.75606" lon="6.53636">
        <ele>1621.4</ele>
        <time>2021-08-02T14:22:52Z</time>
      </trkpt>
      <trkpt lat="45.75604" lon="6.53633">
        <ele>1621.8</ele>
        <time>2021-08-02T14:22:54Z</time>
      </trkpt>
      <trkpt lat="45.75602" lon="6.5363">
        <ele>1621.8</ele>
        <time>2021-08-02T14:22:55Z</time>
      </trkpt>
      <trkpt lat="45.75593" lon="6.53615">
        <ele>1621.8</ele>
        <time>2021-08-02T14:22:59Z</time>
      </trkpt>
      <trkpt lat="45.75587" lon="6.53605">
        <ele>1621.8</ele>
        <time>2021-08-02T14:23:01Z</time>
      </trkpt>
      <trkpt lat="45.75574" lon="6.53589">
        <ele>1621.8</ele>
        <time>2021-08-02T14:23:04Z</time>
      </trkpt>
      <trkpt lat="45.7556" lon="6.53568">
        <ele>1620.8</ele>
        <time>2021-08-02T14:23:08Z</time>
      </trkpt>
      <trkpt lat="45.75554" lon="6.53558">
        <ele>1620.6</ele>
        <time>2021-08-02T14:23:10Z</time>
      </trkpt>
      <trkpt lat="45.75549" lon="6.53549">
        <ele>1619.6</ele>
        <time>2021-08-02T14:23:12Z</time>
      </trkpt>
      <trkpt lat="45.75534" lon="6.53522">
        <ele>1618.4</ele>
        <time>2021-08-02T14:23:18Z</time>
      </trkpt>
      <trkpt lat="45.75521" lon="6.53497">
        <ele>1618.4</ele>
        <time>2021-08-02T14:23:24Z</time>
      </trkpt>
      <trkpt lat="45.75516" lon="6.53489">
        <ele>1618.6</ele>
        <time>2021-08-02T14:23:27Z</time>
      </trkpt>
      <trkpt lat="45.75514" lon="6.53489">
        <ele>1618.6</ele>
        <time>2021-08-02T14:23:28Z</time>
      </trkpt>
      <trkpt lat="45.75492" lon="6.53488">
        <ele>1618.8</ele>
        <time>2021-08-02T14:23:34Z</time>
      </trkpt>
      <trkpt lat="45.75488" lon="6.53486">
        <ele>1618.8</ele>
        <time>2021-08-02T14:23:35Z</time>
      </trkpt>
      <trkpt lat="45.75472" lon="6.53473">
        <ele>1618.8</ele>
        <time>2021-08-02T14:23:39Z</time>
      </trkpt>
      <trkpt lat="45.75467" lon="6.53454">
        <ele>1618.6</ele>
        <time>2021-08-02T14:23:42Z</time>
      </trkpt>
      <trkpt lat="45.75465" lon="6.53441">
        <ele>1617.4</ele>
        <time>2021-08-02T14:23:44Z</time>
      </trkpt>
      <trkpt lat="45.75464" lon="6.53428">
        <ele>1615.8</ele>
        <time>2021-08-02T14:23:46Z</time>
      </trkpt>
      <trkpt lat="45.75463" lon="6.53415">
        <ele>1614.8</ele>
        <time>2021-08-02T14:23:48Z</time>
      </trkpt>
      <trkpt lat="45.75462" lon="6.53402">
        <ele>1613.8</ele>
        <time>2021-08-02T14:23:50Z</time>
      </trkpt>
      <trkpt lat="45.75462" lon="6.53396">
        <ele>1613.4</ele>
        <time>2021-08-02T14:23:51Z</time>
      </trkpt>
      <trkpt lat="45.75465" lon="6.53354">
        <ele>1613</ele>
        <time>2021-08-02T14:23:59Z</time>
      </trkpt>
      <trkpt lat="45.75468" lon="6.53339">
        <ele>1613</ele>
        <time>2021-08-02T14:24:02Z</time>
      </trkpt>
      <trkpt lat="45.75471" lon="6.53326">
        <ele>1613.2</ele>
        <time>2021-08-02T14:24:05Z</time>
      </trkpt>
      <trkpt lat="45.75482" lon="6.53312">
        <ele>1614</ele>
        <time>2021-08-02T14:24:10Z</time>
      </trkpt>
      <trkpt lat="45.75485" lon="6.53294">
        <ele>1614.4</ele>
        <time>2021-08-02T14:24:14Z</time>
      </trkpt>
      <trkpt lat="45.75485" lon="6.53285">
        <ele>1614.8</ele>
        <time>2021-08-02T14:24:16Z</time>
      </trkpt>
      <trkpt lat="45.75488" lon="6.53263">
        <ele>1615.2</ele>
        <time>2021-08-02T14:24:21Z</time>
      </trkpt>
      <trkpt lat="45.75485" lon="6.53235">
        <ele>1615.2</ele>
        <time>2021-08-02T14:24:27Z</time>
      </trkpt>
      <trkpt lat="45.75492" lon="6.53214">
        <ele>1615.6</ele>
        <time>2021-08-02T14:24:32Z</time>
      </trkpt>
      <trkpt lat="45.75502" lon="6.53198">
        <ele>1615.8</ele>
        <time>2021-08-02T14:24:36Z</time>
      </trkpt>
      <trkpt lat="45.7551" lon="6.53186">
        <ele>1616.2</ele>
        <time>2021-08-02T14:24:39Z</time>
      </trkpt>
      <trkpt lat="45.75529" lon="6.53172">
        <ele>1616.6</ele>
        <time>2021-08-02T14:24:45Z</time>
      </trkpt>
      <trkpt lat="45.75547" lon="6.53155">
        <ele>1617</ele>
        <time>2021-08-02T14:24:51Z</time>
      </trkpt>
      <trkpt lat="45.75556" lon="6.53146">
        <ele>1617.2</ele>
        <time>2021-08-02T14:24:54Z</time>
      </trkpt>
      <trkpt lat="45.7558" lon="6.53116">
        <ele>1618.2</ele>
        <time>2021-08-02T14:25:03Z</time>
      </trkpt>
      <trkpt lat="45.75587" lon="6.53098">
        <ele>1618.6</ele>
        <time>2021-08-02T14:25:07Z</time>
      </trkpt>
      <trkpt lat="45.75591" lon="6.5309">
        <ele>1618.8</ele>
        <time>2021-08-02T14:25:09Z</time>
      </trkpt>
      <trkpt lat="45.75611" lon="6.53071">
        <ele>1619.2</ele>
        <time>2021-08-02T14:25:16Z</time>
      </trkpt>
      <trkpt lat="45.75626" lon="6.53071">
        <ele>1620</ele>
        <time>2021-08-02T14:25:21Z</time>
      </trkpt>
      <trkpt lat="45.75633" lon="6.53074">
        <ele>1620.4</ele>
        <time>2021-08-02T14:25:24Z</time>
      </trkpt>
      <trkpt lat="45.75637" lon="6.53079">
        <ele>1620.8</ele>
        <time>2021-08-02T14:25:26Z</time>
      </trkpt>
      <trkpt lat="45.75643" lon="6.53087">
        <ele>1621.4</ele>
        <time>2021-08-02T14:25:29Z</time>
      </trkpt>
      <trkpt lat="45.75653" lon="6.53101">
        <ele>1622.6</ele>
        <time>2021-08-02T14:25:34Z</time>
      </trkpt>
      <trkpt lat="45.75654" lon="6.53105">
        <ele>1622.6</ele>
        <time>2021-08-02T14:25:35Z</time>
      </trkpt>
      <trkpt lat="45.75658" lon="6.53117">
        <ele>1623.6</ele>
        <time>2021-08-02T14:25:39Z</time>
      </trkpt>
      <trkpt lat="45.75663" lon="6.53128">
        <ele>1624.6</ele>
        <time>2021-08-02T14:25:43Z</time>
      </trkpt>
      <trkpt lat="45.75664" lon="6.53131">
        <ele>1625</ele>
        <time>2021-08-02T14:25:44Z</time>
      </trkpt>
      <trkpt lat="45.75666" lon="6.5314">
        <ele>1625.8</ele>
        <time>2021-08-02T14:25:47Z</time>
      </trkpt>
      <trkpt lat="45.75668" lon="6.53145">
        <ele>1626.4</ele>
        <time>2021-08-02T14:25:49Z</time>
      </trkpt>
      <trkpt lat="45.75671" lon="6.53149">
        <ele>1626.8</ele>
        <time>2021-08-02T14:25:51Z</time>
      </trkpt>
      <trkpt lat="45.75676" lon="6.53149">
        <ele>1627.8</ele>
        <time>2021-08-02T14:25:54Z</time>
      </trkpt>
      <trkpt lat="45.75678" lon="6.53148">
        <ele>1628</ele>
        <time>2021-08-02T14:25:55Z</time>
      </trkpt>
      <trkpt lat="45.75679" lon="6.53141">
        <ele>1628.2</ele>
        <time>2021-08-02T14:25:59Z</time>
      </trkpt>
      <trkpt lat="45.75679" lon="6.53134">
        <ele>1628.4</ele>
        <time>2021-08-02T14:26:02Z</time>
      </trkpt>
      <trkpt lat="45.75682" lon="6.5313">
        <ele>1628.6</ele>
        <time>2021-08-02T14:26:04Z</time>
      </trkpt>
      <trkpt lat="45.75685" lon="6.5312">
        <ele>1629</ele>
        <time>2021-08-02T14:26:08Z</time>
      </trkpt>
      <trkpt lat="45.75686" lon="6.53118">
        <ele>1629</ele>
        <time>2021-08-02T14:26:09Z</time>
      </trkpt>
      <trkpt lat="45.75687" lon="6.53116">
        <ele>1629</ele>
        <time>2021-08-02T14:26:10Z</time>
      </trkpt>
      <trkpt lat="45.75694" lon="6.531">
        <ele>1629.8</ele>
        <time>2021-08-02T14:26:17Z</time>
      </trkpt>
      <trkpt lat="45.75696" lon="6.53098">
        <ele>1630</ele>
        <time>2021-08-02T14:26:18Z</time>
      </trkpt>
      <trkpt lat="45.75706" lon="6.53091">
        <ele>1631</ele>
        <time>2021-08-02T14:26:24Z</time>
      </trkpt>
      <trkpt lat="45.75707" lon="6.53091">
        <ele>1631.2</ele>
        <time>2021-08-02T14:26:25Z</time>
      </trkpt>
      <trkpt lat="45.75714" lon="6.53094">
        <ele>1632</ele>
        <time>2021-08-02T14:26:29Z</time>
      </trkpt>
      <trkpt lat="45.75717" lon="6.53097">
        <ele>1632.8</ele>
        <time>2021-08-02T14:26:31Z</time>
      </trkpt>
      <trkpt lat="45.75718" lon="6.53099">
        <ele>1633</ele>
        <time>2021-08-02T14:26:32Z</time>
      </trkpt>
      <trkpt lat="45.7572" lon="6.53104">
        <ele>1633.6</ele>
        <time>2021-08-02T14:26:34Z</time>
      </trkpt>
      <trkpt lat="45.7572" lon="6.53109">
        <ele>1634.2</ele>
        <time>2021-08-02T14:26:36Z</time>
      </trkpt>
      <trkpt lat="45.7572" lon="6.53111">
        <ele>1634.4</ele>
        <time>2021-08-02T14:26:37Z</time>
      </trkpt>
      <trkpt lat="45.75718" lon="6.53119">
        <ele>1635.2</ele>
        <time>2021-08-02T14:26:40Z</time>
      </trkpt>
      <trkpt lat="45.75713" lon="6.53135">
        <ele>1636.4</ele>
        <time>2021-08-02T14:26:46Z</time>
      </trkpt>
      <trkpt lat="45.75714" lon="6.53155">
        <ele>1637.4</ele>
        <time>2021-08-02T14:26:53Z</time>
      </trkpt>
      <trkpt lat="45.75715" lon="6.5316">
        <ele>1637.6</ele>
        <time>2021-08-02T14:26:55Z</time>
      </trkpt>
      <trkpt lat="45.75721" lon="6.53174">
        <ele>1638.4</ele>
        <time>2021-08-02T14:27:01Z</time>
      </trkpt>
      <trkpt lat="45.75729" lon="6.53187">
        <ele>1639.4</ele>
        <time>2021-08-02T14:27:08Z</time>
      </trkpt>
      <trkpt lat="45.75734" lon="6.53195">
        <ele>1640.6</ele>
        <time>2021-08-02T14:27:13Z</time>
      </trkpt>
      <trkpt lat="45.75735" lon="6.53197">
        <ele>1640.8</ele>
        <time>2021-08-02T14:27:14Z</time>
      </trkpt>
      <trkpt lat="45.75738" lon="6.53202">
        <ele>1641.4</ele>
        <time>2021-08-02T14:27:17Z</time>
      </trkpt>
      <trkpt lat="45.7574" lon="6.53205">
        <ele>1642</ele>
        <time>2021-08-02T14:27:19Z</time>
      </trkpt>
      <trkpt lat="45.75747" lon="6.53208">
        <ele>1643.2</ele>
        <time>2021-08-02T14:27:24Z</time>
      </trkpt>
      <trkpt lat="45.75754" lon="6.53198">
        <ele>1644.4</ele>
        <time>2021-08-02T14:27:30Z</time>
      </trkpt>
      <trkpt lat="45.75755" lon="6.53196">
        <ele>1644.4</ele>
        <time>2021-08-02T14:27:31Z</time>
      </trkpt>
      <trkpt lat="45.75761" lon="6.53182">
        <ele>1644.8</ele>
        <time>2021-08-02T14:27:38Z</time>
      </trkpt>
      <trkpt lat="45.75764" lon="6.53176">
        <ele>1645.4</ele>
        <time>2021-08-02T14:27:41Z</time>
      </trkpt>
      <trkpt lat="45.75769" lon="6.53166">
        <ele>1646.2</ele>
        <time>2021-08-02T14:27:45Z</time>
      </trkpt>
      <trkpt lat="45.75771" lon="6.53162">
        <ele>1646.4</ele>
        <time>2021-08-02T14:27:47Z</time>
      </trkpt>
      <trkpt lat="45.7578" lon="6.53156">
        <ele>1647</ele>
        <time>2021-08-02T14:27:52Z</time>
      </trkpt>
      <trkpt lat="45.75785" lon="6.53157">
        <ele>1647.4</ele>
        <time>2021-08-02T14:27:55Z</time>
      </trkpt>
      <trkpt lat="45.75786" lon="6.53157">
        <ele>1647.6</ele>
        <time>2021-08-02T14:27:56Z</time>
      </trkpt>
      <trkpt lat="45.75787" lon="6.53155">
        <ele>1647.6</ele>
        <time>2021-08-02T14:27:57Z</time>
      </trkpt>
      <trkpt lat="45.75789" lon="6.5315">
        <ele>1648</ele>
        <time>2021-08-02T14:28:00Z</time>
      </trkpt>
      <trkpt lat="45.75789" lon="6.53148">
        <ele>1648.2</ele>
        <time>2021-08-02T14:28:01Z</time>
      </trkpt>
      <trkpt lat="45.75788" lon="6.53147">
        <ele>1648.4</ele>
        <time>2021-08-02T14:28:02Z</time>
      </trkpt>
      <trkpt lat="45.75785" lon="6.53151">
        <ele>1648.6</ele>
        <time>2021-08-02T14:28:05Z</time>
      </trkpt>
      <trkpt lat="45.75785" lon="6.53164">
        <ele>1648.6</ele>
        <time>2021-08-02T14:28:09Z</time>
      </trkpt>
      <trkpt lat="45.75784" lon="6.53167">
        <ele>1648.6</ele>
        <time>2021-08-02T14:28:10Z</time>
      </trkpt>
      <trkpt lat="45.75779" lon="6.53194">
        <ele>1648.8</ele>
        <time>2021-08-02T14:28:16Z</time>
      </trkpt>
      <trkpt lat="45.75775" lon="6.53232">
        <ele>1649.2</ele>
        <time>2021-08-02T14:28:22Z</time>
      </trkpt>
      <trkpt lat="45.75779" lon="6.53278">
        <ele>1649.2</ele>
        <time>2021-08-02T14:28:28Z</time>
      </trkpt>
      <trkpt lat="45.75783" lon="6.5332">
        <ele>1649.2</ele>
        <time>2021-08-02T14:28:34Z</time>
      </trkpt>
      <trkpt lat="45.75784" lon="6.53326">
        <ele>1649.2</ele>
        <time>2021-08-02T14:28:35Z</time>
      </trkpt>
      <trkpt lat="45.75791" lon="6.53345">
        <ele>1649.2</ele>
        <time>2021-08-02T14:28:39Z</time>
      </trkpt>
      <trkpt lat="45.75798" lon="6.53354">
        <ele>1649.2</ele>
        <time>2021-08-02T14:28:42Z</time>
      </trkpt>
      <trkpt lat="45.75798" lon="6.53357">
        <ele>1649.2</ele>
        <time>2021-08-02T14:28:43Z</time>
      </trkpt>
      <trkpt lat="45.75792" lon="6.53355">
        <ele>1649.8</ele>
        <time>2021-08-02T14:28:46Z</time>
      </trkpt>
      <trkpt lat="45.75788" lon="6.53356">
        <ele>1649.8</ele>
        <time>2021-08-02T14:28:47Z</time>
      </trkpt>
      <trkpt lat="45.75787" lon="6.53366">
        <ele>1649.8</ele>
        <time>2021-08-02T14:28:49Z</time>
      </trkpt>
      <trkpt lat="45.7579" lon="6.53379">
        <ele>1649.8</ele>
        <time>2021-08-02T14:28:51Z</time>
      </trkpt>
      <trkpt lat="45.75795" lon="6.53399">
        <ele>1649.8</ele>
        <time>2021-08-02T14:28:54Z</time>
      </trkpt>
      <trkpt lat="45.75797" lon="6.53405">
        <ele>1649.8</ele>
        <time>2021-08-02T14:28:55Z</time>
      </trkpt>
      <trkpt lat="45.75804" lon="6.53415">
        <ele>1649.2</ele>
        <time>2021-08-02T14:28:58Z</time>
      </trkpt>
      <trkpt lat="45.75805" lon="6.53418">
        <ele>1648.8</ele>
        <time>2021-08-02T14:29:00Z</time>
      </trkpt>
      <trkpt lat="45.75807" lon="6.53417">
        <ele>1648.4</ele>
        <time>2021-08-02T14:29:02Z</time>
      </trkpt>
      <trkpt lat="45.75801" lon="6.53409">
        <ele>1648.2</ele>
        <time>2021-08-02T14:29:06Z</time>
      </trkpt>
      <trkpt lat="45.75794" lon="6.53395">
        <ele>1647.8</ele>
        <time>2021-08-02T14:29:11Z</time>
      </trkpt>
      <trkpt lat="45.75793" lon="6.53392">
        <ele>1647.8</ele>
        <time>2021-08-02T14:29:12Z</time>
      </trkpt>
      <trkpt lat="45.75792" lon="6.53388">
        <ele>1647.6</ele>
        <time>2021-08-02T14:29:13Z</time>
      </trkpt>
      <trkpt lat="45.75787" lon="6.53367">
        <ele>1647.4</ele>
        <time>2021-08-02T14:29:18Z</time>
      </trkpt>
      <trkpt lat="45.75786" lon="6.53355">
        <ele>1647.4</ele>
        <time>2021-08-02T14:29:21Z</time>
      </trkpt>
      <trkpt lat="45.75788" lon="6.53352">
        <ele>1647.4</ele>
        <time>2021-08-02T14:29:22Z</time>
      </trkpt>
      <trkpt lat="45.75795" lon="6.53352">
        <ele>1647.8</ele>
        <time>2021-08-02T14:29:25Z</time>
      </trkpt>
      <trkpt lat="45.758" lon="6.53357">
        <ele>1648.2</ele>
        <time>2021-08-02T14:29:27Z</time>
      </trkpt>
      <trkpt lat="45.75812" lon="6.53367">
        <ele>1648.8</ele>
        <time>2021-08-02T14:29:32Z</time>
      </trkpt>
      <trkpt lat="45.75819" lon="6.53374">
        <ele>1650</ele>
        <time>2021-08-02T14:29:35Z</time>
      </trkpt>
      <trkpt lat="45.75831" lon="6.53378">
        <ele>1651.2</ele>
        <time>2021-08-02T14:29:39Z</time>
      </trkpt>
      <trkpt lat="45.75853" lon="6.53387">
        <ele>1652.2</ele>
        <time>2021-08-02T14:29:47Z</time>
      </trkpt>
      <trkpt lat="45.75878" lon="6.53399">
        <ele>1653.4</ele>
        <time>2021-08-02T14:29:56Z</time>
      </trkpt>
      <trkpt lat="45.75883" lon="6.53402">
        <ele>1653.8</ele>
        <time>2021-08-02T14:29:58Z</time>
      </trkpt>
      <trkpt lat="45.75894" lon="6.53407">
        <ele>1654.4</ele>
        <time>2021-08-02T14:30:02Z</time>
      </trkpt>
      <trkpt lat="45.75905" lon="6.53411">
        <ele>1654.8</ele>
        <time>2021-08-02T14:30:06Z</time>
      </trkpt>
      <trkpt lat="45.75916" lon="6.53415">
        <ele>1655.8</ele>
        <time>2021-08-02T14:30:11Z</time>
      </trkpt>
      <trkpt lat="45.75918" lon="6.53417">
        <ele>1656</ele>
        <time>2021-08-02T14:30:12Z</time>
      </trkpt>
      <trkpt lat="45.7592" lon="6.53418">
        <ele>1656.2</ele>
        <time>2021-08-02T14:30:13Z</time>
      </trkpt>
      <trkpt lat="45.75929" lon="6.53425">
        <ele>1657.2</ele>
        <time>2021-08-02T14:30:18Z</time>
      </trkpt>
      <trkpt lat="45.75933" lon="6.53428">
        <ele>1657.6</ele>
        <time>2021-08-02T14:30:20Z</time>
      </trkpt>
      <trkpt lat="45.75938" lon="6.53433">
        <ele>1658.2</ele>
        <time>2021-08-02T14:30:24Z</time>
      </trkpt>
      <trkpt lat="45.7594" lon="6.53438">
        <ele>1658.2</ele>
        <time>2021-08-02T14:30:26Z</time>
      </trkpt>
      <trkpt lat="45.75936" lon="6.53451">
        <ele>1658.6</ele>
        <time>2021-08-02T14:30:30Z</time>
      </trkpt>
      <trkpt lat="45.75934" lon="6.53455">
        <ele>1658.6</ele>
        <time>2021-08-02T14:30:31Z</time>
      </trkpt>
      <trkpt lat="45.75922" lon="6.5348">
        <ele>1658.6</ele>
        <time>2021-08-02T14:30:37Z</time>
      </trkpt>
      <trkpt lat="45.75917" lon="6.53489">
        <ele>1658.6</ele>
        <time>2021-08-02T14:30:39Z</time>
      </trkpt>
      <trkpt lat="45.75912" lon="6.53499">
        <ele>1658.4</ele>
        <time>2021-08-02T14:30:41Z</time>
      </trkpt>
      <trkpt lat="45.75893" lon="6.53541">
        <ele>1657.8</ele>
        <time>2021-08-02T14:30:48Z</time>
      </trkpt>
      <trkpt lat="45.75894" lon="6.53563">
        <ele>1657.6</ele>
        <time>2021-08-02T14:30:51Z</time>
      </trkpt>
      <trkpt lat="45.75896" lon="6.53569">
        <ele>1657.4</ele>
        <time>2021-08-02T14:30:52Z</time>
      </trkpt>
      <trkpt lat="45.75898" lon="6.53579">
        <ele>1657.4</ele>
        <time>2021-08-02T14:30:54Z</time>
      </trkpt>
      <trkpt lat="45.75898" lon="6.53584">
        <ele>1657.4</ele>
        <time>2021-08-02T14:30:55Z</time>
      </trkpt>
      <trkpt lat="45.75893" lon="6.53617">
        <ele>1657.6</ele>
        <time>2021-08-02T14:31:02Z</time>
      </trkpt>
      <trkpt lat="45.75898" lon="6.53622">
        <ele>1658</ele>
        <time>2021-08-02T14:31:04Z</time>
      </trkpt>
      <trkpt lat="45.75905" lon="6.5361">
        <ele>1659</ele>
        <time>2021-08-02T14:31:07Z</time>
      </trkpt>
      <trkpt lat="45.75907" lon="6.53603">
        <ele>1659.4</ele>
        <time>2021-08-02T14:31:08Z</time>
      </trkpt>
      <trkpt lat="45.75914" lon="6.53591">
        <ele>1659.6</ele>
        <time>2021-08-02T14:31:11Z</time>
      </trkpt>
      <trkpt lat="45.75916" lon="6.53589">
        <ele>1659.8</ele>
        <time>2021-08-02T14:31:12Z</time>
      </trkpt>
      <trkpt lat="45.75921" lon="6.5359">
        <ele>1660</ele>
        <time>2021-08-02T14:31:15Z</time>
      </trkpt>
      <trkpt lat="45.75923" lon="6.53591">
        <ele>1660</ele>
        <time>2021-08-02T14:31:16Z</time>
      </trkpt>
      <trkpt lat="45.75926" lon="6.53591">
        <ele>1660.4</ele>
        <time>2021-08-02T14:31:18Z</time>
      </trkpt>
      <trkpt lat="45.75928" lon="6.5359">
        <ele>1661.4</ele>
        <time>2021-08-02T14:31:21Z</time>
      </trkpt>
      <trkpt lat="45.75929" lon="6.53589">
        <ele>1663.4</ele>
        <time>2021-08-02T14:31:28Z</time>
      </trkpt>
      <trkpt lat="45.75933" lon="6.53586">
        <ele>1663.8</ele>
        <time>2021-08-02T14:31:31Z</time>
      </trkpt>
      <trkpt lat="45.75934" lon="6.53584">
        <ele>1663.8</ele>
        <time>2021-08-02T14:31:32Z</time>
      </trkpt>
      <trkpt lat="45.7594" lon="6.53578">
        <ele>1664</ele>
        <time>2021-08-02T14:31:36Z</time>
      </trkpt>
      <trkpt lat="45.75945" lon="6.53578">
        <ele>1664</ele>
        <time>2021-08-02T14:31:39Z</time>
      </trkpt>
      <trkpt lat="45.75948" lon="6.53577">
        <ele>1664</ele>
        <time>2021-08-02T14:31:41Z</time>
      </trkpt>
      <trkpt lat="45.75951" lon="6.53575">
        <ele>1663.8</ele>
        <time>2021-08-02T14:31:45Z</time>
      </trkpt>
      <trkpt lat="45.75952" lon="6.53572">
        <ele>1663.6</ele>
        <time>2021-08-02T14:31:47Z</time>
      </trkpt>
      <trkpt lat="45.75953" lon="6.53569">
        <ele>1663.6</ele>
        <time>2021-08-02T14:31:49Z</time>
      </trkpt>
      <trkpt lat="45.75955" lon="6.53564">
        <ele>1663.4</ele>
        <time>2021-08-02T14:31:54Z</time>
      </trkpt>
      <trkpt lat="45.75961" lon="6.5355">
        <ele>1663.2</ele>
        <time>2021-08-02T14:32:00Z</time>
      </trkpt>
      <trkpt lat="45.75972" lon="6.53531">
        <ele>1663.6</ele>
        <time>2021-08-02T14:32:07Z</time>
      </trkpt>
      <trkpt lat="45.75979" lon="6.53512">
        <ele>1663.8</ele>
        <time>2021-08-02T14:32:14Z</time>
      </trkpt>
      <trkpt lat="45.75981" lon="6.5351">
        <ele>1663.8</ele>
        <time>2021-08-02T14:32:15Z</time>
      </trkpt>
      <trkpt lat="45.75987" lon="6.53509">
        <ele>1663.8</ele>
        <time>2021-08-02T14:32:18Z</time>
      </trkpt>
      <trkpt lat="45.75988" lon="6.53508">
        <ele>1663.8</ele>
        <time>2021-08-02T14:32:19Z</time>
      </trkpt>
      <trkpt lat="45.75998" lon="6.53502">
        <ele>1664</ele>
        <time>2021-08-02T14:32:25Z</time>
      </trkpt>
      <trkpt lat="45.76004" lon="6.53503">
        <ele>1664</ele>
        <time>2021-08-02T14:32:28Z</time>
      </trkpt>
      <trkpt lat="45.76005" lon="6.53505">
        <ele>1664</ele>
        <time>2021-08-02T14:32:29Z</time>
      </trkpt>
      <trkpt lat="45.76007" lon="6.53505">
        <ele>1664.2</ele>
        <time>2021-08-02T14:32:30Z</time>
      </trkpt>
      <trkpt lat="45.76011" lon="6.53504">
        <ele>1664.4</ele>
        <time>2021-08-02T14:32:32Z</time>
      </trkpt>
      <trkpt lat="45.76013" lon="6.53503">
        <ele>1664.6</ele>
        <time>2021-08-02T14:32:33Z</time>
      </trkpt>
      <trkpt lat="45.76015" lon="6.53502">
        <ele>1664.6</ele>
        <time>2021-08-02T14:32:34Z</time>
      </trkpt>
      <trkpt lat="45.76026" lon="6.53502">
        <ele>1665.2</ele>
        <time>2021-08-02T14:32:38Z</time>
      </trkpt>
      <trkpt lat="45.76034" lon="6.53501">
        <ele>1665.4</ele>
        <time>2021-08-02T14:32:41Z</time>
      </trkpt>
      <trkpt lat="45.76044" lon="6.535">
        <ele>1665.8</ele>
        <time>2021-08-02T14:32:45Z</time>
      </trkpt>
      <trkpt lat="45.76059" lon="6.53498">
        <ele>1666.6</ele>
        <time>2021-08-02T14:32:51Z</time>
      </trkpt>
      <trkpt lat="45.76066" lon="6.53498">
        <ele>1667.2</ele>
        <time>2021-08-02T14:32:54Z</time>
      </trkpt>
      <trkpt lat="45.76071" lon="6.53498">
        <ele>1667.6</ele>
        <time>2021-08-02T14:32:56Z</time>
      </trkpt>
      <trkpt lat="45.76082" lon="6.53497">
        <ele>1668.6</ele>
        <time>2021-08-02T14:33:00Z</time>
      </trkpt>
      <trkpt lat="45.76105" lon="6.53494">
        <ele>1669.8</ele>
        <time>2021-08-02T14:33:08Z</time>
      </trkpt>
      <trkpt lat="45.76108" lon="6.53493">
        <ele>1670</ele>
        <time>2021-08-02T14:33:09Z</time>
      </trkpt>
      <trkpt lat="45.76126" lon="6.53497">
        <ele>1670.8</ele>
        <time>2021-08-02T14:33:16Z</time>
      </trkpt>
      <trkpt lat="45.76128" lon="6.53506">
        <ele>1671</ele>
        <time>2021-08-02T14:33:19Z</time>
      </trkpt>
      <trkpt lat="45.76127" lon="6.53509">
        <ele>1671.2</ele>
        <time>2021-08-02T14:33:20Z</time>
      </trkpt>
      <trkpt lat="45.76121" lon="6.53516">
        <ele>1672.2</ele>
        <time>2021-08-02T14:33:24Z</time>
      </trkpt>
      <trkpt lat="45.76118" lon="6.53518">
        <ele>1672.6</ele>
        <time>2021-08-02T14:33:25Z</time>
      </trkpt>
      <trkpt lat="45.76113" lon="6.53519">
        <ele>1673.4</ele>
        <time>2021-08-02T14:33:27Z</time>
      </trkpt>
      <trkpt lat="45.76101" lon="6.53526">
        <ele>1674.6</ele>
        <time>2021-08-02T14:33:32Z</time>
      </trkpt>
      <trkpt lat="45.7609" lon="6.53541">
        <ele>1675.2</ele>
        <time>2021-08-02T14:33:38Z</time>
      </trkpt>
      <trkpt lat="45.76084" lon="6.53554">
        <ele>1675.6</ele>
        <time>2021-08-02T14:33:42Z</time>
      </trkpt>
      <trkpt lat="45.7608" lon="6.53567">
        <ele>1676</ele>
        <time>2021-08-02T14:33:46Z</time>
      </trkpt>
      <trkpt lat="45.76075" lon="6.53579">
        <ele>1676.8</ele>
        <time>2021-08-02T14:33:50Z</time>
      </trkpt>
      <trkpt lat="45.76071" lon="6.53588">
        <ele>1677.2</ele>
        <time>2021-08-02T14:33:53Z</time>
      </trkpt>
      <trkpt lat="45.76067" lon="6.536">
        <ele>1677.8</ele>
        <time>2021-08-02T14:33:57Z</time>
      </trkpt>
      <trkpt lat="45.76062" lon="6.53613">
        <ele>1679</ele>
        <time>2021-08-02T14:34:01Z</time>
      </trkpt>
      <trkpt lat="45.76059" lon="6.53623">
        <ele>1679.4</ele>
        <time>2021-08-02T14:34:04Z</time>
      </trkpt>
      <trkpt lat="45.76056" lon="6.53636">
        <ele>1680.2</ele>
        <time>2021-08-02T14:34:08Z</time>
      </trkpt>
      <trkpt lat="45.76052" lon="6.53649">
        <ele>1681.8</ele>
        <time>2021-08-02T14:34:12Z</time>
      </trkpt>
      <trkpt lat="45.76051" lon="6.53655">
        <ele>1682.6</ele>
        <time>2021-08-02T14:34:14Z</time>
      </trkpt>
      <trkpt lat="45.7605" lon="6.53659">
        <ele>1683</ele>
        <time>2021-08-02T14:34:15Z</time>
      </trkpt>
      <trkpt lat="45.76049" lon="6.53672">
        <ele>1684</ele>
        <time>2021-08-02T14:34:19Z</time>
      </trkpt>
      <trkpt lat="45.76049" lon="6.53688">
        <ele>1685.2</ele>
        <time>2021-08-02T14:34:24Z</time>
      </trkpt>
      <trkpt lat="45.7605" lon="6.53698">
        <ele>1686.4</ele>
        <time>2021-08-02T14:34:27Z</time>
      </trkpt>
      <trkpt lat="45.76051" lon="6.53712">
        <ele>1687.2</ele>
        <time>2021-08-02T14:34:31Z</time>
      </trkpt>
      <trkpt lat="45.76052" lon="6.53715">
        <ele>1687.4</ele>
        <time>2021-08-02T14:34:32Z</time>
      </trkpt>
      <trkpt lat="45.76056" lon="6.53738">
        <ele>1688.4</ele>
        <time>2021-08-02T14:34:39Z</time>
      </trkpt>
      <trkpt lat="45.76057" lon="6.53741">
        <ele>1688.6</ele>
        <time>2021-08-02T14:34:40Z</time>
      </trkpt>
      <trkpt lat="45.76061" lon="6.53762">
        <ele>1689.6</ele>
        <time>2021-08-02T14:34:46Z</time>
      </trkpt>
      <trkpt lat="45.76063" lon="6.53775">
        <ele>1690.6</ele>
        <time>2021-08-02T14:34:50Z</time>
      </trkpt>
      <trkpt lat="45.76063" lon="6.53778">
        <ele>1690.8</ele>
        <time>2021-08-02T14:34:51Z</time>
      </trkpt>
      <trkpt lat="45.76063" lon="6.53792">
        <ele>1692</ele>
        <time>2021-08-02T14:34:55Z</time>
      </trkpt>
      <trkpt lat="45.76062" lon="6.53802">
        <ele>1692.8</ele>
        <time>2021-08-02T14:34:58Z</time>
      </trkpt>
      <trkpt lat="45.7606" lon="6.53804">
        <ele>1693</ele>
        <time>2021-08-02T14:34:59Z</time>
      </trkpt>
      <trkpt lat="45.76051" lon="6.53815">
        <ele>1693.8</ele>
        <time>2021-08-02T14:35:04Z</time>
      </trkpt>
      <trkpt lat="45.76049" lon="6.53817">
        <ele>1694</ele>
        <time>2021-08-02T14:35:05Z</time>
      </trkpt>
      <trkpt lat="45.76037" lon="6.53826">
        <ele>1695.2</ele>
        <time>2021-08-02T14:35:11Z</time>
      </trkpt>
      <trkpt lat="45.76027" lon="6.5384">
        <ele>1696.4</ele>
        <time>2021-08-02T14:35:17Z</time>
      </trkpt>
      <trkpt lat="45.76023" lon="6.53844">
        <ele>1696.6</ele>
        <time>2021-08-02T14:35:19Z</time>
      </trkpt>
      <trkpt lat="45.76016" lon="6.53852">
        <ele>1697.8</ele>
        <time>2021-08-02T14:35:23Z</time>
      </trkpt>
      <trkpt lat="45.76013" lon="6.53856">
        <ele>1698.4</ele>
        <time>2021-08-02T14:35:25Z</time>
      </trkpt>
      <trkpt lat="45.76009" lon="6.53865">
        <ele>1699</ele>
        <time>2021-08-02T14:35:29Z</time>
      </trkpt>
      <trkpt lat="45.76004" lon="6.53871">
        <ele>1699.8</ele>
        <time>2021-08-02T14:35:33Z</time>
      </trkpt>
      <trkpt lat="45.76" lon="6.53872">
        <ele>1700.2</ele>
        <time>2021-08-02T14:35:36Z</time>
      </trkpt>
      <trkpt lat="45.75999" lon="6.53873">
        <ele>1700.4</ele>
        <time>2021-08-02T14:35:38Z</time>
      </trkpt>
      <trkpt lat="45.75999" lon="6.53873">
        <ele>1700.8</ele>
        <time>2021-08-02T14:35:40Z</time>
      </trkpt>
      <trkpt lat="45.75997" lon="6.53874">
        <ele>1701.2</ele>
        <time>2021-08-02T14:35:54Z</time>
      </trkpt>
      <trkpt lat="45.75995" lon="6.53875">
        <ele>1701</ele>
        <time>2021-08-02T14:35:55Z</time>
      </trkpt>
      <trkpt lat="45.75983" lon="6.53885">
        <ele>1701</ele>
        <time>2021-08-02T14:35:59Z</time>
      </trkpt>
      <trkpt lat="45.7596" lon="6.53915">
        <ele>1700.6</ele>
        <time>2021-08-02T14:36:04Z</time>
      </trkpt>
      <trkpt lat="45.75944" lon="6.53949">
        <ele>1699</ele>
        <time>2021-08-02T14:36:08Z</time>
      </trkpt>
      <trkpt lat="45.7594" lon="6.53957">
        <ele>1698.2</ele>
        <time>2021-08-02T14:36:09Z</time>
      </trkpt>
      <trkpt lat="45.75935" lon="6.53964">
        <ele>1697.6</ele>
        <time>2021-08-02T14:36:10Z</time>
      </trkpt>
      <trkpt lat="45.75927" lon="6.53971">
        <ele>1696</ele>
        <time>2021-08-02T14:36:12Z</time>
      </trkpt>
      <trkpt lat="45.75923" lon="6.53976">
        <ele>1694.2</ele>
        <time>2021-08-02T14:36:14Z</time>
      </trkpt>
      <trkpt lat="45.75922" lon="6.53979">
        <ele>1693.4</ele>
        <time>2021-08-02T14:36:15Z</time>
      </trkpt>
      <trkpt lat="45.75922" lon="6.53982">
        <ele>1692.6</ele>
        <time>2021-08-02T14:36:16Z</time>
      </trkpt>
      <trkpt lat="45.75922" lon="6.54001">
        <ele>1691.8</ele>
        <time>2021-08-02T14:36:23Z</time>
      </trkpt>
      <trkpt lat="45.75922" lon="6.54021">
        <ele>1693.4</ele>
        <time>2021-08-02T14:36:31Z</time>
      </trkpt>
      <trkpt lat="45.75922" lon="6.54023">
        <ele>1693.8</ele>
        <time>2021-08-02T14:36:32Z</time>
      </trkpt>
      <trkpt lat="45.75924" lon="6.54033">
        <ele>1694.8</ele>
        <time>2021-08-02T14:36:36Z</time>
      </trkpt>
      <trkpt lat="45.75926" lon="6.54038">
        <ele>1695</ele>
        <time>2021-08-02T14:36:38Z</time>
      </trkpt>
      <trkpt lat="45.75929" lon="6.54048">
        <ele>1695.8</ele>
        <time>2021-08-02T14:36:42Z</time>
      </trkpt>
      <trkpt lat="45.75932" lon="6.5406">
        <ele>1696.8</ele>
        <time>2021-08-02T14:36:47Z</time>
      </trkpt>
      <trkpt lat="45.75933" lon="6.54062">
        <ele>1697.2</ele>
        <time>2021-08-02T14:36:48Z</time>
      </trkpt>
      <trkpt lat="45.75936" lon="6.54077">
        <ele>1698.2</ele>
        <time>2021-08-02T14:36:54Z</time>
      </trkpt>
      <trkpt lat="45.75937" lon="6.5408">
        <ele>1698.4</ele>
        <time>2021-08-02T14:36:55Z</time>
      </trkpt>
      <trkpt lat="45.75939" lon="6.54094">
        <ele>1699.2</ele>
        <time>2021-08-02T14:37:01Z</time>
      </trkpt>
      <trkpt lat="45.7594" lon="6.541">
        <ele>1699.6</ele>
        <time>2021-08-02T14:37:03Z</time>
      </trkpt>
      <trkpt lat="45.75941" lon="6.54109">
        <ele>1700.4</ele>
        <time>2021-08-02T14:37:07Z</time>
      </trkpt>
      <trkpt lat="45.75943" lon="6.54117">
        <ele>1701</ele>
        <time>2021-08-02T14:37:10Z</time>
      </trkpt>
      <trkpt lat="45.75944" lon="6.54122">
        <ele>1701.6</ele>
        <time>2021-08-02T14:37:12Z</time>
      </trkpt>
      <trkpt lat="45.75944" lon="6.54133">
        <ele>1702.8</ele>
        <time>2021-08-02T14:37:16Z</time>
      </trkpt>
      <trkpt lat="45.75943" lon="6.54136">
        <ele>1703.2</ele>
        <time>2021-08-02T14:37:17Z</time>
      </trkpt>
      <trkpt lat="45.75941" lon="6.54159">
        <ele>1703.8</ele>
        <time>2021-08-02T14:37:25Z</time>
      </trkpt>
      <trkpt lat="45.7594" lon="6.54175">
        <ele>1704.6</ele>
        <time>2021-08-02T14:37:31Z</time>
      </trkpt>
      <trkpt lat="45.7594" lon="6.5418">
        <ele>1705.2</ele>
        <time>2021-08-02T14:37:33Z</time>
      </trkpt>
      <trkpt lat="45.7594" lon="6.54191">
        <ele>1706.4</ele>
        <time>2021-08-02T14:37:37Z</time>
      </trkpt>
      <trkpt lat="45.7594" lon="6.542">
        <ele>1707</ele>
        <time>2021-08-02T14:37:40Z</time>
      </trkpt>
      <trkpt lat="45.7594" lon="6.54206">
        <ele>1707.4</ele>
        <time>2021-08-02T14:37:42Z</time>
      </trkpt>
      <trkpt lat="45.75942" lon="6.5422">
        <ele>1708.4</ele>
        <time>2021-08-02T14:37:47Z</time>
      </trkpt>
      <trkpt lat="45.75942" lon="6.54226">
        <ele>1708.6</ele>
        <time>2021-08-02T14:37:49Z</time>
      </trkpt>
      <trkpt lat="45.75942" lon="6.54246">
        <ele>1709.2</ele>
        <time>2021-08-02T14:37:56Z</time>
      </trkpt>
      <trkpt lat="45.75942" lon="6.54253">
        <ele>1709.4</ele>
        <time>2021-08-02T14:37:58Z</time>
      </trkpt>
      <trkpt lat="45.7594" lon="6.54269">
        <ele>1710.6</ele>
        <time>2021-08-02T14:38:03Z</time>
      </trkpt>
      <trkpt lat="45.75939" lon="6.54291">
        <ele>1711.6</ele>
        <time>2021-08-02T14:38:10Z</time>
      </trkpt>
      <trkpt lat="45.75938" lon="6.54294">
        <ele>1711.8</ele>
        <time>2021-08-02T14:38:11Z</time>
      </trkpt>
      <trkpt lat="45.75939" lon="6.54308">
        <ele>1712.6</ele>
        <time>2021-08-02T14:38:16Z</time>
      </trkpt>
      <trkpt lat="45.7594" lon="6.54312">
        <ele>1713</ele>
        <time>2021-08-02T14:38:18Z</time>
      </trkpt>
      <trkpt lat="45.75941" lon="6.54324">
        <ele>1713.8</ele>
        <time>2021-08-02T14:38:23Z</time>
      </trkpt>
      <trkpt lat="45.75941" lon="6.54327">
        <ele>1714</ele>
        <time>2021-08-02T14:38:24Z</time>
      </trkpt>
      <trkpt lat="45.75942" lon="6.54336">
        <ele>1714.8</ele>
        <time>2021-08-02T14:38:28Z</time>
      </trkpt>
      <trkpt lat="45.75943" lon="6.54341">
        <ele>1715</ele>
        <time>2021-08-02T14:38:30Z</time>
      </trkpt>
      <trkpt lat="45.75945" lon="6.54356">
        <ele>1716</ele>
        <time>2021-08-02T14:38:36Z</time>
      </trkpt>
      <trkpt lat="45.75945" lon="6.54359">
        <ele>1716.2</ele>
        <time>2021-08-02T14:38:37Z</time>
      </trkpt>
      <trkpt lat="45.75947" lon="6.54369">
        <ele>1717.2</ele>
        <time>2021-08-02T14:38:42Z</time>
      </trkpt>
      <trkpt lat="45.75948" lon="6.54371">
        <ele>1717.4</ele>
        <time>2021-08-02T14:38:43Z</time>
      </trkpt>
      <trkpt lat="45.75949" lon="6.54383">
        <ele>1718.4</ele>
        <time>2021-08-02T14:38:48Z</time>
      </trkpt>
      <trkpt lat="45.7595" lon="6.54387">
        <ele>1718.8</ele>
        <time>2021-08-02T14:38:50Z</time>
      </trkpt>
      <trkpt lat="45.75952" lon="6.54396">
        <ele>1719.4</ele>
        <time>2021-08-02T14:38:54Z</time>
      </trkpt>
      <trkpt lat="45.75953" lon="6.54399">
        <ele>1719.8</ele>
        <time>2021-08-02T14:38:56Z</time>
      </trkpt>
      <trkpt lat="45.75954" lon="6.54405">
        <ele>1720.4</ele>
        <time>2021-08-02T14:38:59Z</time>
      </trkpt>
      <trkpt lat="45.75956" lon="6.54414">
        <ele>1721.6</ele>
        <time>2021-08-02T14:39:03Z</time>
      </trkpt>
      <trkpt lat="45.75957" lon="6.54416">
        <ele>1721.8</ele>
        <time>2021-08-02T14:39:04Z</time>
      </trkpt>
      <trkpt lat="45.75958" lon="6.54426">
        <ele>1722.6</ele>
        <time>2021-08-02T14:39:09Z</time>
      </trkpt>
      <trkpt lat="45.75959" lon="6.54431">
        <ele>1723.2</ele>
        <time>2021-08-02T14:39:11Z</time>
      </trkpt>
      <trkpt lat="45.75959" lon="6.54434">
        <ele>1723.6</ele>
        <time>2021-08-02T14:39:13Z</time>
      </trkpt>
      <trkpt lat="45.75959" lon="6.54445">
        <ele>1724.8</ele>
        <time>2021-08-02T14:39:19Z</time>
      </trkpt>
      <trkpt lat="45.7596" lon="6.54449">
        <ele>1725.2</ele>
        <time>2021-08-02T14:39:22Z</time>
      </trkpt>
      <trkpt lat="45.7596" lon="6.54454">
        <ele>1725.8</ele>
        <time>2021-08-02T14:39:25Z</time>
      </trkpt>
      <trkpt lat="45.7596" lon="6.54456">
        <ele>1726</ele>
        <time>2021-08-02T14:39:26Z</time>
      </trkpt>
      <trkpt lat="45.7596" lon="6.54457">
        <ele>1726.2</ele>
        <time>2021-08-02T14:39:27Z</time>
      </trkpt>
      <trkpt lat="45.75961" lon="6.54466">
        <ele>1726.8</ele>
        <time>2021-08-02T14:39:32Z</time>
      </trkpt>
      <trkpt lat="45.75962" lon="6.5448">
        <ele>1728</ele>
        <time>2021-08-02T14:39:39Z</time>
      </trkpt>
      <trkpt lat="45.75963" lon="6.54497">
        <ele>1729.2</ele>
        <time>2021-08-02T14:39:45Z</time>
      </trkpt>
      <trkpt lat="45.75964" lon="6.54505">
        <ele>1730.2</ele>
        <time>2021-08-02T14:39:49Z</time>
      </trkpt>
      <trkpt lat="45.75964" lon="6.54511">
        <ele>1731</ele>
        <time>2021-08-02T14:39:52Z</time>
      </trkpt>
      <trkpt lat="45.75964" lon="6.54513">
        <ele>1731.4</ele>
        <time>2021-08-02T14:39:53Z</time>
      </trkpt>
      <trkpt lat="45.75963" lon="6.54518">
        <ele>1732</ele>
        <time>2021-08-02T14:39:55Z</time>
      </trkpt>
      <trkpt lat="45.75963" lon="6.54523">
        <ele>1732.6</ele>
        <time>2021-08-02T14:39:57Z</time>
      </trkpt>
      <trkpt lat="45.75962" lon="6.54529">
        <ele>1732.8</ele>
        <time>2021-08-02T14:40:00Z</time>
      </trkpt>
      <trkpt lat="45.75962" lon="6.54533">
        <ele>1733.4</ele>
        <time>2021-08-02T14:40:02Z</time>
      </trkpt>
      <trkpt lat="45.75961" lon="6.54544">
        <ele>1734.6</ele>
        <time>2021-08-02T14:40:07Z</time>
      </trkpt>
      <trkpt lat="45.75961" lon="6.54546">
        <ele>1734.8</ele>
        <time>2021-08-02T14:40:08Z</time>
      </trkpt>
      <trkpt lat="45.75961" lon="6.54557">
        <ele>1735.6</ele>
        <time>2021-08-02T14:40:13Z</time>
      </trkpt>
      <trkpt lat="45.75961" lon="6.5456">
        <ele>1735.8</ele>
        <time>2021-08-02T14:40:14Z</time>
      </trkpt>
      <trkpt lat="45.7596" lon="6.54571">
        <ele>1736.8</ele>
        <time>2021-08-02T14:40:19Z</time>
      </trkpt>
      <trkpt lat="45.75961" lon="6.54575">
        <ele>1737.2</ele>
        <time>2021-08-02T14:40:21Z</time>
      </trkpt>
      <trkpt lat="45.75961" lon="6.5458">
        <ele>1737.8</ele>
        <time>2021-08-02T14:40:24Z</time>
      </trkpt>
      <trkpt lat="45.75961" lon="6.54586">
        <ele>1738.6</ele>
        <time>2021-08-02T14:40:27Z</time>
      </trkpt>
      <trkpt lat="45.75961" lon="6.54587">
        <ele>1738.8</ele>
        <time>2021-08-02T14:40:28Z</time>
      </trkpt>
      <trkpt lat="45.75961" lon="6.54595">
        <ele>1739.8</ele>
        <time>2021-08-02T14:40:33Z</time>
      </trkpt>
      <trkpt lat="45.75961" lon="6.54597">
        <ele>1739.8</ele>
        <time>2021-08-02T14:40:34Z</time>
      </trkpt>
      <trkpt lat="45.75961" lon="6.54604">
        <ele>1740.6</ele>
        <time>2021-08-02T14:40:37Z</time>
      </trkpt>
      <trkpt lat="45.7596" lon="6.54609">
        <ele>1741</ele>
        <time>2021-08-02T14:40:39Z</time>
      </trkpt>
      <trkpt lat="45.75959" lon="6.5462">
        <ele>1742.2</ele>
        <time>2021-08-02T14:40:44Z</time>
      </trkpt>
      <trkpt lat="45.75957" lon="6.54625">
        <ele>1742.6</ele>
        <time>2021-08-02T14:40:46Z</time>
      </trkpt>
      <trkpt lat="45.75956" lon="6.54632">
        <ele>1743.2</ele>
        <time>2021-08-02T14:40:49Z</time>
      </trkpt>
      <trkpt lat="45.75955" lon="6.5464">
        <ele>1744</ele>
        <time>2021-08-02T14:40:52Z</time>
      </trkpt>
      <trkpt lat="45.75955" lon="6.54645">
        <ele>1744.4</ele>
        <time>2021-08-02T14:40:54Z</time>
      </trkpt>
      <trkpt lat="45.75954" lon="6.54656">
        <ele>1745.2</ele>
        <time>2021-08-02T14:41:00Z</time>
      </trkpt>
      <trkpt lat="45.75953" lon="6.54657">
        <ele>1745.4</ele>
        <time>2021-08-02T14:41:01Z</time>
      </trkpt>
      <trkpt lat="45.75951" lon="6.54662">
        <ele>1746.4</ele>
        <time>2021-08-02T14:41:05Z</time>
      </trkpt>
      <trkpt lat="45.75951" lon="6.54664">
        <ele>1746.8</ele>
        <time>2021-08-02T14:41:06Z</time>
      </trkpt>
      <trkpt lat="45.7595" lon="6.54667">
        <ele>1747.4</ele>
        <time>2021-08-02T14:41:09Z</time>
      </trkpt>
      <trkpt lat="45.75951" lon="6.54668">
        <ele>1747.6</ele>
        <time>2021-08-02T14:41:12Z</time>
      </trkpt>
      <trkpt lat="45.75952" lon="6.5467">
        <ele>1748</ele>
        <time>2021-08-02T14:41:21Z</time>
      </trkpt>
      <trkpt lat="45.75954" lon="6.54672">
        <ele>1748</ele>
        <time>2021-08-02T14:41:23Z</time>
      </trkpt>
      <trkpt lat="45.75956" lon="6.54679">
        <ele>1748</ele>
        <time>2021-08-02T14:41:26Z</time>
      </trkpt>
      <trkpt lat="45.75957" lon="6.54684">
        <ele>1748</ele>
        <time>2021-08-02T14:41:28Z</time>
      </trkpt>
      <trkpt lat="45.75959" lon="6.54701">
        <ele>1748.2</ele>
        <time>2021-08-02T14:41:34Z</time>
      </trkpt>
      <trkpt lat="45.7596" lon="6.54711">
        <ele>1749</ele>
        <time>2021-08-02T14:41:38Z</time>
      </trkpt>
      <trkpt lat="45.7596" lon="6.54719">
        <ele>1750.6</ele>
        <time>2021-08-02T14:41:41Z</time>
      </trkpt>
      <trkpt lat="45.75961" lon="6.54725">
        <ele>1752</ele>
        <time>2021-08-02T14:41:44Z</time>
      </trkpt>
      <trkpt lat="45.75962" lon="6.54732">
        <ele>1753.2</ele>
        <time>2021-08-02T14:41:47Z</time>
      </trkpt>
      <trkpt lat="45.75964" lon="6.54738">
        <ele>1754.4</ele>
        <time>2021-08-02T14:41:50Z</time>
      </trkpt>
      <trkpt lat="45.75965" lon="6.5474">
        <ele>1754.8</ele>
        <time>2021-08-02T14:41:51Z</time>
      </trkpt>
      <trkpt lat="45.75967" lon="6.54746">
        <ele>1755.6</ele>
        <time>2021-08-02T14:41:54Z</time>
      </trkpt>
      <trkpt lat="45.75971" lon="6.54756">
        <ele>1756.8</ele>
        <time>2021-08-02T14:41:59Z</time>
      </trkpt>
      <trkpt lat="45.75971" lon="6.54758">
        <ele>1757</ele>
        <time>2021-08-02T14:42:00Z</time>
      </trkpt>
      <trkpt lat="45.75974" lon="6.54764">
        <ele>1757.8</ele>
        <time>2021-08-02T14:42:03Z</time>
      </trkpt>
      <trkpt lat="45.75978" lon="6.54779">
        <ele>1759</ele>
        <time>2021-08-02T14:42:10Z</time>
      </trkpt>
      <trkpt lat="45.75983" lon="6.54792">
        <ele>1760</ele>
        <time>2021-08-02T14:42:17Z</time>
      </trkpt>
      <trkpt lat="45.75987" lon="6.54804">
        <ele>1760.8</ele>
        <time>2021-08-02T14:42:23Z</time>
      </trkpt>
      <trkpt lat="45.75989" lon="6.54808">
        <ele>1761.2</ele>
        <time>2021-08-02T14:42:25Z</time>
      </trkpt>
      <trkpt lat="45.75992" lon="6.54821">
        <ele>1762.2</ele>
        <time>2021-08-02T14:42:31Z</time>
      </trkpt>
      <trkpt lat="45.75995" lon="6.54831">
        <ele>1763.2</ele>
        <time>2021-08-02T14:42:35Z</time>
      </trkpt>
      <trkpt lat="45.75996" lon="6.54835">
        <ele>1763.6</ele>
        <time>2021-08-02T14:42:37Z</time>
      </trkpt>
      <trkpt lat="45.76001" lon="6.54849">
        <ele>1764.2</ele>
        <time>2021-08-02T14:42:42Z</time>
      </trkpt>
      <trkpt lat="45.76002" lon="6.54851">
        <ele>1764.6</ele>
        <time>2021-08-02T14:42:43Z</time>
      </trkpt>
      <trkpt lat="45.76006" lon="6.54867">
        <ele>1765</ele>
        <time>2021-08-02T14:42:49Z</time>
      </trkpt>
      <trkpt lat="45.7601" lon="6.54884">
        <ele>1765.4</ele>
        <time>2021-08-02T14:42:54Z</time>
      </trkpt>
      <trkpt lat="45.76012" lon="6.54888">
        <ele>1765.8</ele>
        <time>2021-08-02T14:42:56Z</time>
      </trkpt>
      <trkpt lat="45.76015" lon="6.54899">
        <ele>1766.6</ele>
        <time>2021-08-02T14:43:00Z</time>
      </trkpt>
      <trkpt lat="45.76015" lon="6.54904">
        <ele>1766.8</ele>
        <time>2021-08-02T14:43:02Z</time>
      </trkpt>
      <trkpt lat="45.76017" lon="6.54922">
        <ele>1767.8</ele>
        <time>2021-08-02T14:43:08Z</time>
      </trkpt>
      <trkpt lat="45.76018" lon="6.5493">
        <ele>1768.2</ele>
        <time>2021-08-02T14:43:11Z</time>
      </trkpt>
      <trkpt lat="45.76019" lon="6.54943">
        <ele>1769</ele>
        <time>2021-08-02T14:43:16Z</time>
      </trkpt>
      <trkpt lat="45.76018" lon="6.54952">
        <ele>1769.6</ele>
        <time>2021-08-02T14:43:19Z</time>
      </trkpt>
      <trkpt lat="45.76018" lon="6.54958">
        <ele>1770</ele>
        <time>2021-08-02T14:43:21Z</time>
      </trkpt>
      <trkpt lat="45.7602" lon="6.54971">
        <ele>1771</ele>
        <time>2021-08-02T14:43:26Z</time>
      </trkpt>
      <trkpt lat="45.7602" lon="6.54973">
        <ele>1771.2</ele>
        <time>2021-08-02T14:43:27Z</time>
      </trkpt>
      <trkpt lat="45.76023" lon="6.54986">
        <ele>1772.4</ele>
        <time>2021-08-02T14:43:32Z</time>
      </trkpt>
      <trkpt lat="45.76026" lon="6.54998">
        <ele>1773.4</ele>
        <time>2021-08-02T14:43:38Z</time>
      </trkpt>
      <trkpt lat="45.76028" lon="6.55013">
        <ele>1774</ele>
        <time>2021-08-02T14:43:44Z</time>
      </trkpt>
      <trkpt lat="45.76031" lon="6.55031">
        <ele>1774.4</ele>
        <time>2021-08-02T14:43:50Z</time>
      </trkpt>
      <trkpt lat="45.76032" lon="6.55036">
        <ele>1774.6</ele>
        <time>2021-08-02T14:43:52Z</time>
      </trkpt>
      <trkpt lat="45.76033" lon="6.55041">
        <ele>1774.8</ele>
        <time>2021-08-02T14:43:54Z</time>
      </trkpt>
      <trkpt lat="45.76034" lon="6.5505">
        <ele>1775.2</ele>
        <time>2021-08-02T14:43:58Z</time>
      </trkpt>
      <trkpt lat="45.76041" lon="6.55064">
        <ele>1775.6</ele>
        <time>2021-08-02T14:44:04Z</time>
      </trkpt>
      <trkpt lat="45.76047" lon="6.55075">
        <ele>1776.6</ele>
        <time>2021-08-02T14:44:08Z</time>
      </trkpt>
      <trkpt lat="45.76051" lon="6.55084">
        <ele>1777</ele>
        <time>2021-08-02T14:44:11Z</time>
      </trkpt>
      <trkpt lat="45.76058" lon="6.55101">
        <ele>1777.6</ele>
        <time>2021-08-02T14:44:17Z</time>
      </trkpt>
      <trkpt lat="45.76059" lon="6.55104">
        <ele>1777.8</ele>
        <time>2021-08-02T14:44:18Z</time>
      </trkpt>
      <trkpt lat="45.76064" lon="6.55115">
        <ele>1778.8</ele>
        <time>2021-08-02T14:44:22Z</time>
      </trkpt>
      <trkpt lat="45.76065" lon="6.55118">
        <ele>1779</ele>
        <time>2021-08-02T14:44:23Z</time>
      </trkpt>
      <trkpt lat="45.76066" lon="6.5512">
        <ele>1779.4</ele>
        <time>2021-08-02T14:44:24Z</time>
      </trkpt>
      <trkpt lat="45.76069" lon="6.55123">
        <ele>1780</ele>
        <time>2021-08-02T14:44:26Z</time>
      </trkpt>
      <trkpt lat="45.7607" lon="6.55126">
        <ele>1780.4</ele>
        <time>2021-08-02T14:44:27Z</time>
      </trkpt>
      <trkpt lat="45.7607" lon="6.55131">
        <ele>1780.6</ele>
        <time>2021-08-02T14:44:29Z</time>
      </trkpt>
      <trkpt lat="45.76068" lon="6.55146">
        <ele>1781.2</ele>
        <time>2021-08-02T14:44:34Z</time>
      </trkpt>
      <trkpt lat="45.76068" lon="6.55151">
        <ele>1781.4</ele>
        <time>2021-08-02T14:44:36Z</time>
      </trkpt>
      <trkpt lat="45.76068" lon="6.55161">
        <ele>1782</ele>
        <time>2021-08-02T14:44:39Z</time>
      </trkpt>
      <trkpt lat="45.76068" lon="6.55175">
        <ele>1783</ele>
        <time>2021-08-02T14:44:44Z</time>
      </trkpt>
      <trkpt lat="45.76068" lon="6.55178">
        <ele>1783.2</ele>
        <time>2021-08-02T14:44:45Z</time>
      </trkpt>
      <trkpt lat="45.76069" lon="6.55197">
        <ele>1784</ele>
        <time>2021-08-02T14:44:51Z</time>
      </trkpt>
      <trkpt lat="45.76073" lon="6.55202">
        <ele>1784.2</ele>
        <time>2021-08-02T14:44:53Z</time>
      </trkpt>
      <trkpt lat="45.76076" lon="6.55209">
        <ele>1784.4</ele>
        <time>2021-08-02T14:44:56Z</time>
      </trkpt>
      <trkpt lat="45.76081" lon="6.55216">
        <ele>1784.6</ele>
        <time>2021-08-02T14:44:59Z</time>
      </trkpt>
      <trkpt lat="45.76082" lon="6.55215">
        <ele>1784.6</ele>
        <time>2021-08-02T14:45:00Z</time>
      </trkpt>
      <trkpt lat="45.76088" lon="6.55207">
        <ele>1785.2</ele>
        <time>2021-08-02T14:45:03Z</time>
      </trkpt>
      <trkpt lat="45.7609" lon="6.55203">
        <ele>1785.4</ele>
        <time>2021-08-02T14:45:04Z</time>
      </trkpt>
      <trkpt lat="45.76099" lon="6.5517">
        <ele>1786</ele>
        <time>2021-08-02T14:45:11Z</time>
      </trkpt>
      <trkpt lat="45.76109" lon="6.55139">
        <ele>1786</ele>
        <time>2021-08-02T14:45:16Z</time>
      </trkpt>
      <trkpt lat="45.76118" lon="6.55119">
        <ele>1786</ele>
        <time>2021-08-02T14:45:19Z</time>
      </trkpt>
      <trkpt lat="45.76127" lon="6.55102">
        <ele>1785.8</ele>
        <time>2021-08-02T14:45:22Z</time>
      </trkpt>
      <trkpt lat="45.76138" lon="6.55091">
        <ele>1785.6</ele>
        <time>2021-08-02T14:45:26Z</time>
      </trkpt>
      <trkpt lat="45.76155" lon="6.55081">
        <ele>1786.4</ele>
        <time>2021-08-02T14:45:33Z</time>
      </trkpt>
      <trkpt lat="45.76163" lon="6.55077">
        <ele>1787.6</ele>
        <time>2021-08-02T14:45:36Z</time>
      </trkpt>
      <trkpt lat="45.7617" lon="6.55069">
        <ele>1788.8</ele>
        <time>2021-08-02T14:45:39Z</time>
      </trkpt>
      <trkpt lat="45.76173" lon="6.55063">
        <ele>1789.4</ele>
        <time>2021-08-02T14:45:41Z</time>
      </trkpt>
      <trkpt lat="45.76181" lon="6.55049">
        <ele>1789.8</ele>
        <time>2021-08-02T14:45:46Z</time>
      </trkpt>
      <trkpt lat="45.76184" lon="6.55039">
        <ele>1790.6</ele>
        <time>2021-08-02T14:45:49Z</time>
      </trkpt>
      <trkpt lat="45.76186" lon="6.55033">
        <ele>1791</ele>
        <time>2021-08-02T14:45:51Z</time>
      </trkpt>
      <trkpt lat="45.76195" lon="6.55009">
        <ele>1791.8</ele>
        <time>2021-08-02T14:45:59Z</time>
      </trkpt>
      <trkpt lat="45.76197" lon="6.55003">
        <ele>1792.2</ele>
        <time>2021-08-02T14:46:01Z</time>
      </trkpt>
      <trkpt lat="45.76203" lon="6.54987">
        <ele>1793.2</ele>
        <time>2021-08-02T14:46:06Z</time>
      </trkpt>
      <trkpt lat="45.76207" lon="6.54978">
        <ele>1793.8</ele>
        <time>2021-08-02T14:46:09Z</time>
      </trkpt>
      <trkpt lat="45.76214" lon="6.54957">
        <ele>1794.2</ele>
        <time>2021-08-02T14:46:15Z</time>
      </trkpt>
      <trkpt lat="45.76215" lon="6.54954">
        <ele>1794.4</ele>
        <time>2021-08-02T14:46:16Z</time>
      </trkpt>
      <trkpt lat="45.76222" lon="6.54929">
        <ele>1795.2</ele>
        <time>2021-08-02T14:46:23Z</time>
      </trkpt>
      <trkpt lat="45.76223" lon="6.54926">
        <ele>1795.4</ele>
        <time>2021-08-02T14:46:24Z</time>
      </trkpt>
      <trkpt lat="45.76229" lon="6.549">
        <ele>1796.6</ele>
        <time>2021-08-02T14:46:31Z</time>
      </trkpt>
      <trkpt lat="45.76231" lon="6.54893">
        <ele>1797.2</ele>
        <time>2021-08-02T14:46:33Z</time>
      </trkpt>
      <trkpt lat="45.76233" lon="6.54886">
        <ele>1797.6</ele>
        <time>2021-08-02T14:46:35Z</time>
      </trkpt>
      <trkpt lat="45.76235" lon="6.54873">
        <ele>1798.6</ele>
        <time>2021-08-02T14:46:39Z</time>
      </trkpt>
      <trkpt lat="45.76236" lon="6.54867">
        <ele>1799.2</ele>
        <time>2021-08-02T14:46:41Z</time>
      </trkpt>
      <trkpt lat="45.76238" lon="6.5486">
        <ele>1799.8</ele>
        <time>2021-08-02T14:46:43Z</time>
      </trkpt>
      <trkpt lat="45.76242" lon="6.54844">
        <ele>1801</ele>
        <time>2021-08-02T14:46:48Z</time>
      </trkpt>
      <trkpt lat="45.76243" lon="6.54841">
        <ele>1801.2</ele>
        <time>2021-08-02T14:46:49Z</time>
      </trkpt>
      <trkpt lat="45.7625" lon="6.54823">
        <ele>1802</ele>
        <time>2021-08-02T14:46:55Z</time>
      </trkpt>
      <trkpt lat="45.76255" lon="6.54809">
        <ele>1803</ele>
        <time>2021-08-02T14:46:59Z</time>
      </trkpt>
      <trkpt lat="45.76256" lon="6.54806">
        <ele>1803.2</ele>
        <time>2021-08-02T14:47:00Z</time>
      </trkpt>
      <trkpt lat="45.76266" lon="6.54779">
        <ele>1804.2</ele>
        <time>2021-08-02T14:47:07Z</time>
      </trkpt>
      <trkpt lat="45.76281" lon="6.54752">
        <ele>1805</ele>
        <time>2021-08-02T14:47:15Z</time>
      </trkpt>
      <trkpt lat="45.76287" lon="6.54746">
        <ele>1805.4</ele>
        <time>2021-08-02T14:47:18Z</time>
      </trkpt>
      <trkpt lat="45.76295" lon="6.54744">
        <ele>1805.8</ele>
        <time>2021-08-02T14:47:21Z</time>
      </trkpt>
      <trkpt lat="45.76302" lon="6.54747">
        <ele>1806.4</ele>
        <time>2021-08-02T14:47:24Z</time>
      </trkpt>
      <trkpt lat="45.76307" lon="6.5475">
        <ele>1806.8</ele>
        <time>2021-08-02T14:47:26Z</time>
      </trkpt>
      <trkpt lat="45.76318" lon="6.54753">
        <ele>1807.8</ele>
        <time>2021-08-02T14:47:30Z</time>
      </trkpt>
      <trkpt lat="45.76328" lon="6.54755">
        <ele>1809</ele>
        <time>2021-08-02T14:47:33Z</time>
      </trkpt>
      <trkpt lat="45.76331" lon="6.54756">
        <ele>1809.2</ele>
        <time>2021-08-02T14:47:34Z</time>
      </trkpt>
      <trkpt lat="45.76347" lon="6.54759">
        <ele>1810</ele>
        <time>2021-08-02T14:47:38Z</time>
      </trkpt>
      <trkpt lat="45.76362" lon="6.54765">
        <ele>1810.6</ele>
        <time>2021-08-02T14:47:42Z</time>
      </trkpt>
      <trkpt lat="45.76389" lon="6.54777">
        <ele>1811</ele>
        <time>2021-08-02T14:47:50Z</time>
      </trkpt>
      <trkpt lat="45.76395" lon="6.54779">
        <ele>1811.2</ele>
        <time>2021-08-02T14:47:52Z</time>
      </trkpt>
      <trkpt lat="45.76409" lon="6.54784">
        <ele>1811.8</ele>
        <time>2021-08-02T14:47:57Z</time>
      </trkpt>
      <trkpt lat="45.76417" lon="6.54787">
        <ele>1812.2</ele>
        <time>2021-08-02T14:48:00Z</time>
      </trkpt>
      <trkpt lat="45.76432" lon="6.54794">
        <ele>1813.4</ele>
        <time>2021-08-02T14:48:06Z</time>
      </trkpt>
      <trkpt lat="45.76437" lon="6.54795">
        <ele>1813.8</ele>
        <time>2021-08-02T14:48:08Z</time>
      </trkpt>
      <trkpt lat="45.76444" lon="6.54798">
        <ele>1814.4</ele>
        <time>2021-08-02T14:48:11Z</time>
      </trkpt>
      <trkpt lat="45.76454" lon="6.54802">
        <ele>1815.6</ele>
        <time>2021-08-02T14:48:15Z</time>
      </trkpt>
      <trkpt lat="45.76459" lon="6.54804">
        <ele>1816</ele>
        <time>2021-08-02T14:48:17Z</time>
      </trkpt>
      <trkpt lat="45.76468" lon="6.54807">
        <ele>1816.6</ele>
        <time>2021-08-02T14:48:21Z</time>
      </trkpt>
      <trkpt lat="45.7648" lon="6.54812">
        <ele>1817.8</ele>
        <time>2021-08-02T14:48:26Z</time>
      </trkpt>
      <trkpt lat="45.76494" lon="6.54818">
        <ele>1818.8</ele>
        <time>2021-08-02T14:48:32Z</time>
      </trkpt>
      <trkpt lat="45.76506" lon="6.54823">
        <ele>1819.6</ele>
        <time>2021-08-02T14:48:37Z</time>
      </trkpt>
      <trkpt lat="45.7651" lon="6.54825">
        <ele>1820</ele>
        <time>2021-08-02T14:48:39Z</time>
      </trkpt>
      <trkpt lat="45.7652" lon="6.54829">
        <ele>1821</ele>
        <time>2021-08-02T14:48:43Z</time>
      </trkpt>
      <trkpt lat="45.76527" lon="6.54833">
        <ele>1821.2</ele>
        <time>2021-08-02T14:48:46Z</time>
      </trkpt>
      <trkpt lat="45.76536" lon="6.54838">
        <ele>1822</ele>
        <time>2021-08-02T14:48:50Z</time>
      </trkpt>
      <trkpt lat="45.76548" lon="6.54844">
        <ele>1822.8</ele>
        <time>2021-08-02T14:48:55Z</time>
      </trkpt>
      <trkpt lat="45.7655" lon="6.54845">
        <ele>1823</ele>
        <time>2021-08-02T14:48:56Z</time>
      </trkpt>
      <trkpt lat="45.76565" lon="6.54851">
        <ele>1823.8</ele>
        <time>2021-08-02T14:49:03Z</time>
      </trkpt>
      <trkpt lat="45.76569" lon="6.54853">
        <ele>1824</ele>
        <time>2021-08-02T14:49:05Z</time>
      </trkpt>
      <trkpt lat="45.76576" lon="6.54853">
        <ele>1824.8</ele>
        <time>2021-08-02T14:49:09Z</time>
      </trkpt>
      <trkpt lat="45.76579" lon="6.54854">
        <ele>1825.2</ele>
        <time>2021-08-02T14:49:11Z</time>
      </trkpt>
      <trkpt lat="45.76583" lon="6.54854">
        <ele>1826.2</ele>
        <time>2021-08-02T14:49:13Z</time>
      </trkpt>
      <trkpt lat="45.76592" lon="6.54857">
        <ele>1827.4</ele>
        <time>2021-08-02T14:49:18Z</time>
      </trkpt>
      <trkpt lat="45.76599" lon="6.54859">
        <ele>1827.8</ele>
        <time>2021-08-02T14:49:22Z</time>
      </trkpt>
      <trkpt lat="45.76601" lon="6.54859">
        <ele>1828</ele>
        <time>2021-08-02T14:49:23Z</time>
      </trkpt>
      <trkpt lat="45.76604" lon="6.54858">
        <ele>1828.4</ele>
        <time>2021-08-02T14:49:25Z</time>
      </trkpt>
      <trkpt lat="45.76615" lon="6.54856">
        <ele>1829.4</ele>
        <time>2021-08-02T14:49:31Z</time>
      </trkpt>
      <trkpt lat="45.76623" lon="6.54852">
        <ele>1830.4</ele>
        <time>2021-08-02T14:49:36Z</time>
      </trkpt>
      <trkpt lat="45.76626" lon="6.5485">
        <ele>1830.6</ele>
        <time>2021-08-02T14:49:38Z</time>
      </trkpt>
      <trkpt lat="45.76631" lon="6.54847">
        <ele>1831.4</ele>
        <time>2021-08-02T14:49:41Z</time>
      </trkpt>
      <trkpt lat="45.76637" lon="6.54842">
        <ele>1832.2</ele>
        <time>2021-08-02T14:49:45Z</time>
      </trkpt>
      <trkpt lat="45.7664" lon="6.54839">
        <ele>1832.6</ele>
        <time>2021-08-02T14:49:47Z</time>
      </trkpt>
      <trkpt lat="45.76646" lon="6.54832">
        <ele>1833.8</ele>
        <time>2021-08-02T14:49:51Z</time>
      </trkpt>
      <trkpt lat="45.76649" lon="6.54829">
        <ele>1834.2</ele>
        <time>2021-08-02T14:49:53Z</time>
      </trkpt>
      <trkpt lat="45.76654" lon="6.54824">
        <ele>1834.8</ele>
        <time>2021-08-02T14:49:56Z</time>
      </trkpt>
      <trkpt lat="45.76663" lon="6.54815">
        <ele>1835.6</ele>
        <time>2021-08-02T14:50:01Z</time>
      </trkpt>
      <trkpt lat="45.76665" lon="6.54813">
        <ele>1836</ele>
        <time>2021-08-02T14:50:02Z</time>
      </trkpt>
      <trkpt lat="45.76677" lon="6.54803">
        <ele>1836.6</ele>
        <time>2021-08-02T14:50:08Z</time>
      </trkpt>
      <trkpt lat="45.76679" lon="6.54801">
        <ele>1837</ele>
        <time>2021-08-02T14:50:09Z</time>
      </trkpt>
      <trkpt lat="45.76692" lon="6.5479">
        <ele>1837.8</ele>
        <time>2021-08-02T14:50:16Z</time>
      </trkpt>
      <trkpt lat="45.76696" lon="6.54787">
        <ele>1838</ele>
        <time>2021-08-02T14:50:18Z</time>
      </trkpt>
      <trkpt lat="45.76708" lon="6.54782">
        <ele>1838.8</ele>
        <time>2021-08-02T14:50:25Z</time>
      </trkpt>
      <trkpt lat="45.7671" lon="6.54781">
        <ele>1839</ele>
        <time>2021-08-02T14:50:26Z</time>
      </trkpt>
      <trkpt lat="45.76719" lon="6.54778">
        <ele>1840.2</ele>
        <time>2021-08-02T14:50:31Z</time>
      </trkpt>
      <trkpt lat="45.76722" lon="6.54777">
        <ele>1840.6</ele>
        <time>2021-08-02T14:50:33Z</time>
      </trkpt>
      <trkpt lat="45.76729" lon="6.54776">
        <ele>1841.6</ele>
        <time>2021-08-02T14:50:37Z</time>
      </trkpt>
      <trkpt lat="45.76734" lon="6.54776">
        <ele>1842.2</ele>
        <time>2021-08-02T14:50:40Z</time>
      </trkpt>
      <trkpt lat="45.76737" lon="6.54775">
        <ele>1842.8</ele>
        <time>2021-08-02T14:50:42Z</time>
      </trkpt>
      <trkpt lat="45.76743" lon="6.54774">
        <ele>1843.8</ele>
        <time>2021-08-02T14:50:46Z</time>
      </trkpt>
      <trkpt lat="45.76744" lon="6.54773">
        <ele>1844.2</ele>
        <time>2021-08-02T14:50:47Z</time>
      </trkpt>
      <trkpt lat="45.76748" lon="6.54771">
        <ele>1844.8</ele>
        <time>2021-08-02T14:50:50Z</time>
      </trkpt>
      <trkpt lat="45.76754" lon="6.54766">
        <ele>1846</ele>
        <time>2021-08-02T14:50:55Z</time>
      </trkpt>
      <trkpt lat="45.76756" lon="6.54765">
        <ele>1846.2</ele>
        <time>2021-08-02T14:50:56Z</time>
      </trkpt>
      <trkpt lat="45.76759" lon="6.5476">
        <ele>1847</ele>
        <time>2021-08-02T14:50:59Z</time>
      </trkpt>
      <trkpt lat="45.76762" lon="6.54754">
        <ele>1848</ele>
        <time>2021-08-02T14:51:03Z</time>
      </trkpt>
      <trkpt lat="45.76766" lon="6.54749">
        <ele>1849.2</ele>
        <time>2021-08-02T14:51:07Z</time>
      </trkpt>
      <trkpt lat="45.7677" lon="6.54746">
        <ele>1850.4</ele>
        <time>2021-08-02T14:51:11Z</time>
      </trkpt>
      <trkpt lat="45.76772" lon="6.54745">
        <ele>1850.8</ele>
        <time>2021-08-02T14:51:13Z</time>
      </trkpt>
      <trkpt lat="45.76775" lon="6.54744">
        <ele>1851.4</ele>
        <time>2021-08-02T14:51:15Z</time>
      </trkpt>
      <trkpt lat="45.7678" lon="6.54743">
        <ele>1852.6</ele>
        <time>2021-08-02T14:51:19Z</time>
      </trkpt>
      <trkpt lat="45.76783" lon="6.54742">
        <ele>1853</ele>
        <time>2021-08-02T14:51:21Z</time>
      </trkpt>
      <trkpt lat="45.76788" lon="6.54741">
        <ele>1853.6</ele>
        <time>2021-08-02T14:51:26Z</time>
      </trkpt>
      <trkpt lat="45.76792" lon="6.54742">
        <ele>1854.2</ele>
        <time>2021-08-02T14:51:29Z</time>
      </trkpt>
      <trkpt lat="45.76796" lon="6.54742">
        <ele>1854.8</ele>
        <time>2021-08-02T14:51:32Z</time>
      </trkpt>
      <trkpt lat="45.768" lon="6.5474">
        <ele>1855.6</ele>
        <time>2021-08-02T14:51:36Z</time>
      </trkpt>
      <trkpt lat="45.76801" lon="6.54739">
        <ele>1856</ele>
        <time>2021-08-02T14:51:37Z</time>
      </trkpt>
      <trkpt lat="45.76803" lon="6.54734">
        <ele>1857</ele>
        <time>2021-08-02T14:51:40Z</time>
      </trkpt>
      <trkpt lat="45.76805" lon="6.54729">
        <ele>1857.8</ele>
        <time>2021-08-02T14:51:43Z</time>
      </trkpt>
      <trkpt lat="45.76805" lon="6.54725">
        <ele>1858.2</ele>
        <time>2021-08-02T14:51:45Z</time>
      </trkpt>
      <trkpt lat="45.76806" lon="6.54715">
        <ele>1859.2</ele>
        <time>2021-08-02T14:51:50Z</time>
      </trkpt>
      <trkpt lat="45.76807" lon="6.54709">
        <ele>1860.2</ele>
        <time>2021-08-02T14:51:53Z</time>
      </trkpt>
      <trkpt lat="45.76807" lon="6.54707">
        <ele>1860.6</ele>
        <time>2021-08-02T14:51:54Z</time>
      </trkpt>
      <trkpt lat="45.76808" lon="6.54695">
        <ele>1861.6</ele>
        <time>2021-08-02T14:52:00Z</time>
      </trkpt>
      <trkpt lat="45.76808" lon="6.54693">
        <ele>1861.8</ele>
        <time>2021-08-02T14:52:01Z</time>
      </trkpt>
      <trkpt lat="45.76809" lon="6.54683">
        <ele>1862.8</ele>
        <time>2021-08-02T14:52:06Z</time>
      </trkpt>
      <trkpt lat="45.76809" lon="6.54673">
        <ele>1864</ele>
        <time>2021-08-02T14:52:11Z</time>
      </trkpt>
      <trkpt lat="45.76809" lon="6.54665">
        <ele>1865</ele>
        <time>2021-08-02T14:52:15Z</time>
      </trkpt>
      <trkpt lat="45.76811" lon="6.54653">
        <ele>1866.2</ele>
        <time>2021-08-02T14:52:21Z</time>
      </trkpt>
      <trkpt lat="45.76811" lon="6.54651">
        <ele>1866.4</ele>
        <time>2021-08-02T14:52:22Z</time>
      </trkpt>
      <trkpt lat="45.76812" lon="6.54647">
        <ele>1866.6</ele>
        <time>2021-08-02T14:52:24Z</time>
      </trkpt>
      <trkpt lat="45.76812" lon="6.54643">
        <ele>1867.2</ele>
        <time>2021-08-02T14:52:26Z</time>
      </trkpt>
      <trkpt lat="45.76814" lon="6.54635">
        <ele>1868</ele>
        <time>2021-08-02T14:52:30Z</time>
      </trkpt>
      <trkpt lat="45.76814" lon="6.54633">
        <ele>1868.2</ele>
        <time>2021-08-02T14:52:31Z</time>
      </trkpt>
      <trkpt lat="45.76816" lon="6.54622">
        <ele>1869.4</ele>
        <time>2021-08-02T14:52:36Z</time>
      </trkpt>
      <trkpt lat="45.76817" lon="6.54619">
        <ele>1870</ele>
        <time>2021-08-02T14:52:38Z</time>
      </trkpt>
      <trkpt lat="45.7682" lon="6.54614">
        <ele>1870.6</ele>
        <time>2021-08-02T14:52:41Z</time>
      </trkpt>
      <trkpt lat="45.76827" lon="6.54611">
        <ele>1871.6</ele>
        <time>2021-08-02T14:52:46Z</time>
      </trkpt>
      <trkpt lat="45.76829" lon="6.54612">
        <ele>1871.6</ele>
        <time>2021-08-02T14:52:47Z</time>
      </trkpt>
      <trkpt lat="45.76839" lon="6.54619">
        <ele>1872.4</ele>
        <time>2021-08-02T14:52:53Z</time>
      </trkpt>
      <trkpt lat="45.76841" lon="6.54621">
        <ele>1872.8</ele>
        <time>2021-08-02T14:52:54Z</time>
      </trkpt>
      <trkpt lat="45.76847" lon="6.54633">
        <ele>1873.6</ele>
        <time>2021-08-02T14:53:00Z</time>
      </trkpt>
      <trkpt lat="45.76848" lon="6.54635">
        <ele>1873.8</ele>
        <time>2021-08-02T14:53:01Z</time>
      </trkpt>
      <trkpt lat="45.76858" lon="6.54649">
        <ele>1874.8</ele>
        <time>2021-08-02T14:53:09Z</time>
      </trkpt>
      <trkpt lat="45.76868" lon="6.54656">
        <ele>1875.8</ele>
        <time>2021-08-02T14:53:16Z</time>
      </trkpt>
      <trkpt lat="45.76871" lon="6.54657">
        <ele>1876</ele>
        <time>2021-08-02T14:53:18Z</time>
      </trkpt>
      <trkpt lat="45.7688" lon="6.54664">
        <ele>1877</ele>
        <time>2021-08-02T14:53:25Z</time>
      </trkpt>
      <trkpt lat="45.76882" lon="6.54665">
        <ele>1877</ele>
        <time>2021-08-02T14:53:26Z</time>
      </trkpt>
      <trkpt lat="45.76887" lon="6.54668">
        <ele>1878.4</ele>
        <time>2021-08-02T14:53:30Z</time>
      </trkpt>
      <trkpt lat="45.76894" lon="6.54671">
        <ele>1879.6</ele>
        <time>2021-08-02T14:53:35Z</time>
      </trkpt>
      <trkpt lat="45.7691" lon="6.54677">
        <ele>1880.6</ele>
        <time>2021-08-02T14:53:44Z</time>
      </trkpt>
      <trkpt lat="45.76911" lon="6.54678">
        <ele>1880.8</ele>
        <time>2021-08-02T14:53:45Z</time>
      </trkpt>
      <trkpt lat="45.76917" lon="6.54683">
        <ele>1881.8</ele>
        <time>2021-08-02T14:53:49Z</time>
      </trkpt>
      <trkpt lat="45.76923" lon="6.54688">
        <ele>1882.4</ele>
        <time>2021-08-02T14:53:53Z</time>
      </trkpt>
      <trkpt lat="45.76926" lon="6.54691">
        <ele>1882.8</ele>
        <time>2021-08-02T14:53:55Z</time>
      </trkpt>
      <trkpt lat="45.76932" lon="6.54702">
        <ele>1883.8</ele>
        <time>2021-08-02T14:54:01Z</time>
      </trkpt>
      <trkpt lat="45.76934" lon="6.54704">
        <ele>1884</ele>
        <time>2021-08-02T14:54:02Z</time>
      </trkpt>
      <trkpt lat="45.76943" lon="6.5471">
        <ele>1884.6</ele>
        <time>2021-08-02T14:54:07Z</time>
      </trkpt>
      <trkpt lat="45.76959" lon="6.54714">
        <ele>1885</ele>
        <time>2021-08-02T14:54:14Z</time>
      </trkpt>
      <trkpt lat="45.76974" lon="6.54719">
        <ele>1885</ele>
        <time>2021-08-02T14:54:18Z</time>
      </trkpt>
      <trkpt lat="45.76978" lon="6.54721">
        <ele>1885</ele>
        <time>2021-08-02T14:54:19Z</time>
      </trkpt>
      <trkpt lat="45.76987" lon="6.54724">
        <ele>1885</ele>
        <time>2021-08-02T14:54:22Z</time>
      </trkpt>
      <trkpt lat="45.76989" lon="6.54724">
        <ele>1885</ele>
        <time>2021-08-02T14:54:23Z</time>
      </trkpt>
      <trkpt lat="45.76997" lon="6.54723">
        <ele>1885.2</ele>
        <time>2021-08-02T14:54:27Z</time>
      </trkpt>
      <trkpt lat="45.77001" lon="6.54724">
        <ele>1885.4</ele>
        <time>2021-08-02T14:54:29Z</time>
      </trkpt>
      <trkpt lat="45.77002" lon="6.54726">
        <ele>1885.4</ele>
        <time>2021-08-02T14:54:30Z</time>
      </trkpt>
      <trkpt lat="45.77002" lon="6.54732">
        <ele>1886</ele>
        <time>2021-08-02T14:54:34Z</time>
      </trkpt>
      <trkpt lat="45.77002" lon="6.54732">
        <ele>1886.2</ele>
        <time>2021-08-02T14:54:35Z</time>
      </trkpt>
      <trkpt lat="45.77003" lon="6.54732">
        <ele>1888.6</ele>
        <time>2021-08-02T14:55:02Z</time>
      </trkpt>
      <trkpt lat="45.77002" lon="6.5473">
        <ele>1888.6</ele>
        <time>2021-08-02T14:55:03Z</time>
      </trkpt>
      <trkpt lat="45.77" lon="6.54725">
        <ele>1888.4</ele>
        <time>2021-08-02T14:55:05Z</time>
      </trkpt>
      <trkpt lat="45.7699" lon="6.54724">
        <ele>1888.4</ele>
        <time>2021-08-02T14:55:08Z</time>
      </trkpt>
      <trkpt lat="45.76977" lon="6.54731">
        <ele>1887.8</ele>
        <time>2021-08-02T14:55:13Z</time>
      </trkpt>
      <trkpt lat="45.76974" lon="6.5473">
        <ele>1887.4</ele>
        <time>2021-08-02T14:55:14Z</time>
      </trkpt>
      <trkpt lat="45.76971" lon="6.54729">
        <ele>1887.2</ele>
        <time>2021-08-02T14:55:15Z</time>
      </trkpt>
      <trkpt lat="45.76966" lon="6.54727">
        <ele>1886.2</ele>
        <time>2021-08-02T14:55:17Z</time>
      </trkpt>
      <trkpt lat="45.76959" lon="6.54726">
        <ele>1885.8</ele>
        <time>2021-08-02T14:55:19Z</time>
      </trkpt>
      <trkpt lat="45.76953" lon="6.54724">
        <ele>1885.2</ele>
        <time>2021-08-02T14:55:21Z</time>
      </trkpt>
      <trkpt lat="45.76944" lon="6.54727">
        <ele>1884.6</ele>
        <time>2021-08-02T14:55:24Z</time>
      </trkpt>
      <trkpt lat="45.76938" lon="6.54741">
        <ele>1884.6</ele>
        <time>2021-08-02T14:55:29Z</time>
      </trkpt>
      <trkpt lat="45.76938" lon="6.54751">
        <ele>1884.8</ele>
        <time>2021-08-02T14:55:36Z</time>
      </trkpt>
      <trkpt lat="45.76938" lon="6.54751">
        <ele>1885</ele>
        <time>2021-08-02T14:59:39Z</time>
      </trkpt>
      <trkpt lat="45.76938" lon="6.54749">
        <ele>1885</ele>
        <time>2021-08-02T14:59:42Z</time>
      </trkpt>
      <trkpt lat="45.76938" lon="6.54747">
        <ele>1885</ele>
        <time>2021-08-02T15:00:00Z</time>
      </trkpt>
      <trkpt lat="45.76938" lon="6.54745">
        <ele>1885</ele>
        <time>2021-08-02T15:00:02Z</time>
      </trkpt>
      <trkpt lat="45.76937" lon="6.54743">
        <ele>1885</ele>
        <time>2021-08-02T15:00:03Z</time>
      </trkpt>
      <trkpt lat="45.76931" lon="6.5473">
        <ele>1885</ele>
        <time>2021-08-02T15:00:08Z</time>
      </trkpt>
      <trkpt lat="45.76927" lon="6.54727">
        <ele>1885</ele>
        <time>2021-08-02T15:00:10Z</time>
      </trkpt>
      <trkpt lat="45.76924" lon="6.54727">
        <ele>1885</ele>
        <time>2021-08-02T15:00:12Z</time>
      </trkpt>
      <trkpt lat="45.7691" lon="6.54731">
        <ele>1885</ele>
        <time>2021-08-02T15:00:19Z</time>
      </trkpt>
      <trkpt lat="45.76907" lon="6.54734">
        <ele>1885</ele>
        <time>2021-08-02T15:00:23Z</time>
      </trkpt>
      <trkpt lat="45.76905" lon="6.54733">
        <ele>1884.4</ele>
        <time>2021-08-02T15:00:32Z</time>
      </trkpt>
      <trkpt lat="45.76901" lon="6.54734">
        <ele>1884.4</ele>
        <time>2021-08-02T15:00:35Z</time>
      </trkpt>
      <trkpt lat="45.76896" lon="6.54734">
        <ele>1884.4</ele>
        <time>2021-08-02T15:00:37Z</time>
      </trkpt>
      <trkpt lat="45.76893" lon="6.54732">
        <ele>1884.4</ele>
        <time>2021-08-02T15:00:38Z</time>
      </trkpt>
      <trkpt lat="45.76886" lon="6.54729">
        <ele>1884.2</ele>
        <time>2021-08-02T15:00:40Z</time>
      </trkpt>
      <trkpt lat="45.76877" lon="6.54719">
        <ele>1883.8</ele>
        <time>2021-08-02T15:00:42Z</time>
      </trkpt>
      <trkpt lat="45.76865" lon="6.54701">
        <ele>1882.8</ele>
        <time>2021-08-02T15:00:45Z</time>
      </trkpt>
      <trkpt lat="45.76863" lon="6.54695">
        <ele>1882.4</ele>
        <time>2021-08-02T15:00:46Z</time>
      </trkpt>
      <trkpt lat="45.7686" lon="6.5469">
        <ele>1882.2</ele>
        <time>2021-08-02T15:00:47Z</time>
      </trkpt>
      <trkpt lat="45.76853" lon="6.54682">
        <ele>1881.8</ele>
        <time>2021-08-02T15:00:49Z</time>
      </trkpt>
      <trkpt lat="45.7685" lon="6.54678">
        <ele>1881.4</ele>
        <time>2021-08-02T15:00:50Z</time>
      </trkpt>
      <trkpt lat="45.76847" lon="6.54671">
        <ele>1880.8</ele>
        <time>2021-08-02T15:00:52Z</time>
      </trkpt>
      <trkpt lat="45.76845" lon="6.54671">
        <ele>1880.4</ele>
        <time>2021-08-02T15:00:53Z</time>
      </trkpt>
      <trkpt lat="45.76841" lon="6.54682">
        <ele>1880</ele>
        <time>2021-08-02T15:00:55Z</time>
      </trkpt>
      <trkpt lat="45.76841" lon="6.54695">
        <ele>1879.6</ele>
        <time>2021-08-02T15:00:57Z</time>
      </trkpt>
      <trkpt lat="45.76839" lon="6.54699">
        <ele>1879.2</ele>
        <time>2021-08-02T15:00:58Z</time>
      </trkpt>
      <trkpt lat="45.76835" lon="6.54695">
        <ele>1878.4</ele>
        <time>2021-08-02T15:01:00Z</time>
      </trkpt>
      <trkpt lat="45.76829" lon="6.54689">
        <ele>1876.8</ele>
        <time>2021-08-02T15:01:03Z</time>
      </trkpt>
      <trkpt lat="45.76825" lon="6.54705">
        <ele>1875.6</ele>
        <time>2021-08-02T15:01:06Z</time>
      </trkpt>
      <trkpt lat="45.76823" lon="6.54732">
        <ele>1874.2</ele>
        <time>2021-08-02T15:01:09Z</time>
      </trkpt>
      <trkpt lat="45.76826" lon="6.54746">
        <ele>1873.4</ele>
        <time>2021-08-02T15:01:11Z</time>
      </trkpt>
      <trkpt lat="45.76827" lon="6.54751">
        <ele>1873</ele>
        <time>2021-08-02T15:01:12Z</time>
      </trkpt>
      <trkpt lat="45.76827" lon="6.54758">
        <ele>1871.4</ele>
        <time>2021-08-02T15:01:14Z</time>
      </trkpt>
      <trkpt lat="45.76826" lon="6.54761">
        <ele>1870.2</ele>
        <time>2021-08-02T15:01:15Z</time>
      </trkpt>
      <trkpt lat="45.76826" lon="6.54764">
        <ele>1868.4</ele>
        <time>2021-08-02T15:01:16Z</time>
      </trkpt>
      <trkpt lat="45.76827" lon="6.54767">
        <ele>1867</ele>
        <time>2021-08-02T15:01:17Z</time>
      </trkpt>
      <trkpt lat="45.76828" lon="6.54771">
        <ele>1866</ele>
        <time>2021-08-02T15:01:18Z</time>
      </trkpt>
      <trkpt lat="45.76827" lon="6.5478">
        <ele>1864.6</ele>
        <time>2021-08-02T15:01:20Z</time>
      </trkpt>
      <trkpt lat="45.76822" lon="6.5478">
        <ele>1864.2</ele>
        <time>2021-08-02T15:01:21Z</time>
      </trkpt>
      <trkpt lat="45.76813" lon="6.54775">
        <ele>1863</ele>
        <time>2021-08-02T15:01:23Z</time>
      </trkpt>
      <trkpt lat="45.76807" lon="6.54773">
        <ele>1862.2</ele>
        <time>2021-08-02T15:01:24Z</time>
      </trkpt>
      <trkpt lat="45.76801" lon="6.54773">
        <ele>1861.4</ele>
        <time>2021-08-02T15:01:25Z</time>
      </trkpt>
      <trkpt lat="45.76788" lon="6.54773">
        <ele>1860</ele>
        <time>2021-08-02T15:01:27Z</time>
      </trkpt>
      <trkpt lat="45.76783" lon="6.54771">
        <ele>1859.6</ele>
        <time>2021-08-02T15:01:28Z</time>
      </trkpt>
      <trkpt lat="45.76776" lon="6.54772">
        <ele>1858.6</ele>
        <time>2021-08-02T15:01:30Z</time>
      </trkpt>
      <trkpt lat="45.76773" lon="6.54775">
        <ele>1858</ele>
        <time>2021-08-02T15:01:31Z</time>
      </trkpt>
      <trkpt lat="45.76769" lon="6.54778">
        <ele>1857.2</ele>
        <time>2021-08-02T15:01:32Z</time>
      </trkpt>
      <trkpt lat="45.76759" lon="6.54782">
        <ele>1854.6</ele>
        <time>2021-08-02T15:01:34Z</time>
      </trkpt>
      <trkpt lat="45.76748" lon="6.54789">
        <ele>1853.4</ele>
        <time>2021-08-02T15:01:36Z</time>
      </trkpt>
      <trkpt lat="45.76742" lon="6.54789">
        <ele>1853</ele>
        <time>2021-08-02T15:01:37Z</time>
      </trkpt>
      <trkpt lat="45.76723" lon="6.54792">
        <ele>1852</ele>
        <time>2021-08-02T15:01:40Z</time>
      </trkpt>
      <trkpt lat="45.76716" lon="6.54795">
        <ele>1851</ele>
        <time>2021-08-02T15:01:41Z</time>
      </trkpt>
      <trkpt lat="45.7671" lon="6.54798">
        <ele>1850</ele>
        <time>2021-08-02T15:01:42Z</time>
      </trkpt>
      <trkpt lat="45.76698" lon="6.54805">
        <ele>1848</ele>
        <time>2021-08-02T15:01:44Z</time>
      </trkpt>
      <trkpt lat="45.76692" lon="6.54807">
        <ele>1847.2</ele>
        <time>2021-08-02T15:01:45Z</time>
      </trkpt>
      <trkpt lat="45.76687" lon="6.54809">
        <ele>1846.4</ele>
        <time>2021-08-02T15:01:46Z</time>
      </trkpt>
      <trkpt lat="45.76677" lon="6.5482">
        <ele>1845.4</ele>
        <time>2021-08-02T15:01:48Z</time>
      </trkpt>
      <trkpt lat="45.76665" lon="6.54822">
        <ele>1844</ele>
        <time>2021-08-02T15:01:50Z</time>
      </trkpt>
      <trkpt lat="45.76653" lon="6.5483">
        <ele>1843.2</ele>
        <time>2021-08-02T15:01:52Z</time>
      </trkpt>
      <trkpt lat="45.76648" lon="6.54837">
        <ele>1842.6</ele>
        <time>2021-08-02T15:01:53Z</time>
      </trkpt>
      <trkpt lat="45.76639" lon="6.54851">
        <ele>1841.2</ele>
        <time>2021-08-02T15:01:55Z</time>
      </trkpt>
      <trkpt lat="45.76627" lon="6.54859">
        <ele>1840</ele>
        <time>2021-08-02T15:01:57Z</time>
      </trkpt>
      <trkpt lat="45.76622" lon="6.54862">
        <ele>1839</ele>
        <time>2021-08-02T15:01:58Z</time>
      </trkpt>
      <trkpt lat="45.76616" lon="6.54866">
        <ele>1838.4</ele>
        <time>2021-08-02T15:01:59Z</time>
      </trkpt>
      <trkpt lat="45.76598" lon="6.54869">
        <ele>1837.4</ele>
        <time>2021-08-02T15:02:02Z</time>
      </trkpt>
      <trkpt lat="45.76592" lon="6.54868">
        <ele>1837</ele>
        <time>2021-08-02T15:02:03Z</time>
      </trkpt>
      <trkpt lat="45.7658" lon="6.54867">
        <ele>1836</ele>
        <time>2021-08-02T15:02:05Z</time>
      </trkpt>
      <trkpt lat="45.76568" lon="6.54866">
        <ele>1834</ele>
        <time>2021-08-02T15:02:07Z</time>
      </trkpt>
      <trkpt lat="45.76554" lon="6.54866">
        <ele>1832.4</ele>
        <time>2021-08-02T15:02:09Z</time>
      </trkpt>
      <trkpt lat="45.76547" lon="6.54864">
        <ele>1831.6</ele>
        <time>2021-08-02T15:02:10Z</time>
      </trkpt>
      <trkpt lat="45.7654" lon="6.54858">
        <ele>1830.8</ele>
        <time>2021-08-02T15:02:11Z</time>
      </trkpt>
      <trkpt lat="45.76525" lon="6.54851">
        <ele>1829.4</ele>
        <time>2021-08-02T15:02:13Z</time>
      </trkpt>
      <trkpt lat="45.76518" lon="6.5485">
        <ele>1828.8</ele>
        <time>2021-08-02T15:02:14Z</time>
      </trkpt>
      <trkpt lat="45.7651" lon="6.54849">
        <ele>1828.4</ele>
        <time>2021-08-02T15:02:15Z</time>
      </trkpt>
      <trkpt lat="45.76497" lon="6.54847">
        <ele>1827.2</ele>
        <time>2021-08-02T15:02:17Z</time>
      </trkpt>
      <trkpt lat="45.76491" lon="6.54844">
        <ele>1826.4</ele>
        <time>2021-08-02T15:02:18Z</time>
      </trkpt>
      <trkpt lat="45.76486" lon="6.5484">
        <ele>1825</ele>
        <time>2021-08-02T15:02:19Z</time>
      </trkpt>
      <trkpt lat="45.76481" lon="6.54838">
        <ele>1823.4</ele>
        <time>2021-08-02T15:02:20Z</time>
      </trkpt>
      <trkpt lat="45.76475" lon="6.54838">
        <ele>1822.4</ele>
        <time>2021-08-02T15:02:21Z</time>
      </trkpt>
      <trkpt lat="45.76464" lon="6.54836">
        <ele>1821.2</ele>
        <time>2021-08-02T15:02:23Z</time>
      </trkpt>
      <trkpt lat="45.76458" lon="6.54838">
        <ele>1820.8</ele>
        <time>2021-08-02T15:02:24Z</time>
      </trkpt>
      <trkpt lat="45.7645" lon="6.54831">
        <ele>1820.6</ele>
        <time>2021-08-02T15:02:26Z</time>
      </trkpt>
      <trkpt lat="45.76438" lon="6.54812">
        <ele>1820.2</ele>
        <time>2021-08-02T15:02:29Z</time>
      </trkpt>
      <trkpt lat="45.76432" lon="6.54811">
        <ele>1820.2</ele>
        <time>2021-08-02T15:02:30Z</time>
      </trkpt>
      <trkpt lat="45.76425" lon="6.54809">
        <ele>1819.6</ele>
        <time>2021-08-02T15:02:31Z</time>
      </trkpt>
      <trkpt lat="45.7641" lon="6.54803">
        <ele>1819.2</ele>
        <time>2021-08-02T15:02:33Z</time>
      </trkpt>
      <trkpt lat="45.76394" lon="6.54797">
        <ele>1817.4</ele>
        <time>2021-08-02T15:02:35Z</time>
      </trkpt>
      <trkpt lat="45.76386" lon="6.54794">
        <ele>1816.8</ele>
        <time>2021-08-02T15:02:36Z</time>
      </trkpt>
      <trkpt lat="45.76379" lon="6.54788">
        <ele>1816.4</ele>
        <time>2021-08-02T15:02:37Z</time>
      </trkpt>
      <trkpt lat="45.76362" lon="6.54773">
        <ele>1814.8</ele>
        <time>2021-08-02T15:02:40Z</time>
      </trkpt>
      <trkpt lat="45.76357" lon="6.54767">
        <ele>1813.2</ele>
        <time>2021-08-02T15:02:42Z</time>
      </trkpt>
      <trkpt lat="45.76353" lon="6.54762">
        <ele>1812</ele>
        <time>2021-08-02T15:02:44Z</time>
      </trkpt>
      <trkpt lat="45.76344" lon="6.54759">
        <ele>1810.8</ele>
        <time>2021-08-02T15:02:47Z</time>
      </trkpt>
      <trkpt lat="45.7634" lon="6.54758">
        <ele>1810.6</ele>
        <time>2021-08-02T15:02:48Z</time>
      </trkpt>
      <trkpt lat="45.76336" lon="6.54757">
        <ele>1810.4</ele>
        <time>2021-08-02T15:02:49Z</time>
      </trkpt>
      <trkpt lat="45.76316" lon="6.54751">
        <ele>1810.2</ele>
        <time>2021-08-02T15:02:54Z</time>
      </trkpt>
      <trkpt lat="45.76299" lon="6.54746">
        <ele>1809.8</ele>
        <time>2021-08-02T15:02:58Z</time>
      </trkpt>
      <trkpt lat="45.76289" lon="6.54745">
        <ele>1809.6</ele>
        <time>2021-08-02T15:03:00Z</time>
      </trkpt>
      <trkpt lat="45.76284" lon="6.54747">
        <ele>1809.6</ele>
        <time>2021-08-02T15:03:01Z</time>
      </trkpt>
      <trkpt lat="45.76267" lon="6.54772">
        <ele>1809</ele>
        <time>2021-08-02T15:03:05Z</time>
      </trkpt>
      <trkpt lat="45.76263" lon="6.5478">
        <ele>1808.6</ele>
        <time>2021-08-02T15:03:06Z</time>
      </trkpt>
      <trkpt lat="45.76259" lon="6.54789">
        <ele>1808.2</ele>
        <time>2021-08-02T15:03:07Z</time>
      </trkpt>
      <trkpt lat="45.76249" lon="6.54816">
        <ele>1807.6</ele>
        <time>2021-08-02T15:03:10Z</time>
      </trkpt>
      <trkpt lat="45.76241" lon="6.54843">
        <ele>1806.4</ele>
        <time>2021-08-02T15:03:13Z</time>
      </trkpt>
      <trkpt lat="45.76233" lon="6.54875">
        <ele>1805.4</ele>
        <time>2021-08-02T15:03:16Z</time>
      </trkpt>
      <trkpt lat="45.7622" lon="6.54925">
        <ele>1804.2</ele>
        <time>2021-08-02T15:03:20Z</time>
      </trkpt>
      <trkpt lat="45.76212" lon="6.5495">
        <ele>1803.6</ele>
        <time>2021-08-02T15:03:23Z</time>
      </trkpt>
      <trkpt lat="45.7621" lon="6.54957">
        <ele>1802.8</ele>
        <time>2021-08-02T15:03:24Z</time>
      </trkpt>
      <trkpt lat="45.76205" lon="6.54972">
        <ele>1801.2</ele>
        <time>2021-08-02T15:03:26Z</time>
      </trkpt>
      <trkpt lat="45.76203" lon="6.5498">
        <ele>1800</ele>
        <time>2021-08-02T15:03:27Z</time>
      </trkpt>
      <trkpt lat="45.762" lon="6.54988">
        <ele>1798.6</ele>
        <time>2021-08-02T15:03:28Z</time>
      </trkpt>
      <trkpt lat="45.76198" lon="6.54997">
        <ele>1798.2</ele>
        <time>2021-08-02T15:03:29Z</time>
      </trkpt>
      <trkpt lat="45.76191" lon="6.55018">
        <ele>1797.2</ele>
        <time>2021-08-02T15:03:32Z</time>
      </trkpt>
      <trkpt lat="45.76189" lon="6.55025">
        <ele>1796.6</ele>
        <time>2021-08-02T15:03:33Z</time>
      </trkpt>
      <trkpt lat="45.76186" lon="6.55033">
        <ele>1796.2</ele>
        <time>2021-08-02T15:03:34Z</time>
      </trkpt>
      <trkpt lat="45.76175" lon="6.55055">
        <ele>1795</ele>
        <time>2021-08-02T15:03:37Z</time>
      </trkpt>
      <trkpt lat="45.7617" lon="6.55063">
        <ele>1794.8</ele>
        <time>2021-08-02T15:03:38Z</time>
      </trkpt>
      <trkpt lat="45.76156" lon="6.55081">
        <ele>1794</ele>
        <time>2021-08-02T15:03:41Z</time>
      </trkpt>
      <trkpt lat="45.76151" lon="6.55086">
        <ele>1793.6</ele>
        <time>2021-08-02T15:03:42Z</time>
      </trkpt>
      <trkpt lat="45.76139" lon="6.55095">
        <ele>1792.6</ele>
        <time>2021-08-02T15:03:44Z</time>
      </trkpt>
      <trkpt lat="45.76126" lon="6.55107">
        <ele>1791.6</ele>
        <time>2021-08-02T15:03:46Z</time>
      </trkpt>
      <trkpt lat="45.76109" lon="6.55135">
        <ele>1790.4</ele>
        <time>2021-08-02T15:03:49Z</time>
      </trkpt>
      <trkpt lat="45.76105" lon="6.55146">
        <ele>1790</ele>
        <time>2021-08-02T15:03:50Z</time>
      </trkpt>
      <trkpt lat="45.76102" lon="6.55156">
        <ele>1789.4</ele>
        <time>2021-08-02T15:03:51Z</time>
      </trkpt>
      <trkpt lat="45.76099" lon="6.55166">
        <ele>1788.8</ele>
        <time>2021-08-02T15:03:52Z</time>
      </trkpt>
      <trkpt lat="45.76098" lon="6.55175">
        <ele>1787.8</ele>
        <time>2021-08-02T15:03:53Z</time>
      </trkpt>
      <trkpt lat="45.76096" lon="6.55184">
        <ele>1786.8</ele>
        <time>2021-08-02T15:03:54Z</time>
      </trkpt>
      <trkpt lat="45.76093" lon="6.55192">
        <ele>1786.2</ele>
        <time>2021-08-02T15:03:55Z</time>
      </trkpt>
      <trkpt lat="45.76091" lon="6.552">
        <ele>1786</ele>
        <time>2021-08-02T15:03:56Z</time>
      </trkpt>
      <trkpt lat="45.7608" lon="6.55218">
        <ele>1785.4</ele>
        <time>2021-08-02T15:03:59Z</time>
      </trkpt>
      <trkpt lat="45.76077" lon="6.55222">
        <ele>1785.4</ele>
        <time>2021-08-02T15:04:00Z</time>
      </trkpt>
      <trkpt lat="45.76067" lon="6.55238">
        <ele>1785.2</ele>
        <time>2021-08-02T15:04:04Z</time>
      </trkpt>
      <trkpt lat="45.76055" lon="6.55242">
        <ele>1785.2</ele>
        <time>2021-08-02T15:04:07Z</time>
      </trkpt>
      <trkpt lat="45.76046" lon="6.55243">
        <ele>1785.2</ele>
        <time>2021-08-02T15:04:09Z</time>
      </trkpt>
      <trkpt lat="45.76042" lon="6.55245">
        <ele>1785.2</ele>
        <time>2021-08-02T15:04:10Z</time>
      </trkpt>
      <trkpt lat="45.76031" lon="6.55249">
        <ele>1785</ele>
        <time>2021-08-02T15:04:13Z</time>
      </trkpt>
      <trkpt lat="45.76006" lon="6.55261">
        <ele>1784.6</ele>
        <time>2021-08-02T15:04:21Z</time>
      </trkpt>
      <trkpt lat="45.75993" lon="6.55278">
        <ele>1785.4</ele>
        <time>2021-08-02T15:04:28Z</time>
      </trkpt>
      <trkpt lat="45.75988" lon="6.55285">
        <ele>1786.2</ele>
        <time>2021-08-02T15:04:31Z</time>
      </trkpt>
      <trkpt lat="45.75983" lon="6.55295">
        <ele>1787.6</ele>
        <time>2021-08-02T15:04:35Z</time>
      </trkpt>
      <trkpt lat="45.75976" lon="6.55305">
        <ele>1788.6</ele>
        <time>2021-08-02T15:04:39Z</time>
      </trkpt>
      <trkpt lat="45.75966" lon="6.55316">
        <ele>1789.6</ele>
        <time>2021-08-02T15:04:44Z</time>
      </trkpt>
      <trkpt lat="45.75953" lon="6.55327">
        <ele>1790.6</ele>
        <time>2021-08-02T15:04:50Z</time>
      </trkpt>
      <trkpt lat="45.75948" lon="6.55329">
        <ele>1791</ele>
        <time>2021-08-02T15:04:52Z</time>
      </trkpt>
      <trkpt lat="45.75935" lon="6.55336">
        <ele>1791.8</ele>
        <time>2021-08-02T15:04:58Z</time>
      </trkpt>
      <trkpt lat="45.75931" lon="6.55338">
        <ele>1791.8</ele>
        <time>2021-08-02T15:05:00Z</time>
      </trkpt>
      <trkpt lat="45.75924" lon="6.55343">
        <ele>1792.6</ele>
        <time>2021-08-02T15:05:04Z</time>
      </trkpt>
      <trkpt lat="45.75918" lon="6.55346">
        <ele>1793.2</ele>
        <time>2021-08-02T15:05:07Z</time>
      </trkpt>
      <trkpt lat="45.75915" lon="6.55349">
        <ele>1793.8</ele>
        <time>2021-08-02T15:05:09Z</time>
      </trkpt>
      <trkpt lat="45.75906" lon="6.55354">
        <ele>1795</ele>
        <time>2021-08-02T15:05:14Z</time>
      </trkpt>
      <trkpt lat="45.75901" lon="6.55357">
        <ele>1795.4</ele>
        <time>2021-08-02T15:05:17Z</time>
      </trkpt>
      <trkpt lat="45.75897" lon="6.55359">
        <ele>1796</ele>
        <time>2021-08-02T15:05:21Z</time>
      </trkpt>
      <trkpt lat="45.75895" lon="6.55361">
        <ele>1797.6</ele>
        <time>2021-08-02T15:05:35Z</time>
      </trkpt>
      <trkpt lat="45.75884" lon="6.5537">
        <ele>1797.6</ele>
        <time>2021-08-02T15:05:39Z</time>
      </trkpt>
      <trkpt lat="45.75878" lon="6.55377">
        <ele>1797.6</ele>
        <time>2021-08-02T15:05:41Z</time>
      </trkpt>
      <trkpt lat="45.75872" lon="6.55384">
        <ele>1797.6</ele>
        <time>2021-08-02T15:05:43Z</time>
      </trkpt>
      <trkpt lat="45.75858" lon="6.55397">
        <ele>1797.6</ele>
        <time>2021-08-02T15:05:48Z</time>
      </trkpt>
      <trkpt lat="45.75851" lon="6.55412">
        <ele>1797.6</ele>
        <time>2021-08-02T15:05:54Z</time>
      </trkpt>
      <trkpt lat="45.75847" lon="6.55424">
        <ele>1799</ele>
        <time>2021-08-02T15:05:59Z</time>
      </trkpt>
      <trkpt lat="45.75846" lon="6.55426">
        <ele>1799.4</ele>
        <time>2021-08-02T15:06:00Z</time>
      </trkpt>
      <trkpt lat="45.75845" lon="6.5543">
        <ele>1800.2</ele>
        <time>2021-08-02T15:06:02Z</time>
      </trkpt>
      <trkpt lat="45.75842" lon="6.55439">
        <ele>1801.4</ele>
        <time>2021-08-02T15:06:06Z</time>
      </trkpt>
      <trkpt lat="45.75841" lon="6.55441">
        <ele>1801.6</ele>
        <time>2021-08-02T15:06:07Z</time>
      </trkpt>
      <trkpt lat="45.75838" lon="6.5545">
        <ele>1802.4</ele>
        <time>2021-08-02T15:06:11Z</time>
      </trkpt>
      <trkpt lat="45.75835" lon="6.55458">
        <ele>1803.4</ele>
        <time>2021-08-02T15:06:15Z</time>
      </trkpt>
      <trkpt lat="45.75834" lon="6.5546">
        <ele>1803.6</ele>
        <time>2021-08-02T15:06:16Z</time>
      </trkpt>
      <trkpt lat="45.75831" lon="6.55467">
        <ele>1804.8</ele>
        <time>2021-08-02T15:06:20Z</time>
      </trkpt>
      <trkpt lat="45.7583" lon="6.55473">
        <ele>1805.6</ele>
        <time>2021-08-02T15:06:23Z</time>
      </trkpt>
      <trkpt lat="45.75829" lon="6.55475">
        <ele>1805.8</ele>
        <time>2021-08-02T15:06:24Z</time>
      </trkpt>
      <trkpt lat="45.75826" lon="6.55482">
        <ele>1807</ele>
        <time>2021-08-02T15:06:28Z</time>
      </trkpt>
      <trkpt lat="45.75824" lon="6.55487">
        <ele>1807.8</ele>
        <time>2021-08-02T15:06:31Z</time>
      </trkpt>
      <trkpt lat="45.75823" lon="6.55489">
        <ele>1808</ele>
        <time>2021-08-02T15:06:32Z</time>
      </trkpt>
      <trkpt lat="45.75819" lon="6.55499">
        <ele>1809</ele>
        <time>2021-08-02T15:06:38Z</time>
      </trkpt>
      <trkpt lat="45.75813" lon="6.5551">
        <ele>1810</ele>
        <time>2021-08-02T15:06:45Z</time>
      </trkpt>
      <trkpt lat="45.75812" lon="6.55513">
        <ele>1810.4</ele>
        <time>2021-08-02T15:06:47Z</time>
      </trkpt>
      <trkpt lat="45.75809" lon="6.55518">
        <ele>1811.2</ele>
        <time>2021-08-02T15:06:50Z</time>
      </trkpt>
      <trkpt lat="45.75806" lon="6.55524">
        <ele>1811.8</ele>
        <time>2021-08-02T15:06:54Z</time>
      </trkpt>
      <trkpt lat="45.75805" lon="6.55527">
        <ele>1812.4</ele>
        <time>2021-08-02T15:06:56Z</time>
      </trkpt>
      <trkpt lat="45.75802" lon="6.55533">
        <ele>1813.6</ele>
        <time>2021-08-02T15:07:00Z</time>
      </trkpt>
      <trkpt lat="45.75799" lon="6.55538">
        <ele>1814.8</ele>
        <time>2021-08-02T15:07:04Z</time>
      </trkpt>
      <trkpt lat="45.75797" lon="6.55544">
        <ele>1816</ele>
        <time>2021-08-02T15:07:08Z</time>
      </trkpt>
      <trkpt lat="45.75796" lon="6.55547">
        <ele>1816.4</ele>
        <time>2021-08-02T15:07:10Z</time>
      </trkpt>
      <trkpt lat="45.75794" lon="6.55552">
        <ele>1817.2</ele>
        <time>2021-08-02T15:07:13Z</time>
      </trkpt>
      <trkpt lat="45.75792" lon="6.55559">
        <ele>1818.2</ele>
        <time>2021-08-02T15:07:17Z</time>
      </trkpt>
      <trkpt lat="45.75791" lon="6.55563">
        <ele>1818.8</ele>
        <time>2021-08-02T15:07:19Z</time>
      </trkpt>
      <trkpt lat="45.75791" lon="6.55569">
        <ele>1819.2</ele>
        <time>2021-08-02T15:07:22Z</time>
      </trkpt>
      <trkpt lat="45.75791" lon="6.55577">
        <ele>1820.4</ele>
        <time>2021-08-02T15:07:26Z</time>
      </trkpt>
      <trkpt lat="45.75791" lon="6.55586">
        <ele>1821.4</ele>
        <time>2021-08-02T15:07:30Z</time>
      </trkpt>
      <trkpt lat="45.75791" lon="6.55597">
        <ele>1822.4</ele>
        <time>2021-08-02T15:07:35Z</time>
      </trkpt>
      <trkpt lat="45.75791" lon="6.55599">
        <ele>1822.6</ele>
        <time>2021-08-02T15:07:36Z</time>
      </trkpt>
      <trkpt lat="45.7579" lon="6.5561">
        <ele>1823.4</ele>
        <time>2021-08-02T15:07:41Z</time>
      </trkpt>
      <trkpt lat="45.75789" lon="6.55613">
        <ele>1823.6</ele>
        <time>2021-08-02T15:07:43Z</time>
      </trkpt>
      <trkpt lat="45.75786" lon="6.5562">
        <ele>1824.8</ele>
        <time>2021-08-02T15:07:47Z</time>
      </trkpt>
      <trkpt lat="45.75783" lon="6.55624">
        <ele>1825.4</ele>
        <time>2021-08-02T15:07:50Z</time>
      </trkpt>
      <trkpt lat="45.7578" lon="6.55629">
        <ele>1825.8</ele>
        <time>2021-08-02T15:07:54Z</time>
      </trkpt>
      <trkpt lat="45.75775" lon="6.55632">
        <ele>1826.8</ele>
        <time>2021-08-02T15:07:58Z</time>
      </trkpt>
      <trkpt lat="45.75774" lon="6.55632">
        <ele>1827</ele>
        <time>2021-08-02T15:07:59Z</time>
      </trkpt>
      <trkpt lat="45.75769" lon="6.55633">
        <ele>1828.2</ele>
        <time>2021-08-02T15:08:03Z</time>
      </trkpt>
      <trkpt lat="45.75765" lon="6.55632">
        <ele>1828.8</ele>
        <time>2021-08-02T15:08:06Z</time>
      </trkpt>
      <trkpt lat="45.75763" lon="6.55633">
        <ele>1829.4</ele>
        <time>2021-08-02T15:08:08Z</time>
      </trkpt>
      <trkpt lat="45.75757" lon="6.55636">
        <ele>1830.8</ele>
        <time>2021-08-02T15:08:13Z</time>
      </trkpt>
      <trkpt lat="45.75755" lon="6.55637">
        <ele>1831</ele>
        <time>2021-08-02T15:08:14Z</time>
      </trkpt>
      <trkpt lat="45.75754" lon="6.55638">
        <ele>1831.8</ele>
        <time>2021-08-02T15:08:15Z</time>
      </trkpt>
      <trkpt lat="45.75746" lon="6.55643">
        <ele>1832.8</ele>
        <time>2021-08-02T15:08:21Z</time>
      </trkpt>
      <trkpt lat="45.75741" lon="6.55644">
        <ele>1833.4</ele>
        <time>2021-08-02T15:08:24Z</time>
      </trkpt>
      <trkpt lat="45.75737" lon="6.55644">
        <ele>1833.8</ele>
        <time>2021-08-02T15:08:27Z</time>
      </trkpt>
      <trkpt lat="45.75728" lon="6.55644">
        <ele>1834.8</ele>
        <time>2021-08-02T15:08:32Z</time>
      </trkpt>
      <trkpt lat="45.75727" lon="6.55644">
        <ele>1835</ele>
        <time>2021-08-02T15:08:33Z</time>
      </trkpt>
      <trkpt lat="45.75714" lon="6.55645">
        <ele>1835.6</ele>
        <time>2021-08-02T15:08:41Z</time>
      </trkpt>
      <trkpt lat="45.7571" lon="6.55647">
        <ele>1836</ele>
        <time>2021-08-02T15:08:44Z</time>
      </trkpt>
      <trkpt lat="45.75699" lon="6.55648">
        <ele>1836.8</ele>
        <time>2021-08-02T15:08:51Z</time>
      </trkpt>
      <trkpt lat="45.75697" lon="6.55648">
        <ele>1837</ele>
        <time>2021-08-02T15:08:52Z</time>
      </trkpt>
      <trkpt lat="45.75687" lon="6.5565">
        <ele>1838.2</ele>
        <time>2021-08-02T15:08:58Z</time>
      </trkpt>
      <trkpt lat="45.75682" lon="6.55651">
        <ele>1838.8</ele>
        <time>2021-08-02T15:09:01Z</time>
      </trkpt>
      <trkpt lat="45.75679" lon="6.55652">
        <ele>1839.4</ele>
        <time>2021-08-02T15:09:03Z</time>
      </trkpt>
      <trkpt lat="45.75672" lon="6.55655">
        <ele>1840.6</ele>
        <time>2021-08-02T15:09:08Z</time>
      </trkpt>
      <trkpt lat="45.75669" lon="6.55657">
        <ele>1840.8</ele>
        <time>2021-08-02T15:09:10Z</time>
      </trkpt>
      <trkpt lat="45.75664" lon="6.5566">
        <ele>1841.6</ele>
        <time>2021-08-02T15:09:14Z</time>
      </trkpt>
      <trkpt lat="45.75658" lon="6.55664">
        <ele>1842.2</ele>
        <time>2021-08-02T15:09:18Z</time>
      </trkpt>
      <trkpt lat="45.75654" lon="6.55667">
        <ele>1842.8</ele>
        <time>2021-08-02T15:09:21Z</time>
      </trkpt>
      <trkpt lat="45.75648" lon="6.5567">
        <ele>1844</ele>
        <time>2021-08-02T15:09:25Z</time>
      </trkpt>
      <trkpt lat="45.75642" lon="6.55674">
        <ele>1844.6</ele>
        <time>2021-08-02T15:09:29Z</time>
      </trkpt>
      <trkpt lat="45.7564" lon="6.55677">
        <ele>1845.2</ele>
        <time>2021-08-02T15:09:31Z</time>
      </trkpt>
      <trkpt lat="45.75629" lon="6.55682">
        <ele>1846</ele>
        <time>2021-08-02T15:09:38Z</time>
      </trkpt>
      <trkpt lat="45.75628" lon="6.55683">
        <ele>1846.2</ele>
        <time>2021-08-02T15:09:39Z</time>
      </trkpt>
      <trkpt lat="45.75617" lon="6.55687">
        <ele>1847</ele>
        <time>2021-08-02T15:09:46Z</time>
      </trkpt>
      <trkpt lat="45.75615" lon="6.55689">
        <ele>1847.4</ele>
        <time>2021-08-02T15:09:48Z</time>
      </trkpt>
      <trkpt lat="45.7561" lon="6.55695">
        <ele>1848.4</ele>
        <time>2021-08-02T15:09:52Z</time>
      </trkpt>
      <trkpt lat="45.75608" lon="6.55703">
        <ele>1849.4</ele>
        <time>2021-08-02T15:09:56Z</time>
      </trkpt>
      <trkpt lat="45.75608" lon="6.55705">
        <ele>1849.6</ele>
        <time>2021-08-02T15:09:57Z</time>
      </trkpt>
      <trkpt lat="45.7561" lon="6.55718">
        <ele>1850.6</ele>
        <time>2021-08-02T15:10:03Z</time>
      </trkpt>
      <trkpt lat="45.75616" lon="6.5573">
        <ele>1851.8</ele>
        <time>2021-08-02T15:10:09Z</time>
      </trkpt>
      <trkpt lat="45.75619" lon="6.55733">
        <ele>1852.2</ele>
        <time>2021-08-02T15:10:11Z</time>
      </trkpt>
      <trkpt lat="45.75624" lon="6.55736">
        <ele>1852.8</ele>
        <time>2021-08-02T15:10:14Z</time>
      </trkpt>
      <trkpt lat="45.75632" lon="6.55743">
        <ele>1853.6</ele>
        <time>2021-08-02T15:10:20Z</time>
      </trkpt>
      <trkpt lat="45.75636" lon="6.55749">
        <ele>1853.8</ele>
        <time>2021-08-02T15:10:24Z</time>
      </trkpt>
      <trkpt lat="45.75641" lon="6.55755">
        <ele>1855</ele>
        <time>2021-08-02T15:10:29Z</time>
      </trkpt>
      <trkpt lat="45.75648" lon="6.55764">
        <ele>1856</ele>
        <time>2021-08-02T15:10:35Z</time>
      </trkpt>
      <trkpt lat="45.75651" lon="6.55769">
        <ele>1857.2</ele>
        <time>2021-08-02T15:10:38Z</time>
      </trkpt>
      <trkpt lat="45.75653" lon="6.5577">
        <ele>1857.6</ele>
        <time>2021-08-02T15:10:39Z</time>
      </trkpt>
      <trkpt lat="45.75656" lon="6.55772">
        <ele>1858.4</ele>
        <time>2021-08-02T15:10:41Z</time>
      </trkpt>
      <trkpt lat="45.75661" lon="6.55775">
        <ele>1859.6</ele>
        <time>2021-08-02T15:10:44Z</time>
      </trkpt>
      <trkpt lat="45.75664" lon="6.55777">
        <ele>1859.8</ele>
        <time>2021-08-02T15:10:45Z</time>
      </trkpt>
      <trkpt lat="45.75676" lon="6.55779">
        <ele>1860</ele>
        <time>2021-08-02T15:10:50Z</time>
      </trkpt>
      <trkpt lat="45.75697" lon="6.55787">
        <ele>1860</ele>
        <time>2021-08-02T15:10:58Z</time>
      </trkpt>
      <trkpt lat="45.75705" lon="6.55791">
        <ele>1860.2</ele>
        <time>2021-08-02T15:11:04Z</time>
      </trkpt>
      <trkpt lat="45.75705" lon="6.55791">
        <ele>1860.4</ele>
        <time>2021-08-02T15:11:05Z</time>
      </trkpt>
      <trkpt lat="45.75702" lon="6.55792">
        <ele>1862.8</ele>
        <time>2021-08-02T15:11:26Z</time>
      </trkpt>
      <trkpt lat="45.75701" lon="6.55792">
        <ele>1862.8</ele>
        <time>2021-08-02T15:11:27Z</time>
      </trkpt>
      <trkpt lat="45.75696" lon="6.5579">
        <ele>1862.8</ele>
        <time>2021-08-02T15:11:29Z</time>
      </trkpt>
      <trkpt lat="45.75688" lon="6.55786">
        <ele>1862.8</ele>
        <time>2021-08-02T15:11:31Z</time>
      </trkpt>
      <trkpt lat="45.75679" lon="6.55781">
        <ele>1862.8</ele>
        <time>2021-08-02T15:11:33Z</time>
      </trkpt>
      <trkpt lat="45.75675" lon="6.5578">
        <ele>1862.6</ele>
        <time>2021-08-02T15:11:34Z</time>
      </trkpt>
      <trkpt lat="45.75667" lon="6.55784">
        <ele>1862.6</ele>
        <time>2021-08-02T15:11:36Z</time>
      </trkpt>
      <trkpt lat="45.75665" lon="6.55793">
        <ele>1861.8</ele>
        <time>2021-08-02T15:11:38Z</time>
      </trkpt>
      <trkpt lat="45.75666" lon="6.55796">
        <ele>1861.4</ele>
        <time>2021-08-02T15:11:39Z</time>
      </trkpt>
      <trkpt lat="45.75666" lon="6.55801">
        <ele>1861.2</ele>
        <time>2021-08-02T15:11:41Z</time>
      </trkpt>
      <trkpt lat="45.75666" lon="6.55805">
        <ele>1861.2</ele>
        <time>2021-08-02T15:11:44Z</time>
      </trkpt>
      <trkpt lat="45.75666" lon="6.55805">
        <ele>1861.2</ele>
        <time>2021-08-02T15:11:46Z</time>
      </trkpt>
      <trkpt lat="45.75668" lon="6.55803">
        <ele>1862.6</ele>
        <time>2021-08-02T15:11:57Z</time>
      </trkpt>
      <trkpt lat="45.75668" lon="6.55801">
        <ele>1862.6</ele>
        <time>2021-08-02T15:11:59Z</time>
      </trkpt>
      <trkpt lat="45.75671" lon="6.5579">
        <ele>1862.6</ele>
        <time>2021-08-02T15:12:03Z</time>
      </trkpt>
      <trkpt lat="45.7568" lon="6.5578">
        <ele>1862.2</ele>
        <time>2021-08-02T15:12:06Z</time>
      </trkpt>
      <trkpt lat="45.75683" lon="6.55777">
        <ele>1862</ele>
        <time>2021-08-02T15:12:07Z</time>
      </trkpt>
      <trkpt lat="45.75694" lon="6.55765">
        <ele>1860.6</ele>
        <time>2021-08-02T15:12:12Z</time>
      </trkpt>
      <trkpt lat="45.75696" lon="6.55764">
        <ele>1860.2</ele>
        <time>2021-08-02T15:12:13Z</time>
      </trkpt>
      <trkpt lat="45.75704" lon="6.55772">
        <ele>1859.6</ele>
        <time>2021-08-02T15:12:18Z</time>
      </trkpt>
      <trkpt lat="45.75707" lon="6.55773">
        <ele>1859.6</ele>
        <time>2021-08-02T15:12:19Z</time>
      </trkpt>
      <trkpt lat="45.75709" lon="6.55773">
        <ele>1859.6</ele>
        <time>2021-08-02T15:12:20Z</time>
      </trkpt>
      <trkpt lat="45.75722" lon="6.55775">
        <ele>1859.4</ele>
        <time>2021-08-02T15:12:24Z</time>
      </trkpt>
      <trkpt lat="45.75727" lon="6.55774">
        <ele>1859.4</ele>
        <time>2021-08-02T15:12:26Z</time>
      </trkpt>
      <trkpt lat="45.75729" lon="6.55772">
        <ele>1859.4</ele>
        <time>2021-08-02T15:12:27Z</time>
      </trkpt>
      <trkpt lat="45.75737" lon="6.55762">
        <ele>1859</ele>
        <time>2021-08-02T15:12:31Z</time>
      </trkpt>
      <trkpt lat="45.75739" lon="6.5576">
        <ele>1858.4</ele>
        <time>2021-08-02T15:12:32Z</time>
      </trkpt>
      <trkpt lat="45.75745" lon="6.55756">
        <ele>1857.4</ele>
        <time>2021-08-02T15:12:34Z</time>
      </trkpt>
      <trkpt lat="45.75749" lon="6.55753">
        <ele>1856.4</ele>
        <time>2021-08-02T15:12:36Z</time>
      </trkpt>
      <trkpt lat="45.75753" lon="6.55748">
        <ele>1855.8</ele>
        <time>2021-08-02T15:12:38Z</time>
      </trkpt>
      <trkpt lat="45.75756" lon="6.55744">
        <ele>1855.2</ele>
        <time>2021-08-02T15:12:39Z</time>
      </trkpt>
      <trkpt lat="45.75759" lon="6.55739">
        <ele>1854.6</ele>
        <time>2021-08-02T15:12:40Z</time>
      </trkpt>
      <trkpt lat="45.75762" lon="6.55735">
        <ele>1854.2</ele>
        <time>2021-08-02T15:12:41Z</time>
      </trkpt>
      <trkpt lat="45.75766" lon="6.5573">
        <ele>1853.6</ele>
        <time>2021-08-02T15:12:42Z</time>
      </trkpt>
      <trkpt lat="45.75769" lon="6.55725">
        <ele>1852.8</ele>
        <time>2021-08-02T15:12:43Z</time>
      </trkpt>
      <trkpt lat="45.75776" lon="6.55714">
        <ele>1851.2</ele>
        <time>2021-08-02T15:12:45Z</time>
      </trkpt>
      <trkpt lat="45.75783" lon="6.55704">
        <ele>1849</ele>
        <time>2021-08-02T15:12:47Z</time>
      </trkpt>
      <trkpt lat="45.75786" lon="6.55699">
        <ele>1847.6</ele>
        <time>2021-08-02T15:12:48Z</time>
      </trkpt>
      <trkpt lat="45.75789" lon="6.55695">
        <ele>1846.6</ele>
        <time>2021-08-02T15:12:49Z</time>
      </trkpt>
      <trkpt lat="45.75792" lon="6.5569">
        <ele>1845.4</ele>
        <time>2021-08-02T15:12:50Z</time>
      </trkpt>
      <trkpt lat="45.75795" lon="6.55686">
        <ele>1844</ele>
        <time>2021-08-02T15:12:51Z</time>
      </trkpt>
      <trkpt lat="45.75798" lon="6.55682">
        <ele>1842.6</ele>
        <time>2021-08-02T15:12:52Z</time>
      </trkpt>
      <trkpt lat="45.75803" lon="6.55679">
        <ele>1841.2</ele>
        <time>2021-08-02T15:12:53Z</time>
      </trkpt>
      <trkpt lat="45.75808" lon="6.55677">
        <ele>1839.8</ele>
        <time>2021-08-02T15:12:54Z</time>
      </trkpt>
      <trkpt lat="45.75813" lon="6.55676">
        <ele>1838.4</ele>
        <time>2021-08-02T15:12:55Z</time>
      </trkpt>
      <trkpt lat="45.75818" lon="6.55674">
        <ele>1837</ele>
        <time>2021-08-02T15:12:56Z</time>
      </trkpt>
      <trkpt lat="45.75824" lon="6.55673">
        <ele>1836</ele>
        <time>2021-08-02T15:12:57Z</time>
      </trkpt>
      <trkpt lat="45.7583" lon="6.55674">
        <ele>1835</ele>
        <time>2021-08-02T15:12:58Z</time>
      </trkpt>
      <trkpt lat="45.75837" lon="6.55676">
        <ele>1833.2</ele>
        <time>2021-08-02T15:12:59Z</time>
      </trkpt>
      <trkpt lat="45.75844" lon="6.55679">
        <ele>1832.2</ele>
        <time>2021-08-02T15:13:00Z</time>
      </trkpt>
      <trkpt lat="45.7585" lon="6.55682">
        <ele>1830.8</ele>
        <time>2021-08-02T15:13:01Z</time>
      </trkpt>
      <trkpt lat="45.75856" lon="6.55685">
        <ele>1829.4</ele>
        <time>2021-08-02T15:13:02Z</time>
      </trkpt>
      <trkpt lat="45.75861" lon="6.55687">
        <ele>1828</ele>
        <time>2021-08-02T15:13:03Z</time>
      </trkpt>
      <trkpt lat="45.75866" lon="6.55689">
        <ele>1826.8</ele>
        <time>2021-08-02T15:13:04Z</time>
      </trkpt>
      <trkpt lat="45.75874" lon="6.55693">
        <ele>1824.8</ele>
        <time>2021-08-02T15:13:06Z</time>
      </trkpt>
      <trkpt lat="45.75877" lon="6.55694">
        <ele>1823.4</ele>
        <time>2021-08-02T15:13:07Z</time>
      </trkpt>
      <trkpt lat="45.75879" lon="6.55695">
        <ele>1822.2</ele>
        <time>2021-08-02T15:13:08Z</time>
      </trkpt>
      <trkpt lat="45.75884" lon="6.55697">
        <ele>1820.2</ele>
        <time>2021-08-02T15:13:10Z</time>
      </trkpt>
      <trkpt lat="45.7589" lon="6.55698">
        <ele>1818.8</ele>
        <time>2021-08-02T15:13:12Z</time>
      </trkpt>
      <trkpt lat="45.75893" lon="6.55698">
        <ele>1817.8</ele>
        <time>2021-08-02T15:13:13Z</time>
      </trkpt>
      <trkpt lat="45.75896" lon="6.55697">
        <ele>1817</ele>
        <time>2021-08-02T15:13:14Z</time>
      </trkpt>
      <trkpt lat="45.75904" lon="6.55695">
        <ele>1815.6</ele>
        <time>2021-08-02T15:13:16Z</time>
      </trkpt>
      <trkpt lat="45.75911" lon="6.55692">
        <ele>1814.4</ele>
        <time>2021-08-02T15:13:18Z</time>
      </trkpt>
      <trkpt lat="45.75919" lon="6.55691">
        <ele>1813</ele>
        <time>2021-08-02T15:13:20Z</time>
      </trkpt>
      <trkpt lat="45.75925" lon="6.55692">
        <ele>1811.6</ele>
        <time>2021-08-02T15:13:22Z</time>
      </trkpt>
      <trkpt lat="45.75931" lon="6.55691">
        <ele>1809.6</ele>
        <time>2021-08-02T15:13:24Z</time>
      </trkpt>
      <trkpt lat="45.75936" lon="6.55686">
        <ele>1807.8</ele>
        <time>2021-08-02T15:13:26Z</time>
      </trkpt>
      <trkpt lat="45.75939" lon="6.55684">
        <ele>1807</ele>
        <time>2021-08-02T15:13:27Z</time>
      </trkpt>
      <trkpt lat="45.75942" lon="6.55684">
        <ele>1805.6</ele>
        <time>2021-08-02T15:13:28Z</time>
      </trkpt>
      <trkpt lat="45.75945" lon="6.55685">
        <ele>1805</ele>
        <time>2021-08-02T15:13:29Z</time>
      </trkpt>
      <trkpt lat="45.75947" lon="6.55686">
        <ele>1804.2</ele>
        <time>2021-08-02T15:13:30Z</time>
      </trkpt>
      <trkpt lat="45.75951" lon="6.55687">
        <ele>1802.8</ele>
        <time>2021-08-02T15:13:32Z</time>
      </trkpt>
      <trkpt lat="45.75954" lon="6.55687">
        <ele>1802.2</ele>
        <time>2021-08-02T15:13:33Z</time>
      </trkpt>
      <trkpt lat="45.75956" lon="6.55688">
        <ele>1801.6</ele>
        <time>2021-08-02T15:13:34Z</time>
      </trkpt>
      <trkpt lat="45.7596" lon="6.55689">
        <ele>1800.6</ele>
        <time>2021-08-02T15:13:36Z</time>
      </trkpt>
      <trkpt lat="45.75963" lon="6.55689">
        <ele>1800</ele>
        <time>2021-08-02T15:13:37Z</time>
      </trkpt>
      <trkpt lat="45.75969" lon="6.55691">
        <ele>1799.4</ele>
        <time>2021-08-02T15:13:39Z</time>
      </trkpt>
      <trkpt lat="45.7598" lon="6.55699">
        <ele>1798.2</ele>
        <time>2021-08-02T15:13:42Z</time>
      </trkpt>
      <trkpt lat="45.75988" lon="6.55706">
        <ele>1797</ele>
        <time>2021-08-02T15:13:45Z</time>
      </trkpt>
      <trkpt lat="45.7599" lon="6.55708">
        <ele>1796.4</ele>
        <time>2021-08-02T15:13:46Z</time>
      </trkpt>
      <trkpt lat="45.75992" lon="6.55708">
        <ele>1795.8</ele>
        <time>2021-08-02T15:13:47Z</time>
      </trkpt>
      <trkpt lat="45.75996" lon="6.5571">
        <ele>1794</ele>
        <time>2021-08-02T15:13:49Z</time>
      </trkpt>
      <trkpt lat="45.75999" lon="6.55711">
        <ele>1792.4</ele>
        <time>2021-08-02T15:13:51Z</time>
      </trkpt>
      <trkpt lat="45.76001" lon="6.55712">
        <ele>1791.4</ele>
        <time>2021-08-02T15:13:52Z</time>
      </trkpt>
      <trkpt lat="45.76002" lon="6.55713">
        <ele>1790.8</ele>
        <time>2021-08-02T15:13:53Z</time>
      </trkpt>
      <trkpt lat="45.76005" lon="6.55717">
        <ele>1789.8</ele>
        <time>2021-08-02T15:13:55Z</time>
      </trkpt>
      <trkpt lat="45.76004" lon="6.5572">
        <ele>1788.8</ele>
        <time>2021-08-02T15:13:56Z</time>
      </trkpt>
      <trkpt lat="45.76003" lon="6.55723">
        <ele>1788.4</ele>
        <time>2021-08-02T15:13:57Z</time>
      </trkpt>
      <trkpt lat="45.75998" lon="6.5573">
        <ele>1787.2</ele>
        <time>2021-08-02T15:14:00Z</time>
      </trkpt>
      <trkpt lat="45.75996" lon="6.55734">
        <ele>1786.8</ele>
        <time>2021-08-02T15:14:01Z</time>
      </trkpt>
      <trkpt lat="45.7599" lon="6.55741">
        <ele>1785.6</ele>
        <time>2021-08-02T15:14:03Z</time>
      </trkpt>
      <trkpt lat="45.75982" lon="6.55751">
        <ele>1785.2</ele>
        <time>2021-08-02T15:14:06Z</time>
      </trkpt>
      <trkpt lat="45.75959" lon="6.55784">
        <ele>1785</ele>
        <time>2021-08-02T15:14:14Z</time>
      </trkpt>
      <trkpt lat="45.7594" lon="6.55821">
        <ele>1784.6</ele>
        <time>2021-08-02T15:14:21Z</time>
      </trkpt>
      <trkpt lat="45.7592" lon="6.55867">
        <ele>1784.4</ele>
        <time>2021-08-02T15:14:28Z</time>
      </trkpt>
      <trkpt lat="45.75918" lon="6.55874">
        <ele>1784.4</ele>
        <time>2021-08-02T15:14:29Z</time>
      </trkpt>
      <trkpt lat="45.75913" lon="6.55898">
        <ele>1783.8</ele>
        <time>2021-08-02T15:14:32Z</time>
      </trkpt>
      <trkpt lat="45.75912" lon="6.55905">
        <ele>1783.4</ele>
        <time>2021-08-02T15:14:33Z</time>
      </trkpt>
      <trkpt lat="45.75907" lon="6.55937">
        <ele>1782.4</ele>
        <time>2021-08-02T15:14:37Z</time>
      </trkpt>
      <trkpt lat="45.75907" lon="6.55945">
        <ele>1782.4</ele>
        <time>2021-08-02T15:14:38Z</time>
      </trkpt>
      <trkpt lat="45.75908" lon="6.55954">
        <ele>1782.2</ele>
        <time>2021-08-02T15:14:39Z</time>
      </trkpt>
      <trkpt lat="45.75914" lon="6.55979">
        <ele>1782</ele>
        <time>2021-08-02T15:14:42Z</time>
      </trkpt>
      <trkpt lat="45.75919" lon="6.55997">
        <ele>1781.2</ele>
        <time>2021-08-02T15:14:44Z</time>
      </trkpt>
      <trkpt lat="45.75932" lon="6.56034">
        <ele>1780.6</ele>
        <time>2021-08-02T15:14:48Z</time>
      </trkpt>
      <trkpt lat="45.75937" lon="6.56049">
        <ele>1780.2</ele>
        <time>2021-08-02T15:14:50Z</time>
      </trkpt>
      <trkpt lat="45.75939" lon="6.56054">
        <ele>1780</ele>
        <time>2021-08-02T15:14:51Z</time>
      </trkpt>
      <trkpt lat="45.75942" lon="6.5606">
        <ele>1779.2</ele>
        <time>2021-08-02T15:14:53Z</time>
      </trkpt>
      <trkpt lat="45.75944" lon="6.56065">
        <ele>1778.6</ele>
        <time>2021-08-02T15:14:55Z</time>
      </trkpt>
      <trkpt lat="45.75946" lon="6.56072">
        <ele>1778</ele>
        <time>2021-08-02T15:14:57Z</time>
      </trkpt>
      <trkpt lat="45.75947" lon="6.56086">
        <ele>1777.6</ele>
        <time>2021-08-02T15:15:00Z</time>
      </trkpt>
      <trkpt lat="45.7595" lon="6.56106">
        <ele>1777.2</ele>
        <time>2021-08-02T15:15:04Z</time>
      </trkpt>
      <trkpt lat="45.75952" lon="6.56116">
        <ele>1776.8</ele>
        <time>2021-08-02T15:15:06Z</time>
      </trkpt>
      <trkpt lat="45.75952" lon="6.56128">
        <ele>1776.6</ele>
        <time>2021-08-02T15:15:08Z</time>
      </trkpt>
      <trkpt lat="45.75952" lon="6.5614">
        <ele>1776.4</ele>
        <time>2021-08-02T15:15:10Z</time>
      </trkpt>
      <trkpt lat="45.75953" lon="6.56158">
        <ele>1776.4</ele>
        <time>2021-08-02T15:15:13Z</time>
      </trkpt>
      <trkpt lat="45.75958" lon="6.56179">
        <ele>1776.4</ele>
        <time>2021-08-02T15:15:16Z</time>
      </trkpt>
      <trkpt lat="45.75966" lon="6.56216">
        <ele>1776.4</ele>
        <time>2021-08-02T15:15:21Z</time>
      </trkpt>
      <trkpt lat="45.75971" lon="6.56229">
        <ele>1776.6</ele>
        <time>2021-08-02T15:15:23Z</time>
      </trkpt>
      <trkpt lat="45.75985" lon="6.5628">
        <ele>1776.8</ele>
        <time>2021-08-02T15:15:30Z</time>
      </trkpt>
      <trkpt lat="45.75992" lon="6.56331">
        <ele>1777</ele>
        <time>2021-08-02T15:15:36Z</time>
      </trkpt>
      <trkpt lat="45.76003" lon="6.56396">
        <ele>1777.2</ele>
        <time>2021-08-02T15:15:44Z</time>
      </trkpt>
      <trkpt lat="45.76022" lon="6.56451">
        <ele>1777.2</ele>
        <time>2021-08-02T15:15:51Z</time>
      </trkpt>
      <trkpt lat="45.76046" lon="6.56499">
        <ele>1776.8</ele>
        <time>2021-08-02T15:15:58Z</time>
      </trkpt>
      <trkpt lat="45.76051" lon="6.56504">
        <ele>1776.8</ele>
        <time>2021-08-02T15:15:59Z</time>
      </trkpt>
      <trkpt lat="45.76081" lon="6.56528">
        <ele>1776.6</ele>
        <time>2021-08-02T15:16:05Z</time>
      </trkpt>
      <trkpt lat="45.761" lon="6.56545">
        <ele>1776.4</ele>
        <time>2021-08-02T15:16:09Z</time>
      </trkpt>
      <trkpt lat="45.76104" lon="6.56551">
        <ele>1776.4</ele>
        <time>2021-08-02T15:16:10Z</time>
      </trkpt>
      <trkpt lat="45.76109" lon="6.56557">
        <ele>1776.4</ele>
        <time>2021-08-02T15:16:11Z</time>
      </trkpt>
      <trkpt lat="45.76115" lon="6.56569">
        <ele>1776.2</ele>
        <time>2021-08-02T15:16:13Z</time>
      </trkpt>
      <trkpt lat="45.76125" lon="6.5659">
        <ele>1776.2</ele>
        <time>2021-08-02T15:16:16Z</time>
      </trkpt>
      <trkpt lat="45.76132" lon="6.56605">
        <ele>1775.8</ele>
        <time>2021-08-02T15:16:18Z</time>
      </trkpt>
      <trkpt lat="45.76135" lon="6.56612">
        <ele>1775.6</ele>
        <time>2021-08-02T15:16:19Z</time>
      </trkpt>
      <trkpt lat="45.76142" lon="6.56636">
        <ele>1775.4</ele>
        <time>2021-08-02T15:16:22Z</time>
      </trkpt>
      <trkpt lat="45.76154" lon="6.56663">
        <ele>1775.2</ele>
        <time>2021-08-02T15:16:26Z</time>
      </trkpt>
      <trkpt lat="45.76158" lon="6.56668">
        <ele>1775.2</ele>
        <time>2021-08-02T15:16:27Z</time>
      </trkpt>
      <trkpt lat="45.76175" lon="6.56684">
        <ele>1775.2</ele>
        <time>2021-08-02T15:16:31Z</time>
      </trkpt>
      <trkpt lat="45.7618" lon="6.56688">
        <ele>1775.2</ele>
        <time>2021-08-02T15:16:32Z</time>
      </trkpt>
      <trkpt lat="45.76197" lon="6.56705">
        <ele>1775.2</ele>
        <time>2021-08-02T15:16:36Z</time>
      </trkpt>
      <trkpt lat="45.76209" lon="6.56719">
        <ele>1775.6</ele>
        <time>2021-08-02T15:16:39Z</time>
      </trkpt>
      <trkpt lat="45.76227" lon="6.56757">
        <ele>1775.8</ele>
        <time>2021-08-02T15:16:45Z</time>
      </trkpt>
      <trkpt lat="45.76244" lon="6.56788">
        <ele>1776</ele>
        <time>2021-08-02T15:16:50Z</time>
      </trkpt>
      <trkpt lat="45.76249" lon="6.56792">
        <ele>1776</ele>
        <time>2021-08-02T15:16:51Z</time>
      </trkpt>
      <trkpt lat="45.76268" lon="6.5681">
        <ele>1776.2</ele>
        <time>2021-08-02T15:16:56Z</time>
      </trkpt>
      <trkpt lat="45.76272" lon="6.56829">
        <ele>1776.4</ele>
        <time>2021-08-02T15:16:59Z</time>
      </trkpt>
      <trkpt lat="45.76273" lon="6.56835">
        <ele>1776.4</ele>
        <time>2021-08-02T15:17:00Z</time>
      </trkpt>
      <trkpt lat="45.76273" lon="6.56846">
        <ele>1776.8</ele>
        <time>2021-08-02T15:17:02Z</time>
      </trkpt>
      <trkpt lat="45.76278" lon="6.56865">
        <ele>1777.4</ele>
        <time>2021-08-02T15:17:06Z</time>
      </trkpt>
      <trkpt lat="45.76284" lon="6.56872">
        <ele>1777.8</ele>
        <time>2021-08-02T15:17:08Z</time>
      </trkpt>
      <trkpt lat="45.7629" lon="6.56875">
        <ele>1778.2</ele>
        <time>2021-08-02T15:17:10Z</time>
      </trkpt>
      <trkpt lat="45.76305" lon="6.56875">
        <ele>1778.8</ele>
        <time>2021-08-02T15:17:14Z</time>
      </trkpt>
      <trkpt lat="45.76313" lon="6.56873">
        <ele>1779.4</ele>
        <time>2021-08-02T15:17:16Z</time>
      </trkpt>
      <trkpt lat="45.7632" lon="6.56872">
        <ele>1780</ele>
        <time>2021-08-02T15:17:18Z</time>
      </trkpt>
      <trkpt lat="45.76342" lon="6.5687">
        <ele>1780.6</ele>
        <time>2021-08-02T15:17:24Z</time>
      </trkpt>
      <trkpt lat="45.76352" lon="6.56872">
        <ele>1781</ele>
        <time>2021-08-02T15:17:27Z</time>
      </trkpt>
      <trkpt lat="45.76363" lon="6.56877">
        <ele>1781.6</ele>
        <time>2021-08-02T15:17:30Z</time>
      </trkpt>
      <trkpt lat="45.7638" lon="6.5689">
        <ele>1782</ele>
        <time>2021-08-02T15:17:35Z</time>
      </trkpt>
      <trkpt lat="45.76383" lon="6.56893">
        <ele>1782.2</ele>
        <time>2021-08-02T15:17:36Z</time>
      </trkpt>
      <trkpt lat="45.76413" lon="6.56928">
        <ele>1782.4</ele>
        <time>2021-08-02T15:17:46Z</time>
      </trkpt>
      <trkpt lat="45.76443" lon="6.56957">
        <ele>1782.8</ele>
        <time>2021-08-02T15:17:55Z</time>
      </trkpt>
      <trkpt lat="45.76463" lon="6.56968">
        <ele>1783</ele>
        <time>2021-08-02T15:18:00Z</time>
      </trkpt>
      <trkpt lat="45.76474" lon="6.56973">
        <ele>1783.2</ele>
        <time>2021-08-02T15:18:03Z</time>
      </trkpt>
      <trkpt lat="45.76508" lon="6.56988">
        <ele>1784</ele>
        <time>2021-08-02T15:18:11Z</time>
      </trkpt>
      <trkpt lat="45.76512" lon="6.56991">
        <ele>1784.2</ele>
        <time>2021-08-02T15:18:12Z</time>
      </trkpt>
      <trkpt lat="45.76516" lon="6.56994">
        <ele>1784.2</ele>
        <time>2021-08-02T15:18:13Z</time>
      </trkpt>
      <trkpt lat="45.7653" lon="6.5701">
        <ele>1784.2</ele>
        <time>2021-08-02T15:18:17Z</time>
      </trkpt>
      <trkpt lat="45.76533" lon="6.57014">
        <ele>1784.2</ele>
        <time>2021-08-02T15:18:18Z</time>
      </trkpt>
      <trkpt lat="45.76548" lon="6.57036">
        <ele>1784</ele>
        <time>2021-08-02T15:18:23Z</time>
      </trkpt>
      <trkpt lat="45.76553" lon="6.57046">
        <ele>1784</ele>
        <time>2021-08-02T15:18:25Z</time>
      </trkpt>
      <trkpt lat="45.76562" lon="6.57065">
        <ele>1784</ele>
        <time>2021-08-02T15:18:29Z</time>
      </trkpt>
      <trkpt lat="45.76572" lon="6.57096">
        <ele>1784.6</ele>
        <time>2021-08-02T15:18:36Z</time>
      </trkpt>
      <trkpt lat="45.76576" lon="6.57107">
        <ele>1785.4</ele>
        <time>2021-08-02T15:18:39Z</time>
      </trkpt>
      <trkpt lat="45.76579" lon="6.57113">
        <ele>1786.4</ele>
        <time>2021-08-02T15:18:41Z</time>
      </trkpt>
      <trkpt lat="45.76582" lon="6.5712">
        <ele>1787</ele>
        <time>2021-08-02T15:18:43Z</time>
      </trkpt>
      <trkpt lat="45.76586" lon="6.57125">
        <ele>1787.6</ele>
        <time>2021-08-02T15:18:45Z</time>
      </trkpt>
      <trkpt lat="45.76594" lon="6.57136">
        <ele>1788.6</ele>
        <time>2021-08-02T15:18:49Z</time>
      </trkpt>
      <trkpt lat="45.76598" lon="6.5714">
        <ele>1789.2</ele>
        <time>2021-08-02T15:18:51Z</time>
      </trkpt>
      <trkpt lat="45.76601" lon="6.57146">
        <ele>1789.8</ele>
        <time>2021-08-02T15:18:53Z</time>
      </trkpt>
      <trkpt lat="45.7661" lon="6.57163">
        <ele>1790.6</ele>
        <time>2021-08-02T15:18:59Z</time>
      </trkpt>
      <trkpt lat="45.76611" lon="6.57165">
        <ele>1790.8</ele>
        <time>2021-08-02T15:19:00Z</time>
      </trkpt>
      <trkpt lat="45.76615" lon="6.5718">
        <ele>1791.8</ele>
        <time>2021-08-02T15:19:05Z</time>
      </trkpt>
      <trkpt lat="45.76617" lon="6.57189">
        <ele>1792.6</ele>
        <time>2021-08-02T15:19:08Z</time>
      </trkpt>
      <trkpt lat="45.76618" lon="6.57195">
        <ele>1793.2</ele>
        <time>2021-08-02T15:19:10Z</time>
      </trkpt>
      <trkpt lat="45.7662" lon="6.57206">
        <ele>1794.2</ele>
        <time>2021-08-02T15:19:14Z</time>
      </trkpt>
      <trkpt lat="45.76621" lon="6.57209">
        <ele>1794.4</ele>
        <time>2021-08-02T15:19:15Z</time>
      </trkpt>
      <trkpt lat="45.76624" lon="6.57222">
        <ele>1795.4</ele>
        <time>2021-08-02T15:19:20Z</time>
      </trkpt>
      <trkpt lat="45.76625" lon="6.57228">
        <ele>1796</ele>
        <time>2021-08-02T15:19:22Z</time>
      </trkpt>
      <trkpt lat="45.76627" lon="6.57236">
        <ele>1796.4</ele>
        <time>2021-08-02T15:19:25Z</time>
      </trkpt>
      <trkpt lat="45.7663" lon="6.57249">
        <ele>1797.2</ele>
        <time>2021-08-02T15:19:30Z</time>
      </trkpt>
      <trkpt lat="45.76631" lon="6.57254">
        <ele>1797.6</ele>
        <time>2021-08-02T15:19:32Z</time>
      </trkpt>
      <trkpt lat="45.76633" lon="6.57265">
        <ele>1798.4</ele>
        <time>2021-08-02T15:19:36Z</time>
      </trkpt>
      <trkpt lat="45.76633" lon="6.57268">
        <ele>1798.6</ele>
        <time>2021-08-02T15:19:37Z</time>
      </trkpt>
      <trkpt lat="45.76634" lon="6.57283">
        <ele>1799.8</ele>
        <time>2021-08-02T15:19:43Z</time>
      </trkpt>
      <trkpt lat="45.76635" lon="6.573">
        <ele>1800.8</ele>
        <time>2021-08-02T15:19:49Z</time>
      </trkpt>
      <trkpt lat="45.76636" lon="6.57306">
        <ele>1801.4</ele>
        <time>2021-08-02T15:19:51Z</time>
      </trkpt>
      <trkpt lat="45.76636" lon="6.57313">
        <ele>1802</ele>
        <time>2021-08-02T15:19:54Z</time>
      </trkpt>
      <trkpt lat="45.76637" lon="6.57316">
        <ele>1802</ele>
        <time>2021-08-02T15:19:55Z</time>
      </trkpt>
      <trkpt lat="45.76638" lon="6.57317">
        <ele>1802.2</ele>
        <time>2021-08-02T15:19:56Z</time>
      </trkpt>
      <trkpt lat="45.76643" lon="6.57311">
        <ele>1802.6</ele>
        <time>2021-08-02T15:20:00Z</time>
      </trkpt>
      <trkpt lat="45.76642" lon="6.57308">
        <ele>1802.8</ele>
        <time>2021-08-02T15:20:01Z</time>
      </trkpt>
      <trkpt lat="45.76641" lon="6.57297">
        <ele>1804</ele>
        <time>2021-08-02T15:20:05Z</time>
      </trkpt>
      <trkpt lat="45.76641" lon="6.57291">
        <ele>1804.2</ele>
        <time>2021-08-02T15:20:07Z</time>
      </trkpt>
      <trkpt lat="45.76645" lon="6.57271">
        <ele>1805</ele>
        <time>2021-08-02T15:20:14Z</time>
      </trkpt>
      <trkpt lat="45.76647" lon="6.57266">
        <ele>1805.2</ele>
        <time>2021-08-02T15:20:16Z</time>
      </trkpt>
      <trkpt lat="45.7665" lon="6.57255">
        <ele>1806.2</ele>
        <time>2021-08-02T15:20:21Z</time>
      </trkpt>
      <trkpt lat="45.76651" lon="6.5725">
        <ele>1806.6</ele>
        <time>2021-08-02T15:20:23Z</time>
      </trkpt>
      <trkpt lat="45.76652" lon="6.57242">
        <ele>1807.4</ele>
        <time>2021-08-02T15:20:26Z</time>
      </trkpt>
      <trkpt lat="45.76652" lon="6.57231">
        <ele>1808.2</ele>
        <time>2021-08-02T15:20:31Z</time>
      </trkpt>
      <trkpt lat="45.76652" lon="6.57227">
        <ele>1808.6</ele>
        <time>2021-08-02T15:20:33Z</time>
      </trkpt>
      <trkpt lat="45.76654" lon="6.57219">
        <ele>1809.6</ele>
        <time>2021-08-02T15:20:37Z</time>
      </trkpt>
      <trkpt lat="45.76657" lon="6.57214">
        <ele>1810.4</ele>
        <time>2021-08-02T15:20:40Z</time>
      </trkpt>
      <trkpt lat="45.76658" lon="6.57212">
        <ele>1810.6</ele>
        <time>2021-08-02T15:20:41Z</time>
      </trkpt>
      <trkpt lat="45.76664" lon="6.57208">
        <ele>1811.8</ele>
        <time>2021-08-02T15:20:45Z</time>
      </trkpt>
      <trkpt lat="45.76668" lon="6.57207">
        <ele>1812.4</ele>
        <time>2021-08-02T15:20:47Z</time>
      </trkpt>
      <trkpt lat="45.76678" lon="6.5721">
        <ele>1812.8</ele>
        <time>2021-08-02T15:20:53Z</time>
      </trkpt>
      <trkpt lat="45.76682" lon="6.57214">
        <ele>1812.8</ele>
        <time>2021-08-02T15:20:56Z</time>
      </trkpt>
      <trkpt lat="45.76687" lon="6.57224">
        <ele>1813.6</ele>
        <time>2021-08-02T15:21:01Z</time>
      </trkpt>
      <trkpt lat="45.76689" lon="6.57228">
        <ele>1814</ele>
        <time>2021-08-02T15:21:03Z</time>
      </trkpt>
      <trkpt lat="45.76695" lon="6.57241">
        <ele>1815</ele>
        <time>2021-08-02T15:21:09Z</time>
      </trkpt>
      <trkpt lat="45.76696" lon="6.57243">
        <ele>1815</ele>
        <time>2021-08-02T15:21:10Z</time>
      </trkpt>
      <trkpt lat="45.76705" lon="6.57259">
        <ele>1816</ele>
        <time>2021-08-02T15:21:17Z</time>
      </trkpt>
      <trkpt lat="45.76707" lon="6.57261">
        <ele>1816.2</ele>
        <time>2021-08-02T15:21:18Z</time>
      </trkpt>
      <trkpt lat="45.76718" lon="6.57274">
        <ele>1816.6</ele>
        <time>2021-08-02T15:21:25Z</time>
      </trkpt>
      <trkpt lat="45.76726" lon="6.5728">
        <ele>1817.4</ele>
        <time>2021-08-02T15:21:30Z</time>
      </trkpt>
      <trkpt lat="45.76731" lon="6.57283">
        <ele>1818.2</ele>
        <time>2021-08-02T15:21:33Z</time>
      </trkpt>
      <trkpt lat="45.76732" lon="6.57285">
        <ele>1818.4</ele>
        <time>2021-08-02T15:21:34Z</time>
      </trkpt>
      <trkpt lat="45.76741" lon="6.57288">
        <ele>1819</ele>
        <time>2021-08-02T15:21:39Z</time>
      </trkpt>
      <trkpt lat="45.76747" lon="6.5729">
        <ele>1819.6</ele>
        <time>2021-08-02T15:21:42Z</time>
      </trkpt>
      <trkpt lat="45.76758" lon="6.57289">
        <ele>1820.4</ele>
        <time>2021-08-02T15:21:48Z</time>
      </trkpt>
      <trkpt lat="45.76759" lon="6.57289">
        <ele>1820.6</ele>
        <time>2021-08-02T15:21:49Z</time>
      </trkpt>
      <trkpt lat="45.76768" lon="6.57285">
        <ele>1821.2</ele>
        <time>2021-08-02T15:21:55Z</time>
      </trkpt>
      <trkpt lat="45.76771" lon="6.57284">
        <ele>1821.6</ele>
        <time>2021-08-02T15:21:57Z</time>
      </trkpt>
      <trkpt lat="45.76777" lon="6.57282">
        <ele>1822.6</ele>
        <time>2021-08-02T15:22:01Z</time>
      </trkpt>
      <trkpt lat="45.76782" lon="6.5728">
        <ele>1823.2</ele>
        <time>2021-08-02T15:22:04Z</time>
      </trkpt>
      <trkpt lat="45.76785" lon="6.57279">
        <ele>1823.8</ele>
        <time>2021-08-02T15:22:06Z</time>
      </trkpt>
      <trkpt lat="45.76792" lon="6.57278">
        <ele>1824.8</ele>
        <time>2021-08-02T15:22:11Z</time>
      </trkpt>
      <trkpt lat="45.76793" lon="6.57277">
        <ele>1825.2</ele>
        <time>2021-08-02T15:22:12Z</time>
      </trkpt>
      <trkpt lat="45.76799" lon="6.57275">
        <ele>1826</ele>
        <time>2021-08-02T15:22:16Z</time>
      </trkpt>
      <trkpt lat="45.76805" lon="6.57274">
        <ele>1827</ele>
        <time>2021-08-02T15:22:20Z</time>
      </trkpt>
      <trkpt lat="45.76807" lon="6.57273">
        <ele>1827.2</ele>
        <time>2021-08-02T15:22:21Z</time>
      </trkpt>
      <trkpt lat="45.76816" lon="6.57269">
        <ele>1828.2</ele>
        <time>2021-08-02T15:22:27Z</time>
      </trkpt>
      <trkpt lat="45.76822" lon="6.57266">
        <ele>1828.8</ele>
        <time>2021-08-02T15:22:31Z</time>
      </trkpt>
      <trkpt lat="45.76828" lon="6.57261">
        <ele>1829.2</ele>
        <time>2021-08-02T15:22:35Z</time>
      </trkpt>
      <trkpt lat="45.76833" lon="6.57256">
        <ele>1830</ele>
        <time>2021-08-02T15:22:39Z</time>
      </trkpt>
      <trkpt lat="45.76836" lon="6.57254">
        <ele>1830.2</ele>
        <time>2021-08-02T15:22:42Z</time>
      </trkpt>
      <trkpt lat="45.76843" lon="6.57249">
        <ele>1831.2</ele>
        <time>2021-08-02T15:22:47Z</time>
      </trkpt>
      <trkpt lat="45.76851" lon="6.57247">
        <ele>1832.4</ele>
        <time>2021-08-02T15:22:53Z</time>
      </trkpt>
      <trkpt lat="45.76855" lon="6.57248">
        <ele>1832.6</ele>
        <time>2021-08-02T15:22:55Z</time>
      </trkpt>
      <trkpt lat="45.7686" lon="6.57248">
        <ele>1833.4</ele>
        <time>2021-08-02T15:22:58Z</time>
      </trkpt>
      <trkpt lat="45.76867" lon="6.57251">
        <ele>1833.8</ele>
        <time>2021-08-02T15:23:02Z</time>
      </trkpt>
      <trkpt lat="45.76876" lon="6.57257">
        <ele>1834.6</ele>
        <time>2021-08-02T15:23:07Z</time>
      </trkpt>
      <trkpt lat="45.7688" lon="6.57259">
        <ele>1835</ele>
        <time>2021-08-02T15:23:09Z</time>
      </trkpt>
      <trkpt lat="45.7689" lon="6.57265">
        <ele>1835.8</ele>
        <time>2021-08-02T15:23:14Z</time>
      </trkpt>
      <trkpt lat="45.769" lon="6.57271">
        <ele>1836.4</ele>
        <time>2021-08-02T15:23:19Z</time>
      </trkpt>
      <trkpt lat="45.76907" lon="6.57275">
        <ele>1836.8</ele>
        <time>2021-08-02T15:23:22Z</time>
      </trkpt>
      <trkpt lat="45.76915" lon="6.57278">
        <ele>1837.4</ele>
        <time>2021-08-02T15:23:25Z</time>
      </trkpt>
      <trkpt lat="45.76931" lon="6.57283">
        <ele>1837.8</ele>
        <time>2021-08-02T15:23:29Z</time>
      </trkpt>
      <trkpt lat="45.76935" lon="6.57284">
        <ele>1837.8</ele>
        <time>2021-08-02T15:23:30Z</time>
      </trkpt>
      <trkpt lat="45.76944" lon="6.57287">
        <ele>1837.8</ele>
        <time>2021-08-02T15:23:32Z</time>
      </trkpt>
      <trkpt lat="45.76949" lon="6.57287">
        <ele>1837.8</ele>
        <time>2021-08-02T15:23:33Z</time>
      </trkpt>
      <trkpt lat="45.76956" lon="6.57288">
        <ele>1837.8</ele>
        <time>2021-08-02T15:23:35Z</time>
      </trkpt>
      <trkpt lat="45.76974" lon="6.57283">
        <ele>1838</ele>
        <time>2021-08-02T15:23:41Z</time>
      </trkpt>
      <trkpt lat="45.76988" lon="6.57276">
        <ele>1838</ele>
        <time>2021-08-02T15:23:46Z</time>
      </trkpt>
      <trkpt lat="45.76994" lon="6.57271">
        <ele>1838.2</ele>
        <time>2021-08-02T15:23:48Z</time>
      </trkpt>
      <trkpt lat="45.77001" lon="6.57263">
        <ele>1838.6</ele>
        <time>2021-08-02T15:23:50Z</time>
      </trkpt>
      <trkpt lat="45.77005" lon="6.57258">
        <ele>1838.6</ele>
        <time>2021-08-02T15:23:51Z</time>
      </trkpt>
      <trkpt lat="45.77024" lon="6.57229">
        <ele>1838.8</ele>
        <time>2021-08-02T15:23:56Z</time>
      </trkpt>
      <trkpt lat="45.77055" lon="6.57186">
        <ele>1838</ele>
        <time>2021-08-02T15:24:04Z</time>
      </trkpt>
      <trkpt lat="45.77059" lon="6.57183">
        <ele>1837.8</ele>
        <time>2021-08-02T15:24:05Z</time>
      </trkpt>
      <trkpt lat="45.77069" lon="6.57182">
        <ele>1836.8</ele>
        <time>2021-08-02T15:24:08Z</time>
      </trkpt>
      <trkpt lat="45.77071" lon="6.57185">
        <ele>1836.6</ele>
        <time>2021-08-02T15:24:09Z</time>
      </trkpt>
      <trkpt lat="45.77074" lon="6.57197">
        <ele>1836.4</ele>
        <time>2021-08-02T15:24:12Z</time>
      </trkpt>
      <trkpt lat="45.77074" lon="6.57226">
        <ele>1836.2</ele>
        <time>2021-08-02T15:24:16Z</time>
      </trkpt>
      <trkpt lat="45.77077" lon="6.5727">
        <ele>1836</ele>
        <time>2021-08-02T15:24:20Z</time>
      </trkpt>
      <trkpt lat="45.77077" lon="6.57282">
        <ele>1835.6</ele>
        <time>2021-08-02T15:24:21Z</time>
      </trkpt>
      <trkpt lat="45.77074" lon="6.57309">
        <ele>1834.4</ele>
        <time>2021-08-02T15:24:23Z</time>
      </trkpt>
      <trkpt lat="45.77072" lon="6.57322">
        <ele>1833.6</ele>
        <time>2021-08-02T15:24:24Z</time>
      </trkpt>
      <trkpt lat="45.77071" lon="6.57336">
        <ele>1832.6</ele>
        <time>2021-08-02T15:24:25Z</time>
      </trkpt>
      <trkpt lat="45.77069" lon="6.5735">
        <ele>1831.6</ele>
        <time>2021-08-02T15:24:26Z</time>
      </trkpt>
      <trkpt lat="45.77069" lon="6.57364">
        <ele>1830.4</ele>
        <time>2021-08-02T15:24:27Z</time>
      </trkpt>
      <trkpt lat="45.7707" lon="6.57378">
        <ele>1829.4</ele>
        <time>2021-08-02T15:24:28Z</time>
      </trkpt>
      <trkpt lat="45.77072" lon="6.57392">
        <ele>1828.2</ele>
        <time>2021-08-02T15:24:29Z</time>
      </trkpt>
      <trkpt lat="45.77075" lon="6.57403">
        <ele>1827.2</ele>
        <time>2021-08-02T15:24:30Z</time>
      </trkpt>
      <trkpt lat="45.77079" lon="6.57413">
        <ele>1826.4</ele>
        <time>2021-08-02T15:24:31Z</time>
      </trkpt>
      <trkpt lat="45.77084" lon="6.57422">
        <ele>1825.4</ele>
        <time>2021-08-02T15:24:32Z</time>
      </trkpt>
      <trkpt lat="45.77088" lon="6.57429">
        <ele>1824</ele>
        <time>2021-08-02T15:24:33Z</time>
      </trkpt>
      <trkpt lat="45.77092" lon="6.57436">
        <ele>1823.2</ele>
        <time>2021-08-02T15:24:34Z</time>
      </trkpt>
      <trkpt lat="45.77095" lon="6.57442">
        <ele>1822.6</ele>
        <time>2021-08-02T15:24:35Z</time>
      </trkpt>
      <trkpt lat="45.77103" lon="6.57461">
        <ele>1821.6</ele>
        <time>2021-08-02T15:24:38Z</time>
      </trkpt>
      <trkpt lat="45.77106" lon="6.57468">
        <ele>1821.4</ele>
        <time>2021-08-02T15:24:39Z</time>
      </trkpt>
      <trkpt lat="45.77118" lon="6.57511">
        <ele>1820.6</ele>
        <time>2021-08-02T15:24:44Z</time>
      </trkpt>
      <trkpt lat="45.77122" lon="6.57519">
        <ele>1820.4</ele>
        <time>2021-08-02T15:24:45Z</time>
      </trkpt>
      <trkpt lat="45.77136" lon="6.57545">
        <ele>1819.6</ele>
        <time>2021-08-02T15:24:49Z</time>
      </trkpt>
      <trkpt lat="45.77139" lon="6.57552">
        <ele>1819.4</ele>
        <time>2021-08-02T15:24:50Z</time>
      </trkpt>
      <trkpt lat="45.77142" lon="6.57557">
        <ele>1819</ele>
        <time>2021-08-02T15:24:51Z</time>
      </trkpt>
      <trkpt lat="45.77163" lon="6.57594">
        <ele>1818</ele>
        <time>2021-08-02T15:24:57Z</time>
      </trkpt>
      <trkpt lat="45.77173" lon="6.57623">
        <ele>1817.8</ele>
        <time>2021-08-02T15:25:01Z</time>
      </trkpt>
      <trkpt lat="45.77174" lon="6.57631">
        <ele>1817.8</ele>
        <time>2021-08-02T15:25:02Z</time>
      </trkpt>
      <trkpt lat="45.7718" lon="6.57662">
        <ele>1817.6</ele>
        <time>2021-08-02T15:25:06Z</time>
      </trkpt>
      <trkpt lat="45.77182" lon="6.57668">
        <ele>1817.6</ele>
        <time>2021-08-02T15:25:07Z</time>
      </trkpt>
      <trkpt lat="45.77189" lon="6.57685">
        <ele>1817.6</ele>
        <time>2021-08-02T15:25:11Z</time>
      </trkpt>
      <trkpt lat="45.77189" lon="6.57709">
        <ele>1818</ele>
        <time>2021-08-02T15:25:17Z</time>
      </trkpt>
      <trkpt lat="45.77188" lon="6.57721">
        <ele>1819</ele>
        <time>2021-08-02T15:25:20Z</time>
      </trkpt>
      <trkpt lat="45.7719" lon="6.57726">
        <ele>1819.4</ele>
        <time>2021-08-02T15:25:21Z</time>
      </trkpt>
      <trkpt lat="45.77198" lon="6.57736">
        <ele>1820.2</ele>
        <time>2021-08-02T15:25:24Z</time>
      </trkpt>
      <trkpt lat="45.77201" lon="6.57739">
        <ele>1820.2</ele>
        <time>2021-08-02T15:25:25Z</time>
      </trkpt>
      <trkpt lat="45.77206" lon="6.57741">
        <ele>1820.2</ele>
        <time>2021-08-02T15:25:26Z</time>
      </trkpt>
      <trkpt lat="45.77224" lon="6.57747">
        <ele>1820.2</ele>
        <time>2021-08-02T15:25:30Z</time>
      </trkpt>
      <trkpt lat="45.77256" lon="6.57757">
        <ele>1819.8</ele>
        <time>2021-08-02T15:25:36Z</time>
      </trkpt>
      <trkpt lat="45.77262" lon="6.57757">
        <ele>1819.6</ele>
        <time>2021-08-02T15:25:37Z</time>
      </trkpt>
      <trkpt lat="45.7728" lon="6.57756">
        <ele>1818.6</ele>
        <time>2021-08-02T15:25:40Z</time>
      </trkpt>
      <trkpt lat="45.77305" lon="6.57753">
        <ele>1817.8</ele>
        <time>2021-08-02T15:25:44Z</time>
      </trkpt>
      <trkpt lat="45.77311" lon="6.57752">
        <ele>1817.4</ele>
        <time>2021-08-02T15:25:45Z</time>
      </trkpt>
      <trkpt lat="45.77323" lon="6.57752">
        <ele>1816.6</ele>
        <time>2021-08-02T15:25:47Z</time>
      </trkpt>
      <trkpt lat="45.77329" lon="6.57753">
        <ele>1815.6</ele>
        <time>2021-08-02T15:25:48Z</time>
      </trkpt>
      <trkpt lat="45.77341" lon="6.57756">
        <ele>1815</ele>
        <time>2021-08-02T15:25:50Z</time>
      </trkpt>
      <trkpt lat="45.77353" lon="6.57763">
        <ele>1814.6</ele>
        <time>2021-08-02T15:25:52Z</time>
      </trkpt>
      <trkpt lat="45.77358" lon="6.57767">
        <ele>1814.6</ele>
        <time>2021-08-02T15:25:53Z</time>
      </trkpt>
      <trkpt lat="45.77367" lon="6.57777">
        <ele>1814.2</ele>
        <time>2021-08-02T15:25:55Z</time>
      </trkpt>
      <trkpt lat="45.77374" lon="6.57798">
        <ele>1813.4</ele>
        <time>2021-08-02T15:25:58Z</time>
      </trkpt>
      <trkpt lat="45.77373" lon="6.57812">
        <ele>1812.2</ele>
        <time>2021-08-02T15:26:01Z</time>
      </trkpt>
      <trkpt lat="45.77373" lon="6.57815">
        <ele>1812</ele>
        <time>2021-08-02T15:26:02Z</time>
      </trkpt>
      <trkpt lat="45.77373" lon="6.57816">
        <ele>1811.2</ele>
        <time>2021-08-02T15:26:04Z</time>
      </trkpt>
      <trkpt lat="45.77371" lon="6.57817">
        <ele>1809</ele>
        <time>2021-08-02T15:28:25Z</time>
      </trkpt>
      <trkpt lat="45.7737" lon="6.57818">
        <ele>1809</ele>
        <time>2021-08-02T15:28:26Z</time>
      </trkpt>
      <trkpt lat="45.77359" lon="6.57832">
        <ele>1809.2</ele>
        <time>2021-08-02T15:28:30Z</time>
      </trkpt>
      <trkpt lat="45.77353" lon="6.57843">
        <ele>1809.2</ele>
        <time>2021-08-02T15:28:32Z</time>
      </trkpt>
      <trkpt lat="45.77347" lon="6.57861">
        <ele>1809.2</ele>
        <time>2021-08-02T15:28:35Z</time>
      </trkpt>
      <trkpt lat="45.77351" lon="6.57884">
        <ele>1808.2</ele>
        <time>2021-08-02T15:28:39Z</time>
      </trkpt>
      <trkpt lat="45.77354" lon="6.57888">
        <ele>1806.4</ele>
        <time>2021-08-02T15:28:40Z</time>
      </trkpt>
      <trkpt lat="45.77361" lon="6.57894">
        <ele>1804.6</ele>
        <time>2021-08-02T15:28:42Z</time>
      </trkpt>
      <trkpt lat="45.77364" lon="6.57896">
        <ele>1803.8</ele>
        <time>2021-08-02T15:28:43Z</time>
      </trkpt>
      <trkpt lat="45.77367" lon="6.57898">
        <ele>1803.4</ele>
        <time>2021-08-02T15:28:44Z</time>
      </trkpt>
      <trkpt lat="45.77371" lon="6.57901">
        <ele>1802</ele>
        <time>2021-08-02T15:28:46Z</time>
      </trkpt>
      <trkpt lat="45.77374" lon="6.57903">
        <ele>1800.4</ele>
        <time>2021-08-02T15:28:48Z</time>
      </trkpt>
      <trkpt lat="45.77378" lon="6.57908">
        <ele>1798.8</ele>
        <time>2021-08-02T15:28:50Z</time>
      </trkpt>
      <trkpt lat="45.77379" lon="6.57916">
        <ele>1798</ele>
        <time>2021-08-02T15:28:52Z</time>
      </trkpt>
      <trkpt lat="45.77378" lon="6.5792">
        <ele>1797.4</ele>
        <time>2021-08-02T15:28:53Z</time>
      </trkpt>
      <trkpt lat="45.77372" lon="6.57929">
        <ele>1796.2</ele>
        <time>2021-08-02T15:28:56Z</time>
      </trkpt>
      <trkpt lat="45.77365" lon="6.57937">
        <ele>1795.4</ele>
        <time>2021-08-02T15:28:58Z</time>
      </trkpt>
      <trkpt lat="45.77362" lon="6.57942">
        <ele>1795</ele>
        <time>2021-08-02T15:28:59Z</time>
      </trkpt>
      <trkpt lat="45.77359" lon="6.57946">
        <ele>1794.6</ele>
        <time>2021-08-02T15:29:00Z</time>
      </trkpt>
      <trkpt lat="45.77347" lon="6.57958">
        <ele>1793.6</ele>
        <time>2021-08-02T15:29:03Z</time>
      </trkpt>
      <trkpt lat="45.77345" lon="6.57962">
        <ele>1792.8</ele>
        <time>2021-08-02T15:29:04Z</time>
      </trkpt>
      <trkpt lat="45.77345" lon="6.57967">
        <ele>1792.2</ele>
        <time>2021-08-02T15:29:05Z</time>
      </trkpt>
      <trkpt lat="45.77351" lon="6.57974">
        <ele>1791</ele>
        <time>2021-08-02T15:29:07Z</time>
      </trkpt>
      <trkpt lat="45.77355" lon="6.57977">
        <ele>1790</ele>
        <time>2021-08-02T15:29:08Z</time>
      </trkpt>
      <trkpt lat="45.77365" lon="6.57981">
        <ele>1788.6</ele>
        <time>2021-08-02T15:29:10Z</time>
      </trkpt>
      <trkpt lat="45.77371" lon="6.57983">
        <ele>1788</ele>
        <time>2021-08-02T15:29:11Z</time>
      </trkpt>
      <trkpt lat="45.77376" lon="6.57987">
        <ele>1787.4</ele>
        <time>2021-08-02T15:29:12Z</time>
      </trkpt>
      <trkpt lat="45.77384" lon="6.57996">
        <ele>1786.2</ele>
        <time>2021-08-02T15:29:14Z</time>
      </trkpt>
      <trkpt lat="45.77387" lon="6.58003">
        <ele>1785.4</ele>
        <time>2021-08-02T15:29:15Z</time>
      </trkpt>
      <trkpt lat="45.77389" lon="6.5801">
        <ele>1784.6</ele>
        <time>2021-08-02T15:29:16Z</time>
      </trkpt>
      <trkpt lat="45.7739" lon="6.58025">
        <ele>1783</ele>
        <time>2021-08-02T15:29:18Z</time>
      </trkpt>
      <trkpt lat="45.77391" lon="6.58041">
        <ele>1781.4</ele>
        <time>2021-08-02T15:29:20Z</time>
      </trkpt>
      <trkpt lat="45.77392" lon="6.58049">
        <ele>1780.8</ele>
        <time>2021-08-02T15:29:21Z</time>
      </trkpt>
      <trkpt lat="45.77393" lon="6.58056">
        <ele>1780.2</ele>
        <time>2021-08-02T15:29:22Z</time>
      </trkpt>
      <trkpt lat="45.77396" lon="6.58063">
        <ele>1780</ele>
        <time>2021-08-02T15:29:23Z</time>
      </trkpt>
      <trkpt lat="45.77405" lon="6.58089">
        <ele>1779.2</ele>
        <time>2021-08-02T15:29:27Z</time>
      </trkpt>
      <trkpt lat="45.7741" lon="6.58101">
        <ele>1778.4</ele>
        <time>2021-08-02T15:29:29Z</time>
      </trkpt>
      <trkpt lat="45.77413" lon="6.58107">
        <ele>1778</ele>
        <time>2021-08-02T15:29:30Z</time>
      </trkpt>
      <trkpt lat="45.77418" lon="6.5812">
        <ele>1776.8</ele>
        <time>2021-08-02T15:29:32Z</time>
      </trkpt>
      <trkpt lat="45.77424" lon="6.58135">
        <ele>1774.8</ele>
        <time>2021-08-02T15:29:34Z</time>
      </trkpt>
      <trkpt lat="45.77427" lon="6.58142">
        <ele>1774</ele>
        <time>2021-08-02T15:29:35Z</time>
      </trkpt>
      <trkpt lat="45.7743" lon="6.58149">
        <ele>1773.2</ele>
        <time>2021-08-02T15:29:36Z</time>
      </trkpt>
      <trkpt lat="45.77433" lon="6.58155">
        <ele>1771.4</ele>
        <time>2021-08-02T15:29:37Z</time>
      </trkpt>
      <trkpt lat="45.77438" lon="6.58164">
        <ele>1769.8</ele>
        <time>2021-08-02T15:29:39Z</time>
      </trkpt>
      <trkpt lat="45.77441" lon="6.58168">
        <ele>1768</ele>
        <time>2021-08-02T15:29:41Z</time>
      </trkpt>
      <trkpt lat="45.77443" lon="6.58172">
        <ele>1767.2</ele>
        <time>2021-08-02T15:29:43Z</time>
      </trkpt>
      <trkpt lat="45.77447" lon="6.58184">
        <ele>1767</ele>
        <time>2021-08-02T15:29:50Z</time>
      </trkpt>
      <trkpt lat="45.77448" lon="6.58186">
        <ele>1767.6</ele>
        <time>2021-08-02T15:29:53Z</time>
      </trkpt>
      <trkpt lat="45.77446" lon="6.58181">
        <ele>1768</ele>
        <time>2021-08-02T15:37:21Z</time>
      </trkpt>
      <trkpt lat="45.77446" lon="6.58181">
        <ele>1768</ele>
        <time>2021-08-02T15:37:22Z</time>
      </trkpt>
      <trkpt lat="45.77446" lon="6.5818">
        <ele>1768</ele>
        <time>2021-08-02T15:37:23Z</time>
      </trkpt>
      <trkpt lat="45.77447" lon="6.58178">
        <ele>1768.6</ele>
        <time>2021-08-02T15:37:33Z</time>
      </trkpt>
      <trkpt lat="45.77447" lon="6.58174">
        <ele>1768.6</ele>
        <time>2021-08-02T15:37:36Z</time>
      </trkpt>
      <trkpt lat="45.77446" lon="6.58172">
        <ele>1768.6</ele>
        <time>2021-08-02T15:37:39Z</time>
      </trkpt>
      <trkpt lat="45.77446" lon="6.58169">
        <ele>1769.2</ele>
        <time>2021-08-02T15:37:55Z</time>
      </trkpt>
      <trkpt lat="45.77439" lon="6.5816">
        <ele>1769.2</ele>
        <time>2021-08-02T15:37:59Z</time>
      </trkpt>
      <trkpt lat="45.77433" lon="6.58153">
        <ele>1769.2</ele>
        <time>2021-08-02T15:38:01Z</time>
      </trkpt>
      <trkpt lat="45.77426" lon="6.58143">
        <ele>1769</ele>
        <time>2021-08-02T15:38:03Z</time>
      </trkpt>
      <trkpt lat="45.77422" lon="6.58134">
        <ele>1769</ele>
        <time>2021-08-02T15:38:05Z</time>
      </trkpt>
      <trkpt lat="45.77419" lon="6.58127">
        <ele>1768.6</ele>
        <time>2021-08-02T15:38:07Z</time>
      </trkpt>
      <trkpt lat="45.77413" lon="6.58114">
        <ele>1768</ele>
        <time>2021-08-02T15:38:12Z</time>
      </trkpt>
      <trkpt lat="45.77407" lon="6.581">
        <ele>1768.6</ele>
        <time>2021-08-02T15:38:19Z</time>
      </trkpt>
      <trkpt lat="45.77405" lon="6.58094">
        <ele>1769.6</ele>
        <time>2021-08-02T15:38:22Z</time>
      </trkpt>
      <trkpt lat="45.77403" lon="6.58087">
        <ele>1770.8</ele>
        <time>2021-08-02T15:38:26Z</time>
      </trkpt>
      <trkpt lat="45.77402" lon="6.58086">
        <ele>1771</ele>
        <time>2021-08-02T15:38:27Z</time>
      </trkpt>
      <trkpt lat="45.774" lon="6.58081">
        <ele>1771.8</ele>
        <time>2021-08-02T15:38:30Z</time>
      </trkpt>
      <trkpt lat="45.77397" lon="6.58072">
        <ele>1772.8</ele>
        <time>2021-08-02T15:38:36Z</time>
      </trkpt>
      <trkpt lat="45.77397" lon="6.5807">
        <ele>1773.2</ele>
        <time>2021-08-02T15:38:37Z</time>
      </trkpt>
      <trkpt lat="45.77395" lon="6.58066">
        <ele>1773.8</ele>
        <time>2021-08-02T15:38:40Z</time>
      </trkpt>
      <trkpt lat="45.77393" lon="6.58058">
        <ele>1774.8</ele>
        <time>2021-08-02T15:38:45Z</time>
      </trkpt>
      <trkpt lat="45.77392" lon="6.58056">
        <ele>1775</ele>
        <time>2021-08-02T15:38:46Z</time>
      </trkpt>
      <trkpt lat="45.7739" lon="6.58047">
        <ele>1776</ele>
        <time>2021-08-02T15:38:51Z</time>
      </trkpt>
      <trkpt lat="45.77389" lon="6.58043">
        <ele>1776.4</ele>
        <time>2021-08-02T15:38:53Z</time>
      </trkpt>
      <trkpt lat="45.77388" lon="6.58035">
        <ele>1777</ele>
        <time>2021-08-02T15:38:57Z</time>
      </trkpt>
      <trkpt lat="45.77388" lon="6.58023">
        <ele>1778.2</ele>
        <time>2021-08-02T15:39:03Z</time>
      </trkpt>
      <trkpt lat="45.77389" lon="6.5801">
        <ele>1779</ele>
        <time>2021-08-02T15:39:09Z</time>
      </trkpt>
      <trkpt lat="45.77388" lon="6.58008">
        <ele>1779.2</ele>
        <time>2021-08-02T15:39:10Z</time>
      </trkpt>
      <trkpt lat="45.77383" lon="6.57991">
        <ele>1780.2</ele>
        <time>2021-08-02T15:39:18Z</time>
      </trkpt>
      <trkpt lat="45.77382" lon="6.5799">
        <ele>1780.4</ele>
        <time>2021-08-02T15:39:19Z</time>
      </trkpt>
      <trkpt lat="45.77374" lon="6.57982">
        <ele>1780.8</ele>
        <time>2021-08-02T15:39:25Z</time>
      </trkpt>
      <trkpt lat="45.77368" lon="6.57979">
        <ele>1781.4</ele>
        <time>2021-08-02T15:39:29Z</time>
      </trkpt>
      <trkpt lat="45.77362" lon="6.57978">
        <ele>1781.6</ele>
        <time>2021-08-02T15:39:33Z</time>
      </trkpt>
      <trkpt lat="45.77354" lon="6.57975">
        <ele>1782.2</ele>
        <time>2021-08-02T15:39:39Z</time>
      </trkpt>
      <trkpt lat="45.77349" lon="6.57973">
        <ele>1783</ele>
        <time>2021-08-02T15:39:43Z</time>
      </trkpt>
      <trkpt lat="45.77346" lon="6.57971">
        <ele>1783.4</ele>
        <time>2021-08-02T15:39:45Z</time>
      </trkpt>
      <trkpt lat="45.77343" lon="6.57964">
        <ele>1784.2</ele>
        <time>2021-08-02T15:39:49Z</time>
      </trkpt>
      <trkpt lat="45.77343" lon="6.57962">
        <ele>1784.2</ele>
        <time>2021-08-02T15:39:50Z</time>
      </trkpt>
      <trkpt lat="45.77345" lon="6.57958">
        <ele>1784.6</ele>
        <time>2021-08-02T15:39:52Z</time>
      </trkpt>
      <trkpt lat="45.77346" lon="6.57955">
        <ele>1785</ele>
        <time>2021-08-02T15:39:54Z</time>
      </trkpt>
      <trkpt lat="45.77351" lon="6.5795">
        <ele>1785.8</ele>
        <time>2021-08-02T15:39:58Z</time>
      </trkpt>
      <trkpt lat="45.77354" lon="6.57948">
        <ele>1786.2</ele>
        <time>2021-08-02T15:40:01Z</time>
      </trkpt>
      <trkpt lat="45.77357" lon="6.57945">
        <ele>1786.8</ele>
        <time>2021-08-02T15:40:04Z</time>
      </trkpt>
      <trkpt lat="45.77362" lon="6.57941">
        <ele>1788</ele>
        <time>2021-08-02T15:40:08Z</time>
      </trkpt>
      <trkpt lat="45.77363" lon="6.5794">
        <ele>1788.2</ele>
        <time>2021-08-02T15:40:09Z</time>
      </trkpt>
      <trkpt lat="45.77365" lon="6.57935">
        <ele>1789</ele>
        <time>2021-08-02T15:40:12Z</time>
      </trkpt>
      <trkpt lat="45.7737" lon="6.57929">
        <ele>1790</ele>
        <time>2021-08-02T15:40:17Z</time>
      </trkpt>
      <trkpt lat="45.7737" lon="6.57928">
        <ele>1790.2</ele>
        <time>2021-08-02T15:40:18Z</time>
      </trkpt>
      <trkpt lat="45.77376" lon="6.57921">
        <ele>1791.2</ele>
        <time>2021-08-02T15:40:24Z</time>
      </trkpt>
      <trkpt lat="45.77379" lon="6.57916">
        <ele>1791.8</ele>
        <time>2021-08-02T15:40:28Z</time>
      </trkpt>
      <trkpt lat="45.77379" lon="6.57914">
        <ele>1792</ele>
        <time>2021-08-02T15:40:29Z</time>
      </trkpt>
      <trkpt lat="45.7738" lon="6.57913">
        <ele>1792.2</ele>
        <time>2021-08-02T15:40:30Z</time>
      </trkpt>
      <trkpt lat="45.7738" lon="6.57911">
        <ele>1792.4</ele>
        <time>2021-08-02T15:40:31Z</time>
      </trkpt>
      <trkpt lat="45.77379" lon="6.5791">
        <ele>1792.6</ele>
        <time>2021-08-02T15:40:32Z</time>
      </trkpt>
      <trkpt lat="45.77378" lon="6.57905">
        <ele>1793.2</ele>
        <time>2021-08-02T15:40:35Z</time>
      </trkpt>
      <trkpt lat="45.77377" lon="6.57902">
        <ele>1793.6</ele>
        <time>2021-08-02T15:40:37Z</time>
      </trkpt>
      <trkpt lat="45.77374" lon="6.57898">
        <ele>1794.2</ele>
        <time>2021-08-02T15:40:40Z</time>
      </trkpt>
      <trkpt lat="45.7737" lon="6.57897">
        <ele>1795.2</ele>
        <time>2021-08-02T15:40:44Z</time>
      </trkpt>
      <trkpt lat="45.77369" lon="6.57896">
        <ele>1795.4</ele>
        <time>2021-08-02T15:40:45Z</time>
      </trkpt>
      <trkpt lat="45.77362" lon="6.57891">
        <ele>1796.2</ele>
        <time>2021-08-02T15:40:52Z</time>
      </trkpt>
      <trkpt lat="45.7736" lon="6.57889">
        <ele>1796.4</ele>
        <time>2021-08-02T15:40:54Z</time>
      </trkpt>
      <trkpt lat="45.77354" lon="6.57886">
        <ele>1797.4</ele>
        <time>2021-08-02T15:40:59Z</time>
      </trkpt>
      <trkpt lat="45.77353" lon="6.57885">
        <ele>1797.8</ele>
        <time>2021-08-02T15:41:01Z</time>
      </trkpt>
      <trkpt lat="45.77349" lon="6.5788">
        <ele>1798.8</ele>
        <time>2021-08-02T15:41:05Z</time>
      </trkpt>
      <trkpt lat="45.77347" lon="6.57878">
        <ele>1799</ele>
        <time>2021-08-02T15:41:07Z</time>
      </trkpt>
      <trkpt lat="45.77345" lon="6.5787">
        <ele>1799.8</ele>
        <time>2021-08-02T15:41:12Z</time>
      </trkpt>
      <trkpt lat="45.77345" lon="6.57865">
        <ele>1800.4</ele>
        <time>2021-08-02T15:41:15Z</time>
      </trkpt>
      <trkpt lat="45.77344" lon="6.5786">
        <ele>1801</ele>
        <time>2021-08-02T15:41:18Z</time>
      </trkpt>
      <trkpt lat="45.77345" lon="6.57854">
        <ele>1801.8</ele>
        <time>2021-08-02T15:41:21Z</time>
      </trkpt>
      <trkpt lat="45.77346" lon="6.57853">
        <ele>1802.2</ele>
        <time>2021-08-02T15:41:22Z</time>
      </trkpt>
      <trkpt lat="45.77347" lon="6.57852">
        <ele>1802.4</ele>
        <time>2021-08-02T15:41:23Z</time>
      </trkpt>
      <trkpt lat="45.77349" lon="6.57847">
        <ele>1803.2</ele>
        <time>2021-08-02T15:41:26Z</time>
      </trkpt>
      <trkpt lat="45.77349" lon="6.57846">
        <ele>1803.4</ele>
        <time>2021-08-02T15:41:27Z</time>
      </trkpt>
      <trkpt lat="45.77352" lon="6.57839">
        <ele>1804</ele>
        <time>2021-08-02T15:41:31Z</time>
      </trkpt>
      <trkpt lat="45.77352" lon="6.57838">
        <ele>1804.2</ele>
        <time>2021-08-02T15:41:32Z</time>
      </trkpt>
      <trkpt lat="45.77356" lon="6.57832">
        <ele>1805.2</ele>
        <time>2021-08-02T15:41:37Z</time>
      </trkpt>
      <trkpt lat="45.77358" lon="6.5783">
        <ele>1805.6</ele>
        <time>2021-08-02T15:41:39Z</time>
      </trkpt>
      <trkpt lat="45.77363" lon="6.57824">
        <ele>1806.4</ele>
        <time>2021-08-02T15:41:45Z</time>
      </trkpt>
      <trkpt lat="45.77366" lon="6.57821">
        <ele>1807</ele>
        <time>2021-08-02T15:41:48Z</time>
      </trkpt>
      <trkpt lat="45.77368" lon="6.57818">
        <ele>1807.4</ele>
        <time>2021-08-02T15:41:50Z</time>
      </trkpt>
      <trkpt lat="45.77372" lon="6.57807">
        <ele>1808.4</ele>
        <time>2021-08-02T15:41:56Z</time>
      </trkpt>
      <trkpt lat="45.77373" lon="6.57799">
        <ele>1809.6</ele>
        <time>2021-08-02T15:42:00Z</time>
      </trkpt>
      <trkpt lat="45.77371" lon="6.57798">
        <ele>1809.8</ele>
        <time>2021-08-02T15:42:01Z</time>
      </trkpt>
      <trkpt lat="45.7737" lon="6.57798">
        <ele>1810</ele>
        <time>2021-08-02T15:42:02Z</time>
      </trkpt>
      <trkpt lat="45.77367" lon="6.57801">
        <ele>1810.2</ele>
        <time>2021-08-02T15:42:04Z</time>
      </trkpt>
      <trkpt lat="45.77364" lon="6.57803">
        <ele>1810.8</ele>
        <time>2021-08-02T15:42:06Z</time>
      </trkpt>
      <trkpt lat="45.77362" lon="6.57805">
        <ele>1811</ele>
        <time>2021-08-02T15:42:08Z</time>
      </trkpt>
      <trkpt lat="45.77355" lon="6.57807">
        <ele>1811.4</ele>
        <time>2021-08-02T15:42:15Z</time>
      </trkpt>
      <trkpt lat="45.77353" lon="6.57807">
        <ele>1811.4</ele>
        <time>2021-08-02T15:45:13Z</time>
      </trkpt>
      <trkpt lat="45.77344" lon="6.57807">
        <ele>1812.4</ele>
        <time>2021-08-02T15:45:19Z</time>
      </trkpt>
      <trkpt lat="45.77333" lon="6.57802">
        <ele>1813</ele>
        <time>2021-08-02T15:45:26Z</time>
      </trkpt>
      <trkpt lat="45.77331" lon="6.57799">
        <ele>1813.2</ele>
        <time>2021-08-02T15:45:28Z</time>
      </trkpt>
      <trkpt lat="45.77326" lon="6.57793">
        <ele>1814.2</ele>
        <time>2021-08-02T15:45:32Z</time>
      </trkpt>
      <trkpt lat="45.77324" lon="6.5779">
        <ele>1814.6</ele>
        <time>2021-08-02T15:45:34Z</time>
      </trkpt>
      <trkpt lat="45.77321" lon="6.57786">
        <ele>1815.4</ele>
        <time>2021-08-02T15:45:37Z</time>
      </trkpt>
      <trkpt lat="45.77316" lon="6.57779">
        <ele>1816.6</ele>
        <time>2021-08-02T15:45:42Z</time>
      </trkpt>
      <trkpt lat="45.77314" lon="6.57777">
        <ele>1817</ele>
        <time>2021-08-02T15:45:44Z</time>
      </trkpt>
      <trkpt lat="45.7731" lon="6.57778">
        <ele>1817.4</ele>
        <time>2021-08-02T15:45:47Z</time>
      </trkpt>
      <trkpt lat="45.77308" lon="6.57779">
        <ele>1817.6</ele>
        <time>2021-08-02T15:45:48Z</time>
      </trkpt>
      <trkpt lat="45.77302" lon="6.57784">
        <ele>1818.4</ele>
        <time>2021-08-02T15:45:55Z</time>
      </trkpt>
      <trkpt lat="45.77299" lon="6.57787">
        <ele>1818.8</ele>
        <time>2021-08-02T15:45:58Z</time>
      </trkpt>
      <trkpt lat="45.77296" lon="6.5779">
        <ele>1819.8</ele>
        <time>2021-08-02T15:46:02Z</time>
      </trkpt>
      <trkpt lat="45.77295" lon="6.57791">
        <ele>1820.2</ele>
        <time>2021-08-02T15:46:03Z</time>
      </trkpt>
      <trkpt lat="45.77293" lon="6.57794">
        <ele>1821.2</ele>
        <time>2021-08-02T15:46:06Z</time>
      </trkpt>
      <trkpt lat="45.77289" lon="6.57797">
        <ele>1822.2</ele>
        <time>2021-08-02T15:46:10Z</time>
      </trkpt>
      <trkpt lat="45.77282" lon="6.57802">
        <ele>1823.4</ele>
        <time>2021-08-02T15:46:16Z</time>
      </trkpt>
      <trkpt lat="45.77278" lon="6.57804">
        <ele>1824</ele>
        <time>2021-08-02T15:46:20Z</time>
      </trkpt>
      <trkpt lat="45.77276" lon="6.57804">
        <ele>1824.6</ele>
        <time>2021-08-02T15:46:22Z</time>
      </trkpt>
      <trkpt lat="45.77271" lon="6.57803">
        <ele>1825.6</ele>
        <time>2021-08-02T15:46:26Z</time>
      </trkpt>
      <trkpt lat="45.7727" lon="6.57803">
        <ele>1825.8</ele>
        <time>2021-08-02T15:46:27Z</time>
      </trkpt>
      <trkpt lat="45.77264" lon="6.57803">
        <ele>1827</ele>
        <time>2021-08-02T15:46:32Z</time>
      </trkpt>
      <trkpt lat="45.77258" lon="6.57802">
        <ele>1827.8</ele>
        <time>2021-08-02T15:46:37Z</time>
      </trkpt>
      <trkpt lat="45.77255" lon="6.57802">
        <ele>1828</ele>
        <time>2021-08-02T15:46:39Z</time>
      </trkpt>
      <trkpt lat="45.77247" lon="6.57802">
        <ele>1829</ele>
        <time>2021-08-02T15:46:45Z</time>
      </trkpt>
      <trkpt lat="45.77243" lon="6.57801">
        <ele>1829.8</ele>
        <time>2021-08-02T15:46:48Z</time>
      </trkpt>
      <trkpt lat="45.77242" lon="6.57801">
        <ele>1830</ele>
        <time>2021-08-02T15:46:49Z</time>
      </trkpt>
      <trkpt lat="45.77232" lon="6.57799">
        <ele>1831</ele>
        <time>2021-08-02T15:46:56Z</time>
      </trkpt>
      <trkpt lat="45.7723" lon="6.57799">
        <ele>1831.2</ele>
        <time>2021-08-02T15:46:57Z</time>
      </trkpt>
      <trkpt lat="45.77219" lon="6.57797">
        <ele>1832</ele>
        <time>2021-08-02T15:47:05Z</time>
      </trkpt>
      <trkpt lat="45.7721" lon="6.57791">
        <ele>1832.8</ele>
        <time>2021-08-02T15:47:12Z</time>
      </trkpt>
      <trkpt lat="45.77209" lon="6.57791">
        <ele>1833</ele>
        <time>2021-08-02T15:47:13Z</time>
      </trkpt>
      <trkpt lat="45.77199" lon="6.57787">
        <ele>1834</ele>
        <time>2021-08-02T15:47:20Z</time>
      </trkpt>
      <trkpt lat="45.77193" lon="6.57785">
        <ele>1834.8</ele>
        <time>2021-08-02T15:47:24Z</time>
      </trkpt>
      <trkpt lat="45.7719" lon="6.57784">
        <ele>1835</ele>
        <time>2021-08-02T15:47:26Z</time>
      </trkpt>
      <trkpt lat="45.77178" lon="6.5778">
        <ele>1836</ele>
        <time>2021-08-02T15:47:34Z</time>
      </trkpt>
      <trkpt lat="45.77166" lon="6.57774">
        <ele>1837.2</ele>
        <time>2021-08-02T15:47:42Z</time>
      </trkpt>
      <trkpt lat="45.77165" lon="6.57774">
        <ele>1837.4</ele>
        <time>2021-08-02T15:47:43Z</time>
      </trkpt>
      <trkpt lat="45.77156" lon="6.57769">
        <ele>1838.4</ele>
        <time>2021-08-02T15:47:49Z</time>
      </trkpt>
      <trkpt lat="45.77152" lon="6.57766">
        <ele>1838.8</ele>
        <time>2021-08-02T15:47:52Z</time>
      </trkpt>
      <trkpt lat="45.77148" lon="6.57763">
        <ele>1839.4</ele>
        <time>2021-08-02T15:47:55Z</time>
      </trkpt>
      <trkpt lat="45.77143" lon="6.57759">
        <ele>1840.6</ele>
        <time>2021-08-02T15:48:00Z</time>
      </trkpt>
      <trkpt lat="45.7714" lon="6.57756">
        <ele>1841.2</ele>
        <time>2021-08-02T15:48:02Z</time>
      </trkpt>
      <trkpt lat="45.77138" lon="6.57754">
        <ele>1841.8</ele>
        <time>2021-08-02T15:48:04Z</time>
      </trkpt>
      <trkpt lat="45.77131" lon="6.57747">
        <ele>1842.8</ele>
        <time>2021-08-02T15:48:10Z</time>
      </trkpt>
      <trkpt lat="45.7713" lon="6.57746">
        <ele>1843</ele>
        <time>2021-08-02T15:48:11Z</time>
      </trkpt>
      <trkpt lat="45.77125" lon="6.5774">
        <ele>1843.8</ele>
        <time>2021-08-02T15:48:16Z</time>
      </trkpt>
      <trkpt lat="45.77124" lon="6.57739">
        <ele>1844</ele>
        <time>2021-08-02T15:48:17Z</time>
      </trkpt>
      <trkpt lat="45.77117" lon="6.57733">
        <ele>1844.8</ele>
        <time>2021-08-02T15:48:23Z</time>
      </trkpt>
      <trkpt lat="45.77115" lon="6.57732">
        <ele>1845</ele>
        <time>2021-08-02T15:48:24Z</time>
      </trkpt>
      <trkpt lat="45.7711" lon="6.57728">
        <ele>1846</ele>
        <time>2021-08-02T15:48:28Z</time>
      </trkpt>
      <trkpt lat="45.77107" lon="6.57725">
        <ele>1846.6</ele>
        <time>2021-08-02T15:48:31Z</time>
      </trkpt>
      <trkpt lat="45.77104" lon="6.57724">
        <ele>1847</ele>
        <time>2021-08-02T15:48:33Z</time>
      </trkpt>
      <trkpt lat="45.77096" lon="6.57719">
        <ele>1848.2</ele>
        <time>2021-08-02T15:48:40Z</time>
      </trkpt>
      <trkpt lat="45.77095" lon="6.57718">
        <ele>1848.2</ele>
        <time>2021-08-02T15:48:41Z</time>
      </trkpt>
      <trkpt lat="45.77092" lon="6.57717">
        <ele>1849.2</ele>
        <time>2021-08-02T15:48:43Z</time>
      </trkpt>
      <trkpt lat="45.77081" lon="6.57713">
        <ele>1850</ele>
        <time>2021-08-02T15:48:51Z</time>
      </trkpt>
      <trkpt lat="45.77077" lon="6.5771">
        <ele>1850.2</ele>
        <time>2021-08-02T15:48:55Z</time>
      </trkpt>
      <trkpt lat="45.77073" lon="6.57707">
        <ele>1850.6</ele>
        <time>2021-08-02T15:48:58Z</time>
      </trkpt>
      <trkpt lat="45.77068" lon="6.57702">
        <ele>1851.4</ele>
        <time>2021-08-02T15:49:03Z</time>
      </trkpt>
      <trkpt lat="45.77065" lon="6.57698">
        <ele>1851.8</ele>
        <time>2021-08-02T15:49:06Z</time>
      </trkpt>
      <trkpt lat="45.77062" lon="6.57695">
        <ele>1852.4</ele>
        <time>2021-08-02T15:49:09Z</time>
      </trkpt>
      <trkpt lat="45.77057" lon="6.5769">
        <ele>1853.6</ele>
        <time>2021-08-02T15:49:13Z</time>
      </trkpt>
      <trkpt lat="45.77052" lon="6.57685">
        <ele>1854.6</ele>
        <time>2021-08-02T15:49:18Z</time>
      </trkpt>
      <trkpt lat="45.77048" lon="6.57682">
        <ele>1855</ele>
        <time>2021-08-02T15:49:21Z</time>
      </trkpt>
      <trkpt lat="45.77046" lon="6.57679">
        <ele>1855.6</ele>
        <time>2021-08-02T15:49:23Z</time>
      </trkpt>
      <trkpt lat="45.77041" lon="6.57674">
        <ele>1856.6</ele>
        <time>2021-08-02T15:49:28Z</time>
      </trkpt>
      <trkpt lat="45.7704" lon="6.57673">
        <ele>1856.6</ele>
        <time>2021-08-02T15:49:29Z</time>
      </trkpt>
      <trkpt lat="45.77032" lon="6.57668">
        <ele>1857.8</ele>
        <time>2021-08-02T15:49:36Z</time>
      </trkpt>
      <trkpt lat="45.77031" lon="6.57667">
        <ele>1858.2</ele>
        <time>2021-08-02T15:49:37Z</time>
      </trkpt>
      <trkpt lat="45.77027" lon="6.57665">
        <ele>1859</ele>
        <time>2021-08-02T15:49:41Z</time>
      </trkpt>
      <trkpt lat="45.77021" lon="6.57663">
        <ele>1860.2</ele>
        <time>2021-08-02T15:49:46Z</time>
      </trkpt>
      <trkpt lat="45.77019" lon="6.57662">
        <ele>1860.6</ele>
        <time>2021-08-02T15:49:47Z</time>
      </trkpt>
      <trkpt lat="45.77014" lon="6.57662">
        <ele>1861.4</ele>
        <time>2021-08-02T15:49:51Z</time>
      </trkpt>
      <trkpt lat="45.77011" lon="6.5766">
        <ele>1861.8</ele>
        <time>2021-08-02T15:49:54Z</time>
      </trkpt>
      <trkpt lat="45.77005" lon="6.57656">
        <ele>1862.4</ele>
        <time>2021-08-02T15:49:59Z</time>
      </trkpt>
      <trkpt lat="45.77002" lon="6.57653">
        <ele>1863.2</ele>
        <time>2021-08-02T15:50:02Z</time>
      </trkpt>
      <trkpt lat="45.77" lon="6.5765">
        <ele>1863.6</ele>
        <time>2021-08-02T15:50:04Z</time>
      </trkpt>
      <trkpt lat="45.76995" lon="6.57645">
        <ele>1864.8</ele>
        <time>2021-08-02T15:50:09Z</time>
      </trkpt>
      <trkpt lat="45.76991" lon="6.57642">
        <ele>1865.2</ele>
        <time>2021-08-02T15:50:12Z</time>
      </trkpt>
      <trkpt lat="45.76988" lon="6.57639">
        <ele>1865.6</ele>
        <time>2021-08-02T15:50:15Z</time>
      </trkpt>
      <trkpt lat="45.76981" lon="6.57636">
        <ele>1866.8</ele>
        <time>2021-08-02T15:50:20Z</time>
      </trkpt>
      <trkpt lat="45.7697" lon="6.57632">
        <ele>1868</ele>
        <time>2021-08-02T15:50:28Z</time>
      </trkpt>
      <trkpt lat="45.76968" lon="6.57631">
        <ele>1868.2</ele>
        <time>2021-08-02T15:50:30Z</time>
      </trkpt>
      <trkpt lat="45.76963" lon="6.57628">
        <ele>1869.2</ele>
        <time>2021-08-02T15:50:34Z</time>
      </trkpt>
      <trkpt lat="45.76959" lon="6.57626">
        <ele>1869.8</ele>
        <time>2021-08-02T15:50:37Z</time>
      </trkpt>
      <trkpt lat="45.76955" lon="6.57623">
        <ele>1870.2</ele>
        <time>2021-08-02T15:50:40Z</time>
      </trkpt>
      <trkpt lat="45.76952" lon="6.5762">
        <ele>1871</ele>
        <time>2021-08-02T15:50:43Z</time>
      </trkpt>
      <trkpt lat="45.76951" lon="6.57619">
        <ele>1871.2</ele>
        <time>2021-08-02T15:50:44Z</time>
      </trkpt>
      <trkpt lat="45.76945" lon="6.57611">
        <ele>1872.2</ele>
        <time>2021-08-02T15:50:50Z</time>
      </trkpt>
      <trkpt lat="45.76943" lon="6.57609">
        <ele>1872.6</ele>
        <time>2021-08-02T15:50:52Z</time>
      </trkpt>
      <trkpt lat="45.76939" lon="6.57603">
        <ele>1873.4</ele>
        <time>2021-08-02T15:50:56Z</time>
      </trkpt>
      <trkpt lat="45.76935" lon="6.57593">
        <ele>1874.4</ele>
        <time>2021-08-02T15:51:01Z</time>
      </trkpt>
      <trkpt lat="45.76934" lon="6.57592">
        <ele>1874.6</ele>
        <time>2021-08-02T15:51:02Z</time>
      </trkpt>
      <trkpt lat="45.76933" lon="6.57585">
        <ele>1875.6</ele>
        <time>2021-08-02T15:51:05Z</time>
      </trkpt>
      <trkpt lat="45.76931" lon="6.57574">
        <ele>1876.8</ele>
        <time>2021-08-02T15:51:10Z</time>
      </trkpt>
      <trkpt lat="45.76931" lon="6.57572">
        <ele>1877</ele>
        <time>2021-08-02T15:51:11Z</time>
      </trkpt>
      <trkpt lat="45.7693" lon="6.57563">
        <ele>1878</ele>
        <time>2021-08-02T15:51:15Z</time>
      </trkpt>
      <trkpt lat="45.76929" lon="6.57554">
        <ele>1878.6</ele>
        <time>2021-08-02T15:51:19Z</time>
      </trkpt>
      <trkpt lat="45.76928" lon="6.5755">
        <ele>1879</ele>
        <time>2021-08-02T15:51:21Z</time>
      </trkpt>
      <trkpt lat="45.76926" lon="6.57537">
        <ele>1880</ele>
        <time>2021-08-02T15:51:27Z</time>
      </trkpt>
      <trkpt lat="45.76923" lon="6.57522">
        <ele>1881.2</ele>
        <time>2021-08-02T15:51:34Z</time>
      </trkpt>
      <trkpt lat="45.76922" lon="6.57517">
        <ele>1881.6</ele>
        <time>2021-08-02T15:51:36Z</time>
      </trkpt>
      <trkpt lat="45.76918" lon="6.57503">
        <ele>1882.4</ele>
        <time>2021-08-02T15:51:43Z</time>
      </trkpt>
      <trkpt lat="45.76916" lon="6.57497">
        <ele>1882.8</ele>
        <time>2021-08-02T15:51:46Z</time>
      </trkpt>
      <trkpt lat="45.7691" lon="6.57486">
        <ele>1883.4</ele>
        <time>2021-08-02T15:51:52Z</time>
      </trkpt>
      <trkpt lat="45.76907" lon="6.57482">
        <ele>1883.8</ele>
        <time>2021-08-02T15:51:55Z</time>
      </trkpt>
      <trkpt lat="45.769" lon="6.57483">
        <ele>1884.2</ele>
        <time>2021-08-02T15:52:00Z</time>
      </trkpt>
      <trkpt lat="45.76897" lon="6.57486">
        <ele>1884.2</ele>
        <time>2021-08-02T15:52:02Z</time>
      </trkpt>
      <trkpt lat="45.76898" lon="6.57492">
        <ele>1884.2</ele>
        <time>2021-08-02T15:52:05Z</time>
      </trkpt>
      <trkpt lat="45.76899" lon="6.57497">
        <ele>1884.4</ele>
        <time>2021-08-02T15:52:07Z</time>
      </trkpt>
      <trkpt lat="45.769" lon="6.57499">
        <ele>1884.4</ele>
        <time>2021-08-02T15:52:08Z</time>
      </trkpt>
      <trkpt lat="45.76902" lon="6.57512">
        <ele>1885.2</ele>
        <time>2021-08-02T15:52:14Z</time>
      </trkpt>
      <trkpt lat="45.76903" lon="6.57519">
        <ele>1885.4</ele>
        <time>2021-08-02T15:52:17Z</time>
      </trkpt>
      <trkpt lat="45.76904" lon="6.57521">
        <ele>1885.8</ele>
        <time>2021-08-02T15:52:18Z</time>
      </trkpt>
      <trkpt lat="45.76904" lon="6.57531">
        <ele>1886.6</ele>
        <time>2021-08-02T15:52:22Z</time>
      </trkpt>
      <trkpt lat="45.76905" lon="6.5754">
        <ele>1887.2</ele>
        <time>2021-08-02T15:52:25Z</time>
      </trkpt>
      <trkpt lat="45.76906" lon="6.57552">
        <ele>1887.8</ele>
        <time>2021-08-02T15:52:28Z</time>
      </trkpt>
      <trkpt lat="45.76908" lon="6.57564">
        <ele>1888.6</ele>
        <time>2021-08-02T15:52:31Z</time>
      </trkpt>
      <trkpt lat="45.76908" lon="6.57569">
        <ele>1888.8</ele>
        <time>2021-08-02T15:52:32Z</time>
      </trkpt>
      <trkpt lat="45.76913" lon="6.57599">
        <ele>1889.4</ele>
        <time>2021-08-02T15:52:38Z</time>
      </trkpt>
      <trkpt lat="45.7692" lon="6.57635">
        <ele>1889.8</ele>
        <time>2021-08-02T15:52:45Z</time>
      </trkpt>
      <trkpt lat="45.76921" lon="6.57638">
        <ele>1889.8</ele>
        <time>2021-08-02T15:52:46Z</time>
      </trkpt>
      <trkpt lat="45.76924" lon="6.57652">
        <ele>1890.2</ele>
        <time>2021-08-02T15:52:51Z</time>
      </trkpt>
      <trkpt lat="45.76927" lon="6.5766">
        <ele>1890.8</ele>
        <time>2021-08-02T15:52:54Z</time>
      </trkpt>
      <trkpt lat="45.7693" lon="6.57667">
        <ele>1892</ele>
        <time>2021-08-02T15:52:57Z</time>
      </trkpt>
      <trkpt lat="45.76932" lon="6.57672">
        <ele>1893</ele>
        <time>2021-08-02T15:52:59Z</time>
      </trkpt>
      <trkpt lat="45.76933" lon="6.57675">
        <ele>1893.2</ele>
        <time>2021-08-02T15:53:00Z</time>
      </trkpt>
      <trkpt lat="45.76938" lon="6.57686">
        <ele>1894.4</ele>
        <time>2021-08-02T15:53:05Z</time>
      </trkpt>
      <trkpt lat="45.7694" lon="6.5769">
        <ele>1895</ele>
        <time>2021-08-02T15:53:07Z</time>
      </trkpt>
      <trkpt lat="45.76943" lon="6.57697">
        <ele>1895.6</ele>
        <time>2021-08-02T15:53:10Z</time>
      </trkpt>
      <trkpt lat="45.76949" lon="6.57711">
        <ele>1896.4</ele>
        <time>2021-08-02T15:53:16Z</time>
      </trkpt>
      <trkpt lat="45.76951" lon="6.57716">
        <ele>1896.8</ele>
        <time>2021-08-02T15:53:18Z</time>
      </trkpt>
      <trkpt lat="45.76956" lon="6.57729">
        <ele>1897.8</ele>
        <time>2021-08-02T15:53:24Z</time>
      </trkpt>
      <trkpt lat="45.76957" lon="6.57742">
        <ele>1898.8</ele>
        <time>2021-08-02T15:53:29Z</time>
      </trkpt>
      <trkpt lat="45.76958" lon="6.57749">
        <ele>1899.6</ele>
        <time>2021-08-02T15:53:32Z</time>
      </trkpt>
      <trkpt lat="45.76962" lon="6.57766">
        <ele>1899.8</ele>
        <time>2021-08-02T15:53:35Z</time>
      </trkpt>
      <trkpt lat="45.7696" lon="6.57804">
        <ele>1900</ele>
        <time>2021-08-02T15:53:39Z</time>
      </trkpt>
      <trkpt lat="45.76958" lon="6.57815">
        <ele>1900</ele>
        <time>2021-08-02T15:53:40Z</time>
      </trkpt>
      <trkpt lat="45.7695" lon="6.57848">
        <ele>1899.6</ele>
        <time>2021-08-02T15:53:43Z</time>
      </trkpt>
      <trkpt lat="45.76948" lon="6.57869">
        <ele>1897.6</ele>
        <time>2021-08-02T15:53:45Z</time>
      </trkpt>
      <trkpt lat="45.76948" lon="6.57878">
        <ele>1896.6</ele>
        <time>2021-08-02T15:53:46Z</time>
      </trkpt>
      <trkpt lat="45.76947" lon="6.57887">
        <ele>1895.8</ele>
        <time>2021-08-02T15:53:47Z</time>
      </trkpt>
      <trkpt lat="45.76947" lon="6.57895">
        <ele>1894.8</ele>
        <time>2021-08-02T15:53:48Z</time>
      </trkpt>
      <trkpt lat="45.76946" lon="6.57908">
        <ele>1894.2</ele>
        <time>2021-08-02T15:53:50Z</time>
      </trkpt>
      <trkpt lat="45.76946" lon="6.57919">
        <ele>1894</ele>
        <time>2021-08-02T15:53:52Z</time>
      </trkpt>
      <trkpt lat="45.76943" lon="6.57965">
        <ele>1895.6</ele>
        <time>2021-08-02T15:54:00Z</time>
      </trkpt>
      <trkpt lat="45.76943" lon="6.57971">
        <ele>1896</ele>
        <time>2021-08-02T15:54:01Z</time>
      </trkpt>
      <trkpt lat="45.76943" lon="6.57988">
        <ele>1896.8</ele>
        <time>2021-08-02T15:54:04Z</time>
      </trkpt>
      <trkpt lat="45.76943" lon="6.58">
        <ele>1897</ele>
        <time>2021-08-02T15:54:06Z</time>
      </trkpt>
      <trkpt lat="45.76943" lon="6.58006">
        <ele>1897</ele>
        <time>2021-08-02T15:54:07Z</time>
      </trkpt>
      <trkpt lat="45.76942" lon="6.58034">
        <ele>1897.6</ele>
        <time>2021-08-02T15:54:11Z</time>
      </trkpt>
      <trkpt lat="45.76941" lon="6.58082">
        <ele>1897.6</ele>
        <time>2021-08-02T15:54:16Z</time>
      </trkpt>
      <trkpt lat="45.7694" lon="6.58143">
        <ele>1895.8</ele>
        <time>2021-08-02T15:54:21Z</time>
      </trkpt>
      <trkpt lat="45.7694" lon="6.58163">
        <ele>1894.4</ele>
        <time>2021-08-02T15:54:23Z</time>
      </trkpt>
      <trkpt lat="45.7694" lon="6.58172">
        <ele>1892.6</ele>
        <time>2021-08-02T15:54:24Z</time>
      </trkpt>
      <trkpt lat="45.76941" lon="6.58188">
        <ele>1891.4</ele>
        <time>2021-08-02T15:54:26Z</time>
      </trkpt>
      <trkpt lat="45.76944" lon="6.58243">
        <ele>1891</ele>
        <time>2021-08-02T15:54:33Z</time>
      </trkpt>
      <trkpt lat="45.76947" lon="6.58289">
        <ele>1891.4</ele>
        <time>2021-08-02T15:54:38Z</time>
      </trkpt>
      <trkpt lat="45.76947" lon="6.58345">
        <ele>1891.6</ele>
        <time>2021-08-02T15:54:43Z</time>
      </trkpt>
      <trkpt lat="45.76943" lon="6.58382">
        <ele>1890.6</ele>
        <time>2021-08-02T15:54:47Z</time>
      </trkpt>
      <trkpt lat="45.76942" lon="6.58388">
        <ele>1890.2</ele>
        <time>2021-08-02T15:54:48Z</time>
      </trkpt>
      <trkpt lat="45.7694" lon="6.58409">
        <ele>1889.6</ele>
        <time>2021-08-02T15:54:52Z</time>
      </trkpt>
      <trkpt lat="45.7694" lon="6.58429">
        <ele>1889.8</ele>
        <time>2021-08-02T15:54:58Z</time>
      </trkpt>
      <trkpt lat="45.7694" lon="6.58433">
        <ele>1890.8</ele>
        <time>2021-08-02T15:55:00Z</time>
      </trkpt>
      <trkpt lat="45.76938" lon="6.58437">
        <ele>1891.8</ele>
        <time>2021-08-02T15:55:02Z</time>
      </trkpt>
      <trkpt lat="45.76937" lon="6.5844">
        <ele>1892.2</ele>
        <time>2021-08-02T15:55:03Z</time>
      </trkpt>
      <trkpt lat="45.76937" lon="6.58445">
        <ele>1892.8</ele>
        <time>2021-08-02T15:55:05Z</time>
      </trkpt>
      <trkpt lat="45.76941" lon="6.58452">
        <ele>1893.4</ele>
        <time>2021-08-02T15:55:08Z</time>
      </trkpt>
      <trkpt lat="45.76949" lon="6.58471">
        <ele>1893.8</ele>
        <time>2021-08-02T15:55:15Z</time>
      </trkpt>
      <trkpt lat="45.7695" lon="6.58474">
        <ele>1894</ele>
        <time>2021-08-02T15:55:16Z</time>
      </trkpt>
      <trkpt lat="45.76953" lon="6.58482">
        <ele>1894</ele>
        <time>2021-08-02T15:55:19Z</time>
      </trkpt>
      <trkpt lat="45.76962" lon="6.58505">
        <ele>1895</ele>
        <time>2021-08-02T15:55:27Z</time>
      </trkpt>
      <trkpt lat="45.76968" lon="6.58522">
        <ele>1896.2</ele>
        <time>2021-08-02T15:55:33Z</time>
      </trkpt>
      <trkpt lat="45.76971" lon="6.58528">
        <ele>1896.4</ele>
        <time>2021-08-02T15:55:35Z</time>
      </trkpt>
      <trkpt lat="45.76979" lon="6.58545">
        <ele>1897.2</ele>
        <time>2021-08-02T15:55:42Z</time>
      </trkpt>
      <trkpt lat="45.76981" lon="6.58549">
        <ele>1897.6</ele>
        <time>2021-08-02T15:55:44Z</time>
      </trkpt>
      <trkpt lat="45.76985" lon="6.58556">
        <ele>1898.2</ele>
        <time>2021-08-02T15:55:47Z</time>
      </trkpt>
      <trkpt lat="45.76988" lon="6.58562">
        <ele>1899.2</ele>
        <time>2021-08-02T15:55:50Z</time>
      </trkpt>
      <trkpt lat="45.76992" lon="6.5857">
        <ele>1900.2</ele>
        <time>2021-08-02T15:55:54Z</time>
      </trkpt>
      <trkpt lat="45.76994" lon="6.58572">
        <ele>1900.4</ele>
        <time>2021-08-02T15:55:55Z</time>
      </trkpt>
      <trkpt lat="45.77002" lon="6.58587">
        <ele>1901.6</ele>
        <time>2021-08-02T15:56:02Z</time>
      </trkpt>
      <trkpt lat="45.77005" lon="6.58591">
        <ele>1902</ele>
        <time>2021-08-02T15:56:04Z</time>
      </trkpt>
      <trkpt lat="45.7701" lon="6.58599">
        <ele>1902.6</ele>
        <time>2021-08-02T15:56:08Z</time>
      </trkpt>
      <trkpt lat="45.77017" lon="6.5861">
        <ele>1903.6</ele>
        <time>2021-08-02T15:56:14Z</time>
      </trkpt>
      <trkpt lat="45.77023" lon="6.58619">
        <ele>1905.2</ele>
        <time>2021-08-02T15:56:19Z</time>
      </trkpt>
      <trkpt lat="45.77027" lon="6.58627">
        <ele>1906.2</ele>
        <time>2021-08-02T15:56:23Z</time>
      </trkpt>
      <trkpt lat="45.77027" lon="6.5863">
        <ele>1906.4</ele>
        <time>2021-08-02T15:56:24Z</time>
      </trkpt>
      <trkpt lat="45.77032" lon="6.58641">
        <ele>1907.6</ele>
        <time>2021-08-02T15:56:29Z</time>
      </trkpt>
      <trkpt lat="45.77034" lon="6.58645">
        <ele>1908</ele>
        <time>2021-08-02T15:56:31Z</time>
      </trkpt>
      <trkpt lat="45.77038" lon="6.58654">
        <ele>1908.8</ele>
        <time>2021-08-02T15:56:35Z</time>
      </trkpt>
      <trkpt lat="45.7704" lon="6.58659">
        <ele>1909.2</ele>
        <time>2021-08-02T15:56:37Z</time>
      </trkpt>
      <trkpt lat="45.77043" lon="6.58667">
        <ele>1909.8</ele>
        <time>2021-08-02T15:56:41Z</time>
      </trkpt>
      <trkpt lat="45.77048" lon="6.58679">
        <ele>1911</ele>
        <time>2021-08-02T15:56:47Z</time>
      </trkpt>
      <trkpt lat="45.77049" lon="6.58682">
        <ele>1911.2</ele>
        <time>2021-08-02T15:56:48Z</time>
      </trkpt>
      <trkpt lat="45.77053" lon="6.58693">
        <ele>1912.2</ele>
        <time>2021-08-02T15:56:53Z</time>
      </trkpt>
      <trkpt lat="45.77057" lon="6.58707">
        <ele>1913.2</ele>
        <time>2021-08-02T15:56:59Z</time>
      </trkpt>
      <trkpt lat="45.77057" lon="6.58709">
        <ele>1913.4</ele>
        <time>2021-08-02T15:57:00Z</time>
      </trkpt>
      <trkpt lat="45.77061" lon="6.58723">
        <ele>1914.6</ele>
        <time>2021-08-02T15:57:06Z</time>
      </trkpt>
      <trkpt lat="45.77063" lon="6.58729">
        <ele>1915</ele>
        <time>2021-08-02T15:57:09Z</time>
      </trkpt>
      <trkpt lat="45.77065" lon="6.58739">
        <ele>1915.6</ele>
        <time>2021-08-02T15:57:13Z</time>
      </trkpt>
      <trkpt lat="45.77068" lon="6.58751">
        <ele>1916.8</ele>
        <time>2021-08-02T15:57:18Z</time>
      </trkpt>
      <trkpt lat="45.7707" lon="6.58758">
        <ele>1917.2</ele>
        <time>2021-08-02T15:57:21Z</time>
      </trkpt>
      <trkpt lat="45.77072" lon="6.58766">
        <ele>1917.8</ele>
        <time>2021-08-02T15:57:24Z</time>
      </trkpt>
      <trkpt lat="45.77072" lon="6.58768">
        <ele>1918</ele>
        <time>2021-08-02T15:57:25Z</time>
      </trkpt>
      <trkpt lat="45.77077" lon="6.58779">
        <ele>1919</ele>
        <time>2021-08-02T15:57:30Z</time>
      </trkpt>
      <trkpt lat="45.77081" lon="6.58789">
        <ele>1919.6</ele>
        <time>2021-08-02T15:57:34Z</time>
      </trkpt>
      <trkpt lat="45.77083" lon="6.58794">
        <ele>1920</ele>
        <time>2021-08-02T15:57:36Z</time>
      </trkpt>
      <trkpt lat="45.7709" lon="6.58811">
        <ele>1921.2</ele>
        <time>2021-08-02T15:57:43Z</time>
      </trkpt>
      <trkpt lat="45.77096" lon="6.58826">
        <ele>1922.2</ele>
        <time>2021-08-02T15:57:49Z</time>
      </trkpt>
      <trkpt lat="45.771" lon="6.58833">
        <ele>1922.8</ele>
        <time>2021-08-02T15:57:52Z</time>
      </trkpt>
      <trkpt lat="45.77102" lon="6.58837">
        <ele>1923.4</ele>
        <time>2021-08-02T15:57:54Z</time>
      </trkpt>
      <trkpt lat="45.7711" lon="6.5885">
        <ele>1924.4</ele>
        <time>2021-08-02T15:58:00Z</time>
      </trkpt>
      <trkpt lat="45.77113" lon="6.58853">
        <ele>1924.6</ele>
        <time>2021-08-02T15:58:02Z</time>
      </trkpt>
      <trkpt lat="45.77118" lon="6.58861">
        <ele>1925.4</ele>
        <time>2021-08-02T15:58:06Z</time>
      </trkpt>
      <trkpt lat="45.77125" lon="6.58873">
        <ele>1926.2</ele>
        <time>2021-08-02T15:58:11Z</time>
      </trkpt>
      <trkpt lat="45.77128" lon="6.58878">
        <ele>1926.6</ele>
        <time>2021-08-02T15:58:13Z</time>
      </trkpt>
      <trkpt lat="45.77139" lon="6.58893">
        <ele>1927.6</ele>
        <time>2021-08-02T15:58:19Z</time>
      </trkpt>
      <trkpt lat="45.77141" lon="6.58895">
        <ele>1927.8</ele>
        <time>2021-08-02T15:58:20Z</time>
      </trkpt>
      <trkpt lat="45.77153" lon="6.58906">
        <ele>1929</ele>
        <time>2021-08-02T15:58:26Z</time>
      </trkpt>
      <trkpt lat="45.77155" lon="6.58907">
        <ele>1929.2</ele>
        <time>2021-08-02T15:58:27Z</time>
      </trkpt>
      <trkpt lat="45.77163" lon="6.58913">
        <ele>1930</ele>
        <time>2021-08-02T15:58:31Z</time>
      </trkpt>
      <trkpt lat="45.77171" lon="6.58921">
        <ele>1931</ele>
        <time>2021-08-02T15:58:35Z</time>
      </trkpt>
      <trkpt lat="45.77176" lon="6.58928">
        <ele>1931.8</ele>
        <time>2021-08-02T15:58:38Z</time>
      </trkpt>
      <trkpt lat="45.7718" lon="6.58934">
        <ele>1932.2</ele>
        <time>2021-08-02T15:58:40Z</time>
      </trkpt>
      <trkpt lat="45.77187" lon="6.58948">
        <ele>1932.6</ele>
        <time>2021-08-02T15:58:44Z</time>
      </trkpt>
      <trkpt lat="45.772" lon="6.58973">
        <ele>1933</ele>
        <time>2021-08-02T15:58:51Z</time>
      </trkpt>
      <trkpt lat="45.77214" lon="6.58992">
        <ele>1933.4</ele>
        <time>2021-08-02T15:58:57Z</time>
      </trkpt>
      <trkpt lat="45.77218" lon="6.58999">
        <ele>1933.6</ele>
        <time>2021-08-02T15:58:59Z</time>
      </trkpt>
      <trkpt lat="45.77233" lon="6.59027">
        <ele>1934.4</ele>
        <time>2021-08-02T15:59:07Z</time>
      </trkpt>
      <trkpt lat="45.77235" lon="6.59031">
        <ele>1934.6</ele>
        <time>2021-08-02T15:59:08Z</time>
      </trkpt>
      <trkpt lat="45.77244" lon="6.5905">
        <ele>1935.4</ele>
        <time>2021-08-02T15:59:13Z</time>
      </trkpt>
      <trkpt lat="45.77253" lon="6.59069">
        <ele>1936</ele>
        <time>2021-08-02T15:59:18Z</time>
      </trkpt>
      <trkpt lat="45.77272" lon="6.59099">
        <ele>1936.4</ele>
        <time>2021-08-02T15:59:25Z</time>
      </trkpt>
      <trkpt lat="45.77278" lon="6.59108">
        <ele>1936.4</ele>
        <time>2021-08-02T15:59:27Z</time>
      </trkpt>
      <trkpt lat="45.77299" lon="6.59136">
        <ele>1936.8</ele>
        <time>2021-08-02T15:59:33Z</time>
      </trkpt>
      <trkpt lat="45.77312" lon="6.59147">
        <ele>1937.2</ele>
        <time>2021-08-02T15:59:36Z</time>
      </trkpt>
      <trkpt lat="45.77321" lon="6.59151">
        <ele>1937.2</ele>
        <time>2021-08-02T15:59:38Z</time>
      </trkpt>
      <trkpt lat="45.77356" lon="6.59178">
        <ele>1938</ele>
        <time>2021-08-02T15:59:46Z</time>
      </trkpt>
      <trkpt lat="45.77371" lon="6.59199">
        <ele>1938.2</ele>
        <time>2021-08-02T15:59:50Z</time>
      </trkpt>
      <trkpt lat="45.7738" lon="6.59207">
        <ele>1938.4</ele>
        <time>2021-08-02T15:59:52Z</time>
      </trkpt>
      <trkpt lat="45.774" lon="6.59214">
        <ele>1938.4</ele>
        <time>2021-08-02T15:59:56Z</time>
      </trkpt>
      <trkpt lat="45.77405" lon="6.59214">
        <ele>1938.6</ele>
        <time>2021-08-02T15:59:57Z</time>
      </trkpt>
      <trkpt lat="45.7741" lon="6.59214">
        <ele>1938.6</ele>
        <time>2021-08-02T15:59:58Z</time>
      </trkpt>
      <trkpt lat="45.77423" lon="6.5921">
        <ele>1938.8</ele>
        <time>2021-08-02T16:00:01Z</time>
      </trkpt>
      <trkpt lat="45.77432" lon="6.59209">
        <ele>1938.8</ele>
        <time>2021-08-02T16:00:03Z</time>
      </trkpt>
      <trkpt lat="45.77454" lon="6.59202">
        <ele>1939</ele>
        <time>2021-08-02T16:00:08Z</time>
      </trkpt>
      <trkpt lat="45.77468" lon="6.59199">
        <ele>1939.2</ele>
        <time>2021-08-02T16:00:11Z</time>
      </trkpt>
      <trkpt lat="45.77486" lon="6.59195">
        <ele>1939.4</ele>
        <time>2021-08-02T16:00:15Z</time>
      </trkpt>
      <trkpt lat="45.77491" lon="6.59195">
        <ele>1939.6</ele>
        <time>2021-08-02T16:00:16Z</time>
      </trkpt>
      <trkpt lat="45.77508" lon="6.59208">
        <ele>1940.2</ele>
        <time>2021-08-02T16:00:20Z</time>
      </trkpt>
      <trkpt lat="45.77512" lon="6.59213">
        <ele>1940.4</ele>
        <time>2021-08-02T16:00:21Z</time>
      </trkpt>
      <trkpt lat="45.77538" lon="6.59242">
        <ele>1941.2</ele>
        <time>2021-08-02T16:00:28Z</time>
      </trkpt>
      <trkpt lat="45.77542" lon="6.59245">
        <ele>1941.2</ele>
        <time>2021-08-02T16:00:29Z</time>
      </trkpt>
      <trkpt lat="45.7756" lon="6.59256">
        <ele>1941.8</ele>
        <time>2021-08-02T16:00:33Z</time>
      </trkpt>
      <trkpt lat="45.77578" lon="6.59269">
        <ele>1942.4</ele>
        <time>2021-08-02T16:00:38Z</time>
      </trkpt>
      <trkpt lat="45.77581" lon="6.59272">
        <ele>1942.4</ele>
        <time>2021-08-02T16:00:39Z</time>
      </trkpt>
      <trkpt lat="45.77599" lon="6.59283">
        <ele>1943.4</ele>
        <time>2021-08-02T16:00:46Z</time>
      </trkpt>
      <trkpt lat="45.77601" lon="6.59285">
        <ele>1943.8</ele>
        <time>2021-08-02T16:00:47Z</time>
      </trkpt>
      <trkpt lat="45.77606" lon="6.59288">
        <ele>1944.8</ele>
        <time>2021-08-02T16:00:49Z</time>
      </trkpt>
      <trkpt lat="45.77615" lon="6.59291">
        <ele>1945.8</ele>
        <time>2021-08-02T16:00:53Z</time>
      </trkpt>
      <trkpt lat="45.77617" lon="6.59292">
        <ele>1946.2</ele>
        <time>2021-08-02T16:00:54Z</time>
      </trkpt>
      <trkpt lat="45.77624" lon="6.59291">
        <ele>1947</ele>
        <time>2021-08-02T16:00:57Z</time>
      </trkpt>
      <trkpt lat="45.77632" lon="6.59291">
        <ele>1947.8</ele>
        <time>2021-08-02T16:01:01Z</time>
      </trkpt>
      <trkpt lat="45.77634" lon="6.59291">
        <ele>1948</ele>
        <time>2021-08-02T16:01:02Z</time>
      </trkpt>
      <trkpt lat="45.77642" lon="6.5929">
        <ele>1949.2</ele>
        <time>2021-08-02T16:01:06Z</time>
      </trkpt>
      <trkpt lat="45.77651" lon="6.59287">
        <ele>1950</ele>
        <time>2021-08-02T16:01:11Z</time>
      </trkpt>
      <trkpt lat="45.77664" lon="6.59286">
        <ele>1951.2</ele>
        <time>2021-08-02T16:01:17Z</time>
      </trkpt>
      <trkpt lat="45.77666" lon="6.59285">
        <ele>1951.4</ele>
        <time>2021-08-02T16:01:18Z</time>
      </trkpt>
      <trkpt lat="45.77684" lon="6.59284">
        <ele>1952.4</ele>
        <time>2021-08-02T16:01:26Z</time>
      </trkpt>
      <trkpt lat="45.77689" lon="6.59283">
        <ele>1952.8</ele>
        <time>2021-08-02T16:01:29Z</time>
      </trkpt>
      <trkpt lat="45.77689" lon="6.59285">
        <ele>1953</ele>
        <time>2021-08-02T16:01:30Z</time>
      </trkpt>
      <trkpt lat="45.77687" lon="6.59287">
        <ele>1953.4</ele>
        <time>2021-08-02T16:01:32Z</time>
      </trkpt>
      <trkpt lat="45.77684" lon="6.59287">
        <ele>1953.6</ele>
        <time>2021-08-02T16:01:33Z</time>
      </trkpt>
      <trkpt lat="45.77678" lon="6.59285">
        <ele>1953.8</ele>
        <time>2021-08-02T16:01:35Z</time>
      </trkpt>
      <trkpt lat="45.77666" lon="6.59285">
        <ele>1953.8</ele>
        <time>2021-08-02T16:01:38Z</time>
      </trkpt>
      <trkpt lat="45.77656" lon="6.59284">
        <ele>1953.8</ele>
        <time>2021-08-02T16:01:40Z</time>
      </trkpt>
      <trkpt lat="45.77649" lon="6.59288">
        <ele>1953.8</ele>
        <time>2021-08-02T16:01:42Z</time>
      </trkpt>
      <trkpt lat="45.77649" lon="6.59304">
        <ele>1953.6</ele>
        <time>2021-08-02T16:01:45Z</time>
      </trkpt>
      <trkpt lat="45.77661" lon="6.5933">
        <ele>1952.6</ele>
        <time>2021-08-02T16:01:50Z</time>
      </trkpt>
      <trkpt lat="45.77666" lon="6.59342">
        <ele>1952.4</ele>
        <time>2021-08-02T16:01:52Z</time>
      </trkpt>
      <trkpt lat="45.77675" lon="6.59367">
        <ele>1952</ele>
        <time>2021-08-02T16:01:56Z</time>
      </trkpt>
      <trkpt lat="45.7768" lon="6.59378">
        <ele>1951.8</ele>
        <time>2021-08-02T16:01:58Z</time>
      </trkpt>
      <trkpt lat="45.77693" lon="6.59399">
        <ele>1951.4</ele>
        <time>2021-08-02T16:02:02Z</time>
      </trkpt>
      <trkpt lat="45.777" lon="6.59409">
        <ele>1951.4</ele>
        <time>2021-08-02T16:02:04Z</time>
      </trkpt>
      <trkpt lat="45.77714" lon="6.59423">
        <ele>1951.2</ele>
        <time>2021-08-02T16:02:07Z</time>
      </trkpt>
      <trkpt lat="45.77719" lon="6.59427">
        <ele>1951.2</ele>
        <time>2021-08-02T16:02:08Z</time>
      </trkpt>
      <trkpt lat="45.7773" lon="6.59433">
        <ele>1951</ele>
        <time>2021-08-02T16:02:10Z</time>
      </trkpt>
      <trkpt lat="45.77735" lon="6.59436">
        <ele>1950.6</ele>
        <time>2021-08-02T16:02:11Z</time>
      </trkpt>
      <trkpt lat="45.77741" lon="6.5944">
        <ele>1950.4</ele>
        <time>2021-08-02T16:02:12Z</time>
      </trkpt>
      <trkpt lat="45.7775" lon="6.59448">
        <ele>1950</ele>
        <time>2021-08-02T16:02:14Z</time>
      </trkpt>
      <trkpt lat="45.77761" lon="6.59455">
        <ele>1949.8</ele>
        <time>2021-08-02T16:02:16Z</time>
      </trkpt>
      <trkpt lat="45.77779" lon="6.59463">
        <ele>1949.6</ele>
        <time>2021-08-02T16:02:19Z</time>
      </trkpt>
      <trkpt lat="45.77814" lon="6.59476">
        <ele>1949.2</ele>
        <time>2021-08-02T16:02:24Z</time>
      </trkpt>
      <trkpt lat="45.77824" lon="6.59489">
        <ele>1948.8</ele>
        <time>2021-08-02T16:02:26Z</time>
      </trkpt>
      <trkpt lat="45.77829" lon="6.59496">
        <ele>1948.6</ele>
        <time>2021-08-02T16:02:27Z</time>
      </trkpt>
      <trkpt lat="45.77839" lon="6.59509">
        <ele>1947.6</ele>
        <time>2021-08-02T16:02:29Z</time>
      </trkpt>
      <trkpt lat="45.77848" lon="6.59521">
        <ele>1946.4</ele>
        <time>2021-08-02T16:02:31Z</time>
      </trkpt>
      <trkpt lat="45.77863" lon="6.59536">
        <ele>1945.8</ele>
        <time>2021-08-02T16:02:34Z</time>
      </trkpt>
      <trkpt lat="45.77869" lon="6.59541">
        <ele>1945.6</ele>
        <time>2021-08-02T16:02:35Z</time>
      </trkpt>
      <trkpt lat="45.77886" lon="6.59548">
        <ele>1945.4</ele>
        <time>2021-08-02T16:02:38Z</time>
      </trkpt>
      <trkpt lat="45.77892" lon="6.59549">
        <ele>1945.4</ele>
        <time>2021-08-02T16:02:39Z</time>
      </trkpt>
      <trkpt lat="45.77902" lon="6.59544">
        <ele>1945.2</ele>
        <time>2021-08-02T16:02:41Z</time>
      </trkpt>
      <trkpt lat="45.77911" lon="6.59535">
        <ele>1945</ele>
        <time>2021-08-02T16:02:43Z</time>
      </trkpt>
      <trkpt lat="45.77917" lon="6.59526">
        <ele>1944.4</ele>
        <time>2021-08-02T16:02:45Z</time>
      </trkpt>
      <trkpt lat="45.7792" lon="6.59522">
        <ele>1944</ele>
        <time>2021-08-02T16:02:46Z</time>
      </trkpt>
      <trkpt lat="45.77932" lon="6.59509">
        <ele>1943.4</ele>
        <time>2021-08-02T16:02:51Z</time>
      </trkpt>
      <trkpt lat="45.77942" lon="6.59503">
        <ele>1944.6</ele>
        <time>2021-08-02T16:02:58Z</time>
      </trkpt>
      <trkpt lat="45.77944" lon="6.59503">
        <ele>1945.2</ele>
        <time>2021-08-02T16:02:59Z</time>
      </trkpt>
      <trkpt lat="45.77947" lon="6.59501">
        <ele>1946.4</ele>
        <time>2021-08-02T16:03:02Z</time>
      </trkpt>
      <trkpt lat="45.77951" lon="6.595">
        <ele>1947.6</ele>
        <time>2021-08-02T16:03:05Z</time>
      </trkpt>
      <trkpt lat="45.77956" lon="6.59499">
        <ele>1948.8</ele>
        <time>2021-08-02T16:03:08Z</time>
      </trkpt>
      <trkpt lat="45.77961" lon="6.59497">
        <ele>1950</ele>
        <time>2021-08-02T16:03:12Z</time>
      </trkpt>
      <trkpt lat="45.77962" lon="6.59496">
        <ele>1950</ele>
        <time>2021-08-02T16:03:13Z</time>
      </trkpt>
      <trkpt lat="45.77965" lon="6.59493">
        <ele>1951</ele>
        <time>2021-08-02T16:03:16Z</time>
      </trkpt>
      <trkpt lat="45.77968" lon="6.59488">
        <ele>1952.2</ele>
        <time>2021-08-02T16:03:19Z</time>
      </trkpt>
      <trkpt lat="45.77969" lon="6.59485">
        <ele>1952.8</ele>
        <time>2021-08-02T16:03:21Z</time>
      </trkpt>
      <trkpt lat="45.77969" lon="6.59481">
        <ele>1953.2</ele>
        <time>2021-08-02T16:03:23Z</time>
      </trkpt>
      <trkpt lat="45.77969" lon="6.59475">
        <ele>1954.2</ele>
        <time>2021-08-02T16:03:26Z</time>
      </trkpt>
      <trkpt lat="45.77969" lon="6.59467">
        <ele>1955.6</ele>
        <time>2021-08-02T16:03:30Z</time>
      </trkpt>
      <trkpt lat="45.77969" lon="6.59465">
        <ele>1955.8</ele>
        <time>2021-08-02T16:03:31Z</time>
      </trkpt>
      <trkpt lat="45.77967" lon="6.59453">
        <ele>1956.8</ele>
        <time>2021-08-02T16:03:37Z</time>
      </trkpt>
      <trkpt lat="45.77965" lon="6.59447">
        <ele>1957.4</ele>
        <time>2021-08-02T16:03:40Z</time>
      </trkpt>
      <trkpt lat="45.77964" lon="6.59444">
        <ele>1957.8</ele>
        <time>2021-08-02T16:03:42Z</time>
      </trkpt>
      <trkpt lat="45.77961" lon="6.59434">
        <ele>1959.2</ele>
        <time>2021-08-02T16:03:48Z</time>
      </trkpt>
      <trkpt lat="45.7796" lon="6.5943">
        <ele>1959.6</ele>
        <time>2021-08-02T16:03:50Z</time>
      </trkpt>
      <trkpt lat="45.77958" lon="6.59427">
        <ele>1960.2</ele>
        <time>2021-08-02T16:03:52Z</time>
      </trkpt>
      <trkpt lat="45.77956" lon="6.59421">
        <ele>1961.2</ele>
        <time>2021-08-02T16:03:56Z</time>
      </trkpt>
      <trkpt lat="45.77954" lon="6.59416">
        <ele>1961.6</ele>
        <time>2021-08-02T16:03:59Z</time>
      </trkpt>
      <trkpt lat="45.77952" lon="6.59412">
        <ele>1962.4</ele>
        <time>2021-08-02T16:04:02Z</time>
      </trkpt>
      <trkpt lat="45.7795" lon="6.59408">
        <ele>1963</ele>
        <time>2021-08-02T16:04:05Z</time>
      </trkpt>
      <trkpt lat="45.7795" lon="6.59406">
        <ele>1963.2</ele>
        <time>2021-08-02T16:04:06Z</time>
      </trkpt>
      <trkpt lat="45.77949" lon="6.59404">
        <ele>1963.4</ele>
        <time>2021-08-02T16:04:07Z</time>
      </trkpt>
      <trkpt lat="45.77947" lon="6.59392">
        <ele>1964.4</ele>
        <time>2021-08-02T16:04:14Z</time>
      </trkpt>
      <trkpt lat="45.77947" lon="6.59391">
        <ele>1964.6</ele>
        <time>2021-08-02T16:04:15Z</time>
      </trkpt>
      <trkpt lat="45.77945" lon="6.59384">
        <ele>1965.6</ele>
        <time>2021-08-02T16:04:19Z</time>
      </trkpt>
      <trkpt lat="45.77944" lon="6.59379">
        <ele>1966.8</ele>
        <time>2021-08-02T16:04:22Z</time>
      </trkpt>
      <trkpt lat="45.77943" lon="6.59373">
        <ele>1967.6</ele>
        <time>2021-08-02T16:04:25Z</time>
      </trkpt>
      <trkpt lat="45.77943" lon="6.59372">
        <ele>1967.8</ele>
        <time>2021-08-02T16:04:26Z</time>
      </trkpt>
      <trkpt lat="45.77941" lon="6.59364">
        <ele>1969</ele>
        <time>2021-08-02T16:04:31Z</time>
      </trkpt>
      <trkpt lat="45.77941" lon="6.59358">
        <ele>1969.4</ele>
        <time>2021-08-02T16:04:34Z</time>
      </trkpt>
      <trkpt lat="45.77941" lon="6.59351">
        <ele>1970.2</ele>
        <time>2021-08-02T16:04:38Z</time>
      </trkpt>
      <trkpt lat="45.77943" lon="6.59344">
        <ele>1971.2</ele>
        <time>2021-08-02T16:04:42Z</time>
      </trkpt>
      <trkpt lat="45.77946" lon="6.59335">
        <ele>1972.2</ele>
        <time>2021-08-02T16:04:47Z</time>
      </trkpt>
      <trkpt lat="45.77949" lon="6.5933">
        <ele>1973</ele>
        <time>2021-08-02T16:04:51Z</time>
      </trkpt>
      <trkpt lat="45.77951" lon="6.59326">
        <ele>1973.2</ele>
        <time>2021-08-02T16:04:54Z</time>
      </trkpt>
      <trkpt lat="45.77954" lon="6.59323">
        <ele>1974.2</ele>
        <time>2021-08-02T16:04:57Z</time>
      </trkpt>
      <trkpt lat="45.77955" lon="6.59322">
        <ele>1974.4</ele>
        <time>2021-08-02T16:04:58Z</time>
      </trkpt>
      <trkpt lat="45.77958" lon="6.59321">
        <ele>1975.2</ele>
        <time>2021-08-02T16:05:00Z</time>
      </trkpt>
      <trkpt lat="45.7796" lon="6.5932">
        <ele>1975.6</ele>
        <time>2021-08-02T16:05:02Z</time>
      </trkpt>
      <trkpt lat="45.77965" lon="6.59319">
        <ele>1976.4</ele>
        <time>2021-08-02T16:05:05Z</time>
      </trkpt>
      <trkpt lat="45.77966" lon="6.59319">
        <ele>1976.6</ele>
        <time>2021-08-02T16:05:06Z</time>
      </trkpt>
      <trkpt lat="45.77976" lon="6.59319">
        <ele>1977.6</ele>
        <time>2021-08-02T16:05:13Z</time>
      </trkpt>
      <trkpt lat="45.77977" lon="6.59319">
        <ele>1977.8</ele>
        <time>2021-08-02T16:05:14Z</time>
      </trkpt>
      <trkpt lat="45.77986" lon="6.59317">
        <ele>1978.8</ele>
        <time>2021-08-02T16:05:20Z</time>
      </trkpt>
      <trkpt lat="45.7799" lon="6.59317">
        <ele>1979</ele>
        <time>2021-08-02T16:05:23Z</time>
      </trkpt>
      <trkpt lat="45.77996" lon="6.59317">
        <ele>1979.8</ele>
        <time>2021-08-02T16:05:27Z</time>
      </trkpt>
      <trkpt lat="45.78004" lon="6.59321">
        <ele>1980.6</ele>
        <time>2021-08-02T16:05:33Z</time>
      </trkpt>
      <trkpt lat="45.78006" lon="6.59321">
        <ele>1980.8</ele>
        <time>2021-08-02T16:05:34Z</time>
      </trkpt>
      <trkpt lat="45.78011" lon="6.59325">
        <ele>1981.6</ele>
        <time>2021-08-02T16:05:38Z</time>
      </trkpt>
      <trkpt lat="45.78018" lon="6.5933">
        <ele>1982.6</ele>
        <time>2021-08-02T16:05:43Z</time>
      </trkpt>
      <trkpt lat="45.78019" lon="6.59331">
        <ele>1982.8</ele>
        <time>2021-08-02T16:05:44Z</time>
      </trkpt>
      <trkpt lat="45.78029" lon="6.59339">
        <ele>1983.8</ele>
        <time>2021-08-02T16:05:51Z</time>
      </trkpt>
      <trkpt lat="45.78032" lon="6.59341">
        <ele>1984.2</ele>
        <time>2021-08-02T16:05:53Z</time>
      </trkpt>
      <trkpt lat="45.78038" lon="6.59344">
        <ele>1984.8</ele>
        <time>2021-08-02T16:05:57Z</time>
      </trkpt>
      <trkpt lat="45.7805" lon="6.59351">
        <ele>1986</ele>
        <time>2021-08-02T16:06:05Z</time>
      </trkpt>
      <trkpt lat="45.78059" lon="6.59358">
        <ele>1987</ele>
        <time>2021-08-02T16:06:12Z</time>
      </trkpt>
      <trkpt lat="45.78061" lon="6.59358">
        <ele>1987.2</ele>
        <time>2021-08-02T16:06:13Z</time>
      </trkpt>
      <trkpt lat="45.78066" lon="6.59361">
        <ele>1988</ele>
        <time>2021-08-02T16:06:17Z</time>
      </trkpt>
      <trkpt lat="45.78075" lon="6.59366">
        <ele>1989.2</ele>
        <time>2021-08-02T16:06:23Z</time>
      </trkpt>
      <trkpt lat="45.78083" lon="6.59371">
        <ele>1990.2</ele>
        <time>2021-08-02T16:06:29Z</time>
      </trkpt>
      <trkpt lat="45.78087" lon="6.59374">
        <ele>1990.8</ele>
        <time>2021-08-02T16:06:32Z</time>
      </trkpt>
      <trkpt lat="45.78093" lon="6.59377">
        <ele>1991.4</ele>
        <time>2021-08-02T16:06:36Z</time>
      </trkpt>
      <trkpt lat="45.78101" lon="6.59382">
        <ele>1992.2</ele>
        <time>2021-08-02T16:06:42Z</time>
      </trkpt>
      <trkpt lat="45.78102" lon="6.59383">
        <ele>1992.4</ele>
        <time>2021-08-02T16:06:43Z</time>
      </trkpt>
      <trkpt lat="45.78109" lon="6.59388">
        <ele>1993.4</ele>
        <time>2021-08-02T16:06:48Z</time>
      </trkpt>
      <trkpt lat="45.78112" lon="6.59389">
        <ele>1994</ele>
        <time>2021-08-02T16:06:50Z</time>
      </trkpt>
      <trkpt lat="45.78116" lon="6.59392">
        <ele>1994.6</ele>
        <time>2021-08-02T16:06:53Z</time>
      </trkpt>
      <trkpt lat="45.78123" lon="6.59394">
        <ele>1995.4</ele>
        <time>2021-08-02T16:06:58Z</time>
      </trkpt>
      <trkpt lat="45.78126" lon="6.59395">
        <ele>1995.8</ele>
        <time>2021-08-02T16:07:00Z</time>
      </trkpt>
      <trkpt lat="45.78135" lon="6.59396">
        <ele>1996.6</ele>
        <time>2021-08-02T16:07:06Z</time>
      </trkpt>
      <trkpt lat="45.78142" lon="6.59397">
        <ele>1996.8</ele>
        <time>2021-08-02T16:07:11Z</time>
      </trkpt>
      <trkpt lat="45.78149" lon="6.59396">
        <ele>1997.8</ele>
        <time>2021-08-02T16:07:16Z</time>
      </trkpt>
      <trkpt lat="45.7815" lon="6.59395">
        <ele>1998</ele>
        <time>2021-08-02T16:07:17Z</time>
      </trkpt>
      <trkpt lat="45.78158" lon="6.59394">
        <ele>1999.2</ele>
        <time>2021-08-02T16:07:23Z</time>
      </trkpt>
      <trkpt lat="45.78159" lon="6.59394">
        <ele>1999.4</ele>
        <time>2021-08-02T16:07:24Z</time>
      </trkpt>
      <trkpt lat="45.78163" lon="6.59393">
        <ele>2000.2</ele>
        <time>2021-08-02T16:07:28Z</time>
      </trkpt>
      <trkpt lat="45.78168" lon="6.59393">
        <ele>2001.2</ele>
        <time>2021-08-02T16:07:32Z</time>
      </trkpt>
      <trkpt lat="45.78172" lon="6.59394">
        <ele>2002.6</ele>
        <time>2021-08-02T16:07:35Z</time>
      </trkpt>
      <trkpt lat="45.78176" lon="6.59394">
        <ele>2003.8</ele>
        <time>2021-08-02T16:07:39Z</time>
      </trkpt>
      <trkpt lat="45.78178" lon="6.59394">
        <ele>2004.6</ele>
        <time>2021-08-02T16:07:41Z</time>
      </trkpt>
      <trkpt lat="45.78181" lon="6.59394">
        <ele>2005</ele>
        <time>2021-08-02T16:07:43Z</time>
      </trkpt>
      <trkpt lat="45.78185" lon="6.59393">
        <ele>2006</ele>
        <time>2021-08-02T16:07:47Z</time>
      </trkpt>
      <trkpt lat="45.78187" lon="6.59393">
        <ele>2006.2</ele>
        <time>2021-08-02T16:07:48Z</time>
      </trkpt>
      <trkpt lat="45.78191" lon="6.59393">
        <ele>2007.2</ele>
        <time>2021-08-02T16:07:52Z</time>
      </trkpt>
      <trkpt lat="45.78197" lon="6.59393">
        <ele>2008.2</ele>
        <time>2021-08-02T16:07:57Z</time>
      </trkpt>
      <trkpt lat="45.78201" lon="6.59391">
        <ele>2009.4</ele>
        <time>2021-08-02T16:08:01Z</time>
      </trkpt>
      <trkpt lat="45.78204" lon="6.59392">
        <ele>2010</ele>
        <time>2021-08-02T16:08:04Z</time>
      </trkpt>
      <trkpt lat="45.78206" lon="6.59392">
        <ele>2010.6</ele>
        <time>2021-08-02T16:08:06Z</time>
      </trkpt>
      <trkpt lat="45.7821" lon="6.59391">
        <ele>2011.2</ele>
        <time>2021-08-02T16:08:09Z</time>
      </trkpt>
      <trkpt lat="45.78211" lon="6.5939">
        <ele>2011.6</ele>
        <time>2021-08-02T16:08:10Z</time>
      </trkpt>
      <trkpt lat="45.78213" lon="6.59388">
        <ele>2012</ele>
        <time>2021-08-02T16:08:12Z</time>
      </trkpt>
      <trkpt lat="45.78216" lon="6.59388">
        <ele>2012.6</ele>
        <time>2021-08-02T16:08:15Z</time>
      </trkpt>
      <trkpt lat="45.7822" lon="6.59387">
        <ele>2013.4</ele>
        <time>2021-08-02T16:08:19Z</time>
      </trkpt>
      <trkpt lat="45.78223" lon="6.59387">
        <ele>2013.6</ele>
        <time>2021-08-02T16:08:21Z</time>
      </trkpt>
      <trkpt lat="45.78225" lon="6.59387">
        <ele>2014</ele>
        <time>2021-08-02T16:08:23Z</time>
      </trkpt>
      <trkpt lat="45.78227" lon="6.59383">
        <ele>2014.2</ele>
        <time>2021-08-02T16:08:26Z</time>
      </trkpt>
      <trkpt lat="45.78229" lon="6.59381">
        <ele>2014.6</ele>
        <time>2021-08-02T16:08:28Z</time>
      </trkpt>
      <trkpt lat="45.78232" lon="6.59382">
        <ele>2015</ele>
        <time>2021-08-02T16:08:31Z</time>
      </trkpt>
      <trkpt lat="45.78234" lon="6.59384">
        <ele>2015.6</ele>
        <time>2021-08-02T16:08:33Z</time>
      </trkpt>
      <trkpt lat="45.78238" lon="6.59388">
        <ele>2016.8</ele>
        <time>2021-08-02T16:08:37Z</time>
      </trkpt>
      <trkpt lat="45.78241" lon="6.59391">
        <ele>2017.2</ele>
        <time>2021-08-02T16:08:40Z</time>
      </trkpt>
      <trkpt lat="45.78245" lon="6.59395">
        <ele>2017.8</ele>
        <time>2021-08-02T16:08:43Z</time>
      </trkpt>
      <trkpt lat="45.7825" lon="6.59398">
        <ele>2018.2</ele>
        <time>2021-08-02T16:08:48Z</time>
      </trkpt>
      <trkpt lat="45.78255" lon="6.59401">
        <ele>2019</ele>
        <time>2021-08-02T16:08:52Z</time>
      </trkpt>
      <trkpt lat="45.7826" lon="6.59404">
        <ele>2019.8</ele>
        <time>2021-08-02T16:08:56Z</time>
      </trkpt>
      <trkpt lat="45.78262" lon="6.59406">
        <ele>2020.4</ele>
        <time>2021-08-02T16:08:58Z</time>
      </trkpt>
      <trkpt lat="45.78265" lon="6.59407">
        <ele>2021</ele>
        <time>2021-08-02T16:09:00Z</time>
      </trkpt>
      <trkpt lat="45.78272" lon="6.59411">
        <ele>2022</ele>
        <time>2021-08-02T16:09:06Z</time>
      </trkpt>
      <trkpt lat="45.78276" lon="6.59413">
        <ele>2022.6</ele>
        <time>2021-08-02T16:09:09Z</time>
      </trkpt>
      <trkpt lat="45.78278" lon="6.59415">
        <ele>2023</ele>
        <time>2021-08-02T16:09:11Z</time>
      </trkpt>
      <trkpt lat="45.78285" lon="6.59421">
        <ele>2024.2</ele>
        <time>2021-08-02T16:09:17Z</time>
      </trkpt>
      <trkpt lat="45.78286" lon="6.59422">
        <ele>2024.6</ele>
        <time>2021-08-02T16:09:18Z</time>
      </trkpt>
      <trkpt lat="45.7829" lon="6.59425">
        <ele>2025.4</ele>
        <time>2021-08-02T16:09:21Z</time>
      </trkpt>
      <trkpt lat="45.78295" lon="6.5943">
        <ele>2026.4</ele>
        <time>2021-08-02T16:09:26Z</time>
      </trkpt>
      <trkpt lat="45.78297" lon="6.59432">
        <ele>2026.6</ele>
        <time>2021-08-02T16:09:27Z</time>
      </trkpt>
      <trkpt lat="45.78303" lon="6.59435">
        <ele>2027.6</ele>
        <time>2021-08-02T16:09:32Z</time>
      </trkpt>
      <trkpt lat="45.78305" lon="6.59437">
        <ele>2028</ele>
        <time>2021-08-02T16:09:34Z</time>
      </trkpt>
      <trkpt lat="45.78308" lon="6.5944">
        <ele>2028.8</ele>
        <time>2021-08-02T16:09:36Z</time>
      </trkpt>
      <trkpt lat="45.78313" lon="6.59445">
        <ele>2029.8</ele>
        <time>2021-08-02T16:09:41Z</time>
      </trkpt>
      <trkpt lat="45.78318" lon="6.5945">
        <ele>2031</ele>
        <time>2021-08-02T16:09:45Z</time>
      </trkpt>
      <trkpt lat="45.78321" lon="6.59457">
        <ele>2032.4</ele>
        <time>2021-08-02T16:09:49Z</time>
      </trkpt>
      <trkpt lat="45.78326" lon="6.59464">
        <ele>2033</ele>
        <time>2021-08-02T16:09:54Z</time>
      </trkpt>
      <trkpt lat="45.78327" lon="6.59465">
        <ele>2033.2</ele>
        <time>2021-08-02T16:09:55Z</time>
      </trkpt>
      <trkpt lat="45.78334" lon="6.5947">
        <ele>2034.4</ele>
        <time>2021-08-02T16:10:00Z</time>
      </trkpt>
      <trkpt lat="45.7834" lon="6.59475">
        <ele>2035.2</ele>
        <time>2021-08-02T16:10:04Z</time>
      </trkpt>
      <trkpt lat="45.78344" lon="6.59481">
        <ele>2035.4</ele>
        <time>2021-08-02T16:10:08Z</time>
      </trkpt>
      <trkpt lat="45.78348" lon="6.59486">
        <ele>2036</ele>
        <time>2021-08-02T16:10:12Z</time>
      </trkpt>
      <trkpt lat="45.78352" lon="6.5949">
        <ele>2036.6</ele>
        <time>2021-08-02T16:10:15Z</time>
      </trkpt>
      <trkpt lat="45.78356" lon="6.59495">
        <ele>2037.2</ele>
        <time>2021-08-02T16:10:19Z</time>
      </trkpt>
      <trkpt lat="45.78357" lon="6.59496">
        <ele>2037.6</ele>
        <time>2021-08-02T16:10:22Z</time>
      </trkpt>
      <trkpt lat="45.78357" lon="6.59497">
        <ele>2037.8</ele>
        <time>2021-08-02T16:14:18Z</time>
      </trkpt>
      <trkpt lat="45.78357" lon="6.59499">
        <ele>2037.8</ele>
        <time>2021-08-02T16:14:19Z</time>
      </trkpt>
      <trkpt lat="45.78357" lon="6.5951">
        <ele>2037.8</ele>
        <time>2021-08-02T16:14:23Z</time>
      </trkpt>
      <trkpt lat="45.78354" lon="6.59524">
        <ele>2038</ele>
        <time>2021-08-02T16:14:29Z</time>
      </trkpt>
      <trkpt lat="45.78354" lon="6.59526">
        <ele>2037.8</ele>
        <time>2021-08-02T16:14:32Z</time>
      </trkpt>
      <trkpt lat="45.78354" lon="6.59521">
        <ele>2039</ele>
        <time>2021-08-02T16:14:58Z</time>
      </trkpt>
      <trkpt lat="45.78359" lon="6.5951">
        <ele>2039</ele>
        <time>2021-08-02T16:15:02Z</time>
      </trkpt>
      <trkpt lat="45.78372" lon="6.59504">
        <ele>2039</ele>
        <time>2021-08-02T16:15:05Z</time>
      </trkpt>
      <trkpt lat="45.78389" lon="6.59512">
        <ele>2038.8</ele>
        <time>2021-08-02T16:15:08Z</time>
      </trkpt>
      <trkpt lat="45.78395" lon="6.59516">
        <ele>2038.6</ele>
        <time>2021-08-02T16:15:09Z</time>
      </trkpt>
      <trkpt lat="45.78408" lon="6.59524">
        <ele>2038</ele>
        <time>2021-08-02T16:15:11Z</time>
      </trkpt>
      <trkpt lat="45.78424" lon="6.5953">
        <ele>2037.4</ele>
        <time>2021-08-02T16:15:13Z</time>
      </trkpt>
      <trkpt lat="45.78432" lon="6.59533">
        <ele>2036.8</ele>
        <time>2021-08-02T16:15:14Z</time>
      </trkpt>
      <trkpt lat="45.78447" lon="6.59539">
        <ele>2035.6</ele>
        <time>2021-08-02T16:15:16Z</time>
      </trkpt>
      <trkpt lat="45.78463" lon="6.59545">
        <ele>2033.2</ele>
        <time>2021-08-02T16:15:18Z</time>
      </trkpt>
      <trkpt lat="45.78478" lon="6.5955">
        <ele>2031.6</ele>
        <time>2021-08-02T16:15:20Z</time>
      </trkpt>
      <trkpt lat="45.78484" lon="6.59552">
        <ele>2031</ele>
        <time>2021-08-02T16:15:21Z</time>
      </trkpt>
      <trkpt lat="45.78491" lon="6.59554">
        <ele>2030.2</ele>
        <time>2021-08-02T16:15:22Z</time>
      </trkpt>
      <trkpt lat="45.78497" lon="6.59556">
        <ele>2029.2</ele>
        <time>2021-08-02T16:15:23Z</time>
      </trkpt>
      <trkpt lat="45.78503" lon="6.59558">
        <ele>2028.4</ele>
        <time>2021-08-02T16:15:24Z</time>
      </trkpt>
      <trkpt lat="45.78509" lon="6.59561">
        <ele>2027.6</ele>
        <time>2021-08-02T16:15:25Z</time>
      </trkpt>
      <trkpt lat="45.78515" lon="6.59565">
        <ele>2026.4</ele>
        <time>2021-08-02T16:15:26Z</time>
      </trkpt>
      <trkpt lat="45.78521" lon="6.59568">
        <ele>2025.2</ele>
        <time>2021-08-02T16:15:27Z</time>
      </trkpt>
      <trkpt lat="45.78526" lon="6.59572">
        <ele>2024</ele>
        <time>2021-08-02T16:15:28Z</time>
      </trkpt>
      <trkpt lat="45.78537" lon="6.5958">
        <ele>2022.4</ele>
        <time>2021-08-02T16:15:30Z</time>
      </trkpt>
      <trkpt lat="45.78549" lon="6.59588">
        <ele>2021</ele>
        <time>2021-08-02T16:15:32Z</time>
      </trkpt>
      <trkpt lat="45.78555" lon="6.59592">
        <ele>2020.4</ele>
        <time>2021-08-02T16:15:33Z</time>
      </trkpt>
      <trkpt lat="45.78561" lon="6.59596">
        <ele>2020</ele>
        <time>2021-08-02T16:15:34Z</time>
      </trkpt>
      <trkpt lat="45.78573" lon="6.59603">
        <ele>2018.8</ele>
        <time>2021-08-02T16:15:36Z</time>
      </trkpt>
      <trkpt lat="45.78582" lon="6.59609">
        <ele>2018</ele>
        <time>2021-08-02T16:15:38Z</time>
      </trkpt>
      <trkpt lat="45.78586" lon="6.59611">
        <ele>2017.4</ele>
        <time>2021-08-02T16:15:39Z</time>
      </trkpt>
      <trkpt lat="45.7859" lon="6.59613">
        <ele>2016.6</ele>
        <time>2021-08-02T16:15:41Z</time>
      </trkpt>
      <trkpt lat="45.78594" lon="6.59615">
        <ele>2016.4</ele>
        <time>2021-08-02T16:15:44Z</time>
      </trkpt>
      <trkpt lat="45.78598" lon="6.59617">
        <ele>2016.4</ele>
        <time>2021-08-02T16:15:47Z</time>
      </trkpt>
      <trkpt lat="45.78616" lon="6.59622">
        <ele>2015.8</ele>
        <time>2021-08-02T16:15:51Z</time>
      </trkpt>
      <trkpt lat="45.78639" lon="6.59628">
        <ele>2015.8</ele>
        <time>2021-08-02T16:15:55Z</time>
      </trkpt>
      <trkpt lat="45.78649" lon="6.5963">
        <ele>2015.4</ele>
        <time>2021-08-02T16:15:57Z</time>
      </trkpt>
      <trkpt lat="45.78661" lon="6.59632">
        <ele>2014</ele>
        <time>2021-08-02T16:15:59Z</time>
      </trkpt>
      <trkpt lat="45.78667" lon="6.59633">
        <ele>2013.2</ele>
        <time>2021-08-02T16:16:00Z</time>
      </trkpt>
      <trkpt lat="45.78673" lon="6.59635">
        <ele>2012.6</ele>
        <time>2021-08-02T16:16:01Z</time>
      </trkpt>
      <trkpt lat="45.78684" lon="6.59638">
        <ele>2011.4</ele>
        <time>2021-08-02T16:16:03Z</time>
      </trkpt>
      <trkpt lat="45.78695" lon="6.59641">
        <ele>2010.8</ele>
        <time>2021-08-02T16:16:05Z</time>
      </trkpt>
      <trkpt lat="45.78705" lon="6.59645">
        <ele>2010.6</ele>
        <time>2021-08-02T16:16:07Z</time>
      </trkpt>
      <trkpt lat="45.78712" lon="6.5965">
        <ele>2010</ele>
        <time>2021-08-02T16:16:09Z</time>
      </trkpt>
      <trkpt lat="45.78727" lon="6.59655">
        <ele>2008.8</ele>
        <time>2021-08-02T16:16:13Z</time>
      </trkpt>
      <trkpt lat="45.78743" lon="6.59663">
        <ele>2008.2</ele>
        <time>2021-08-02T16:16:17Z</time>
      </trkpt>
      <trkpt lat="45.78748" lon="6.59673">
        <ele>2007.4</ele>
        <time>2021-08-02T16:16:20Z</time>
      </trkpt>
      <trkpt lat="45.78749" lon="6.59675">
        <ele>2006.4</ele>
        <time>2021-08-02T16:16:21Z</time>
      </trkpt>
      <trkpt lat="45.7875" lon="6.59678">
        <ele>2005</ele>
        <time>2021-08-02T16:16:22Z</time>
      </trkpt>
      <trkpt lat="45.78751" lon="6.5968">
        <ele>2003.8</ele>
        <time>2021-08-02T16:16:23Z</time>
      </trkpt>
      <trkpt lat="45.78751" lon="6.59683">
        <ele>2002.6</ele>
        <time>2021-08-02T16:16:24Z</time>
      </trkpt>
      <trkpt lat="45.78752" lon="6.59686">
        <ele>2001.6</ele>
        <time>2021-08-02T16:16:25Z</time>
      </trkpt>
      <trkpt lat="45.78752" lon="6.59689">
        <ele>2000.6</ele>
        <time>2021-08-02T16:16:26Z</time>
      </trkpt>
      <trkpt lat="45.78752" lon="6.59693">
        <ele>1999.8</ele>
        <time>2021-08-02T16:16:27Z</time>
      </trkpt>
      <trkpt lat="45.78753" lon="6.59696">
        <ele>1999.4</ele>
        <time>2021-08-02T16:16:28Z</time>
      </trkpt>
      <trkpt lat="45.78753" lon="6.59701">
        <ele>1998.4</ele>
        <time>2021-08-02T16:16:30Z</time>
      </trkpt>
      <trkpt lat="45.78753" lon="6.59709">
        <ele>1997.2</ele>
        <time>2021-08-02T16:16:33Z</time>
      </trkpt>
      <trkpt lat="45.78753" lon="6.59711">
        <ele>1996.8</ele>
        <time>2021-08-02T16:16:34Z</time>
      </trkpt>
      <trkpt lat="45.78753" lon="6.59717">
        <ele>1995.8</ele>
        <time>2021-08-02T16:16:36Z</time>
      </trkpt>
      <trkpt lat="45.78753" lon="6.59725">
        <ele>1994.4</ele>
        <time>2021-08-02T16:16:39Z</time>
      </trkpt>
      <trkpt lat="45.78753" lon="6.5973">
        <ele>1993.4</ele>
        <time>2021-08-02T16:16:41Z</time>
      </trkpt>
      <trkpt lat="45.78753" lon="6.59735">
        <ele>1992.2</ele>
        <time>2021-08-02T16:16:43Z</time>
      </trkpt>
      <trkpt lat="45.78752" lon="6.5974">
        <ele>1990.4</ele>
        <time>2021-08-02T16:16:45Z</time>
      </trkpt>
      <trkpt lat="45.78752" lon="6.59744">
        <ele>1989.2</ele>
        <time>2021-08-02T16:16:47Z</time>
      </trkpt>
      <trkpt lat="45.78752" lon="6.59748">
        <ele>1988</ele>
        <time>2021-08-02T16:16:49Z</time>
      </trkpt>
      <trkpt lat="45.78751" lon="6.59752">
        <ele>1986.8</ele>
        <time>2021-08-02T16:16:51Z</time>
      </trkpt>
      <trkpt lat="45.7875" lon="6.59756">
        <ele>1985.6</ele>
        <time>2021-08-02T16:16:53Z</time>
      </trkpt>
      <trkpt lat="45.7875" lon="6.59757">
        <ele>1984.8</ele>
        <time>2021-08-02T16:16:54Z</time>
      </trkpt>
      <trkpt lat="45.78749" lon="6.59759">
        <ele>1984.2</ele>
        <time>2021-08-02T16:16:55Z</time>
      </trkpt>
      <trkpt lat="45.78748" lon="6.59764">
        <ele>1982.8</ele>
        <time>2021-08-02T16:16:57Z</time>
      </trkpt>
      <trkpt lat="45.78746" lon="6.59769">
        <ele>1981.8</ele>
        <time>2021-08-02T16:16:59Z</time>
      </trkpt>
      <trkpt lat="45.78745" lon="6.59774">
        <ele>1980.8</ele>
        <time>2021-08-02T16:17:01Z</time>
      </trkpt>
      <trkpt lat="45.78745" lon="6.59777">
        <ele>1980.2</ele>
        <time>2021-08-02T16:17:02Z</time>
      </trkpt>
      <trkpt lat="45.78744" lon="6.59782">
        <ele>1979.2</ele>
        <time>2021-08-02T16:17:04Z</time>
      </trkpt>
      <trkpt lat="45.78742" lon="6.59787">
        <ele>1978</ele>
        <time>2021-08-02T16:17:06Z</time>
      </trkpt>
      <trkpt lat="45.78741" lon="6.59791">
        <ele>1976.6</ele>
        <time>2021-08-02T16:17:08Z</time>
      </trkpt>
      <trkpt lat="45.7874" lon="6.59794">
        <ele>1975.8</ele>
        <time>2021-08-02T16:17:09Z</time>
      </trkpt>
      <trkpt lat="45.7874" lon="6.59796">
        <ele>1975.2</ele>
        <time>2021-08-02T16:17:10Z</time>
      </trkpt>
      <trkpt lat="45.78739" lon="6.598">
        <ele>1973.4</ele>
        <time>2021-08-02T16:17:12Z</time>
      </trkpt>
      <trkpt lat="45.78738" lon="6.59803">
        <ele>1971.8</ele>
        <time>2021-08-02T16:17:13Z</time>
      </trkpt>
      <trkpt lat="45.78737" lon="6.59806">
        <ele>1971.2</ele>
        <time>2021-08-02T16:17:14Z</time>
      </trkpt>
      <trkpt lat="45.78737" lon="6.59808">
        <ele>1970.6</ele>
        <time>2021-08-02T16:17:15Z</time>
      </trkpt>
      <trkpt lat="45.78735" lon="6.59812">
        <ele>1969.2</ele>
        <time>2021-08-02T16:17:17Z</time>
      </trkpt>
      <trkpt lat="45.78735" lon="6.59814">
        <ele>1968</ele>
        <time>2021-08-02T16:17:19Z</time>
      </trkpt>
      <trkpt lat="45.78735" lon="6.59814">
        <ele>1967.2</ele>
        <time>2021-08-02T16:17:20Z</time>
      </trkpt>
      <trkpt lat="45.78735" lon="6.59815">
        <ele>1963.6</ele>
        <time>2021-08-02T16:17:25Z</time>
      </trkpt>
      <trkpt lat="45.78734" lon="6.59816">
        <ele>1962.6</ele>
        <time>2021-08-02T16:17:27Z</time>
      </trkpt>
      <trkpt lat="45.78735" lon="6.59822">
        <ele>1959.6</ele>
        <time>2021-08-02T16:17:39Z</time>
      </trkpt>
      <trkpt lat="45.78734" lon="6.59823">
        <ele>1959.6</ele>
        <time>2021-08-02T16:17:40Z</time>
      </trkpt>
      <trkpt lat="45.78724" lon="6.59838">
        <ele>1959.2</ele>
        <time>2021-08-02T16:17:48Z</time>
      </trkpt>
      <trkpt lat="45.78722" lon="6.59843">
        <ele>1958.2</ele>
        <time>2021-08-02T16:17:50Z</time>
      </trkpt>
      <trkpt lat="45.78718" lon="6.59847">
        <ele>1956.6</ele>
        <time>2021-08-02T16:17:52Z</time>
      </trkpt>
      <trkpt lat="45.78717" lon="6.59848">
        <ele>1955.6</ele>
        <time>2021-08-02T16:17:53Z</time>
      </trkpt>
      <trkpt lat="45.78716" lon="6.59849">
        <ele>1954.8</ele>
        <time>2021-08-02T16:17:54Z</time>
      </trkpt>
      <trkpt lat="45.78712" lon="6.59853">
        <ele>1953.6</ele>
        <time>2021-08-02T16:17:56Z</time>
      </trkpt>
      <trkpt lat="45.7871" lon="6.59855">
        <ele>1952.8</ele>
        <time>2021-08-02T16:17:57Z</time>
      </trkpt>
      <trkpt lat="45.78708" lon="6.59858">
        <ele>1952.2</ele>
        <time>2021-08-02T16:17:58Z</time>
      </trkpt>
      <trkpt lat="45.78704" lon="6.59864">
        <ele>1950.8</ele>
        <time>2021-08-02T16:18:00Z</time>
      </trkpt>
      <trkpt lat="45.787" lon="6.5987">
        <ele>1949.8</ele>
        <time>2021-08-02T16:18:02Z</time>
      </trkpt>
      <trkpt lat="45.78698" lon="6.59872">
        <ele>1949.2</ele>
        <time>2021-08-02T16:18:03Z</time>
      </trkpt>
      <trkpt lat="45.78696" lon="6.59875">
        <ele>1948.6</ele>
        <time>2021-08-02T16:18:04Z</time>
      </trkpt>
      <trkpt lat="45.78694" lon="6.59881">
        <ele>1947</ele>
        <time>2021-08-02T16:18:06Z</time>
      </trkpt>
      <trkpt lat="45.78691" lon="6.59886">
        <ele>1945</ele>
        <time>2021-08-02T16:18:08Z</time>
      </trkpt>
      <trkpt lat="45.7869" lon="6.59888">
        <ele>1944</ele>
        <time>2021-08-02T16:18:09Z</time>
      </trkpt>
      <trkpt lat="45.78688" lon="6.5989">
        <ele>1941.8</ele>
        <time>2021-08-02T16:18:10Z</time>
      </trkpt>
      <trkpt lat="45.78687" lon="6.59894">
        <ele>1940</ele>
        <time>2021-08-02T16:18:12Z</time>
      </trkpt>
      <trkpt lat="45.78686" lon="6.59896">
        <ele>1938.2</ele>
        <time>2021-08-02T16:18:14Z</time>
      </trkpt>
      <trkpt lat="45.78686" lon="6.59896">
        <ele>1937.2</ele>
        <time>2021-08-02T16:18:15Z</time>
      </trkpt>
      <trkpt lat="45.78686" lon="6.59896">
        <ele>1936.4</ele>
        <time>2021-08-02T16:18:16Z</time>
      </trkpt>
      <trkpt lat="45.78682" lon="6.59899">
        <ele>1930</ele>
        <time>2021-08-02T16:18:30Z</time>
      </trkpt>
      <trkpt lat="45.78678" lon="6.59896">
        <ele>1929.6</ele>
        <time>2021-08-02T16:18:32Z</time>
      </trkpt>
      <trkpt lat="45.78666" lon="6.59885">
        <ele>1929.2</ele>
        <time>2021-08-02T16:18:37Z</time>
      </trkpt>
      <trkpt lat="45.78662" lon="6.59884">
        <ele>1929</ele>
        <time>2021-08-02T16:18:38Z</time>
      </trkpt>
      <trkpt lat="45.78652" lon="6.59889">
        <ele>1929</ele>
        <time>2021-08-02T16:18:41Z</time>
      </trkpt>
      <trkpt lat="45.78641" lon="6.59892">
        <ele>1928.8</ele>
        <time>2021-08-02T16:18:44Z</time>
      </trkpt>
      <trkpt lat="45.78631" lon="6.59891">
        <ele>1928.8</ele>
        <time>2021-08-02T16:18:46Z</time>
      </trkpt>
      <trkpt lat="45.78602" lon="6.59881">
        <ele>1928.8</ele>
        <time>2021-08-02T16:18:51Z</time>
      </trkpt>
      <trkpt lat="45.78595" lon="6.5988">
        <ele>1928.8</ele>
        <time>2021-08-02T16:18:52Z</time>
      </trkpt>
      <trkpt lat="45.78572" lon="6.59879">
        <ele>1927.8</ele>
        <time>2021-08-02T16:18:55Z</time>
      </trkpt>
      <trkpt lat="45.78565" lon="6.5988">
        <ele>1927.2</ele>
        <time>2021-08-02T16:18:56Z</time>
      </trkpt>
      <trkpt lat="45.78558" lon="6.59882">
        <ele>1926.6</ele>
        <time>2021-08-02T16:18:57Z</time>
      </trkpt>
      <trkpt lat="45.78551" lon="6.59883">
        <ele>1926</ele>
        <time>2021-08-02T16:18:58Z</time>
      </trkpt>
      <trkpt lat="45.78544" lon="6.59883">
        <ele>1925.2</ele>
        <time>2021-08-02T16:18:59Z</time>
      </trkpt>
      <trkpt lat="45.78531" lon="6.59878">
        <ele>1924</ele>
        <time>2021-08-02T16:19:01Z</time>
      </trkpt>
      <trkpt lat="45.78518" lon="6.59873">
        <ele>1922.4</ele>
        <time>2021-08-02T16:19:03Z</time>
      </trkpt>
      <trkpt lat="45.78502" lon="6.59869">
        <ele>1921.2</ele>
        <time>2021-08-02T16:19:05Z</time>
      </trkpt>
      <trkpt lat="45.78494" lon="6.59868">
        <ele>1920.4</ele>
        <time>2021-08-02T16:19:06Z</time>
      </trkpt>
      <trkpt lat="45.78486" lon="6.59868">
        <ele>1920</ele>
        <time>2021-08-02T16:19:07Z</time>
      </trkpt>
      <trkpt lat="45.78463" lon="6.59867">
        <ele>1919.2</ele>
        <time>2021-08-02T16:19:10Z</time>
      </trkpt>
      <trkpt lat="45.78456" lon="6.59868">
        <ele>1918.8</ele>
        <time>2021-08-02T16:19:11Z</time>
      </trkpt>
      <trkpt lat="45.78442" lon="6.59871">
        <ele>1917.4</ele>
        <time>2021-08-02T16:19:13Z</time>
      </trkpt>
      <trkpt lat="45.7843" lon="6.59872">
        <ele>1916.2</ele>
        <time>2021-08-02T16:19:15Z</time>
      </trkpt>
      <trkpt lat="45.78425" lon="6.59873">
        <ele>1915.2</ele>
        <time>2021-08-02T16:19:16Z</time>
      </trkpt>
      <trkpt lat="45.7842" lon="6.59874">
        <ele>1914.6</ele>
        <time>2021-08-02T16:19:17Z</time>
      </trkpt>
      <trkpt lat="45.7841" lon="6.59875">
        <ele>1913</ele>
        <time>2021-08-02T16:19:19Z</time>
      </trkpt>
      <trkpt lat="45.78404" lon="6.59876">
        <ele>1911.6</ele>
        <time>2021-08-02T16:19:21Z</time>
      </trkpt>
      <trkpt lat="45.78399" lon="6.59876">
        <ele>1910.2</ele>
        <time>2021-08-02T16:19:23Z</time>
      </trkpt>
      <trkpt lat="45.78392" lon="6.59878">
        <ele>1909</ele>
        <time>2021-08-02T16:19:26Z</time>
      </trkpt>
      <trkpt lat="45.78386" lon="6.59879">
        <ele>1908</ele>
        <time>2021-08-02T16:19:28Z</time>
      </trkpt>
      <trkpt lat="45.78382" lon="6.5988">
        <ele>1907.8</ele>
        <time>2021-08-02T16:19:29Z</time>
      </trkpt>
      <trkpt lat="45.7837" lon="6.59881">
        <ele>1907</ele>
        <time>2021-08-02T16:19:32Z</time>
      </trkpt>
      <trkpt lat="45.78365" lon="6.59882">
        <ele>1906.8</ele>
        <time>2021-08-02T16:19:33Z</time>
      </trkpt>
      <trkpt lat="45.78351" lon="6.59884">
        <ele>1905.6</ele>
        <time>2021-08-02T16:19:36Z</time>
      </trkpt>
      <trkpt lat="45.78347" lon="6.59884">
        <ele>1905.2</ele>
        <time>2021-08-02T16:19:37Z</time>
      </trkpt>
      <trkpt lat="45.78337" lon="6.59883">
        <ele>1904.8</ele>
        <time>2021-08-02T16:19:39Z</time>
      </trkpt>
      <trkpt lat="45.78332" lon="6.59882">
        <ele>1904.4</ele>
        <time>2021-08-02T16:19:40Z</time>
      </trkpt>
      <trkpt lat="45.78306" lon="6.59872">
        <ele>1903.4</ele>
        <time>2021-08-02T16:19:45Z</time>
      </trkpt>
      <trkpt lat="45.78301" lon="6.5987">
        <ele>1903.2</ele>
        <time>2021-08-02T16:19:46Z</time>
      </trkpt>
      <trkpt lat="45.78283" lon="6.59863">
        <ele>1902</ele>
        <time>2021-08-02T16:19:50Z</time>
      </trkpt>
      <trkpt lat="45.78274" lon="6.59859">
        <ele>1901.2</ele>
        <time>2021-08-02T16:19:52Z</time>
      </trkpt>
      <trkpt lat="45.78262" lon="6.59853">
        <ele>1901</ele>
        <time>2021-08-02T16:19:55Z</time>
      </trkpt>
      <trkpt lat="45.78242" lon="6.59842">
        <ele>1901</ele>
        <time>2021-08-02T16:20:00Z</time>
      </trkpt>
      <trkpt lat="45.78218" lon="6.59819">
        <ele>1901.2</ele>
        <time>2021-08-02T16:20:07Z</time>
      </trkpt>
      <trkpt lat="45.78191" lon="6.59781">
        <ele>1901.6</ele>
        <time>2021-08-02T16:20:15Z</time>
      </trkpt>
      <trkpt lat="45.78178" lon="6.59763">
        <ele>1902</ele>
        <time>2021-08-02T16:20:20Z</time>
      </trkpt>
      <trkpt lat="45.78176" lon="6.5976">
        <ele>1902.2</ele>
        <time>2021-08-02T16:20:21Z</time>
      </trkpt>
      <trkpt lat="45.78167" lon="6.59749">
        <ele>1903.6</ele>
        <time>2021-08-02T16:20:26Z</time>
      </trkpt>
      <trkpt lat="45.78164" lon="6.59745">
        <ele>1904.6</ele>
        <time>2021-08-02T16:20:28Z</time>
      </trkpt>
      <trkpt lat="45.78162" lon="6.59743">
        <ele>1905</ele>
        <time>2021-08-02T16:20:29Z</time>
      </trkpt>
      <trkpt lat="45.78159" lon="6.59739">
        <ele>1906.2</ele>
        <time>2021-08-02T16:20:31Z</time>
      </trkpt>
      <trkpt lat="45.78156" lon="6.59735">
        <ele>1907.4</ele>
        <time>2021-08-02T16:20:34Z</time>
      </trkpt>
      <trkpt lat="45.78152" lon="6.5973">
        <ele>1908.4</ele>
        <time>2021-08-02T16:20:37Z</time>
      </trkpt>
      <trkpt lat="45.78151" lon="6.59728">
        <ele>1908.8</ele>
        <time>2021-08-02T16:20:38Z</time>
      </trkpt>
      <trkpt lat="45.78147" lon="6.59722">
        <ele>1909.6</ele>
        <time>2021-08-02T16:20:42Z</time>
      </trkpt>
      <trkpt lat="45.78143" lon="6.59716">
        <ele>1910.4</ele>
        <time>2021-08-02T16:20:46Z</time>
      </trkpt>
      <trkpt lat="45.78141" lon="6.59712">
        <ele>1910.8</ele>
        <time>2021-08-02T16:20:48Z</time>
      </trkpt>
      <trkpt lat="45.78136" lon="6.59703">
        <ele>1911.8</ele>
        <time>2021-08-02T16:20:54Z</time>
      </trkpt>
      <trkpt lat="45.78135" lon="6.59701">
        <ele>1911.8</ele>
        <time>2021-08-02T16:20:55Z</time>
      </trkpt>
      <trkpt lat="45.78128" lon="6.59692">
        <ele>1912.8</ele>
        <time>2021-08-02T16:21:01Z</time>
      </trkpt>
      <trkpt lat="45.78122" lon="6.59686">
        <ele>1913.4</ele>
        <time>2021-08-02T16:21:06Z</time>
      </trkpt>
      <trkpt lat="45.78118" lon="6.59683">
        <ele>1913.8</ele>
        <time>2021-08-02T16:21:09Z</time>
      </trkpt>
      <trkpt lat="45.78112" lon="6.59679">
        <ele>1915</ele>
        <time>2021-08-02T16:21:13Z</time>
      </trkpt>
      <trkpt lat="45.78108" lon="6.59676">
        <ele>1915.6</ele>
        <time>2021-08-02T16:21:16Z</time>
      </trkpt>
      <trkpt lat="45.78101" lon="6.59672">
        <ele>1916.2</ele>
        <time>2021-08-02T16:21:21Z</time>
      </trkpt>
      <trkpt lat="45.78091" lon="6.59668">
        <ele>1917.2</ele>
        <time>2021-08-02T16:21:27Z</time>
      </trkpt>
      <trkpt lat="45.7808" lon="6.59669">
        <ele>1918.2</ele>
        <time>2021-08-02T16:21:34Z</time>
      </trkpt>
      <trkpt lat="45.78076" lon="6.5967">
        <ele>1918.6</ele>
        <time>2021-08-02T16:21:37Z</time>
      </trkpt>
      <trkpt lat="45.78068" lon="6.59673">
        <ele>1919.2</ele>
        <time>2021-08-02T16:21:42Z</time>
      </trkpt>
      <trkpt lat="45.78061" lon="6.59675">
        <ele>1920</ele>
        <time>2021-08-02T16:21:47Z</time>
      </trkpt>
      <trkpt lat="45.78059" lon="6.59675">
        <ele>1920.4</ele>
        <time>2021-08-02T16:21:48Z</time>
      </trkpt>
      <trkpt lat="45.78049" lon="6.59672">
        <ele>1921</ele>
        <time>2021-08-02T16:21:55Z</time>
      </trkpt>
      <trkpt lat="45.78044" lon="6.5967">
        <ele>1921.4</ele>
        <time>2021-08-02T16:21:58Z</time>
      </trkpt>
      <trkpt lat="45.78038" lon="6.59665">
        <ele>1922.6</ele>
        <time>2021-08-02T16:22:03Z</time>
      </trkpt>
      <trkpt lat="45.78036" lon="6.59664">
        <ele>1922.8</ele>
        <time>2021-08-02T16:22:04Z</time>
      </trkpt>
      <trkpt lat="45.78029" lon="6.5966">
        <ele>1923.6</ele>
        <time>2021-08-02T16:22:09Z</time>
      </trkpt>
      <trkpt lat="45.78023" lon="6.59659">
        <ele>1924.4</ele>
        <time>2021-08-02T16:22:13Z</time>
      </trkpt>
      <trkpt lat="45.7802" lon="6.59658">
        <ele>1924.8</ele>
        <time>2021-08-02T16:22:15Z</time>
      </trkpt>
      <trkpt lat="45.78012" lon="6.5966">
        <ele>1926</ele>
        <time>2021-08-02T16:22:20Z</time>
      </trkpt>
      <trkpt lat="45.7801" lon="6.59661">
        <ele>1926.4</ele>
        <time>2021-08-02T16:22:21Z</time>
      </trkpt>
      <trkpt lat="45.78004" lon="6.59665">
        <ele>1927</ele>
        <time>2021-08-02T16:22:24Z</time>
      </trkpt>
      <trkpt lat="45.77996" lon="6.59672">
        <ele>1928</ele>
        <time>2021-08-02T16:22:28Z</time>
      </trkpt>
      <trkpt lat="45.77991" lon="6.59676">
        <ele>1928</ele>
        <time>2021-08-02T16:22:31Z</time>
      </trkpt>
      <trkpt lat="45.77982" lon="6.59681">
        <ele>1928.2</ele>
        <time>2021-08-02T16:22:36Z</time>
      </trkpt>
      <trkpt lat="45.77971" lon="6.5968">
        <ele>1929.2</ele>
        <time>2021-08-02T16:22:42Z</time>
      </trkpt>
      <trkpt lat="45.77963" lon="6.59678">
        <ele>1929.8</ele>
        <time>2021-08-02T16:22:46Z</time>
      </trkpt>
      <trkpt lat="45.7796" lon="6.59677">
        <ele>1930.4</ele>
        <time>2021-08-02T16:22:48Z</time>
      </trkpt>
      <trkpt lat="45.77953" lon="6.59675">
        <ele>1931.6</ele>
        <time>2021-08-02T16:22:52Z</time>
      </trkpt>
      <trkpt lat="45.77948" lon="6.59672">
        <ele>1932</ele>
        <time>2021-08-02T16:22:55Z</time>
      </trkpt>
      <trkpt lat="45.77938" lon="6.59663">
        <ele>1932.8</ele>
        <time>2021-08-02T16:23:01Z</time>
      </trkpt>
      <trkpt lat="45.77932" lon="6.59656">
        <ele>1933.2</ele>
        <time>2021-08-02T16:23:05Z</time>
      </trkpt>
      <trkpt lat="45.77926" lon="6.59649">
        <ele>1933.8</ele>
        <time>2021-08-02T16:23:09Z</time>
      </trkpt>
      <trkpt lat="45.77919" lon="6.59641">
        <ele>1934.6</ele>
        <time>2021-08-02T16:23:14Z</time>
      </trkpt>
      <trkpt lat="45.77916" lon="6.59638">
        <ele>1935</ele>
        <time>2021-08-02T16:23:16Z</time>
      </trkpt>
      <trkpt lat="45.7791" lon="6.59632">
        <ele>1936</ele>
        <time>2021-08-02T16:23:20Z</time>
      </trkpt>
      <trkpt lat="45.77905" lon="6.59624">
        <ele>1937</ele>
        <time>2021-08-02T16:23:24Z</time>
      </trkpt>
      <trkpt lat="45.77904" lon="6.59622">
        <ele>1937.2</ele>
        <time>2021-08-02T16:23:25Z</time>
      </trkpt>
      <trkpt lat="45.77896" lon="6.59605">
        <ele>1938</ele>
        <time>2021-08-02T16:23:33Z</time>
      </trkpt>
      <trkpt lat="45.77895" lon="6.59602">
        <ele>1938.2</ele>
        <time>2021-08-02T16:23:34Z</time>
      </trkpt>
      <trkpt lat="45.77891" lon="6.59591">
        <ele>1939.4</ele>
        <time>2021-08-02T16:23:39Z</time>
      </trkpt>
      <trkpt lat="45.77888" lon="6.59585">
        <ele>1939.8</ele>
        <time>2021-08-02T16:23:42Z</time>
      </trkpt>
      <trkpt lat="45.77885" lon="6.59576">
        <ele>1940.4</ele>
        <time>2021-08-02T16:23:46Z</time>
      </trkpt>
      <trkpt lat="45.7788" lon="6.59565">
        <ele>1941.6</ele>
        <time>2021-08-02T16:23:51Z</time>
      </trkpt>
      <trkpt lat="45.77876" lon="6.59556">
        <ele>1942.4</ele>
        <time>2021-08-02T16:23:55Z</time>
      </trkpt>
      <trkpt lat="45.77872" lon="6.59548">
        <ele>1942.6</ele>
        <time>2021-08-02T16:23:59Z</time>
      </trkpt>
      <trkpt lat="45.77865" lon="6.59539">
        <ele>1943.6</ele>
        <time>2021-08-02T16:24:03Z</time>
      </trkpt>
      <trkpt lat="45.77856" lon="6.5953">
        <ele>1944.6</ele>
        <time>2021-08-02T16:24:07Z</time>
      </trkpt>
      <trkpt lat="45.7785" lon="6.59522">
        <ele>1944.8</ele>
        <time>2021-08-02T16:24:10Z</time>
      </trkpt>
      <trkpt lat="45.77833" lon="6.59501">
        <ele>1945.2</ele>
        <time>2021-08-02T16:24:17Z</time>
      </trkpt>
      <trkpt lat="45.77816" lon="6.59479">
        <ele>1945.6</ele>
        <time>2021-08-02T16:24:23Z</time>
      </trkpt>
      <trkpt lat="45.77803" lon="6.59469">
        <ele>1945.6</ele>
        <time>2021-08-02T16:24:27Z</time>
      </trkpt>
      <trkpt lat="45.77778" lon="6.59462">
        <ele>1945.6</ele>
        <time>2021-08-02T16:24:34Z</time>
      </trkpt>
      <trkpt lat="45.7777" lon="6.59459">
        <ele>1945.8</ele>
        <time>2021-08-02T16:24:37Z</time>
      </trkpt>
      <trkpt lat="45.77759" lon="6.59455">
        <ele>1947</ele>
        <time>2021-08-02T16:24:41Z</time>
      </trkpt>
      <trkpt lat="45.77754" lon="6.59454">
        <ele>1947.4</ele>
        <time>2021-08-02T16:24:43Z</time>
      </trkpt>
      <trkpt lat="45.77748" lon="6.59452">
        <ele>1948.2</ele>
        <time>2021-08-02T16:24:48Z</time>
      </trkpt>
      <trkpt lat="45.77747" lon="6.59449">
        <ele>1949.4</ele>
        <time>2021-08-02T16:27:44Z</time>
      </trkpt>
      <trkpt lat="45.77745" lon="6.59443">
        <ele>1949.4</ele>
        <time>2021-08-02T16:27:46Z</time>
      </trkpt>
      <trkpt lat="45.77734" lon="6.59433">
        <ele>1949.4</ele>
        <time>2021-08-02T16:27:49Z</time>
      </trkpt>
      <trkpt lat="45.77729" lon="6.5943">
        <ele>1949.4</ele>
        <time>2021-08-02T16:27:50Z</time>
      </trkpt>
      <trkpt lat="45.77702" lon="6.59406">
        <ele>1949</ele>
        <time>2021-08-02T16:27:55Z</time>
      </trkpt>
      <trkpt lat="45.77686" lon="6.59385">
        <ele>1948.6</ele>
        <time>2021-08-02T16:27:59Z</time>
      </trkpt>
      <trkpt lat="45.77683" lon="6.5938">
        <ele>1948.6</ele>
        <time>2021-08-02T16:28:00Z</time>
      </trkpt>
      <trkpt lat="45.77661" lon="6.59331">
        <ele>1949</ele>
        <time>2021-08-02T16:28:08Z</time>
      </trkpt>
      <trkpt lat="45.77647" lon="6.593">
        <ele>1949.8</ele>
        <time>2021-08-02T16:28:14Z</time>
      </trkpt>
      <trkpt lat="45.77644" lon="6.59296">
        <ele>1949.8</ele>
        <time>2021-08-02T16:28:15Z</time>
      </trkpt>
      <trkpt lat="45.7763" lon="6.59291">
        <ele>1950</ele>
        <time>2021-08-02T16:28:18Z</time>
      </trkpt>
      <trkpt lat="45.77624" lon="6.5929">
        <ele>1950</ele>
        <time>2021-08-02T16:28:19Z</time>
      </trkpt>
      <trkpt lat="45.77597" lon="6.5928">
        <ele>1950</ele>
        <time>2021-08-02T16:28:23Z</time>
      </trkpt>
      <trkpt lat="45.77558" lon="6.59255">
        <ele>1949.4</ele>
        <time>2021-08-02T16:28:28Z</time>
      </trkpt>
      <trkpt lat="45.77535" lon="6.59237">
        <ele>1947.8</ele>
        <time>2021-08-02T16:28:31Z</time>
      </trkpt>
      <trkpt lat="45.77528" lon="6.59231">
        <ele>1946.6</ele>
        <time>2021-08-02T16:28:32Z</time>
      </trkpt>
      <trkpt lat="45.77522" lon="6.59225">
        <ele>1945.4</ele>
        <time>2021-08-02T16:28:33Z</time>
      </trkpt>
      <trkpt lat="45.77516" lon="6.59217">
        <ele>1944.4</ele>
        <time>2021-08-02T16:28:34Z</time>
      </trkpt>
      <trkpt lat="45.77511" lon="6.5921">
        <ele>1943.2</ele>
        <time>2021-08-02T16:28:35Z</time>
      </trkpt>
      <trkpt lat="45.77505" lon="6.59203">
        <ele>1941.6</ele>
        <time>2021-08-02T16:28:36Z</time>
      </trkpt>
      <trkpt lat="45.77493" lon="6.59194">
        <ele>1941</ele>
        <time>2021-08-02T16:28:38Z</time>
      </trkpt>
      <trkpt lat="45.7748" lon="6.59192">
        <ele>1940.6</ele>
        <time>2021-08-02T16:28:40Z</time>
      </trkpt>
      <trkpt lat="45.77467" lon="6.59192">
        <ele>1940.6</ele>
        <time>2021-08-02T16:28:42Z</time>
      </trkpt>
      <trkpt lat="45.7746" lon="6.59193">
        <ele>1940.6</ele>
        <time>2021-08-02T16:28:43Z</time>
      </trkpt>
      <trkpt lat="45.77424" lon="6.59203">
        <ele>1940.6</ele>
        <time>2021-08-02T16:28:48Z</time>
      </trkpt>
      <trkpt lat="45.77417" lon="6.59205">
        <ele>1940.6</ele>
        <time>2021-08-02T16:28:49Z</time>
      </trkpt>
      <trkpt lat="45.77386" lon="6.59206">
        <ele>1940.4</ele>
        <time>2021-08-02T16:28:53Z</time>
      </trkpt>
      <trkpt lat="45.77378" lon="6.59203">
        <ele>1940.4</ele>
        <time>2021-08-02T16:28:54Z</time>
      </trkpt>
      <trkpt lat="45.7736" lon="6.59184">
        <ele>1940.2</ele>
        <time>2021-08-02T16:28:57Z</time>
      </trkpt>
      <trkpt lat="45.77344" lon="6.59163">
        <ele>1939.4</ele>
        <time>2021-08-02T16:29:00Z</time>
      </trkpt>
      <trkpt lat="45.77337" lon="6.59158">
        <ele>1939.2</ele>
        <time>2021-08-02T16:29:01Z</time>
      </trkpt>
      <trkpt lat="45.77303" lon="6.59136">
        <ele>1938.4</ele>
        <time>2021-08-02T16:29:06Z</time>
      </trkpt>
      <trkpt lat="45.77296" lon="6.5913">
        <ele>1938.4</ele>
        <time>2021-08-02T16:29:07Z</time>
      </trkpt>
      <trkpt lat="45.7727" lon="6.59094">
        <ele>1938</ele>
        <time>2021-08-02T16:29:12Z</time>
      </trkpt>
      <trkpt lat="45.77242" lon="6.59045">
        <ele>1937.4</ele>
        <time>2021-08-02T16:29:18Z</time>
      </trkpt>
      <trkpt lat="45.77238" lon="6.59035">
        <ele>1937.2</ele>
        <time>2021-08-02T16:29:19Z</time>
      </trkpt>
      <trkpt lat="45.77204" lon="6.58971">
        <ele>1936.4</ele>
        <time>2021-08-02T16:29:26Z</time>
      </trkpt>
      <trkpt lat="45.77199" lon="6.58962">
        <ele>1936</ele>
        <time>2021-08-02T16:29:27Z</time>
      </trkpt>
      <trkpt lat="45.77182" lon="6.58935">
        <ele>1935</ele>
        <time>2021-08-02T16:29:30Z</time>
      </trkpt>
      <trkpt lat="45.7717" lon="6.58917">
        <ele>1934.2</ele>
        <time>2021-08-02T16:29:32Z</time>
      </trkpt>
      <trkpt lat="45.77163" lon="6.5891">
        <ele>1933.4</ele>
        <time>2021-08-02T16:29:33Z</time>
      </trkpt>
      <trkpt lat="45.77155" lon="6.58904">
        <ele>1933</ele>
        <time>2021-08-02T16:29:34Z</time>
      </trkpt>
      <trkpt lat="45.7714" lon="6.58889">
        <ele>1932.4</ele>
        <time>2021-08-02T16:29:36Z</time>
      </trkpt>
      <trkpt lat="45.77133" lon="6.5888">
        <ele>1932.2</ele>
        <time>2021-08-02T16:29:37Z</time>
      </trkpt>
      <trkpt lat="45.77112" lon="6.58849">
        <ele>1931.2</ele>
        <time>2021-08-02T16:29:40Z</time>
      </trkpt>
      <trkpt lat="45.77099" lon="6.58825">
        <ele>1930</ele>
        <time>2021-08-02T16:29:42Z</time>
      </trkpt>
      <trkpt lat="45.77087" lon="6.58798">
        <ele>1928</ele>
        <time>2021-08-02T16:29:44Z</time>
      </trkpt>
      <trkpt lat="45.77076" lon="6.5877">
        <ele>1926.4</ele>
        <time>2021-08-02T16:29:46Z</time>
      </trkpt>
      <trkpt lat="45.77071" lon="6.58755">
        <ele>1925.4</ele>
        <time>2021-08-02T16:29:47Z</time>
      </trkpt>
      <trkpt lat="45.77062" lon="6.58724">
        <ele>1924.2</ele>
        <time>2021-08-02T16:29:49Z</time>
      </trkpt>
      <trkpt lat="45.77053" lon="6.58692">
        <ele>1922.4</ele>
        <time>2021-08-02T16:29:51Z</time>
      </trkpt>
      <trkpt lat="45.77042" lon="6.58661">
        <ele>1920.2</ele>
        <time>2021-08-02T16:29:53Z</time>
      </trkpt>
      <trkpt lat="45.77035" lon="6.58646">
        <ele>1918.6</ele>
        <time>2021-08-02T16:29:54Z</time>
      </trkpt>
      <trkpt lat="45.77028" lon="6.58631">
        <ele>1917.4</ele>
        <time>2021-08-02T16:29:55Z</time>
      </trkpt>
      <trkpt lat="45.7702" lon="6.58616">
        <ele>1916.2</ele>
        <time>2021-08-02T16:29:56Z</time>
      </trkpt>
      <trkpt lat="45.77012" lon="6.58601">
        <ele>1914.8</ele>
        <time>2021-08-02T16:29:57Z</time>
      </trkpt>
      <trkpt lat="45.77004" lon="6.58587">
        <ele>1913.8</ele>
        <time>2021-08-02T16:29:58Z</time>
      </trkpt>
      <trkpt lat="45.76997" lon="6.58575">
        <ele>1912.4</ele>
        <time>2021-08-02T16:29:59Z</time>
      </trkpt>
      <trkpt lat="45.76983" lon="6.5855">
        <ele>1910.4</ele>
        <time>2021-08-02T16:30:01Z</time>
      </trkpt>
      <trkpt lat="45.76976" lon="6.58536">
        <ele>1907.6</ele>
        <time>2021-08-02T16:30:02Z</time>
      </trkpt>
      <trkpt lat="45.76969" lon="6.58523">
        <ele>1906.4</ele>
        <time>2021-08-02T16:30:03Z</time>
      </trkpt>
      <trkpt lat="45.76963" lon="6.58508">
        <ele>1905.2</ele>
        <time>2021-08-02T16:30:04Z</time>
      </trkpt>
      <trkpt lat="45.76957" lon="6.58495">
        <ele>1903.6</ele>
        <time>2021-08-02T16:30:05Z</time>
      </trkpt>
      <trkpt lat="45.76952" lon="6.58482">
        <ele>1902.4</ele>
        <time>2021-08-02T16:30:06Z</time>
      </trkpt>
      <trkpt lat="45.76948" lon="6.58472">
        <ele>1901.6</ele>
        <time>2021-08-02T16:30:07Z</time>
      </trkpt>
      <trkpt lat="45.76945" lon="6.58462">
        <ele>1901</ele>
        <time>2021-08-02T16:30:08Z</time>
      </trkpt>
      <trkpt lat="45.76939" lon="6.58447">
        <ele>1898.8</ele>
        <time>2021-08-02T16:30:10Z</time>
      </trkpt>
      <trkpt lat="45.76936" lon="6.58442">
        <ele>1897.8</ele>
        <time>2021-08-02T16:30:11Z</time>
      </trkpt>
      <trkpt lat="45.76934" lon="6.58437">
        <ele>1896.2</ele>
        <time>2021-08-02T16:30:12Z</time>
      </trkpt>
      <trkpt lat="45.76932" lon="6.58434">
        <ele>1895</ele>
        <time>2021-08-02T16:30:13Z</time>
      </trkpt>
      <trkpt lat="45.76931" lon="6.58431">
        <ele>1894.4</ele>
        <time>2021-08-02T16:30:14Z</time>
      </trkpt>
      <trkpt lat="45.76929" lon="6.58427">
        <ele>1893.8</ele>
        <time>2021-08-02T16:30:15Z</time>
      </trkpt>
      <trkpt lat="45.76922" lon="6.5841">
        <ele>1893.4</ele>
        <time>2021-08-02T16:30:18Z</time>
      </trkpt>
      <trkpt lat="45.76908" lon="6.58377">
        <ele>1893</ele>
        <time>2021-08-02T16:30:22Z</time>
      </trkpt>
      <trkpt lat="45.76896" lon="6.58344">
        <ele>1892.4</ele>
        <time>2021-08-02T16:30:25Z</time>
      </trkpt>
      <trkpt lat="45.76888" lon="6.58319">
        <ele>1891.2</ele>
        <time>2021-08-02T16:30:27Z</time>
      </trkpt>
      <trkpt lat="45.76882" lon="6.58293">
        <ele>1888.8</ele>
        <time>2021-08-02T16:30:29Z</time>
      </trkpt>
      <trkpt lat="45.76877" lon="6.58271">
        <ele>1886.8</ele>
        <time>2021-08-02T16:30:31Z</time>
      </trkpt>
      <trkpt lat="45.76877" lon="6.58265">
        <ele>1885.8</ele>
        <time>2021-08-02T16:30:32Z</time>
      </trkpt>
      <trkpt lat="45.76876" lon="6.58261">
        <ele>1884.4</ele>
        <time>2021-08-02T16:30:33Z</time>
      </trkpt>
      <trkpt lat="45.76876" lon="6.58258">
        <ele>1883</ele>
        <time>2021-08-02T16:30:34Z</time>
      </trkpt>
      <trkpt lat="45.76876" lon="6.58257">
        <ele>1881.6</ele>
        <time>2021-08-02T16:30:35Z</time>
      </trkpt>
      <trkpt lat="45.76875" lon="6.58256">
        <ele>1880.6</ele>
        <time>2021-08-02T16:30:36Z</time>
      </trkpt>
      <trkpt lat="45.76874" lon="6.58257">
        <ele>1880</ele>
        <time>2021-08-02T16:30:37Z</time>
      </trkpt>
      <trkpt lat="45.76875" lon="6.58266">
        <ele>1879.6</ele>
        <time>2021-08-02T16:30:40Z</time>
      </trkpt>
      <trkpt lat="45.76876" lon="6.5827">
        <ele>1879.4</ele>
        <time>2021-08-02T16:30:41Z</time>
      </trkpt>
      <trkpt lat="45.76882" lon="6.58294">
        <ele>1879.6</ele>
        <time>2021-08-02T16:30:46Z</time>
      </trkpt>
      <trkpt lat="45.76889" lon="6.58321">
        <ele>1880.6</ele>
        <time>2021-08-02T16:30:52Z</time>
      </trkpt>
      <trkpt lat="45.76893" lon="6.58333">
        <ele>1881</ele>
        <time>2021-08-02T16:30:55Z</time>
      </trkpt>
      <trkpt lat="45.76895" lon="6.58341">
        <ele>1881.6</ele>
        <time>2021-08-02T16:30:57Z</time>
      </trkpt>
      <trkpt lat="45.76902" lon="6.5836">
        <ele>1882.6</ele>
        <time>2021-08-02T16:31:02Z</time>
      </trkpt>
      <trkpt lat="45.76903" lon="6.58363">
        <ele>1882.8</ele>
        <time>2021-08-02T16:31:03Z</time>
      </trkpt>
      <trkpt lat="45.76908" lon="6.58375">
        <ele>1884</ele>
        <time>2021-08-02T16:31:07Z</time>
      </trkpt>
      <trkpt lat="45.7691" lon="6.5838">
        <ele>1884.4</ele>
        <time>2021-08-02T16:31:09Z</time>
      </trkpt>
      <trkpt lat="45.76913" lon="6.58388">
        <ele>1885</ele>
        <time>2021-08-02T16:31:12Z</time>
      </trkpt>
      <trkpt lat="45.76916" lon="6.58394">
        <ele>1886.2</ele>
        <time>2021-08-02T16:31:15Z</time>
      </trkpt>
      <trkpt lat="45.76919" lon="6.58401">
        <ele>1886.8</ele>
        <time>2021-08-02T16:31:18Z</time>
      </trkpt>
      <trkpt lat="45.76923" lon="6.58408">
        <ele>1887.2</ele>
        <time>2021-08-02T16:31:21Z</time>
      </trkpt>
      <trkpt lat="45.76928" lon="6.5842">
        <ele>1888.6</ele>
        <time>2021-08-02T16:31:26Z</time>
      </trkpt>
      <trkpt lat="45.76935" lon="6.58434">
        <ele>1889.6</ele>
        <time>2021-08-02T16:31:32Z</time>
      </trkpt>
      <trkpt lat="45.76936" lon="6.58435">
        <ele>1889.8</ele>
        <time>2021-08-02T16:31:33Z</time>
      </trkpt>
      <trkpt lat="45.76938" lon="6.58435">
        <ele>1890</ele>
        <time>2021-08-02T16:31:34Z</time>
      </trkpt>
      <trkpt lat="45.76942" lon="6.58427">
        <ele>1890.8</ele>
        <time>2021-08-02T16:31:38Z</time>
      </trkpt>
      <trkpt lat="45.76942" lon="6.58422">
        <ele>1891</ele>
        <time>2021-08-02T16:31:39Z</time>
      </trkpt>
      <trkpt lat="45.76942" lon="6.58401">
        <ele>1891.2</ele>
        <time>2021-08-02T16:31:42Z</time>
      </trkpt>
      <trkpt lat="45.76946" lon="6.58361">
        <ele>1891.2</ele>
        <time>2021-08-02T16:31:46Z</time>
      </trkpt>
      <trkpt lat="45.7695" lon="6.58312">
        <ele>1890.4</ele>
        <time>2021-08-02T16:31:51Z</time>
      </trkpt>
      <trkpt lat="45.7695" lon="6.58304">
        <ele>1889.6</ele>
        <time>2021-08-02T16:31:52Z</time>
      </trkpt>
      <trkpt lat="45.76949" lon="6.58291">
        <ele>1888.2</ele>
        <time>2021-08-02T16:31:54Z</time>
      </trkpt>
      <trkpt lat="45.76948" lon="6.58285">
        <ele>1888.2</ele>
        <time>2021-08-02T16:31:55Z</time>
      </trkpt>
      <trkpt lat="45.76946" lon="6.58245">
        <ele>1888.4</ele>
        <time>2021-08-02T16:32:02Z</time>
      </trkpt>
      <trkpt lat="45.76944" lon="6.58225">
        <ele>1889.6</ele>
        <time>2021-08-02T16:32:06Z</time>
      </trkpt>
      <trkpt lat="45.76942" lon="6.58206">
        <ele>1890.4</ele>
        <time>2021-08-02T16:32:09Z</time>
      </trkpt>
      <trkpt lat="45.76942" lon="6.58199">
        <ele>1890.6</ele>
        <time>2021-08-02T16:32:10Z</time>
      </trkpt>
      <trkpt lat="45.76942" lon="6.58192">
        <ele>1891</ele>
        <time>2021-08-02T16:32:11Z</time>
      </trkpt>
      <trkpt lat="45.76941" lon="6.5817">
        <ele>1891.2</ele>
        <time>2021-08-02T16:32:14Z</time>
      </trkpt>
      <trkpt lat="45.76941" lon="6.58123">
        <ele>1891.2</ele>
        <time>2021-08-02T16:32:19Z</time>
      </trkpt>
      <trkpt lat="45.76943" lon="6.58082">
        <ele>1890.6</ele>
        <time>2021-08-02T16:32:23Z</time>
      </trkpt>
      <trkpt lat="45.76942" lon="6.58061">
        <ele>1890.4</ele>
        <time>2021-08-02T16:32:27Z</time>
      </trkpt>
      <trkpt lat="45.76943" lon="6.58036">
        <ele>1891</ele>
        <time>2021-08-02T16:32:34Z</time>
      </trkpt>
      <trkpt lat="45.76944" lon="6.58025">
        <ele>1892.2</ele>
        <time>2021-08-02T16:32:37Z</time>
      </trkpt>
      <trkpt lat="45.76945" lon="6.58008">
        <ele>1893.4</ele>
        <time>2021-08-02T16:32:42Z</time>
      </trkpt>
      <trkpt lat="45.76945" lon="6.58001">
        <ele>1894</ele>
        <time>2021-08-02T16:32:44Z</time>
      </trkpt>
      <trkpt lat="45.76945" lon="6.57994">
        <ele>1894.6</ele>
        <time>2021-08-02T16:32:46Z</time>
      </trkpt>
      <trkpt lat="45.76946" lon="6.57973">
        <ele>1896</ele>
        <time>2021-08-02T16:32:51Z</time>
      </trkpt>
      <trkpt lat="45.76946" lon="6.57967">
        <ele>1896</ele>
        <time>2021-08-02T16:32:52Z</time>
      </trkpt>
      <trkpt lat="45.76947" lon="6.57929">
        <ele>1896</ele>
        <time>2021-08-02T16:32:58Z</time>
      </trkpt>
      <trkpt lat="45.76951" lon="6.57879">
        <ele>1895.6</ele>
        <time>2021-08-02T16:33:04Z</time>
      </trkpt>
      <trkpt lat="45.76953" lon="6.57848">
        <ele>1894.8</ele>
        <time>2021-08-02T16:33:07Z</time>
      </trkpt>
      <trkpt lat="45.76957" lon="6.57819">
        <ele>1894.4</ele>
        <time>2021-08-02T16:33:10Z</time>
      </trkpt>
      <trkpt lat="45.76959" lon="6.57809">
        <ele>1893.8</ele>
        <time>2021-08-02T16:33:11Z</time>
      </trkpt>
      <trkpt lat="45.76961" lon="6.57793">
        <ele>1892.8</ele>
        <time>2021-08-02T16:33:13Z</time>
      </trkpt>
      <trkpt lat="45.76962" lon="6.57787">
        <ele>1892.6</ele>
        <time>2021-08-02T16:33:14Z</time>
      </trkpt>
      <trkpt lat="45.76962" lon="6.57764">
        <ele>1892.4</ele>
        <time>2021-08-02T16:33:19Z</time>
      </trkpt>
      <trkpt lat="45.7696" lon="6.5775">
        <ele>1894</ele>
        <time>2021-08-02T16:33:24Z</time>
      </trkpt>
      <trkpt lat="45.76959" lon="6.57747">
        <ele>1894.8</ele>
        <time>2021-08-02T16:33:25Z</time>
      </trkpt>
      <trkpt lat="45.76959" lon="6.57745">
        <ele>1895.2</ele>
        <time>2021-08-02T16:33:26Z</time>
      </trkpt>
      <trkpt lat="45.76958" lon="6.5774">
        <ele>1896.4</ele>
        <time>2021-08-02T16:33:28Z</time>
      </trkpt>
      <trkpt lat="45.76957" lon="6.5773">
        <ele>1897.6</ele>
        <time>2021-08-02T16:33:31Z</time>
      </trkpt>
      <trkpt lat="45.76956" lon="6.57726">
        <ele>1898</ele>
        <time>2021-08-02T16:33:32Z</time>
      </trkpt>
      <trkpt lat="45.76955" lon="6.5772">
        <ele>1898.2</ele>
        <time>2021-08-02T16:33:33Z</time>
      </trkpt>
      <trkpt lat="45.76948" lon="6.577">
        <ele>1898.4</ele>
        <time>2021-08-02T16:33:36Z</time>
      </trkpt>
      <trkpt lat="45.76929" lon="6.57656">
        <ele>1898.4</ele>
        <time>2021-08-02T16:33:41Z</time>
      </trkpt>
      <trkpt lat="45.76922" lon="6.57632">
        <ele>1898</ele>
        <time>2021-08-02T16:33:43Z</time>
      </trkpt>
      <trkpt lat="45.76916" lon="6.57605">
        <ele>1896.8</ele>
        <time>2021-08-02T16:33:45Z</time>
      </trkpt>
      <trkpt lat="45.76914" lon="6.57591">
        <ele>1896</ele>
        <time>2021-08-02T16:33:46Z</time>
      </trkpt>
      <trkpt lat="45.7691" lon="6.57565">
        <ele>1894.4</ele>
        <time>2021-08-02T16:33:48Z</time>
      </trkpt>
      <trkpt lat="45.76908" lon="6.57552">
        <ele>1892.8</ele>
        <time>2021-08-02T16:33:49Z</time>
      </trkpt>
      <trkpt lat="45.76907" lon="6.57539">
        <ele>1891.6</ele>
        <time>2021-08-02T16:33:50Z</time>
      </trkpt>
      <trkpt lat="45.76905" lon="6.57527">
        <ele>1890.4</ele>
        <time>2021-08-02T16:33:51Z</time>
      </trkpt>
      <trkpt lat="45.76904" lon="6.57515">
        <ele>1889.2</ele>
        <time>2021-08-02T16:33:52Z</time>
      </trkpt>
      <trkpt lat="45.76903" lon="6.57503">
        <ele>1888</ele>
        <time>2021-08-02T16:33:53Z</time>
      </trkpt>
      <trkpt lat="45.769" lon="6.5748">
        <ele>1886.6</ele>
        <time>2021-08-02T16:33:55Z</time>
      </trkpt>
      <trkpt lat="45.76898" lon="6.5747">
        <ele>1886.2</ele>
        <time>2021-08-02T16:33:56Z</time>
      </trkpt>
      <trkpt lat="45.76885" lon="6.57452">
        <ele>1885.8</ele>
        <time>2021-08-02T16:33:59Z</time>
      </trkpt>
      <trkpt lat="45.76881" lon="6.57446">
        <ele>1885.6</ele>
        <time>2021-08-02T16:34:01Z</time>
      </trkpt>
      <trkpt lat="45.7688" lon="6.57445">
        <ele>1885.6</ele>
        <time>2021-08-02T16:34:02Z</time>
      </trkpt>
      <trkpt lat="45.76879" lon="6.57442">
        <ele>1885.6</ele>
        <time>2021-08-02T16:34:04Z</time>
      </trkpt>
      <trkpt lat="45.76879" lon="6.5744">
        <ele>1885.4</ele>
        <time>2021-08-02T16:34:05Z</time>
      </trkpt>
      <trkpt lat="45.76881" lon="6.57436">
        <ele>1885.2</ele>
        <time>2021-08-02T16:34:06Z</time>
      </trkpt>
      <trkpt lat="45.7689" lon="6.57427">
        <ele>1884.4</ele>
        <time>2021-08-02T16:34:09Z</time>
      </trkpt>
      <trkpt lat="45.76893" lon="6.57425">
        <ele>1884.2</ele>
        <time>2021-08-02T16:34:10Z</time>
      </trkpt>
      <trkpt lat="45.76896" lon="6.57416">
        <ele>1883.8</ele>
        <time>2021-08-02T16:34:13Z</time>
      </trkpt>
      <trkpt lat="45.76894" lon="6.57414">
        <ele>1883.6</ele>
        <time>2021-08-02T16:34:14Z</time>
      </trkpt>
      <trkpt lat="45.76885" lon="6.57411">
        <ele>1883</ele>
        <time>2021-08-02T16:34:17Z</time>
      </trkpt>
      <trkpt lat="45.7688" lon="6.57411">
        <ele>1882.8</ele>
        <time>2021-08-02T16:34:18Z</time>
      </trkpt>
      <trkpt lat="45.76876" lon="6.57411">
        <ele>1882.6</ele>
        <time>2021-08-02T16:34:19Z</time>
      </trkpt>
      <trkpt lat="45.76862" lon="6.57413">
        <ele>1882</ele>
        <time>2021-08-02T16:34:22Z</time>
      </trkpt>
      <trkpt lat="45.76851" lon="6.57414">
        <ele>1881</ele>
        <time>2021-08-02T16:34:24Z</time>
      </trkpt>
      <trkpt lat="45.76845" lon="6.57415">
        <ele>1880.4</ele>
        <time>2021-08-02T16:34:25Z</time>
      </trkpt>
      <trkpt lat="45.76833" lon="6.57419">
        <ele>1879.4</ele>
        <time>2021-08-02T16:34:27Z</time>
      </trkpt>
      <trkpt lat="45.76827" lon="6.57423">
        <ele>1879</ele>
        <time>2021-08-02T16:34:28Z</time>
      </trkpt>
      <trkpt lat="45.76812" lon="6.57433">
        <ele>1878.2</ele>
        <time>2021-08-02T16:34:31Z</time>
      </trkpt>
      <trkpt lat="45.76808" lon="6.57436">
        <ele>1877.8</ele>
        <time>2021-08-02T16:34:32Z</time>
      </trkpt>
      <trkpt lat="45.76804" lon="6.57439">
        <ele>1877.2</ele>
        <time>2021-08-02T16:34:33Z</time>
      </trkpt>
      <trkpt lat="45.76796" lon="6.57447">
        <ele>1875.6</ele>
        <time>2021-08-02T16:34:35Z</time>
      </trkpt>
      <trkpt lat="45.76789" lon="6.57455">
        <ele>1874</ele>
        <time>2021-08-02T16:34:37Z</time>
      </trkpt>
      <trkpt lat="45.76786" lon="6.57458">
        <ele>1873.2</ele>
        <time>2021-08-02T16:34:38Z</time>
      </trkpt>
      <trkpt lat="45.76783" lon="6.57462">
        <ele>1872.6</ele>
        <time>2021-08-02T16:34:39Z</time>
      </trkpt>
      <trkpt lat="45.76779" lon="6.57469">
        <ele>1871.4</ele>
        <time>2021-08-02T16:34:41Z</time>
      </trkpt>
      <trkpt lat="45.76774" lon="6.57476">
        <ele>1870.4</ele>
        <time>2021-08-02T16:34:43Z</time>
      </trkpt>
      <trkpt lat="45.76771" lon="6.57485">
        <ele>1868.4</ele>
        <time>2021-08-02T16:34:45Z</time>
      </trkpt>
      <trkpt lat="45.76768" lon="6.57496">
        <ele>1867</ele>
        <time>2021-08-02T16:34:47Z</time>
      </trkpt>
      <trkpt lat="45.76762" lon="6.57504">
        <ele>1865.6</ele>
        <time>2021-08-02T16:34:49Z</time>
      </trkpt>
      <trkpt lat="45.76755" lon="6.57509">
        <ele>1864</ele>
        <time>2021-08-02T16:34:51Z</time>
      </trkpt>
      <trkpt lat="45.76748" lon="6.57511">
        <ele>1862.6</ele>
        <time>2021-08-02T16:34:53Z</time>
      </trkpt>
      <trkpt lat="45.76744" lon="6.57512">
        <ele>1861.8</ele>
        <time>2021-08-02T16:34:54Z</time>
      </trkpt>
      <trkpt lat="45.76739" lon="6.57513">
        <ele>1861.2</ele>
        <time>2021-08-02T16:34:55Z</time>
      </trkpt>
      <trkpt lat="45.76735" lon="6.57512">
        <ele>1860.4</ele>
        <time>2021-08-02T16:34:56Z</time>
      </trkpt>
      <trkpt lat="45.76731" lon="6.57511">
        <ele>1859.4</ele>
        <time>2021-08-02T16:34:57Z</time>
      </trkpt>
      <trkpt lat="45.76725" lon="6.57505">
        <ele>1857.6</ele>
        <time>2021-08-02T16:34:59Z</time>
      </trkpt>
      <trkpt lat="45.76723" lon="6.575">
        <ele>1856.6</ele>
        <time>2021-08-02T16:35:00Z</time>
      </trkpt>
      <trkpt lat="45.76722" lon="6.57494">
        <ele>1855.8</ele>
        <time>2021-08-02T16:35:01Z</time>
      </trkpt>
      <trkpt lat="45.7672" lon="6.57489">
        <ele>1854.6</ele>
        <time>2021-08-02T16:35:02Z</time>
      </trkpt>
      <trkpt lat="45.76718" lon="6.57484">
        <ele>1853.4</ele>
        <time>2021-08-02T16:35:03Z</time>
      </trkpt>
      <trkpt lat="45.76717" lon="6.57477">
        <ele>1852.6</ele>
        <time>2021-08-02T16:35:04Z</time>
      </trkpt>
      <trkpt lat="45.76715" lon="6.57469">
        <ele>1851.6</ele>
        <time>2021-08-02T16:35:05Z</time>
      </trkpt>
      <trkpt lat="45.76715" lon="6.5746">
        <ele>1850.4</ele>
        <time>2021-08-02T16:35:06Z</time>
      </trkpt>
      <trkpt lat="45.76714" lon="6.57444">
        <ele>1848.6</ele>
        <time>2021-08-02T16:35:08Z</time>
      </trkpt>
      <trkpt lat="45.76713" lon="6.57439">
        <ele>1847.6</ele>
        <time>2021-08-02T16:35:09Z</time>
      </trkpt>
      <trkpt lat="45.76713" lon="6.57437">
        <ele>1844.6</ele>
        <time>2021-08-02T16:35:11Z</time>
      </trkpt>
      <trkpt lat="45.76713" lon="6.57437">
        <ele>1843.6</ele>
        <time>2021-08-02T16:35:12Z</time>
      </trkpt>
      <trkpt lat="45.76715" lon="6.57436">
        <ele>1838.2</ele>
        <time>2021-08-02T16:35:18Z</time>
      </trkpt>
      <trkpt lat="45.76715" lon="6.57436">
        <ele>1837.8</ele>
        <time>2021-08-02T16:35:20Z</time>
      </trkpt>
      <trkpt lat="45.76716" lon="6.57432">
        <ele>1837.4</ele>
        <time>2021-08-02T16:35:35Z</time>
      </trkpt>
      <trkpt lat="45.76716" lon="6.57427">
        <ele>1837.4</ele>
        <time>2021-08-02T16:35:36Z</time>
      </trkpt>
      <trkpt lat="45.76716" lon="6.57422">
        <ele>1837.4</ele>
        <time>2021-08-02T16:35:37Z</time>
      </trkpt>
      <trkpt lat="45.76713" lon="6.57399">
        <ele>1837.2</ele>
        <time>2021-08-02T16:35:40Z</time>
      </trkpt>
      <trkpt lat="45.7671" lon="6.57366">
        <ele>1836.8</ele>
        <time>2021-08-02T16:35:44Z</time>
      </trkpt>
      <trkpt lat="45.76709" lon="6.57358">
        <ele>1836.4</ele>
        <time>2021-08-02T16:35:45Z</time>
      </trkpt>
      <trkpt lat="45.76707" lon="6.57351">
        <ele>1836</ele>
        <time>2021-08-02T16:35:46Z</time>
      </trkpt>
      <trkpt lat="45.76705" lon="6.57336">
        <ele>1834.6</ele>
        <time>2021-08-02T16:35:48Z</time>
      </trkpt>
      <trkpt lat="45.76703" lon="6.57329">
        <ele>1833.4</ele>
        <time>2021-08-02T16:35:49Z</time>
      </trkpt>
      <trkpt lat="45.76701" lon="6.57322">
        <ele>1832.4</ele>
        <time>2021-08-02T16:35:50Z</time>
      </trkpt>
      <trkpt lat="45.76699" lon="6.57315">
        <ele>1831.4</ele>
        <time>2021-08-02T16:35:51Z</time>
      </trkpt>
      <trkpt lat="45.76696" lon="6.57304">
        <ele>1829.2</ele>
        <time>2021-08-02T16:35:53Z</time>
      </trkpt>
      <trkpt lat="45.76695" lon="6.57298">
        <ele>1828.2</ele>
        <time>2021-08-02T16:35:54Z</time>
      </trkpt>
      <trkpt lat="45.76694" lon="6.57292">
        <ele>1827.6</ele>
        <time>2021-08-02T16:35:55Z</time>
      </trkpt>
      <trkpt lat="45.76692" lon="6.57281">
        <ele>1826.2</ele>
        <time>2021-08-02T16:35:57Z</time>
      </trkpt>
      <trkpt lat="45.7669" lon="6.57271">
        <ele>1824.8</ele>
        <time>2021-08-02T16:35:59Z</time>
      </trkpt>
      <trkpt lat="45.76686" lon="6.57259">
        <ele>1823.8</ele>
        <time>2021-08-02T16:36:01Z</time>
      </trkpt>
      <trkpt lat="45.76681" lon="6.57238">
        <ele>1822.6</ele>
        <time>2021-08-02T16:36:04Z</time>
      </trkpt>
      <trkpt lat="45.76675" lon="6.57221">
        <ele>1821.6</ele>
        <time>2021-08-02T16:36:07Z</time>
      </trkpt>
      <trkpt lat="45.76674" lon="6.57217">
        <ele>1820.6</ele>
        <time>2021-08-02T16:36:08Z</time>
      </trkpt>
      <trkpt lat="45.76673" lon="6.57214">
        <ele>1820</ele>
        <time>2021-08-02T16:36:09Z</time>
      </trkpt>
      <trkpt lat="45.76671" lon="6.5721">
        <ele>1818</ele>
        <time>2021-08-02T16:36:12Z</time>
      </trkpt>
      <trkpt lat="45.76671" lon="6.5721">
        <ele>1817.4</ele>
        <time>2021-08-02T16:36:13Z</time>
      </trkpt>
      <trkpt lat="45.7667" lon="6.57209">
        <ele>1814</ele>
        <time>2021-08-02T16:36:24Z</time>
      </trkpt>
      <trkpt lat="45.76666" lon="6.57207">
        <ele>1813.8</ele>
        <time>2021-08-02T16:36:26Z</time>
      </trkpt>
      <trkpt lat="45.76655" lon="6.57217">
        <ele>1813.6</ele>
        <time>2021-08-02T16:36:30Z</time>
      </trkpt>
      <trkpt lat="45.7665" lon="6.57237">
        <ele>1813.2</ele>
        <time>2021-08-02T16:36:33Z</time>
      </trkpt>
      <trkpt lat="45.76649" lon="6.57245">
        <ele>1813</ele>
        <time>2021-08-02T16:36:34Z</time>
      </trkpt>
      <trkpt lat="45.76647" lon="6.5726">
        <ele>1812.2</ele>
        <time>2021-08-02T16:36:36Z</time>
      </trkpt>
      <trkpt lat="45.76644" lon="6.57273">
        <ele>1811.8</ele>
        <time>2021-08-02T16:36:38Z</time>
      </trkpt>
      <trkpt lat="45.7664" lon="6.57287">
        <ele>1810.8</ele>
        <time>2021-08-02T16:36:40Z</time>
      </trkpt>
      <trkpt lat="45.7664" lon="6.57295">
        <ele>1810</ele>
        <time>2021-08-02T16:36:41Z</time>
      </trkpt>
      <trkpt lat="45.7664" lon="6.57301">
        <ele>1809.4</ele>
        <time>2021-08-02T16:36:42Z</time>
      </trkpt>
      <trkpt lat="45.7664" lon="6.57307">
        <ele>1808.8</ele>
        <time>2021-08-02T16:36:43Z</time>
      </trkpt>
      <trkpt lat="45.76638" lon="6.57313">
        <ele>1807.6</ele>
        <time>2021-08-02T16:36:45Z</time>
      </trkpt>
      <trkpt lat="45.76632" lon="6.57304">
        <ele>1806.4</ele>
        <time>2021-08-02T16:36:48Z</time>
      </trkpt>
      <trkpt lat="45.7663" lon="6.57286">
        <ele>1805.6</ele>
        <time>2021-08-02T16:36:50Z</time>
      </trkpt>
      <trkpt lat="45.7663" lon="6.57275">
        <ele>1805.2</ele>
        <time>2021-08-02T16:36:51Z</time>
      </trkpt>
      <trkpt lat="45.76628" lon="6.57251">
        <ele>1804.6</ele>
        <time>2021-08-02T16:36:53Z</time>
      </trkpt>
      <trkpt lat="45.76623" lon="6.57225">
        <ele>1804.2</ele>
        <time>2021-08-02T16:36:55Z</time>
      </trkpt>
      <trkpt lat="45.76618" lon="6.572">
        <ele>1803</ele>
        <time>2021-08-02T16:36:57Z</time>
      </trkpt>
      <trkpt lat="45.76611" lon="6.57173">
        <ele>1801</ele>
        <time>2021-08-02T16:36:59Z</time>
      </trkpt>
      <trkpt lat="45.76606" lon="6.5716">
        <ele>1800</ele>
        <time>2021-08-02T16:37:00Z</time>
      </trkpt>
      <trkpt lat="45.766" lon="6.57147">
        <ele>1798.6</ele>
        <time>2021-08-02T16:37:01Z</time>
      </trkpt>
      <trkpt lat="45.76593" lon="6.57135">
        <ele>1797.4</ele>
        <time>2021-08-02T16:37:02Z</time>
      </trkpt>
      <trkpt lat="45.76585" lon="6.57124">
        <ele>1796.2</ele>
        <time>2021-08-02T16:37:03Z</time>
      </trkpt>
      <trkpt lat="45.76578" lon="6.57112">
        <ele>1795</ele>
        <time>2021-08-02T16:37:04Z</time>
      </trkpt>
      <trkpt lat="45.76571" lon="6.571">
        <ele>1793</ele>
        <time>2021-08-02T16:37:05Z</time>
      </trkpt>
      <trkpt lat="45.76559" lon="6.57072">
        <ele>1791.4</ele>
        <time>2021-08-02T16:37:07Z</time>
      </trkpt>
      <trkpt lat="45.76548" lon="6.57044">
        <ele>1789.4</ele>
        <time>2021-08-02T16:37:09Z</time>
      </trkpt>
      <trkpt lat="45.76541" lon="6.57032">
        <ele>1788.4</ele>
        <time>2021-08-02T16:37:10Z</time>
      </trkpt>
      <trkpt lat="45.76533" lon="6.5702">
        <ele>1787.4</ele>
        <time>2021-08-02T16:37:11Z</time>
      </trkpt>
      <trkpt lat="45.76525" lon="6.57009">
        <ele>1786.2</ele>
        <time>2021-08-02T16:37:12Z</time>
      </trkpt>
      <trkpt lat="45.76517" lon="6.56999">
        <ele>1785</ele>
        <time>2021-08-02T16:37:13Z</time>
      </trkpt>
      <trkpt lat="45.76499" lon="6.56983">
        <ele>1783.2</ele>
        <time>2021-08-02T16:37:15Z</time>
      </trkpt>
      <trkpt lat="45.76481" lon="6.56972">
        <ele>1781.4</ele>
        <time>2021-08-02T16:37:17Z</time>
      </trkpt>
      <trkpt lat="45.76472" lon="6.56968">
        <ele>1780.8</ele>
        <time>2021-08-02T16:37:18Z</time>
      </trkpt>
      <trkpt lat="45.76463" lon="6.56965">
        <ele>1780.2</ele>
        <time>2021-08-02T16:37:19Z</time>
      </trkpt>
      <trkpt lat="45.76436" lon="6.5695">
        <ele>1779.8</ele>
        <time>2021-08-02T16:37:22Z</time>
      </trkpt>
      <trkpt lat="45.7642" lon="6.56937">
        <ele>1779.8</ele>
        <time>2021-08-02T16:37:24Z</time>
      </trkpt>
      <trkpt lat="45.76383" lon="6.56897">
        <ele>1779.6</ele>
        <time>2021-08-02T16:37:29Z</time>
      </trkpt>
      <trkpt lat="45.76375" lon="6.56891">
        <ele>1779.6</ele>
        <time>2021-08-02T16:37:30Z</time>
      </trkpt>
      <trkpt lat="45.76361" lon="6.5688">
        <ele>1779.6</ele>
        <time>2021-08-02T16:37:32Z</time>
      </trkpt>
      <trkpt lat="45.76341" lon="6.5687">
        <ele>1779.8</ele>
        <time>2021-08-02T16:37:36Z</time>
      </trkpt>
      <trkpt lat="45.76336" lon="6.5687">
        <ele>1779.8</ele>
        <time>2021-08-02T16:37:37Z</time>
      </trkpt>
      <trkpt lat="45.76312" lon="6.56872">
        <ele>1779.8</ele>
        <time>2021-08-02T16:37:41Z</time>
      </trkpt>
      <trkpt lat="45.76285" lon="6.56873">
        <ele>1779.8</ele>
        <time>2021-08-02T16:37:45Z</time>
      </trkpt>
      <trkpt lat="45.76278" lon="6.5687">
        <ele>1779.6</ele>
        <time>2021-08-02T16:37:46Z</time>
      </trkpt>
      <trkpt lat="45.7627" lon="6.56855">
        <ele>1779.6</ele>
        <time>2021-08-02T16:37:48Z</time>
      </trkpt>
      <trkpt lat="45.76266" lon="6.56824">
        <ele>1779.6</ele>
        <time>2021-08-02T16:37:51Z</time>
      </trkpt>
      <trkpt lat="45.7626" lon="6.56804">
        <ele>1779.2</ele>
        <time>2021-08-02T16:37:53Z</time>
      </trkpt>
      <trkpt lat="45.76255" lon="6.56797">
        <ele>1778.8</ele>
        <time>2021-08-02T16:37:54Z</time>
      </trkpt>
      <trkpt lat="45.76243" lon="6.56784">
        <ele>1778.4</ele>
        <time>2021-08-02T16:37:56Z</time>
      </trkpt>
      <trkpt lat="45.76237" lon="6.56777">
        <ele>1777.8</ele>
        <time>2021-08-02T16:37:57Z</time>
      </trkpt>
      <trkpt lat="45.76231" lon="6.5677">
        <ele>1777.2</ele>
        <time>2021-08-02T16:37:58Z</time>
      </trkpt>
      <trkpt lat="45.76226" lon="6.56761">
        <ele>1776.8</ele>
        <time>2021-08-02T16:37:59Z</time>
      </trkpt>
      <trkpt lat="45.76218" lon="6.56743">
        <ele>1775.6</ele>
        <time>2021-08-02T16:38:01Z</time>
      </trkpt>
      <trkpt lat="45.76208" lon="6.56726">
        <ele>1774.6</ele>
        <time>2021-08-02T16:38:03Z</time>
      </trkpt>
      <trkpt lat="45.76203" lon="6.56718">
        <ele>1774.4</ele>
        <time>2021-08-02T16:38:04Z</time>
      </trkpt>
      <trkpt lat="45.76193" lon="6.56704">
        <ele>1774</ele>
        <time>2021-08-02T16:38:06Z</time>
      </trkpt>
      <trkpt lat="45.7618" lon="6.56692">
        <ele>1773.8</ele>
        <time>2021-08-02T16:38:08Z</time>
      </trkpt>
      <trkpt lat="45.76157" lon="6.56667">
        <ele>1773.8</ele>
        <time>2021-08-02T16:38:12Z</time>
      </trkpt>
      <trkpt lat="45.76152" lon="6.56659">
        <ele>1773.8</ele>
        <time>2021-08-02T16:38:13Z</time>
      </trkpt>
      <trkpt lat="45.76139" lon="6.56631">
        <ele>1773.6</ele>
        <time>2021-08-02T16:38:16Z</time>
      </trkpt>
      <trkpt lat="45.76133" lon="6.56612">
        <ele>1773.6</ele>
        <time>2021-08-02T16:38:18Z</time>
      </trkpt>
      <trkpt lat="45.76126" lon="6.56594">
        <ele>1773.6</ele>
        <time>2021-08-02T16:38:20Z</time>
      </trkpt>
      <trkpt lat="45.76114" lon="6.56571">
        <ele>1773.6</ele>
        <time>2021-08-02T16:38:23Z</time>
      </trkpt>
      <trkpt lat="45.76103" lon="6.5655">
        <ele>1773.6</ele>
        <time>2021-08-02T16:38:26Z</time>
      </trkpt>
      <trkpt lat="45.76094" lon="6.56538">
        <ele>1773.6</ele>
        <time>2021-08-02T16:38:28Z</time>
      </trkpt>
      <trkpt lat="45.76084" lon="6.5653">
        <ele>1773.6</ele>
        <time>2021-08-02T16:38:30Z</time>
      </trkpt>
      <trkpt lat="45.76068" lon="6.56517">
        <ele>1773.6</ele>
        <time>2021-08-02T16:38:33Z</time>
      </trkpt>
      <trkpt lat="45.76043" lon="6.56497">
        <ele>1774</ele>
        <time>2021-08-02T16:38:38Z</time>
      </trkpt>
      <trkpt lat="45.76039" lon="6.56492">
        <ele>1774.4</ele>
        <time>2021-08-02T16:38:39Z</time>
      </trkpt>
      <trkpt lat="45.76028" lon="6.56464">
        <ele>1774.8</ele>
        <time>2021-08-02T16:38:43Z</time>
      </trkpt>
      <trkpt lat="45.76021" lon="6.56452">
        <ele>1775</ele>
        <time>2021-08-02T16:38:45Z</time>
      </trkpt>
      <trkpt lat="45.76015" lon="6.56437">
        <ele>1775.2</ele>
        <time>2021-08-02T16:38:47Z</time>
      </trkpt>
      <trkpt lat="45.76009" lon="6.56423">
        <ele>1775.4</ele>
        <time>2021-08-02T16:38:49Z</time>
      </trkpt>
      <trkpt lat="45.76002" lon="6.56401">
        <ele>1775.4</ele>
        <time>2021-08-02T16:38:52Z</time>
      </trkpt>
      <trkpt lat="45.75996" lon="6.56378">
        <ele>1775.4</ele>
        <time>2021-08-02T16:38:55Z</time>
      </trkpt>
      <trkpt lat="45.75989" lon="6.56324">
        <ele>1775.4</ele>
        <time>2021-08-02T16:39:02Z</time>
      </trkpt>
      <trkpt lat="45.75986" lon="6.56286">
        <ele>1775.4</ele>
        <time>2021-08-02T16:39:07Z</time>
      </trkpt>
      <trkpt lat="45.75983" lon="6.56271">
        <ele>1775.4</ele>
        <time>2021-08-02T16:39:09Z</time>
      </trkpt>
      <trkpt lat="45.75981" lon="6.56265">
        <ele>1775.2</ele>
        <time>2021-08-02T16:39:10Z</time>
      </trkpt>
      <trkpt lat="45.75968" lon="6.56222">
        <ele>1774.6</ele>
        <time>2021-08-02T16:39:16Z</time>
      </trkpt>
      <trkpt lat="45.75961" lon="6.562">
        <ele>1774.2</ele>
        <time>2021-08-02T16:39:19Z</time>
      </trkpt>
      <trkpt lat="45.7596" lon="6.56192">
        <ele>1774.2</ele>
        <time>2021-08-02T16:39:20Z</time>
      </trkpt>
      <trkpt lat="45.75955" lon="6.56168">
        <ele>1774</ele>
        <time>2021-08-02T16:39:23Z</time>
      </trkpt>
      <trkpt lat="45.7595" lon="6.56111">
        <ele>1773.4</ele>
        <time>2021-08-02T16:39:30Z</time>
      </trkpt>
      <trkpt lat="45.7595" lon="6.56103">
        <ele>1773.2</ele>
        <time>2021-08-02T16:39:31Z</time>
      </trkpt>
      <trkpt lat="45.75944" lon="6.56071">
        <ele>1772.6</ele>
        <time>2021-08-02T16:39:35Z</time>
      </trkpt>
      <trkpt lat="45.75936" lon="6.5604">
        <ele>1772.4</ele>
        <time>2021-08-02T16:39:40Z</time>
      </trkpt>
      <trkpt lat="45.75923" lon="6.56002">
        <ele>1774</ele>
        <time>2021-08-02T16:39:48Z</time>
      </trkpt>
      <trkpt lat="45.75921" lon="6.55998">
        <ele>1774.4</ele>
        <time>2021-08-02T16:39:49Z</time>
      </trkpt>
      <trkpt lat="45.75917" lon="6.55986">
        <ele>1775.8</ele>
        <time>2021-08-02T16:39:52Z</time>
      </trkpt>
      <trkpt lat="45.75913" lon="6.55969">
        <ele>1776.6</ele>
        <time>2021-08-02T16:39:56Z</time>
      </trkpt>
      <trkpt lat="45.75911" lon="6.5596">
        <ele>1777</ele>
        <time>2021-08-02T16:39:58Z</time>
      </trkpt>
      <trkpt lat="45.75908" lon="6.55939">
        <ele>1777.6</ele>
        <time>2021-08-02T16:40:03Z</time>
      </trkpt>
      <trkpt lat="45.75908" lon="6.5593">
        <ele>1778</ele>
        <time>2021-08-02T16:40:05Z</time>
      </trkpt>
      <trkpt lat="45.75912" lon="6.55911">
        <ele>1778.6</ele>
        <time>2021-08-02T16:40:09Z</time>
      </trkpt>
      <trkpt lat="45.75915" lon="6.55898">
        <ele>1779</ele>
        <time>2021-08-02T16:40:12Z</time>
      </trkpt>
      <trkpt lat="45.7592" lon="6.5587">
        <ele>1779.4</ele>
        <time>2021-08-02T16:40:18Z</time>
      </trkpt>
      <trkpt lat="45.75924" lon="6.55855">
        <ele>1779.8</ele>
        <time>2021-08-02T16:40:21Z</time>
      </trkpt>
      <trkpt lat="45.75932" lon="6.55837">
        <ele>1780.2</ele>
        <time>2021-08-02T16:40:25Z</time>
      </trkpt>
      <trkpt lat="45.7595" lon="6.558">
        <ele>1780.6</ele>
        <time>2021-08-02T16:40:33Z</time>
      </trkpt>
      <trkpt lat="45.75954" lon="6.55791">
        <ele>1781</ele>
        <time>2021-08-02T16:40:35Z</time>
      </trkpt>
      <trkpt lat="45.75968" lon="6.55765">
        <ele>1781.4</ele>
        <time>2021-08-02T16:40:40Z</time>
      </trkpt>
      <trkpt lat="45.75996" lon="6.55725">
        <ele>1781.2</ele>
        <time>2021-08-02T16:40:48Z</time>
      </trkpt>
      <trkpt lat="45.76006" lon="6.5571">
        <ele>1781</ele>
        <time>2021-08-02T16:40:51Z</time>
      </trkpt>
      <trkpt lat="45.7601" lon="6.55698">
        <ele>1781</ele>
        <time>2021-08-02T16:40:53Z</time>
      </trkpt>
      <trkpt lat="45.76011" lon="6.55677">
        <ele>1780.8</ele>
        <time>2021-08-02T16:40:56Z</time>
      </trkpt>
      <trkpt lat="45.76011" lon="6.55661">
        <ele>1780.8</ele>
        <time>2021-08-02T16:40:58Z</time>
      </trkpt>
      <trkpt lat="45.76008" lon="6.55603">
        <ele>1780.4</ele>
        <time>2021-08-02T16:41:05Z</time>
      </trkpt>
      <trkpt lat="45.76007" lon="6.55594">
        <ele>1780.4</ele>
        <time>2021-08-02T16:41:06Z</time>
      </trkpt>
      <trkpt lat="45.76004" lon="6.55577">
        <ele>1779.8</ele>
        <time>2021-08-02T16:41:08Z</time>
      </trkpt>
      <trkpt lat="45.76003" lon="6.55568">
        <ele>1779.6</ele>
        <time>2021-08-02T16:41:09Z</time>
      </trkpt>
      <trkpt lat="45.76003" lon="6.55551">
        <ele>1779.2</ele>
        <time>2021-08-02T16:41:11Z</time>
      </trkpt>
      <trkpt lat="45.76004" lon="6.55517">
        <ele>1778.6</ele>
        <time>2021-08-02T16:41:15Z</time>
      </trkpt>
      <trkpt lat="45.76004" lon="6.55485">
        <ele>1778.2</ele>
        <time>2021-08-02T16:41:19Z</time>
      </trkpt>
      <trkpt lat="45.76005" lon="6.55477">
        <ele>1778.2</ele>
        <time>2021-08-02T16:41:20Z</time>
      </trkpt>
      <trkpt lat="45.76013" lon="6.55464">
        <ele>1777.8</ele>
        <time>2021-08-02T16:41:22Z</time>
      </trkpt>
      <trkpt lat="45.76037" lon="6.55444">
        <ele>1777.8</ele>
        <time>2021-08-02T16:41:27Z</time>
      </trkpt>
      <trkpt lat="45.76044" lon="6.55426">
        <ele>1777.8</ele>
        <time>2021-08-02T16:41:30Z</time>
      </trkpt>
      <trkpt lat="45.76043" lon="6.55405">
        <ele>1778</ele>
        <time>2021-08-02T16:41:33Z</time>
      </trkpt>
      <trkpt lat="45.76041" lon="6.55391">
        <ele>1778.4</ele>
        <time>2021-08-02T16:41:35Z</time>
      </trkpt>
      <trkpt lat="45.76039" lon="6.55362">
        <ele>1778.8</ele>
        <time>2021-08-02T16:41:39Z</time>
      </trkpt>
      <trkpt lat="45.7604" lon="6.55355">
        <ele>1778.8</ele>
        <time>2021-08-02T16:41:40Z</time>
      </trkpt>
      <trkpt lat="45.76048" lon="6.55316">
        <ele>1779</ele>
        <time>2021-08-02T16:41:46Z</time>
      </trkpt>
      <trkpt lat="45.7605" lon="6.55311">
        <ele>1779</ele>
        <time>2021-08-02T16:41:47Z</time>
      </trkpt>
      <trkpt lat="45.76058" lon="6.55283">
        <ele>1779.8</ele>
        <time>2021-08-02T16:41:52Z</time>
      </trkpt>
      <trkpt lat="45.76059" lon="6.55277">
        <ele>1780</ele>
        <time>2021-08-02T16:41:53Z</time>
      </trkpt>
      <trkpt lat="45.76059" lon="6.55271">
        <ele>1780.2</ele>
        <time>2021-08-02T16:41:54Z</time>
      </trkpt>
      <trkpt lat="45.7606" lon="6.55239">
        <ele>1780.8</ele>
        <time>2021-08-02T16:42:00Z</time>
      </trkpt>
      <trkpt lat="45.76057" lon="6.5523">
        <ele>1780.8</ele>
        <time>2021-08-02T16:42:02Z</time>
      </trkpt>
      <trkpt lat="45.76055" lon="6.55229">
        <ele>1781.2</ele>
        <time>2021-08-02T16:42:03Z</time>
      </trkpt>
      <trkpt lat="45.76042" lon="6.55221">
        <ele>1781.6</ele>
        <time>2021-08-02T16:42:07Z</time>
      </trkpt>
      <trkpt lat="45.76015" lon="6.55193">
        <ele>1781.4</ele>
        <time>2021-08-02T16:42:14Z</time>
      </trkpt>
      <trkpt lat="45.76011" lon="6.55186">
        <ele>1781.4</ele>
        <time>2021-08-02T16:42:15Z</time>
      </trkpt>
      <trkpt lat="45.76005" lon="6.55171">
        <ele>1780.8</ele>
        <time>2021-08-02T16:42:17Z</time>
      </trkpt>
      <trkpt lat="45.75999" lon="6.55151">
        <ele>1780.2</ele>
        <time>2021-08-02T16:42:20Z</time>
      </trkpt>
      <trkpt lat="45.75998" lon="6.55137">
        <ele>1779.4</ele>
        <time>2021-08-02T16:42:22Z</time>
      </trkpt>
      <trkpt lat="45.75997" lon="6.55124">
        <ele>1777.8</ele>
        <time>2021-08-02T16:42:24Z</time>
      </trkpt>
      <trkpt lat="45.75997" lon="6.55114">
        <ele>1776.6</ele>
        <time>2021-08-02T16:42:26Z</time>
      </trkpt>
      <trkpt lat="45.75997" lon="6.5511">
        <ele>1776</ele>
        <time>2021-08-02T16:42:27Z</time>
      </trkpt>
      <trkpt lat="45.75997" lon="6.55101">
        <ele>1775.2</ele>
        <time>2021-08-02T16:42:29Z</time>
      </trkpt>
      <trkpt lat="45.75998" lon="6.55087">
        <ele>1774</ele>
        <time>2021-08-02T16:42:32Z</time>
      </trkpt>
      <trkpt lat="45.75997" lon="6.55081">
        <ele>1774</ele>
        <time>2021-08-02T16:42:33Z</time>
      </trkpt>
      <trkpt lat="45.75997" lon="6.55041">
        <ele>1773.2</ele>
        <time>2021-08-02T16:42:38Z</time>
      </trkpt>
      <trkpt lat="45.75997" lon="6.55034">
        <ele>1773</ele>
        <time>2021-08-02T16:42:39Z</time>
      </trkpt>
      <trkpt lat="45.75997" lon="6.55027">
        <ele>1772.4</ele>
        <time>2021-08-02T16:42:41Z</time>
      </trkpt>
      <trkpt lat="45.75998" lon="6.55025">
        <ele>1772</ele>
        <time>2021-08-02T16:42:42Z</time>
      </trkpt>
      <trkpt lat="45.75997" lon="6.55019">
        <ele>1770.2</ele>
        <time>2021-08-02T16:42:44Z</time>
      </trkpt>
      <trkpt lat="45.75995" lon="6.55012">
        <ele>1768.8</ele>
        <time>2021-08-02T16:42:46Z</time>
      </trkpt>
      <trkpt lat="45.75984" lon="6.54996">
        <ele>1767.8</ele>
        <time>2021-08-02T16:42:50Z</time>
      </trkpt>
      <trkpt lat="45.75982" lon="6.54992">
        <ele>1767.8</ele>
        <time>2021-08-02T16:42:51Z</time>
      </trkpt>
      <trkpt lat="45.75983" lon="6.54972">
        <ele>1767.4</ele>
        <time>2021-08-02T16:42:54Z</time>
      </trkpt>
      <trkpt lat="45.7598" lon="6.5495">
        <ele>1766.6</ele>
        <time>2021-08-02T16:42:57Z</time>
      </trkpt>
      <trkpt lat="45.75979" lon="6.54934">
        <ele>1765</ele>
        <time>2021-08-02T16:43:00Z</time>
      </trkpt>
      <trkpt lat="45.75979" lon="6.54928">
        <ele>1764.4</ele>
        <time>2021-08-02T16:43:01Z</time>
      </trkpt>
      <trkpt lat="45.75978" lon="6.54922">
        <ele>1764</ele>
        <time>2021-08-02T16:43:02Z</time>
      </trkpt>
      <trkpt lat="45.75977" lon="6.54908">
        <ele>1762.8</ele>
        <time>2021-08-02T16:43:04Z</time>
      </trkpt>
      <trkpt lat="45.75978" lon="6.54901">
        <ele>1762.2</ele>
        <time>2021-08-02T16:43:05Z</time>
      </trkpt>
      <trkpt lat="45.75978" lon="6.54893">
        <ele>1761.6</ele>
        <time>2021-08-02T16:43:06Z</time>
      </trkpt>
      <trkpt lat="45.75975" lon="6.54879">
        <ele>1760.2</ele>
        <time>2021-08-02T16:43:08Z</time>
      </trkpt>
      <trkpt lat="45.75972" lon="6.54871">
        <ele>1759.4</ele>
        <time>2021-08-02T16:43:09Z</time>
      </trkpt>
      <trkpt lat="45.75969" lon="6.54863">
        <ele>1758.6</ele>
        <time>2021-08-02T16:43:10Z</time>
      </trkpt>
      <trkpt lat="45.75962" lon="6.54842">
        <ele>1756.8</ele>
        <time>2021-08-02T16:43:12Z</time>
      </trkpt>
      <trkpt lat="45.75959" lon="6.54832">
        <ele>1755.2</ele>
        <time>2021-08-02T16:43:13Z</time>
      </trkpt>
      <trkpt lat="45.75955" lon="6.54822">
        <ele>1754.8</ele>
        <time>2021-08-02T16:43:14Z</time>
      </trkpt>
      <trkpt lat="45.75953" lon="6.54813">
        <ele>1754.2</ele>
        <time>2021-08-02T16:43:15Z</time>
      </trkpt>
      <trkpt lat="45.7595" lon="6.54803">
        <ele>1753.8</ele>
        <time>2021-08-02T16:43:16Z</time>
      </trkpt>
      <trkpt lat="45.75945" lon="6.54786">
        <ele>1752.8</ele>
        <time>2021-08-02T16:43:18Z</time>
      </trkpt>
      <trkpt lat="45.7594" lon="6.54771">
        <ele>1751.2</ele>
        <time>2021-08-02T16:43:20Z</time>
      </trkpt>
      <trkpt lat="45.75934" lon="6.54757">
        <ele>1750.2</ele>
        <time>2021-08-02T16:43:22Z</time>
      </trkpt>
      <trkpt lat="45.75931" lon="6.54752">
        <ele>1749.4</ele>
        <time>2021-08-02T16:43:23Z</time>
      </trkpt>
      <trkpt lat="45.75928" lon="6.54746">
        <ele>1748.6</ele>
        <time>2021-08-02T16:43:24Z</time>
      </trkpt>
      <trkpt lat="45.75924" lon="6.54732">
        <ele>1747.4</ele>
        <time>2021-08-02T16:43:26Z</time>
      </trkpt>
      <trkpt lat="45.75922" lon="6.54724">
        <ele>1747</ele>
        <time>2021-08-02T16:43:27Z</time>
      </trkpt>
      <trkpt lat="45.75921" lon="6.54717">
        <ele>1746.6</ele>
        <time>2021-08-02T16:43:28Z</time>
      </trkpt>
      <trkpt lat="45.75922" lon="6.54703">
        <ele>1746.2</ele>
        <time>2021-08-02T16:43:30Z</time>
      </trkpt>
      <trkpt lat="45.75929" lon="6.54685">
        <ele>1744.8</ele>
        <time>2021-08-02T16:43:33Z</time>
      </trkpt>
      <trkpt lat="45.75932" lon="6.54679">
        <ele>1744.4</ele>
        <time>2021-08-02T16:43:34Z</time>
      </trkpt>
      <trkpt lat="45.75937" lon="6.54664">
        <ele>1743.8</ele>
        <time>2021-08-02T16:43:36Z</time>
      </trkpt>
      <trkpt lat="45.75942" lon="6.5465">
        <ele>1743.2</ele>
        <time>2021-08-02T16:43:38Z</time>
      </trkpt>
      <trkpt lat="45.75945" lon="6.54644">
        <ele>1742.8</ele>
        <time>2021-08-02T16:43:39Z</time>
      </trkpt>
      <trkpt lat="45.75948" lon="6.54639">
        <ele>1742.4</ele>
        <time>2021-08-02T16:43:40Z</time>
      </trkpt>
      <trkpt lat="45.75952" lon="6.54629">
        <ele>1741</ele>
        <time>2021-08-02T16:43:42Z</time>
      </trkpt>
      <trkpt lat="45.75954" lon="6.54625">
        <ele>1740.4</ele>
        <time>2021-08-02T16:43:43Z</time>
      </trkpt>
      <trkpt lat="45.75955" lon="6.54621">
        <ele>1739.4</ele>
        <time>2021-08-02T16:43:44Z</time>
      </trkpt>
      <trkpt lat="45.75958" lon="6.54614">
        <ele>1738</ele>
        <time>2021-08-02T16:43:46Z</time>
      </trkpt>
      <trkpt lat="45.7596" lon="6.54609">
        <ele>1737.6</ele>
        <time>2021-08-02T16:43:47Z</time>
      </trkpt>
      <trkpt lat="45.75962" lon="6.54602">
        <ele>1737.4</ele>
        <time>2021-08-02T16:43:48Z</time>
      </trkpt>
      <trkpt lat="45.75966" lon="6.5459">
        <ele>1737</ele>
        <time>2021-08-02T16:43:50Z</time>
      </trkpt>
      <trkpt lat="45.75968" lon="6.54585">
        <ele>1737</ele>
        <time>2021-08-02T16:43:51Z</time>
      </trkpt>
      <trkpt lat="45.75969" lon="6.54578">
        <ele>1736.8</ele>
        <time>2021-08-02T16:43:52Z</time>
      </trkpt>
      <trkpt lat="45.75973" lon="6.54557">
        <ele>1736.6</ele>
        <time>2021-08-02T16:43:55Z</time>
      </trkpt>
      <trkpt lat="45.75974" lon="6.54549">
        <ele>1736.4</ele>
        <time>2021-08-02T16:43:56Z</time>
      </trkpt>
      <trkpt lat="45.75973" lon="6.54536">
        <ele>1736.4</ele>
        <time>2021-08-02T16:43:58Z</time>
      </trkpt>
      <trkpt lat="45.75971" lon="6.54529">
        <ele>1736.4</ele>
        <time>2021-08-02T16:43:59Z</time>
      </trkpt>
      <trkpt lat="45.75969" lon="6.54521">
        <ele>1736.4</ele>
        <time>2021-08-02T16:44:00Z</time>
      </trkpt>
      <trkpt lat="45.75968" lon="6.54504">
        <ele>1735.8</ele>
        <time>2021-08-02T16:44:02Z</time>
      </trkpt>
      <trkpt lat="45.75967" lon="6.54497">
        <ele>1735.2</ele>
        <time>2021-08-02T16:44:03Z</time>
      </trkpt>
      <trkpt lat="45.75966" lon="6.54489">
        <ele>1734.6</ele>
        <time>2021-08-02T16:44:04Z</time>
      </trkpt>
      <trkpt lat="45.75964" lon="6.5447">
        <ele>1733.8</ele>
        <time>2021-08-02T16:44:06Z</time>
      </trkpt>
      <trkpt lat="45.75963" lon="6.5446">
        <ele>1733.2</ele>
        <time>2021-08-02T16:44:07Z</time>
      </trkpt>
      <trkpt lat="45.75962" lon="6.54442">
        <ele>1731.4</ele>
        <time>2021-08-02T16:44:09Z</time>
      </trkpt>
      <trkpt lat="45.75961" lon="6.54435">
        <ele>1730</ele>
        <time>2021-08-02T16:44:10Z</time>
      </trkpt>
      <trkpt lat="45.7596" lon="6.54423">
        <ele>1728.4</ele>
        <time>2021-08-02T16:44:12Z</time>
      </trkpt>
      <trkpt lat="45.75959" lon="6.54416">
        <ele>1727.6</ele>
        <time>2021-08-02T16:44:13Z</time>
      </trkpt>
      <trkpt lat="45.75959" lon="6.5441">
        <ele>1726.8</ele>
        <time>2021-08-02T16:44:14Z</time>
      </trkpt>
      <trkpt lat="45.7596" lon="6.54404">
        <ele>1725.8</ele>
        <time>2021-08-02T16:44:15Z</time>
      </trkpt>
      <trkpt lat="45.7596" lon="6.54397">
        <ele>1725.2</ele>
        <time>2021-08-02T16:44:16Z</time>
      </trkpt>
      <trkpt lat="45.75961" lon="6.54383">
        <ele>1724</ele>
        <time>2021-08-02T16:44:18Z</time>
      </trkpt>
      <trkpt lat="45.7596" lon="6.54368">
        <ele>1722.6</ele>
        <time>2021-08-02T16:44:20Z</time>
      </trkpt>
      <trkpt lat="45.7596" lon="6.5436">
        <ele>1721.8</ele>
        <time>2021-08-02T16:44:21Z</time>
      </trkpt>
      <trkpt lat="45.75959" lon="6.54353">
        <ele>1721.4</ele>
        <time>2021-08-02T16:44:22Z</time>
      </trkpt>
      <trkpt lat="45.75959" lon="6.54336">
        <ele>1720.2</ele>
        <time>2021-08-02T16:44:24Z</time>
      </trkpt>
      <trkpt lat="45.75959" lon="6.54322">
        <ele>1719.2</ele>
        <time>2021-08-02T16:44:26Z</time>
      </trkpt>
      <trkpt lat="45.75958" lon="6.54315">
        <ele>1718.8</ele>
        <time>2021-08-02T16:44:27Z</time>
      </trkpt>
      <trkpt lat="45.75959" lon="6.54302">
        <ele>1718.4</ele>
        <time>2021-08-02T16:44:29Z</time>
      </trkpt>
      <trkpt lat="45.7596" lon="6.54295">
        <ele>1718</ele>
        <time>2021-08-02T16:44:30Z</time>
      </trkpt>
      <trkpt lat="45.7596" lon="6.5429">
        <ele>1717.4</ele>
        <time>2021-08-02T16:44:31Z</time>
      </trkpt>
      <trkpt lat="45.7596" lon="6.54276">
        <ele>1716.6</ele>
        <time>2021-08-02T16:44:33Z</time>
      </trkpt>
      <trkpt lat="45.7596" lon="6.54268">
        <ele>1716.2</ele>
        <time>2021-08-02T16:44:34Z</time>
      </trkpt>
      <trkpt lat="45.75959" lon="6.54241">
        <ele>1715</ele>
        <time>2021-08-02T16:44:37Z</time>
      </trkpt>
      <trkpt lat="45.75958" lon="6.54211">
        <ele>1713.8</ele>
        <time>2021-08-02T16:44:40Z</time>
      </trkpt>
      <trkpt lat="45.75959" lon="6.54202">
        <ele>1713.2</ele>
        <time>2021-08-02T16:44:41Z</time>
      </trkpt>
      <trkpt lat="45.7596" lon="6.54193">
        <ele>1712.6</ele>
        <time>2021-08-02T16:44:42Z</time>
      </trkpt>
      <trkpt lat="45.75963" lon="6.54176">
        <ele>1711.6</ele>
        <time>2021-08-02T16:44:44Z</time>
      </trkpt>
      <trkpt lat="45.75964" lon="6.54168">
        <ele>1711.2</ele>
        <time>2021-08-02T16:44:45Z</time>
      </trkpt>
      <trkpt lat="45.75964" lon="6.54128">
        <ele>1710.2</ele>
        <time>2021-08-02T16:44:49Z</time>
      </trkpt>
      <trkpt lat="45.7596" lon="6.54106">
        <ele>1709.8</ele>
        <time>2021-08-02T16:44:52Z</time>
      </trkpt>
      <trkpt lat="45.75959" lon="6.541">
        <ele>1709.6</ele>
        <time>2021-08-02T16:44:53Z</time>
      </trkpt>
      <trkpt lat="45.75957" lon="6.54093">
        <ele>1709.2</ele>
        <time>2021-08-02T16:44:54Z</time>
      </trkpt>
      <trkpt lat="45.75952" lon="6.5408">
        <ele>1708.2</ele>
        <time>2021-08-02T16:44:56Z</time>
      </trkpt>
      <trkpt lat="45.75949" lon="6.54073">
        <ele>1707.6</ele>
        <time>2021-08-02T16:44:57Z</time>
      </trkpt>
      <trkpt lat="45.75948" lon="6.54057">
        <ele>1706.6</ele>
        <time>2021-08-02T16:44:59Z</time>
      </trkpt>
      <trkpt lat="45.75951" lon="6.54039">
        <ele>1705.8</ele>
        <time>2021-08-02T16:45:01Z</time>
      </trkpt>
      <trkpt lat="45.75953" lon="6.54031">
        <ele>1705.4</ele>
        <time>2021-08-02T16:45:02Z</time>
      </trkpt>
      <trkpt lat="45.75955" lon="6.54023">
        <ele>1704.4</ele>
        <time>2021-08-02T16:45:03Z</time>
      </trkpt>
      <trkpt lat="45.75957" lon="6.54016">
        <ele>1704</ele>
        <time>2021-08-02T16:45:04Z</time>
      </trkpt>
      <trkpt lat="45.75959" lon="6.5401">
        <ele>1703.2</ele>
        <time>2021-08-02T16:45:05Z</time>
      </trkpt>
      <trkpt lat="45.75962" lon="6.54005">
        <ele>1702.8</ele>
        <time>2021-08-02T16:45:06Z</time>
      </trkpt>
      <trkpt lat="45.75966" lon="6.53995">
        <ele>1701.8</ele>
        <time>2021-08-02T16:45:08Z</time>
      </trkpt>
      <trkpt lat="45.75967" lon="6.5399">
        <ele>1701.6</ele>
        <time>2021-08-02T16:45:09Z</time>
      </trkpt>
      <trkpt lat="45.7597" lon="6.53976">
        <ele>1701.2</ele>
        <time>2021-08-02T16:45:11Z</time>
      </trkpt>
      <trkpt lat="45.75972" lon="6.53968">
        <ele>1701</ele>
        <time>2021-08-02T16:45:12Z</time>
      </trkpt>
      <trkpt lat="45.75973" lon="6.5396">
        <ele>1700.6</ele>
        <time>2021-08-02T16:45:13Z</time>
      </trkpt>
      <trkpt lat="45.75976" lon="6.53952">
        <ele>1700.4</ele>
        <time>2021-08-02T16:45:14Z</time>
      </trkpt>
      <trkpt lat="45.75982" lon="6.53935">
        <ele>1700.2</ele>
        <time>2021-08-02T16:45:16Z</time>
      </trkpt>
      <trkpt lat="45.75988" lon="6.53921">
        <ele>1699.6</ele>
        <time>2021-08-02T16:45:18Z</time>
      </trkpt>
      <trkpt lat="45.75994" lon="6.53907">
        <ele>1699.4</ele>
        <time>2021-08-02T16:45:20Z</time>
      </trkpt>
      <trkpt lat="45.75997" lon="6.53895">
        <ele>1699.4</ele>
        <time>2021-08-02T16:45:22Z</time>
      </trkpt>
      <trkpt lat="45.75999" lon="6.53879">
        <ele>1699.2</ele>
        <time>2021-08-02T16:45:25Z</time>
      </trkpt>
      <trkpt lat="45.76009" lon="6.53859">
        <ele>1699.2</ele>
        <time>2021-08-02T16:45:30Z</time>
      </trkpt>
      <trkpt lat="45.76013" lon="6.53855">
        <ele>1699.2</ele>
        <time>2021-08-02T16:45:31Z</time>
      </trkpt>
      <trkpt lat="45.76022" lon="6.53844">
        <ele>1699.2</ele>
        <time>2021-08-02T16:45:33Z</time>
      </trkpt>
      <trkpt lat="45.76033" lon="6.53831">
        <ele>1699</ele>
        <time>2021-08-02T16:45:35Z</time>
      </trkpt>
      <trkpt lat="45.76041" lon="6.53821">
        <ele>1698.6</ele>
        <time>2021-08-02T16:45:37Z</time>
      </trkpt>
      <trkpt lat="45.7605" lon="6.53815">
        <ele>1697.4</ele>
        <time>2021-08-02T16:45:40Z</time>
      </trkpt>
      <trkpt lat="45.76053" lon="6.53812">
        <ele>1696.8</ele>
        <time>2021-08-02T16:45:41Z</time>
      </trkpt>
      <trkpt lat="45.76056" lon="6.53808">
        <ele>1695.8</ele>
        <time>2021-08-02T16:45:42Z</time>
      </trkpt>
      <trkpt lat="45.76058" lon="6.53803">
        <ele>1694.8</ele>
        <time>2021-08-02T16:45:43Z</time>
      </trkpt>
      <trkpt lat="45.76059" lon="6.53797">
        <ele>1694.2</ele>
        <time>2021-08-02T16:45:44Z</time>
      </trkpt>
      <trkpt lat="45.76058" lon="6.53791">
        <ele>1693.6</ele>
        <time>2021-08-02T16:45:45Z</time>
      </trkpt>
      <trkpt lat="45.76054" lon="6.53776">
        <ele>1693</ele>
        <time>2021-08-02T16:45:47Z</time>
      </trkpt>
      <trkpt lat="45.76053" lon="6.53767">
        <ele>1692.8</ele>
        <time>2021-08-02T16:45:48Z</time>
      </trkpt>
      <trkpt lat="45.7605" lon="6.5376">
        <ele>1692.8</ele>
        <time>2021-08-02T16:45:49Z</time>
      </trkpt>
      <trkpt lat="45.76047" lon="6.53744">
        <ele>1692.2</ele>
        <time>2021-08-02T16:45:51Z</time>
      </trkpt>
      <trkpt lat="45.76045" lon="6.53735">
        <ele>1691.6</ele>
        <time>2021-08-02T16:45:52Z</time>
      </trkpt>
      <trkpt lat="45.76045" lon="6.53725">
        <ele>1691</ele>
        <time>2021-08-02T16:45:53Z</time>
      </trkpt>
      <trkpt lat="45.76045" lon="6.53715">
        <ele>1690.6</ele>
        <time>2021-08-02T16:45:54Z</time>
      </trkpt>
      <trkpt lat="45.76044" lon="6.53705">
        <ele>1689.8</ele>
        <time>2021-08-02T16:45:55Z</time>
      </trkpt>
      <trkpt lat="45.76042" lon="6.53686">
        <ele>1688.2</ele>
        <time>2021-08-02T16:45:57Z</time>
      </trkpt>
      <trkpt lat="45.76041" lon="6.53676">
        <ele>1687.6</ele>
        <time>2021-08-02T16:45:58Z</time>
      </trkpt>
      <trkpt lat="45.76038" lon="6.53654">
        <ele>1686.8</ele>
        <time>2021-08-02T16:46:00Z</time>
      </trkpt>
      <trkpt lat="45.76039" lon="6.53646">
        <ele>1685.2</ele>
        <time>2021-08-02T16:46:01Z</time>
      </trkpt>
      <trkpt lat="45.76042" lon="6.53639">
        <ele>1683.8</ele>
        <time>2021-08-02T16:46:02Z</time>
      </trkpt>
      <trkpt lat="45.76048" lon="6.53627">
        <ele>1682.2</ele>
        <time>2021-08-02T16:46:04Z</time>
      </trkpt>
      <trkpt lat="45.7605" lon="6.53621">
        <ele>1681.8</ele>
        <time>2021-08-02T16:46:05Z</time>
      </trkpt>
      <trkpt lat="45.76054" lon="6.53607">
        <ele>1681</ele>
        <time>2021-08-02T16:46:07Z</time>
      </trkpt>
      <trkpt lat="45.76053" lon="6.53601">
        <ele>1679.8</ele>
        <time>2021-08-02T16:46:08Z</time>
      </trkpt>
      <trkpt lat="45.76045" lon="6.53596">
        <ele>1678.6</ele>
        <time>2021-08-02T16:46:10Z</time>
      </trkpt>
      <trkpt lat="45.76036" lon="6.53602">
        <ele>1678.2</ele>
        <time>2021-08-02T16:46:12Z</time>
      </trkpt>
      <trkpt lat="45.76031" lon="6.53605">
        <ele>1677.8</ele>
        <time>2021-08-02T16:46:13Z</time>
      </trkpt>
      <trkpt lat="45.76027" lon="6.53606">
        <ele>1677.6</ele>
        <time>2021-08-02T16:46:14Z</time>
      </trkpt>
      <trkpt lat="45.76025" lon="6.53603">
        <ele>1677</ele>
        <time>2021-08-02T16:46:15Z</time>
      </trkpt>
      <trkpt lat="45.76023" lon="6.53597">
        <ele>1676.6</ele>
        <time>2021-08-02T16:46:16Z</time>
      </trkpt>
      <trkpt lat="45.76021" lon="6.53581">
        <ele>1675.8</ele>
        <time>2021-08-02T16:46:18Z</time>
      </trkpt>
      <trkpt lat="45.76022" lon="6.53572">
        <ele>1675.4</ele>
        <time>2021-08-02T16:46:19Z</time>
      </trkpt>
      <trkpt lat="45.76023" lon="6.53554">
        <ele>1674.4</ele>
        <time>2021-08-02T16:46:21Z</time>
      </trkpt>
      <trkpt lat="45.76022" lon="6.53547">
        <ele>1674</ele>
        <time>2021-08-02T16:46:22Z</time>
      </trkpt>
      <trkpt lat="45.76016" lon="6.5354">
        <ele>1672.8</ele>
        <time>2021-08-02T16:46:24Z</time>
      </trkpt>
      <trkpt lat="45.76009" lon="6.53548">
        <ele>1670.8</ele>
        <time>2021-08-02T16:46:26Z</time>
      </trkpt>
      <trkpt lat="45.76006" lon="6.53554">
        <ele>1670</ele>
        <time>2021-08-02T16:46:27Z</time>
      </trkpt>
      <trkpt lat="45.76003" lon="6.53559">
        <ele>1668.8</ele>
        <time>2021-08-02T16:46:28Z</time>
      </trkpt>
      <trkpt lat="45.75999" lon="6.53564">
        <ele>1667.8</ele>
        <time>2021-08-02T16:46:29Z</time>
      </trkpt>
      <trkpt lat="45.75994" lon="6.53568">
        <ele>1667.2</ele>
        <time>2021-08-02T16:46:30Z</time>
      </trkpt>
      <trkpt lat="45.75989" lon="6.53569">
        <ele>1666.4</ele>
        <time>2021-08-02T16:46:31Z</time>
      </trkpt>
      <trkpt lat="45.75978" lon="6.5357">
        <ele>1665.2</ele>
        <time>2021-08-02T16:46:33Z</time>
      </trkpt>
      <trkpt lat="45.75973" lon="6.53568">
        <ele>1664.6</ele>
        <time>2021-08-02T16:46:34Z</time>
      </trkpt>
      <trkpt lat="45.75969" lon="6.53565">
        <ele>1664</ele>
        <time>2021-08-02T16:46:35Z</time>
      </trkpt>
      <trkpt lat="45.75967" lon="6.53561">
        <ele>1663.6</ele>
        <time>2021-08-02T16:46:36Z</time>
      </trkpt>
      <trkpt lat="45.75961" lon="6.53555">
        <ele>1663</ele>
        <time>2021-08-02T16:46:39Z</time>
      </trkpt>
      <trkpt lat="45.7596" lon="6.53553">
        <ele>1662.8</ele>
        <time>2021-08-02T16:46:40Z</time>
      </trkpt>
      <trkpt lat="45.75957" lon="6.53552">
        <ele>1661.8</ele>
        <time>2021-08-02T16:46:44Z</time>
      </trkpt>
      <trkpt lat="45.75957" lon="6.53551">
        <ele>1661.8</ele>
        <time>2021-08-02T16:46:45Z</time>
      </trkpt>
      <trkpt lat="45.75956" lon="6.53553">
        <ele>1661.6</ele>
        <time>2021-08-02T16:46:48Z</time>
      </trkpt>
      <trkpt lat="45.75953" lon="6.53558">
        <ele>1661.6</ele>
        <time>2021-08-02T16:46:50Z</time>
      </trkpt>
      <trkpt lat="45.75949" lon="6.53563">
        <ele>1661.6</ele>
        <time>2021-08-02T16:46:52Z</time>
      </trkpt>
      <trkpt lat="45.75942" lon="6.53566">
        <ele>1661.6</ele>
        <time>2021-08-02T16:46:54Z</time>
      </trkpt>
      <trkpt lat="45.75928" lon="6.53567">
        <ele>1661.4</ele>
        <time>2021-08-02T16:46:58Z</time>
      </trkpt>
      <trkpt lat="45.75921" lon="6.53576">
        <ele>1660.8</ele>
        <time>2021-08-02T16:47:01Z</time>
      </trkpt>
      <trkpt lat="45.75918" lon="6.53581">
        <ele>1660.6</ele>
        <time>2021-08-02T16:47:02Z</time>
      </trkpt>
      <trkpt lat="45.75912" lon="6.53589">
        <ele>1660.4</ele>
        <time>2021-08-02T16:47:04Z</time>
      </trkpt>
      <trkpt lat="45.75903" lon="6.53608">
        <ele>1660</ele>
        <time>2021-08-02T16:47:07Z</time>
      </trkpt>
      <trkpt lat="45.75896" lon="6.53619">
        <ele>1659.6</ele>
        <time>2021-08-02T16:47:10Z</time>
      </trkpt>
      <trkpt lat="45.75897" lon="6.53608">
        <ele>1659.2</ele>
        <time>2021-08-02T16:47:12Z</time>
      </trkpt>
      <trkpt lat="45.75899" lon="6.53602">
        <ele>1659.2</ele>
        <time>2021-08-02T16:47:13Z</time>
      </trkpt>
      <trkpt lat="45.75901" lon="6.53595">
        <ele>1658.8</ele>
        <time>2021-08-02T16:47:14Z</time>
      </trkpt>
      <trkpt lat="45.75902" lon="6.53587">
        <ele>1658.2</ele>
        <time>2021-08-02T16:47:15Z</time>
      </trkpt>
      <trkpt lat="45.75902" lon="6.5357">
        <ele>1657.6</ele>
        <time>2021-08-02T16:47:17Z</time>
      </trkpt>
      <trkpt lat="45.75897" lon="6.53556">
        <ele>1657.4</ele>
        <time>2021-08-02T16:47:19Z</time>
      </trkpt>
      <trkpt lat="45.75892" lon="6.53548">
        <ele>1656.4</ele>
        <time>2021-08-02T16:47:21Z</time>
      </trkpt>
      <trkpt lat="45.75886" lon="6.53548">
        <ele>1654.8</ele>
        <time>2021-08-02T16:47:23Z</time>
      </trkpt>
      <trkpt lat="45.75882" lon="6.53551">
        <ele>1654</ele>
        <time>2021-08-02T16:47:24Z</time>
      </trkpt>
      <trkpt lat="45.75878" lon="6.53555">
        <ele>1653.6</ele>
        <time>2021-08-02T16:47:25Z</time>
      </trkpt>
      <trkpt lat="45.75861" lon="6.53574">
        <ele>1652.8</ele>
        <time>2021-08-02T16:47:29Z</time>
      </trkpt>
      <trkpt lat="45.75841" lon="6.53602">
        <ele>1652.8</ele>
        <time>2021-08-02T16:47:33Z</time>
      </trkpt>
      <trkpt lat="45.75837" lon="6.53611">
        <ele>1652.4</ele>
        <time>2021-08-02T16:47:34Z</time>
      </trkpt>
      <trkpt lat="45.75825" lon="6.53642">
        <ele>1652.2</ele>
        <time>2021-08-02T16:47:37Z</time>
      </trkpt>
      <trkpt lat="45.75816" lon="6.53664">
        <ele>1651.8</ele>
        <time>2021-08-02T16:47:39Z</time>
      </trkpt>
      <trkpt lat="45.75811" lon="6.53676">
        <ele>1651.4</ele>
        <time>2021-08-02T16:47:40Z</time>
      </trkpt>
      <trkpt lat="45.75802" lon="6.53699">
        <ele>1650.4</ele>
        <time>2021-08-02T16:47:42Z</time>
      </trkpt>
      <trkpt lat="45.75799" lon="6.53712">
        <ele>1650</ele>
        <time>2021-08-02T16:47:43Z</time>
      </trkpt>
      <trkpt lat="45.75797" lon="6.53725">
        <ele>1649.2</ele>
        <time>2021-08-02T16:47:44Z</time>
      </trkpt>
      <trkpt lat="45.75795" lon="6.53737">
        <ele>1648.2</ele>
        <time>2021-08-02T16:47:45Z</time>
      </trkpt>
      <trkpt lat="45.75792" lon="6.53748">
        <ele>1647.6</ele>
        <time>2021-08-02T16:47:46Z</time>
      </trkpt>
      <trkpt lat="45.75789" lon="6.53757">
        <ele>1647</ele>
        <time>2021-08-02T16:47:47Z</time>
      </trkpt>
      <trkpt lat="45.75785" lon="6.53766">
        <ele>1646.6</ele>
        <time>2021-08-02T16:47:48Z</time>
      </trkpt>
      <trkpt lat="45.75782" lon="6.53775">
        <ele>1645.6</ele>
        <time>2021-08-02T16:47:49Z</time>
      </trkpt>
      <trkpt lat="45.75778" lon="6.53784">
        <ele>1644.8</ele>
        <time>2021-08-02T16:47:50Z</time>
      </trkpt>
      <trkpt lat="45.75775" lon="6.53793">
        <ele>1644.2</ele>
        <time>2021-08-02T16:47:51Z</time>
      </trkpt>
      <trkpt lat="45.75767" lon="6.53811">
        <ele>1643</ele>
        <time>2021-08-02T16:47:53Z</time>
      </trkpt>
      <trkpt lat="45.75752" lon="6.53851">
        <ele>1641.6</ele>
        <time>2021-08-02T16:47:57Z</time>
      </trkpt>
      <trkpt lat="45.7575" lon="6.53861">
        <ele>1641.4</ele>
        <time>2021-08-02T16:47:58Z</time>
      </trkpt>
      <trkpt lat="45.75745" lon="6.53881">
        <ele>1640.4</ele>
        <time>2021-08-02T16:48:00Z</time>
      </trkpt>
      <trkpt lat="45.7574" lon="6.53899">
        <ele>1639.4</ele>
        <time>2021-08-02T16:48:02Z</time>
      </trkpt>
      <trkpt lat="45.75737" lon="6.53908">
        <ele>1638.8</ele>
        <time>2021-08-02T16:48:03Z</time>
      </trkpt>
      <trkpt lat="45.75733" lon="6.53916">
        <ele>1638.2</ele>
        <time>2021-08-02T16:48:04Z</time>
      </trkpt>
      <trkpt lat="45.75722" lon="6.53924">
        <ele>1637.2</ele>
        <time>2021-08-02T16:48:06Z</time>
      </trkpt>
      <trkpt lat="45.75716" lon="6.53922">
        <ele>1637</ele>
        <time>2021-08-02T16:48:07Z</time>
      </trkpt>
      <trkpt lat="45.75712" lon="6.53916">
        <ele>1636.6</ele>
        <time>2021-08-02T16:48:08Z</time>
      </trkpt>
      <trkpt lat="45.75708" lon="6.539">
        <ele>1635.8</ele>
        <time>2021-08-02T16:48:10Z</time>
      </trkpt>
      <trkpt lat="45.75707" lon="6.53891">
        <ele>1635.6</ele>
        <time>2021-08-02T16:48:11Z</time>
      </trkpt>
      <trkpt lat="45.75706" lon="6.53882">
        <ele>1635.2</ele>
        <time>2021-08-02T16:48:12Z</time>
      </trkpt>
      <trkpt lat="45.75705" lon="6.53873">
        <ele>1634.6</ele>
        <time>2021-08-02T16:48:13Z</time>
      </trkpt>
      <trkpt lat="45.75698" lon="6.53846">
        <ele>1633.2</ele>
        <time>2021-08-02T16:48:16Z</time>
      </trkpt>
      <trkpt lat="45.7569" lon="6.5384">
        <ele>1632.4</ele>
        <time>2021-08-02T16:48:18Z</time>
      </trkpt>
      <trkpt lat="45.75686" lon="6.53844">
        <ele>1632</ele>
        <time>2021-08-02T16:48:19Z</time>
      </trkpt>
      <trkpt lat="45.75684" lon="6.53851">
        <ele>1631.6</ele>
        <time>2021-08-02T16:48:20Z</time>
      </trkpt>
      <trkpt lat="45.75684" lon="6.53868">
        <ele>1630.6</ele>
        <time>2021-08-02T16:48:22Z</time>
      </trkpt>
      <trkpt lat="45.75684" lon="6.53878">
        <ele>1630</ele>
        <time>2021-08-02T16:48:23Z</time>
      </trkpt>
      <trkpt lat="45.75685" lon="6.53888">
        <ele>1629.4</ele>
        <time>2021-08-02T16:48:24Z</time>
      </trkpt>
      <trkpt lat="45.75686" lon="6.53929">
        <ele>1628.4</ele>
        <time>2021-08-02T16:48:28Z</time>
      </trkpt>
      <trkpt lat="45.75684" lon="6.5394">
        <ele>1628.2</ele>
        <time>2021-08-02T16:48:29Z</time>
      </trkpt>
      <trkpt lat="45.75674" lon="6.5397">
        <ele>1626.8</ele>
        <time>2021-08-02T16:48:32Z</time>
      </trkpt>
      <trkpt lat="45.7567" lon="6.53979">
        <ele>1626.2</ele>
        <time>2021-08-02T16:48:33Z</time>
      </trkpt>
      <trkpt lat="45.75666" lon="6.53988">
        <ele>1625.6</ele>
        <time>2021-08-02T16:48:34Z</time>
      </trkpt>
      <trkpt lat="45.7565" lon="6.54028">
        <ele>1624.4</ele>
        <time>2021-08-02T16:48:38Z</time>
      </trkpt>
      <trkpt lat="45.75646" lon="6.54038">
        <ele>1624</ele>
        <time>2021-08-02T16:48:39Z</time>
      </trkpt>
      <trkpt lat="45.75643" lon="6.54048">
        <ele>1623.6</ele>
        <time>2021-08-02T16:48:40Z</time>
      </trkpt>
      <trkpt lat="45.75642" lon="6.54057">
        <ele>1623.2</ele>
        <time>2021-08-02T16:48:41Z</time>
      </trkpt>
      <trkpt lat="45.75641" lon="6.54067">
        <ele>1622.8</ele>
        <time>2021-08-02T16:48:42Z</time>
      </trkpt>
      <trkpt lat="45.75642" lon="6.54086">
        <ele>1622.4</ele>
        <time>2021-08-02T16:48:44Z</time>
      </trkpt>
      <trkpt lat="45.75641" lon="6.54111">
        <ele>1622.2</ele>
        <time>2021-08-02T16:48:47Z</time>
      </trkpt>
      <trkpt lat="45.75638" lon="6.54115">
        <ele>1622.2</ele>
        <time>2021-08-02T16:48:48Z</time>
      </trkpt>
      <trkpt lat="45.75634" lon="6.54113">
        <ele>1622</ele>
        <time>2021-08-02T16:48:49Z</time>
      </trkpt>
      <trkpt lat="45.7563" lon="6.54102">
        <ele>1622</ele>
        <time>2021-08-02T16:48:51Z</time>
      </trkpt>
      <trkpt lat="45.7563" lon="6.54096">
        <ele>1621.8</ele>
        <time>2021-08-02T16:48:52Z</time>
      </trkpt>
      <trkpt lat="45.75629" lon="6.54075">
        <ele>1621.4</ele>
        <time>2021-08-02T16:48:55Z</time>
      </trkpt>
      <trkpt lat="45.75629" lon="6.5407">
        <ele>1621.4</ele>
        <time>2021-08-02T16:48:56Z</time>
      </trkpt>
      <trkpt lat="45.75628" lon="6.54067">
        <ele>1621</ele>
        <time>2021-08-02T16:48:58Z</time>
      </trkpt>
      <trkpt lat="45.75628" lon="6.54066">
        <ele>1620.8</ele>
        <time>2021-08-02T16:48:59Z</time>
      </trkpt>
    </trkseg>
  </trk>
</gpx>